<?xml version="1.0" encoding="UTF-8" standalone="no" ?>
<gpx xmlns="http://www.topografix.com/GPX/1/1" xmlns:xsi="http://www.w3.org/2001/XMLSchema-instance" xsi:schemaLocation="http://www.topografix.com/GPX/1/1 http://www.topografix.com/GPX/1/1/gpx.xsd" version="1.1" creator="VisuGPX - https://www.visugpx.com">
  <metadata>
    <name>Randonnée des Violettes / Parcours 20km</name>
    <desc><![CDATA[Une belle randonnée, bien balisée et sous le soleil. Bravo aux organisateurs]]></desc>
  </metadata>
  <trk>
    <name><![CDATA[2016-04-10 @ 09-18-52]]></name>
    <trkseg>
      <trkpt lat="45.71935" lon="4.43362">
        <ele>673</ele>
        <time>2016-04-10T07:18:52Z</time>
      </trkpt>
      <trkpt lat="45.7194" lon="4.43361">
        <ele>674</ele>
        <time>2016-04-10T07:20:35Z</time>
      </trkpt>
      <trkpt lat="45.71938" lon="4.43353">
        <ele>672</ele>
        <time>2016-04-10T07:21:41Z</time>
      </trkpt>
      <trkpt lat="45.71936" lon="4.43347">
        <ele>667</ele>
        <time>2016-04-10T07:21:51Z</time>
      </trkpt>
      <trkpt lat="45.71937" lon="4.4334">
        <ele>671</ele>
        <time>2016-04-10T07:21:55Z</time>
      </trkpt>
      <trkpt lat="45.71938" lon="4.43334">
        <ele>672</ele>
        <time>2016-04-10T07:21:58Z</time>
      </trkpt>
      <trkpt lat="45.71939" lon="4.43326">
        <ele>673</ele>
        <time>2016-04-10T07:22:01Z</time>
      </trkpt>
      <trkpt lat="45.71939" lon="4.43318">
        <ele>673</ele>
        <time>2016-04-10T07:22:05Z</time>
      </trkpt>
      <trkpt lat="45.71939" lon="4.43311">
        <ele>674</ele>
        <time>2016-04-10T07:22:08Z</time>
      </trkpt>
      <trkpt lat="45.71938" lon="4.43304">
        <ele>675</ele>
        <time>2016-04-10T07:22:12Z</time>
      </trkpt>
      <trkpt lat="45.71937" lon="4.43295">
        <ele>674</ele>
        <time>2016-04-10T07:22:16Z</time>
      </trkpt>
      <trkpt lat="45.71934" lon="4.43287">
        <ele>675</ele>
        <time>2016-04-10T07:22:20Z</time>
      </trkpt>
      <trkpt lat="45.7193" lon="4.43282">
        <ele>676</ele>
        <time>2016-04-10T07:22:24Z</time>
      </trkpt>
      <trkpt lat="45.71929" lon="4.43276">
        <ele>676</ele>
        <time>2016-04-10T07:22:28Z</time>
      </trkpt>
      <trkpt lat="45.71928" lon="4.43269">
        <ele>675</ele>
        <time>2016-04-10T07:22:32Z</time>
      </trkpt>
      <trkpt lat="45.71928" lon="4.43262">
        <ele>674</ele>
        <time>2016-04-10T07:22:36Z</time>
      </trkpt>
      <trkpt lat="45.71927" lon="4.43256">
        <ele>675</ele>
        <time>2016-04-10T07:22:40Z</time>
      </trkpt>
      <trkpt lat="45.71925" lon="4.43248">
        <ele>675</ele>
        <time>2016-04-10T07:22:45Z</time>
      </trkpt>
      <trkpt lat="45.71925" lon="4.43241">
        <ele>675</ele>
        <time>2016-04-10T07:22:50Z</time>
      </trkpt>
      <trkpt lat="45.71926" lon="4.43234">
        <ele>675</ele>
        <time>2016-04-10T07:22:55Z</time>
      </trkpt>
      <trkpt lat="45.71927" lon="4.43226">
        <ele>675</ele>
        <time>2016-04-10T07:23:00Z</time>
      </trkpt>
      <trkpt lat="45.71927" lon="4.43219">
        <ele>674</ele>
        <time>2016-04-10T07:23:03Z</time>
      </trkpt>
      <trkpt lat="45.71929" lon="4.43212">
        <ele>672</ele>
        <time>2016-04-10T07:23:07Z</time>
      </trkpt>
      <trkpt lat="45.71928" lon="4.43205">
        <ele>672</ele>
        <time>2016-04-10T07:23:11Z</time>
      </trkpt>
      <trkpt lat="45.71929" lon="4.43199">
        <ele>672</ele>
        <time>2016-04-10T07:23:15Z</time>
      </trkpt>
      <trkpt lat="45.71929" lon="4.43192">
        <ele>673</ele>
        <time>2016-04-10T07:23:19Z</time>
      </trkpt>
      <trkpt lat="45.7193" lon="4.43184">
        <ele>672</ele>
        <time>2016-04-10T07:23:23Z</time>
      </trkpt>
      <trkpt lat="45.7193" lon="4.43177">
        <ele>672</ele>
        <time>2016-04-10T07:23:27Z</time>
      </trkpt>
      <trkpt lat="45.71931" lon="4.43169">
        <ele>672</ele>
        <time>2016-04-10T07:23:32Z</time>
      </trkpt>
      <trkpt lat="45.7193" lon="4.43162">
        <ele>672</ele>
        <time>2016-04-10T07:23:36Z</time>
      </trkpt>
      <trkpt lat="45.71928" lon="4.43155">
        <ele>672</ele>
        <time>2016-04-10T07:23:40Z</time>
      </trkpt>
      <trkpt lat="45.71926" lon="4.43147">
        <ele>673</ele>
        <time>2016-04-10T07:23:44Z</time>
      </trkpt>
      <trkpt lat="45.71926" lon="4.4314">
        <ele>673</ele>
        <time>2016-04-10T07:23:48Z</time>
      </trkpt>
      <trkpt lat="45.71922" lon="4.43136">
        <ele>672</ele>
        <time>2016-04-10T07:23:50Z</time>
      </trkpt>
      <trkpt lat="45.71918" lon="4.43132">
        <ele>673</ele>
        <time>2016-04-10T07:23:54Z</time>
      </trkpt>
      <trkpt lat="45.71914" lon="4.43126">
        <ele>672</ele>
        <time>2016-04-10T07:23:58Z</time>
      </trkpt>
      <trkpt lat="45.71908" lon="4.43123">
        <ele>673</ele>
        <time>2016-04-10T07:24:02Z</time>
      </trkpt>
      <trkpt lat="45.71903" lon="4.43123">
        <ele>672</ele>
        <time>2016-04-10T07:24:04Z</time>
      </trkpt>
      <trkpt lat="45.71898" lon="4.43126">
        <ele>672</ele>
        <time>2016-04-10T07:24:06Z</time>
      </trkpt>
      <trkpt lat="45.71902" lon="4.43118">
        <ele>670</ele>
        <time>2016-04-10T07:24:08Z</time>
      </trkpt>
      <trkpt lat="45.71897" lon="4.43116">
        <ele>670</ele>
        <time>2016-04-10T07:24:11Z</time>
      </trkpt>
      <trkpt lat="45.71893" lon="4.43121">
        <ele>672</ele>
        <time>2016-04-10T07:24:15Z</time>
      </trkpt>
      <trkpt lat="45.71888" lon="4.43118">
        <ele>675</ele>
        <time>2016-04-10T07:24:21Z</time>
      </trkpt>
      <trkpt lat="45.71884" lon="4.43112">
        <ele>674</ele>
        <time>2016-04-10T07:24:26Z</time>
      </trkpt>
      <trkpt lat="45.71883" lon="4.43105">
        <ele>672</ele>
        <time>2016-04-10T07:24:28Z</time>
      </trkpt>
      <trkpt lat="45.71877" lon="4.43101">
        <ele>674</ele>
        <time>2016-04-10T07:24:34Z</time>
      </trkpt>
      <trkpt lat="45.71872" lon="4.43099">
        <ele>675</ele>
        <time>2016-04-10T07:24:37Z</time>
      </trkpt>
      <trkpt lat="45.71865" lon="4.43095">
        <ele>673</ele>
        <time>2016-04-10T07:24:41Z</time>
      </trkpt>
      <trkpt lat="45.7186" lon="4.43091">
        <ele>675</ele>
        <time>2016-04-10T07:24:45Z</time>
      </trkpt>
      <trkpt lat="45.71855" lon="4.43089">
        <ele>674</ele>
        <time>2016-04-10T07:24:49Z</time>
      </trkpt>
      <trkpt lat="45.7185" lon="4.43086">
        <ele>673</ele>
        <time>2016-04-10T07:24:53Z</time>
      </trkpt>
      <trkpt lat="45.71844" lon="4.43086">
        <ele>674</ele>
        <time>2016-04-10T07:24:57Z</time>
      </trkpt>
      <trkpt lat="45.71838" lon="4.43088">
        <ele>675</ele>
        <time>2016-04-10T07:25:01Z</time>
      </trkpt>
      <trkpt lat="45.71831" lon="4.43089">
        <ele>675</ele>
        <time>2016-04-10T07:25:07Z</time>
      </trkpt>
      <trkpt lat="45.71826" lon="4.43083">
        <ele>675</ele>
        <time>2016-04-10T07:25:11Z</time>
      </trkpt>
      <trkpt lat="45.71822" lon="4.43085">
        <ele>679</ele>
        <time>2016-04-10T07:25:17Z</time>
      </trkpt>
      <trkpt lat="45.71815" lon="4.43089">
        <ele>678</ele>
        <time>2016-04-10T07:25:21Z</time>
      </trkpt>
      <trkpt lat="45.7181" lon="4.4309">
        <ele>676</ele>
        <time>2016-04-10T07:25:23Z</time>
      </trkpt>
      <trkpt lat="45.71806" lon="4.43084">
        <ele>675</ele>
        <time>2016-04-10T07:25:25Z</time>
      </trkpt>
      <trkpt lat="45.718" lon="4.43083">
        <ele>678</ele>
        <time>2016-04-10T07:25:30Z</time>
      </trkpt>
      <trkpt lat="45.71797" lon="4.43088">
        <ele>677</ele>
        <time>2016-04-10T07:25:32Z</time>
      </trkpt>
      <trkpt lat="45.71792" lon="4.43094">
        <ele>677</ele>
        <time>2016-04-10T07:25:34Z</time>
      </trkpt>
      <trkpt lat="45.71788" lon="4.43096">
        <ele>678</ele>
        <time>2016-04-10T07:25:37Z</time>
      </trkpt>
      <trkpt lat="45.71783" lon="4.431">
        <ele>676</ele>
        <time>2016-04-10T07:25:40Z</time>
      </trkpt>
      <trkpt lat="45.71778" lon="4.43101">
        <ele>675</ele>
        <time>2016-04-10T07:25:45Z</time>
      </trkpt>
      <trkpt lat="45.71773" lon="4.43104">
        <ele>673</ele>
        <time>2016-04-10T07:25:48Z</time>
      </trkpt>
      <trkpt lat="45.71768" lon="4.43106">
        <ele>671</ele>
        <time>2016-04-10T07:25:51Z</time>
      </trkpt>
      <trkpt lat="45.71763" lon="4.43109">
        <ele>669</ele>
        <time>2016-04-10T07:25:55Z</time>
      </trkpt>
      <trkpt lat="45.71758" lon="4.43111">
        <ele>669</ele>
        <time>2016-04-10T07:25:59Z</time>
      </trkpt>
      <trkpt lat="45.71752" lon="4.43113">
        <ele>669</ele>
        <time>2016-04-10T07:26:03Z</time>
      </trkpt>
      <trkpt lat="45.71747" lon="4.43115">
        <ele>669</ele>
        <time>2016-04-10T07:26:07Z</time>
      </trkpt>
      <trkpt lat="45.71742" lon="4.43116">
        <ele>669</ele>
        <time>2016-04-10T07:26:10Z</time>
      </trkpt>
      <trkpt lat="45.71737" lon="4.43115">
        <ele>670</ele>
        <time>2016-04-10T07:26:13Z</time>
      </trkpt>
      <trkpt lat="45.71733" lon="4.43118">
        <ele>671</ele>
        <time>2016-04-10T07:26:16Z</time>
      </trkpt>
      <trkpt lat="45.71728" lon="4.43122">
        <ele>672</ele>
        <time>2016-04-10T07:26:20Z</time>
      </trkpt>
      <trkpt lat="45.71723" lon="4.43123">
        <ele>670</ele>
        <time>2016-04-10T07:26:23Z</time>
      </trkpt>
      <trkpt lat="45.71718" lon="4.43125">
        <ele>670</ele>
        <time>2016-04-10T07:26:27Z</time>
      </trkpt>
      <trkpt lat="45.71712" lon="4.43128">
        <ele>670</ele>
        <time>2016-04-10T07:26:31Z</time>
      </trkpt>
      <trkpt lat="45.71707" lon="4.43129">
        <ele>671</ele>
        <time>2016-04-10T07:26:35Z</time>
      </trkpt>
      <trkpt lat="45.71702" lon="4.43127">
        <ele>671</ele>
        <time>2016-04-10T07:26:38Z</time>
      </trkpt>
      <trkpt lat="45.71697" lon="4.43127">
        <ele>671</ele>
        <time>2016-04-10T07:26:42Z</time>
      </trkpt>
      <trkpt lat="45.71691" lon="4.43128">
        <ele>676</ele>
        <time>2016-04-10T07:26:47Z</time>
      </trkpt>
      <trkpt lat="45.71685" lon="4.43127">
        <ele>676</ele>
        <time>2016-04-10T07:26:51Z</time>
      </trkpt>
      <trkpt lat="45.71679" lon="4.43127">
        <ele>676</ele>
        <time>2016-04-10T07:26:56Z</time>
      </trkpt>
      <trkpt lat="45.71673" lon="4.43125">
        <ele>675</ele>
        <time>2016-04-10T07:27:00Z</time>
      </trkpt>
      <trkpt lat="45.71668" lon="4.43125">
        <ele>673</ele>
        <time>2016-04-10T07:27:03Z</time>
      </trkpt>
      <trkpt lat="45.71663" lon="4.43122">
        <ele>674</ele>
        <time>2016-04-10T07:27:07Z</time>
      </trkpt>
      <trkpt lat="45.71658" lon="4.4312">
        <ele>672</ele>
        <time>2016-04-10T07:27:11Z</time>
      </trkpt>
      <trkpt lat="45.71653" lon="4.43122">
        <ele>674</ele>
        <time>2016-04-10T07:27:15Z</time>
      </trkpt>
      <trkpt lat="45.71647" lon="4.43121">
        <ele>674</ele>
        <time>2016-04-10T07:27:19Z</time>
      </trkpt>
      <trkpt lat="45.71643" lon="4.43118">
        <ele>676</ele>
        <time>2016-04-10T07:27:22Z</time>
      </trkpt>
      <trkpt lat="45.71637" lon="4.43115">
        <ele>676</ele>
        <time>2016-04-10T07:27:27Z</time>
      </trkpt>
      <trkpt lat="45.71633" lon="4.43118">
        <ele>678</ele>
        <time>2016-04-10T07:27:30Z</time>
      </trkpt>
      <trkpt lat="45.71629" lon="4.43114">
        <ele>678</ele>
        <time>2016-04-10T07:27:33Z</time>
      </trkpt>
      <trkpt lat="45.71623" lon="4.43113">
        <ele>675</ele>
        <time>2016-04-10T07:27:37Z</time>
      </trkpt>
      <trkpt lat="45.71618" lon="4.43113">
        <ele>675</ele>
        <time>2016-04-10T07:27:40Z</time>
      </trkpt>
      <trkpt lat="45.71613" lon="4.43111">
        <ele>676</ele>
        <time>2016-04-10T07:27:44Z</time>
      </trkpt>
      <trkpt lat="45.71608" lon="4.43111">
        <ele>677</ele>
        <time>2016-04-10T07:27:47Z</time>
      </trkpt>
      <trkpt lat="45.71603" lon="4.43112">
        <ele>678</ele>
        <time>2016-04-10T07:27:50Z</time>
      </trkpt>
      <trkpt lat="45.71599" lon="4.4311">
        <ele>676</ele>
        <time>2016-04-10T07:27:53Z</time>
      </trkpt>
      <trkpt lat="45.71594" lon="4.43108">
        <ele>677</ele>
        <time>2016-04-10T07:27:57Z</time>
      </trkpt>
      <trkpt lat="45.71588" lon="4.43106">
        <ele>677</ele>
        <time>2016-04-10T07:28:01Z</time>
      </trkpt>
      <trkpt lat="45.71583" lon="4.43102">
        <ele>677</ele>
        <time>2016-04-10T07:28:06Z</time>
      </trkpt>
      <trkpt lat="45.71579" lon="4.43099">
        <ele>676</ele>
        <time>2016-04-10T07:28:09Z</time>
      </trkpt>
      <trkpt lat="45.71574" lon="4.43096">
        <ele>676</ele>
        <time>2016-04-10T07:28:13Z</time>
      </trkpt>
      <trkpt lat="45.7157" lon="4.43093">
        <ele>676</ele>
        <time>2016-04-10T07:28:17Z</time>
      </trkpt>
      <trkpt lat="45.71566" lon="4.43088">
        <ele>677</ele>
        <time>2016-04-10T07:28:21Z</time>
      </trkpt>
      <trkpt lat="45.71562" lon="4.43082">
        <ele>676</ele>
        <time>2016-04-10T07:28:25Z</time>
      </trkpt>
      <trkpt lat="45.71559" lon="4.43076">
        <ele>678</ele>
        <time>2016-04-10T07:28:29Z</time>
      </trkpt>
      <trkpt lat="45.71556" lon="4.43072">
        <ele>679</ele>
        <time>2016-04-10T07:28:33Z</time>
      </trkpt>
      <trkpt lat="45.71553" lon="4.43067">
        <ele>679</ele>
        <time>2016-04-10T07:28:37Z</time>
      </trkpt>
      <trkpt lat="45.71549" lon="4.43062">
        <ele>680</ele>
        <time>2016-04-10T07:28:42Z</time>
      </trkpt>
      <trkpt lat="45.71544" lon="4.43058">
        <ele>680</ele>
        <time>2016-04-10T07:28:46Z</time>
      </trkpt>
      <trkpt lat="45.71539" lon="4.43054">
        <ele>681</ele>
        <time>2016-04-10T07:28:50Z</time>
      </trkpt>
      <trkpt lat="45.71534" lon="4.4305">
        <ele>682</ele>
        <time>2016-04-10T07:28:54Z</time>
      </trkpt>
      <trkpt lat="45.7153" lon="4.43047">
        <ele>682</ele>
        <time>2016-04-10T07:28:57Z</time>
      </trkpt>
      <trkpt lat="45.71523" lon="4.43044">
        <ele>678</ele>
        <time>2016-04-10T07:29:00Z</time>
      </trkpt>
      <trkpt lat="45.71519" lon="4.43043">
        <ele>680</ele>
        <time>2016-04-10T07:29:03Z</time>
      </trkpt>
      <trkpt lat="45.71514" lon="4.43041">
        <ele>681</ele>
        <time>2016-04-10T07:29:07Z</time>
      </trkpt>
      <trkpt lat="45.71509" lon="4.43037">
        <ele>680</ele>
        <time>2016-04-10T07:29:11Z</time>
      </trkpt>
      <trkpt lat="45.71505" lon="4.43034">
        <ele>679</ele>
        <time>2016-04-10T07:29:14Z</time>
      </trkpt>
      <trkpt lat="45.71502" lon="4.4304">
        <ele>681</ele>
        <time>2016-04-10T07:29:16Z</time>
      </trkpt>
      <trkpt lat="45.71498" lon="4.43036">
        <ele>681</ele>
        <time>2016-04-10T07:29:19Z</time>
      </trkpt>
      <trkpt lat="45.71492" lon="4.43035">
        <ele>677</ele>
        <time>2016-04-10T07:29:22Z</time>
      </trkpt>
      <trkpt lat="45.71487" lon="4.43031">
        <ele>677</ele>
        <time>2016-04-10T07:29:25Z</time>
      </trkpt>
      <trkpt lat="45.71483" lon="4.43028">
        <ele>677</ele>
        <time>2016-04-10T07:29:28Z</time>
      </trkpt>
      <trkpt lat="45.71478" lon="4.43027">
        <ele>674</ele>
        <time>2016-04-10T07:29:31Z</time>
      </trkpt>
      <trkpt lat="45.71474" lon="4.43025">
        <ele>674</ele>
        <time>2016-04-10T07:29:34Z</time>
      </trkpt>
      <trkpt lat="45.71468" lon="4.43022">
        <ele>674</ele>
        <time>2016-04-10T07:29:38Z</time>
      </trkpt>
      <trkpt lat="45.71463" lon="4.43021">
        <ele>672</ele>
        <time>2016-04-10T07:29:41Z</time>
      </trkpt>
      <trkpt lat="45.71458" lon="4.43019">
        <ele>673</ele>
        <time>2016-04-10T07:29:45Z</time>
      </trkpt>
      <trkpt lat="45.71452" lon="4.43025">
        <ele>670</ele>
        <time>2016-04-10T07:29:48Z</time>
      </trkpt>
      <trkpt lat="45.71446" lon="4.43025">
        <ele>669</ele>
        <time>2016-04-10T07:29:52Z</time>
      </trkpt>
      <trkpt lat="45.71441" lon="4.43028">
        <ele>669</ele>
        <time>2016-04-10T07:29:56Z</time>
      </trkpt>
      <trkpt lat="45.71436" lon="4.43027">
        <ele>669</ele>
        <time>2016-04-10T07:30:00Z</time>
      </trkpt>
      <trkpt lat="45.7143" lon="4.43027">
        <ele>669</ele>
        <time>2016-04-10T07:30:04Z</time>
      </trkpt>
      <trkpt lat="45.71425" lon="4.43029">
        <ele>671</ele>
        <time>2016-04-10T07:30:08Z</time>
      </trkpt>
      <trkpt lat="45.7142" lon="4.4303">
        <ele>671</ele>
        <time>2016-04-10T07:30:12Z</time>
      </trkpt>
      <trkpt lat="45.71414" lon="4.4303">
        <ele>672</ele>
        <time>2016-04-10T07:30:16Z</time>
      </trkpt>
      <trkpt lat="45.71409" lon="4.43032">
        <ele>671</ele>
        <time>2016-04-10T07:30:20Z</time>
      </trkpt>
      <trkpt lat="45.71404" lon="4.43031">
        <ele>671</ele>
        <time>2016-04-10T07:30:24Z</time>
      </trkpt>
      <trkpt lat="45.71399" lon="4.4303">
        <ele>671</ele>
        <time>2016-04-10T07:30:29Z</time>
      </trkpt>
      <trkpt lat="45.71394" lon="4.43029">
        <ele>670</ele>
        <time>2016-04-10T07:30:33Z</time>
      </trkpt>
      <trkpt lat="45.71389" lon="4.43035">
        <ele>668</ele>
        <time>2016-04-10T07:30:36Z</time>
      </trkpt>
      <trkpt lat="45.71385" lon="4.4303">
        <ele>669</ele>
        <time>2016-04-10T07:30:40Z</time>
      </trkpt>
      <trkpt lat="45.71381" lon="4.43028">
        <ele>669</ele>
        <time>2016-04-10T07:30:44Z</time>
      </trkpt>
      <trkpt lat="45.71376" lon="4.43027">
        <ele>670</ele>
        <time>2016-04-10T07:30:48Z</time>
      </trkpt>
      <trkpt lat="45.71371" lon="4.43025">
        <ele>670</ele>
        <time>2016-04-10T07:30:52Z</time>
      </trkpt>
      <trkpt lat="45.71366" lon="4.43029">
        <ele>670</ele>
        <time>2016-04-10T07:30:55Z</time>
      </trkpt>
      <trkpt lat="45.71362" lon="4.43025">
        <ele>669</ele>
        <time>2016-04-10T07:30:59Z</time>
      </trkpt>
      <trkpt lat="45.71356" lon="4.43024">
        <ele>670</ele>
        <time>2016-04-10T07:31:03Z</time>
      </trkpt>
      <trkpt lat="45.71352" lon="4.43023">
        <ele>671</ele>
        <time>2016-04-10T07:31:07Z</time>
      </trkpt>
      <trkpt lat="45.71347" lon="4.43022">
        <ele>669</ele>
        <time>2016-04-10T07:31:11Z</time>
      </trkpt>
      <trkpt lat="45.71341" lon="4.4302">
        <ele>668</ele>
        <time>2016-04-10T07:31:15Z</time>
      </trkpt>
      <trkpt lat="45.71336" lon="4.43019">
        <ele>667</ele>
        <time>2016-04-10T07:31:19Z</time>
      </trkpt>
      <trkpt lat="45.71331" lon="4.43017">
        <ele>667</ele>
        <time>2016-04-10T07:31:23Z</time>
      </trkpt>
      <trkpt lat="45.71327" lon="4.43017">
        <ele>665</ele>
        <time>2016-04-10T07:31:26Z</time>
      </trkpt>
      <trkpt lat="45.71322" lon="4.43017">
        <ele>665</ele>
        <time>2016-04-10T07:31:29Z</time>
      </trkpt>
      <trkpt lat="45.71317" lon="4.43016">
        <ele>665</ele>
        <time>2016-04-10T07:31:33Z</time>
      </trkpt>
      <trkpt lat="45.71312" lon="4.43015">
        <ele>664</ele>
        <time>2016-04-10T07:31:37Z</time>
      </trkpt>
      <trkpt lat="45.71306" lon="4.43015">
        <ele>663</ele>
        <time>2016-04-10T07:31:41Z</time>
      </trkpt>
      <trkpt lat="45.71301" lon="4.43015">
        <ele>662</ele>
        <time>2016-04-10T07:31:45Z</time>
      </trkpt>
      <trkpt lat="45.71296" lon="4.43014">
        <ele>662</ele>
        <time>2016-04-10T07:31:49Z</time>
      </trkpt>
      <trkpt lat="45.7129" lon="4.43014">
        <ele>662</ele>
        <time>2016-04-10T07:31:53Z</time>
      </trkpt>
      <trkpt lat="45.71286" lon="4.4301">
        <ele>662</ele>
        <time>2016-04-10T07:31:56Z</time>
      </trkpt>
      <trkpt lat="45.71281" lon="4.43011">
        <ele>661</ele>
        <time>2016-04-10T07:32:00Z</time>
      </trkpt>
      <trkpt lat="45.71275" lon="4.4301">
        <ele>661</ele>
        <time>2016-04-10T07:32:04Z</time>
      </trkpt>
      <trkpt lat="45.7127" lon="4.4301">
        <ele>662</ele>
        <time>2016-04-10T07:32:08Z</time>
      </trkpt>
      <trkpt lat="45.71264" lon="4.43013">
        <ele>660</ele>
        <time>2016-04-10T07:32:12Z</time>
      </trkpt>
      <trkpt lat="45.71259" lon="4.43013">
        <ele>658</ele>
        <time>2016-04-10T07:32:16Z</time>
      </trkpt>
      <trkpt lat="45.71254" lon="4.43012">
        <ele>658</ele>
        <time>2016-04-10T07:32:20Z</time>
      </trkpt>
      <trkpt lat="45.71248" lon="4.43012">
        <ele>659</ele>
        <time>2016-04-10T07:32:24Z</time>
      </trkpt>
      <trkpt lat="45.71243" lon="4.43011">
        <ele>661</ele>
        <time>2016-04-10T07:32:28Z</time>
      </trkpt>
      <trkpt lat="45.71238" lon="4.4301">
        <ele>661</ele>
        <time>2016-04-10T07:32:31Z</time>
      </trkpt>
      <trkpt lat="45.71233" lon="4.43009">
        <ele>661</ele>
        <time>2016-04-10T07:32:35Z</time>
      </trkpt>
      <trkpt lat="45.71228" lon="4.43008">
        <ele>661</ele>
        <time>2016-04-10T07:32:38Z</time>
      </trkpt>
      <trkpt lat="45.71222" lon="4.43007">
        <ele>660</ele>
        <time>2016-04-10T07:32:42Z</time>
      </trkpt>
      <trkpt lat="45.71218" lon="4.43005">
        <ele>659</ele>
        <time>2016-04-10T07:32:45Z</time>
      </trkpt>
      <trkpt lat="45.71213" lon="4.43004">
        <ele>660</ele>
        <time>2016-04-10T07:32:49Z</time>
      </trkpt>
      <trkpt lat="45.71208" lon="4.43002">
        <ele>660</ele>
        <time>2016-04-10T07:32:53Z</time>
      </trkpt>
      <trkpt lat="45.71204" lon="4.42999">
        <ele>664</ele>
        <time>2016-04-10T07:32:58Z</time>
      </trkpt>
      <trkpt lat="45.71199" lon="4.42996">
        <ele>665</ele>
        <time>2016-04-10T07:33:03Z</time>
      </trkpt>
      <trkpt lat="45.71194" lon="4.42993">
        <ele>665</ele>
        <time>2016-04-10T07:33:07Z</time>
      </trkpt>
      <trkpt lat="45.71189" lon="4.42989">
        <ele>663</ele>
        <time>2016-04-10T07:33:11Z</time>
      </trkpt>
      <trkpt lat="45.71184" lon="4.42987">
        <ele>662</ele>
        <time>2016-04-10T07:33:15Z</time>
      </trkpt>
      <trkpt lat="45.71179" lon="4.42984">
        <ele>661</ele>
        <time>2016-04-10T07:33:19Z</time>
      </trkpt>
      <trkpt lat="45.71173" lon="4.42981">
        <ele>661</ele>
        <time>2016-04-10T07:33:23Z</time>
      </trkpt>
      <trkpt lat="45.71169" lon="4.42979">
        <ele>661</ele>
        <time>2016-04-10T07:33:26Z</time>
      </trkpt>
      <trkpt lat="45.71164" lon="4.42974">
        <ele>662</ele>
        <time>2016-04-10T07:33:31Z</time>
      </trkpt>
      <trkpt lat="45.7116" lon="4.42971">
        <ele>664</ele>
        <time>2016-04-10T07:33:35Z</time>
      </trkpt>
      <trkpt lat="45.71156" lon="4.42967">
        <ele>662</ele>
        <time>2016-04-10T07:33:38Z</time>
      </trkpt>
      <trkpt lat="45.71151" lon="4.42966">
        <ele>662</ele>
        <time>2016-04-10T07:33:41Z</time>
      </trkpt>
      <trkpt lat="45.71146" lon="4.42966">
        <ele>662</ele>
        <time>2016-04-10T07:33:45Z</time>
      </trkpt>
      <trkpt lat="45.71141" lon="4.42965">
        <ele>661</ele>
        <time>2016-04-10T07:33:48Z</time>
      </trkpt>
      <trkpt lat="45.71137" lon="4.42961">
        <ele>661</ele>
        <time>2016-04-10T07:33:51Z</time>
      </trkpt>
      <trkpt lat="45.71134" lon="4.42967">
        <ele>661</ele>
        <time>2016-04-10T07:33:53Z</time>
      </trkpt>
      <trkpt lat="45.71129" lon="4.42963">
        <ele>662</ele>
        <time>2016-04-10T07:33:57Z</time>
      </trkpt>
      <trkpt lat="45.71124" lon="4.42963">
        <ele>662</ele>
        <time>2016-04-10T07:34:00Z</time>
      </trkpt>
      <trkpt lat="45.71119" lon="4.42964">
        <ele>663</ele>
        <time>2016-04-10T07:34:05Z</time>
      </trkpt>
      <trkpt lat="45.71115" lon="4.42958">
        <ele>662</ele>
        <time>2016-04-10T07:34:10Z</time>
      </trkpt>
      <trkpt lat="45.7111" lon="4.42958">
        <ele>664</ele>
        <time>2016-04-10T07:34:14Z</time>
      </trkpt>
      <trkpt lat="45.71107" lon="4.42953">
        <ele>667</ele>
        <time>2016-04-10T07:34:18Z</time>
      </trkpt>
      <trkpt lat="45.71102" lon="4.42953">
        <ele>667</ele>
        <time>2016-04-10T07:34:22Z</time>
      </trkpt>
      <trkpt lat="45.71097" lon="4.42952">
        <ele>669</ele>
        <time>2016-04-10T07:34:26Z</time>
      </trkpt>
      <trkpt lat="45.71091" lon="4.42954">
        <ele>669</ele>
        <time>2016-04-10T07:34:31Z</time>
      </trkpt>
      <trkpt lat="45.71086" lon="4.42956">
        <ele>669</ele>
        <time>2016-04-10T07:34:36Z</time>
      </trkpt>
      <trkpt lat="45.71081" lon="4.42957">
        <ele>667</ele>
        <time>2016-04-10T07:34:40Z</time>
      </trkpt>
      <trkpt lat="45.71075" lon="4.42958">
        <ele>665</ele>
        <time>2016-04-10T07:34:44Z</time>
      </trkpt>
      <trkpt lat="45.7107" lon="4.42958">
        <ele>668</ele>
        <time>2016-04-10T07:34:47Z</time>
      </trkpt>
      <trkpt lat="45.71065" lon="4.42957">
        <ele>668</ele>
        <time>2016-04-10T07:34:51Z</time>
      </trkpt>
      <trkpt lat="45.7106" lon="4.42957">
        <ele>669</ele>
        <time>2016-04-10T07:34:54Z</time>
      </trkpt>
      <trkpt lat="45.71054" lon="4.42958">
        <ele>672</ele>
        <time>2016-04-10T07:34:59Z</time>
      </trkpt>
      <trkpt lat="45.7105" lon="4.42957">
        <ele>672</ele>
        <time>2016-04-10T07:35:03Z</time>
      </trkpt>
      <trkpt lat="45.71044" lon="4.42955">
        <ele>674</ele>
        <time>2016-04-10T07:35:07Z</time>
      </trkpt>
      <trkpt lat="45.71038" lon="4.42954">
        <ele>675</ele>
        <time>2016-04-10T07:35:11Z</time>
      </trkpt>
      <trkpt lat="45.71032" lon="4.42956">
        <ele>674</ele>
        <time>2016-04-10T07:35:15Z</time>
      </trkpt>
      <trkpt lat="45.71026" lon="4.42954">
        <ele>672</ele>
        <time>2016-04-10T07:35:19Z</time>
      </trkpt>
      <trkpt lat="45.71021" lon="4.42953">
        <ele>670</ele>
        <time>2016-04-10T07:35:24Z</time>
      </trkpt>
      <trkpt lat="45.71016" lon="4.42955">
        <ele>669</ele>
        <time>2016-04-10T07:35:27Z</time>
      </trkpt>
      <trkpt lat="45.71011" lon="4.42955">
        <ele>669</ele>
        <time>2016-04-10T07:35:31Z</time>
      </trkpt>
      <trkpt lat="45.71006" lon="4.42953">
        <ele>670</ele>
        <time>2016-04-10T07:35:34Z</time>
      </trkpt>
      <trkpt lat="45.71001" lon="4.42954">
        <ele>669</ele>
        <time>2016-04-10T07:35:39Z</time>
      </trkpt>
      <trkpt lat="45.70996" lon="4.42953">
        <ele>670</ele>
        <time>2016-04-10T07:35:42Z</time>
      </trkpt>
      <trkpt lat="45.70991" lon="4.42953">
        <ele>667</ele>
        <time>2016-04-10T07:35:45Z</time>
      </trkpt>
      <trkpt lat="45.70986" lon="4.42952">
        <ele>667</ele>
        <time>2016-04-10T07:35:48Z</time>
      </trkpt>
      <trkpt lat="45.70979" lon="4.42951">
        <ele>663</ele>
        <time>2016-04-10T07:35:51Z</time>
      </trkpt>
      <trkpt lat="45.70975" lon="4.4295">
        <ele>661</ele>
        <time>2016-04-10T07:35:54Z</time>
      </trkpt>
      <trkpt lat="45.7097" lon="4.42948">
        <ele>664</ele>
        <time>2016-04-10T07:35:58Z</time>
      </trkpt>
      <trkpt lat="45.70964" lon="4.4295">
        <ele>665</ele>
        <time>2016-04-10T07:36:02Z</time>
      </trkpt>
      <trkpt lat="45.7096" lon="4.42952">
        <ele>664</ele>
        <time>2016-04-10T07:36:06Z</time>
      </trkpt>
      <trkpt lat="45.70955" lon="4.42953">
        <ele>663</ele>
        <time>2016-04-10T07:36:10Z</time>
      </trkpt>
      <trkpt lat="45.7095" lon="4.42957">
        <ele>665</ele>
        <time>2016-04-10T07:36:13Z</time>
      </trkpt>
      <trkpt lat="45.70945" lon="4.4296">
        <ele>665</ele>
        <time>2016-04-10T07:36:16Z</time>
      </trkpt>
      <trkpt lat="45.70939" lon="4.42962">
        <ele>666</ele>
        <time>2016-04-10T07:36:20Z</time>
      </trkpt>
      <trkpt lat="45.70935" lon="4.42965">
        <ele>665</ele>
        <time>2016-04-10T07:36:23Z</time>
      </trkpt>
      <trkpt lat="45.70929" lon="4.42969">
        <ele>664</ele>
        <time>2016-04-10T07:36:27Z</time>
      </trkpt>
      <trkpt lat="45.70925" lon="4.42972">
        <ele>664</ele>
        <time>2016-04-10T07:36:30Z</time>
      </trkpt>
      <trkpt lat="45.7092" lon="4.42975">
        <ele>665</ele>
        <time>2016-04-10T07:36:34Z</time>
      </trkpt>
      <trkpt lat="45.70916" lon="4.42981">
        <ele>665</ele>
        <time>2016-04-10T07:36:37Z</time>
      </trkpt>
      <trkpt lat="45.70912" lon="4.42988">
        <ele>665</ele>
        <time>2016-04-10T07:36:40Z</time>
      </trkpt>
      <trkpt lat="45.70907" lon="4.42992">
        <ele>665</ele>
        <time>2016-04-10T07:36:44Z</time>
      </trkpt>
      <trkpt lat="45.70903" lon="4.42996">
        <ele>663</ele>
        <time>2016-04-10T07:36:48Z</time>
      </trkpt>
      <trkpt lat="45.70899" lon="4.43">
        <ele>663</ele>
        <time>2016-04-10T07:36:52Z</time>
      </trkpt>
      <trkpt lat="45.70895" lon="4.43003">
        <ele>663</ele>
        <time>2016-04-10T07:36:56Z</time>
      </trkpt>
      <trkpt lat="45.70891" lon="4.43008">
        <ele>662</ele>
        <time>2016-04-10T07:37:00Z</time>
      </trkpt>
      <trkpt lat="45.70887" lon="4.43011">
        <ele>662</ele>
        <time>2016-04-10T07:37:04Z</time>
      </trkpt>
      <trkpt lat="45.70883" lon="4.43016">
        <ele>661</ele>
        <time>2016-04-10T07:37:07Z</time>
      </trkpt>
      <trkpt lat="45.70878" lon="4.43017">
        <ele>662</ele>
        <time>2016-04-10T07:37:11Z</time>
      </trkpt>
      <trkpt lat="45.70873" lon="4.4302">
        <ele>661</ele>
        <time>2016-04-10T07:37:15Z</time>
      </trkpt>
      <trkpt lat="45.70869" lon="4.43023">
        <ele>662</ele>
        <time>2016-04-10T07:37:19Z</time>
      </trkpt>
      <trkpt lat="45.70864" lon="4.43026">
        <ele>661</ele>
        <time>2016-04-10T07:37:24Z</time>
      </trkpt>
      <trkpt lat="45.70859" lon="4.43028">
        <ele>661</ele>
        <time>2016-04-10T07:37:28Z</time>
      </trkpt>
      <trkpt lat="45.70854" lon="4.43034">
        <ele>659</ele>
        <time>2016-04-10T07:37:32Z</time>
      </trkpt>
      <trkpt lat="45.70849" lon="4.43037">
        <ele>659</ele>
        <time>2016-04-10T07:37:36Z</time>
      </trkpt>
      <trkpt lat="45.70844" lon="4.43039">
        <ele>659</ele>
        <time>2016-04-10T07:37:41Z</time>
      </trkpt>
      <trkpt lat="45.7084" lon="4.43043">
        <ele>659</ele>
        <time>2016-04-10T07:37:45Z</time>
      </trkpt>
      <trkpt lat="45.70835" lon="4.43046">
        <ele>661</ele>
        <time>2016-04-10T07:37:53Z</time>
      </trkpt>
      <trkpt lat="45.70829" lon="4.43048">
        <ele>663</ele>
        <time>2016-04-10T07:37:58Z</time>
      </trkpt>
      <trkpt lat="45.70824" lon="4.4305">
        <ele>663</ele>
        <time>2016-04-10T07:38:02Z</time>
      </trkpt>
      <trkpt lat="45.70818" lon="4.43051">
        <ele>664</ele>
        <time>2016-04-10T07:38:07Z</time>
      </trkpt>
      <trkpt lat="45.70814" lon="4.43056">
        <ele>663</ele>
        <time>2016-04-10T07:38:13Z</time>
      </trkpt>
      <trkpt lat="45.70809" lon="4.43055">
        <ele>662</ele>
        <time>2016-04-10T07:38:17Z</time>
      </trkpt>
      <trkpt lat="45.70804" lon="4.43052">
        <ele>664</ele>
        <time>2016-04-10T07:38:21Z</time>
      </trkpt>
      <trkpt lat="45.70799" lon="4.43052">
        <ele>664</ele>
        <time>2016-04-10T07:38:25Z</time>
      </trkpt>
      <trkpt lat="45.70794" lon="4.43053">
        <ele>665</ele>
        <time>2016-04-10T07:38:28Z</time>
      </trkpt>
      <trkpt lat="45.70789" lon="4.43053">
        <ele>666</ele>
        <time>2016-04-10T07:38:31Z</time>
      </trkpt>
      <trkpt lat="45.70784" lon="4.43053">
        <ele>666</ele>
        <time>2016-04-10T07:38:34Z</time>
      </trkpt>
      <trkpt lat="45.70777" lon="4.43056">
        <ele>666</ele>
        <time>2016-04-10T07:38:38Z</time>
      </trkpt>
      <trkpt lat="45.70773" lon="4.43053">
        <ele>666</ele>
        <time>2016-04-10T07:38:43Z</time>
      </trkpt>
      <trkpt lat="45.70768" lon="4.43051">
        <ele>665</ele>
        <time>2016-04-10T07:38:46Z</time>
      </trkpt>
      <trkpt lat="45.70763" lon="4.43051">
        <ele>665</ele>
        <time>2016-04-10T07:38:50Z</time>
      </trkpt>
      <trkpt lat="45.70758" lon="4.4305">
        <ele>664</ele>
        <time>2016-04-10T07:38:53Z</time>
      </trkpt>
      <trkpt lat="45.70752" lon="4.4305">
        <ele>664</ele>
        <time>2016-04-10T07:38:57Z</time>
      </trkpt>
      <trkpt lat="45.70748" lon="4.43053">
        <ele>664</ele>
        <time>2016-04-10T07:39:00Z</time>
      </trkpt>
      <trkpt lat="45.70743" lon="4.43053">
        <ele>663</ele>
        <time>2016-04-10T07:39:04Z</time>
      </trkpt>
      <trkpt lat="45.70737" lon="4.43052">
        <ele>662</ele>
        <time>2016-04-10T07:39:08Z</time>
      </trkpt>
      <trkpt lat="45.70733" lon="4.43048">
        <ele>662</ele>
        <time>2016-04-10T07:39:11Z</time>
      </trkpt>
      <trkpt lat="45.70729" lon="4.43052">
        <ele>661</ele>
        <time>2016-04-10T07:39:14Z</time>
      </trkpt>
      <trkpt lat="45.70724" lon="4.43051">
        <ele>660</ele>
        <time>2016-04-10T07:39:18Z</time>
      </trkpt>
      <trkpt lat="45.70719" lon="4.43048">
        <ele>660</ele>
        <time>2016-04-10T07:39:22Z</time>
      </trkpt>
      <trkpt lat="45.70714" lon="4.43046">
        <ele>659</ele>
        <time>2016-04-10T07:39:26Z</time>
      </trkpt>
      <trkpt lat="45.70708" lon="4.43045">
        <ele>660</ele>
        <time>2016-04-10T07:39:30Z</time>
      </trkpt>
      <trkpt lat="45.70703" lon="4.43042">
        <ele>660</ele>
        <time>2016-04-10T07:39:34Z</time>
      </trkpt>
      <trkpt lat="45.70699" lon="4.4304">
        <ele>660</ele>
        <time>2016-04-10T07:39:38Z</time>
      </trkpt>
      <trkpt lat="45.70694" lon="4.43038">
        <ele>660</ele>
        <time>2016-04-10T07:39:42Z</time>
      </trkpt>
      <trkpt lat="45.70689" lon="4.43037">
        <ele>661</ele>
        <time>2016-04-10T07:39:45Z</time>
      </trkpt>
      <trkpt lat="45.70686" lon="4.43033">
        <ele>660</ele>
        <time>2016-04-10T07:39:49Z</time>
      </trkpt>
      <trkpt lat="45.70681" lon="4.4303">
        <ele>661</ele>
        <time>2016-04-10T07:39:53Z</time>
      </trkpt>
      <trkpt lat="45.70676" lon="4.43028">
        <ele>660</ele>
        <time>2016-04-10T07:39:57Z</time>
      </trkpt>
      <trkpt lat="45.70671" lon="4.43025">
        <ele>658</ele>
        <time>2016-04-10T07:40:01Z</time>
      </trkpt>
      <trkpt lat="45.70665" lon="4.43025">
        <ele>657</ele>
        <time>2016-04-10T07:40:05Z</time>
      </trkpt>
      <trkpt lat="45.7066" lon="4.43025">
        <ele>658</ele>
        <time>2016-04-10T07:40:08Z</time>
      </trkpt>
      <trkpt lat="45.70654" lon="4.43027">
        <ele>657</ele>
        <time>2016-04-10T07:40:12Z</time>
      </trkpt>
      <trkpt lat="45.70649" lon="4.43028">
        <ele>654</ele>
        <time>2016-04-10T07:40:18Z</time>
      </trkpt>
      <trkpt lat="45.70644" lon="4.43026">
        <ele>653</ele>
        <time>2016-04-10T07:40:22Z</time>
      </trkpt>
      <trkpt lat="45.70639" lon="4.43028">
        <ele>654</ele>
        <time>2016-04-10T07:40:25Z</time>
      </trkpt>
      <trkpt lat="45.70634" lon="4.43031">
        <ele>654</ele>
        <time>2016-04-10T07:40:29Z</time>
      </trkpt>
      <trkpt lat="45.7063" lon="4.43033">
        <ele>654</ele>
        <time>2016-04-10T07:40:34Z</time>
      </trkpt>
      <trkpt lat="45.70625" lon="4.43036">
        <ele>652</ele>
        <time>2016-04-10T07:40:38Z</time>
      </trkpt>
      <trkpt lat="45.7062" lon="4.43037">
        <ele>650</ele>
        <time>2016-04-10T07:40:43Z</time>
      </trkpt>
      <trkpt lat="45.70615" lon="4.43039">
        <ele>649</ele>
        <time>2016-04-10T07:40:47Z</time>
      </trkpt>
      <trkpt lat="45.70609" lon="4.43041">
        <ele>651</ele>
        <time>2016-04-10T07:40:50Z</time>
      </trkpt>
      <trkpt lat="45.70605" lon="4.43043">
        <ele>652</ele>
        <time>2016-04-10T07:40:53Z</time>
      </trkpt>
      <trkpt lat="45.706" lon="4.43044">
        <ele>653</ele>
        <time>2016-04-10T07:40:57Z</time>
      </trkpt>
      <trkpt lat="45.70594" lon="4.43049">
        <ele>653</ele>
        <time>2016-04-10T07:41:02Z</time>
      </trkpt>
      <trkpt lat="45.7059" lon="4.43053">
        <ele>653</ele>
        <time>2016-04-10T07:41:05Z</time>
      </trkpt>
      <trkpt lat="45.70586" lon="4.43057">
        <ele>653</ele>
        <time>2016-04-10T07:41:09Z</time>
      </trkpt>
      <trkpt lat="45.70581" lon="4.43061">
        <ele>654</ele>
        <time>2016-04-10T07:41:14Z</time>
      </trkpt>
      <trkpt lat="45.70576" lon="4.43063">
        <ele>653</ele>
        <time>2016-04-10T07:41:20Z</time>
      </trkpt>
      <trkpt lat="45.70572" lon="4.43067">
        <ele>653</ele>
        <time>2016-04-10T07:41:23Z</time>
      </trkpt>
      <trkpt lat="45.70567" lon="4.4307">
        <ele>654</ele>
        <time>2016-04-10T07:41:27Z</time>
      </trkpt>
      <trkpt lat="45.70563" lon="4.43074">
        <ele>654</ele>
        <time>2016-04-10T07:41:31Z</time>
      </trkpt>
      <trkpt lat="45.70559" lon="4.43077">
        <ele>654</ele>
        <time>2016-04-10T07:41:35Z</time>
      </trkpt>
      <trkpt lat="45.70554" lon="4.43081">
        <ele>653</ele>
        <time>2016-04-10T07:41:39Z</time>
      </trkpt>
      <trkpt lat="45.70549" lon="4.43083">
        <ele>654</ele>
        <time>2016-04-10T07:41:43Z</time>
      </trkpt>
      <trkpt lat="45.70545" lon="4.43086">
        <ele>654</ele>
        <time>2016-04-10T07:41:47Z</time>
      </trkpt>
      <trkpt lat="45.70541" lon="4.4309">
        <ele>652</ele>
        <time>2016-04-10T07:41:50Z</time>
      </trkpt>
      <trkpt lat="45.70537" lon="4.43093">
        <ele>652</ele>
        <time>2016-04-10T07:41:54Z</time>
      </trkpt>
      <trkpt lat="45.70533" lon="4.43096">
        <ele>651</ele>
        <time>2016-04-10T07:41:58Z</time>
      </trkpt>
      <trkpt lat="45.70528" lon="4.43099">
        <ele>650</ele>
        <time>2016-04-10T07:42:02Z</time>
      </trkpt>
      <trkpt lat="45.70524" lon="4.43103">
        <ele>649</ele>
        <time>2016-04-10T07:42:06Z</time>
      </trkpt>
      <trkpt lat="45.70521" lon="4.43111">
        <ele>646</ele>
        <time>2016-04-10T07:42:09Z</time>
      </trkpt>
      <trkpt lat="45.70516" lon="4.43116">
        <ele>644</ele>
        <time>2016-04-10T07:42:13Z</time>
      </trkpt>
      <trkpt lat="45.70513" lon="4.43124">
        <ele>642</ele>
        <time>2016-04-10T07:42:17Z</time>
      </trkpt>
      <trkpt lat="45.70509" lon="4.43129">
        <ele>642</ele>
        <time>2016-04-10T07:42:21Z</time>
      </trkpt>
      <trkpt lat="45.70505" lon="4.43133">
        <ele>641</ele>
        <time>2016-04-10T07:42:25Z</time>
      </trkpt>
      <trkpt lat="45.70501" lon="4.43137">
        <ele>641</ele>
        <time>2016-04-10T07:42:29Z</time>
      </trkpt>
      <trkpt lat="45.70498" lon="4.43142">
        <ele>641</ele>
        <time>2016-04-10T07:42:32Z</time>
      </trkpt>
      <trkpt lat="45.70495" lon="4.43147">
        <ele>640</ele>
        <time>2016-04-10T07:42:36Z</time>
      </trkpt>
      <trkpt lat="45.70493" lon="4.43153">
        <ele>639</ele>
        <time>2016-04-10T07:42:38Z</time>
      </trkpt>
      <trkpt lat="45.70489" lon="4.43158">
        <ele>639</ele>
        <time>2016-04-10T07:42:42Z</time>
      </trkpt>
      <trkpt lat="45.70486" lon="4.43165">
        <ele>639</ele>
        <time>2016-04-10T07:42:47Z</time>
      </trkpt>
      <trkpt lat="45.70483" lon="4.43173">
        <ele>639</ele>
        <time>2016-04-10T07:42:51Z</time>
      </trkpt>
      <trkpt lat="45.70482" lon="4.43181">
        <ele>637</ele>
        <time>2016-04-10T07:42:55Z</time>
      </trkpt>
      <trkpt lat="45.7048" lon="4.43189">
        <ele>636</ele>
        <time>2016-04-10T07:42:59Z</time>
      </trkpt>
      <trkpt lat="45.70479" lon="4.43197">
        <ele>634</ele>
        <time>2016-04-10T07:43:03Z</time>
      </trkpt>
      <trkpt lat="45.70478" lon="4.43205">
        <ele>633</ele>
        <time>2016-04-10T07:43:07Z</time>
      </trkpt>
      <trkpt lat="45.70478" lon="4.43213">
        <ele>632</ele>
        <time>2016-04-10T07:43:11Z</time>
      </trkpt>
      <trkpt lat="45.70478" lon="4.4322">
        <ele>632</ele>
        <time>2016-04-10T07:43:15Z</time>
      </trkpt>
      <trkpt lat="45.70477" lon="4.43228">
        <ele>631</ele>
        <time>2016-04-10T07:43:19Z</time>
      </trkpt>
      <trkpt lat="45.70477" lon="4.43237">
        <ele>630</ele>
        <time>2016-04-10T07:43:24Z</time>
      </trkpt>
      <trkpt lat="45.70476" lon="4.43245">
        <ele>630</ele>
        <time>2016-04-10T07:43:28Z</time>
      </trkpt>
      <trkpt lat="45.70475" lon="4.43252">
        <ele>629</ele>
        <time>2016-04-10T07:43:32Z</time>
      </trkpt>
      <trkpt lat="45.70471" lon="4.43259">
        <ele>630</ele>
        <time>2016-04-10T07:43:37Z</time>
      </trkpt>
      <trkpt lat="45.70467" lon="4.43261">
        <ele>630</ele>
        <time>2016-04-10T07:43:42Z</time>
      </trkpt>
      <trkpt lat="45.70462" lon="4.43263">
        <ele>630</ele>
        <time>2016-04-10T07:43:46Z</time>
      </trkpt>
      <trkpt lat="45.70457" lon="4.43261">
        <ele>631</ele>
        <time>2016-04-10T07:43:50Z</time>
      </trkpt>
      <trkpt lat="45.70453" lon="4.43257">
        <ele>632</ele>
        <time>2016-04-10T07:43:55Z</time>
      </trkpt>
      <trkpt lat="45.70449" lon="4.43252">
        <ele>632</ele>
        <time>2016-04-10T07:44:00Z</time>
      </trkpt>
      <trkpt lat="45.70445" lon="4.43248">
        <ele>631</ele>
        <time>2016-04-10T07:44:04Z</time>
      </trkpt>
      <trkpt lat="45.70442" lon="4.43242">
        <ele>630</ele>
        <time>2016-04-10T07:44:09Z</time>
      </trkpt>
      <trkpt lat="45.70439" lon="4.43237">
        <ele>630</ele>
        <time>2016-04-10T07:44:13Z</time>
      </trkpt>
      <trkpt lat="45.70436" lon="4.43229">
        <ele>630</ele>
        <time>2016-04-10T07:44:17Z</time>
      </trkpt>
      <trkpt lat="45.70433" lon="4.43223">
        <ele>627</ele>
        <time>2016-04-10T07:44:21Z</time>
      </trkpt>
      <trkpt lat="45.7043" lon="4.43215">
        <ele>627</ele>
        <time>2016-04-10T07:44:25Z</time>
      </trkpt>
      <trkpt lat="45.70428" lon="4.43207">
        <ele>627</ele>
        <time>2016-04-10T07:44:30Z</time>
      </trkpt>
      <trkpt lat="45.70425" lon="4.432">
        <ele>628</ele>
        <time>2016-04-10T07:44:35Z</time>
      </trkpt>
      <trkpt lat="45.70424" lon="4.43193">
        <ele>627</ele>
        <time>2016-04-10T07:44:39Z</time>
      </trkpt>
      <trkpt lat="45.70422" lon="4.43186">
        <ele>627</ele>
        <time>2016-04-10T07:44:43Z</time>
      </trkpt>
      <trkpt lat="45.7042" lon="4.43179">
        <ele>627</ele>
        <time>2016-04-10T07:44:47Z</time>
      </trkpt>
      <trkpt lat="45.70417" lon="4.43173">
        <ele>627</ele>
        <time>2016-04-10T07:44:51Z</time>
      </trkpt>
      <trkpt lat="45.70415" lon="4.43166">
        <ele>627</ele>
        <time>2016-04-10T07:44:55Z</time>
      </trkpt>
      <trkpt lat="45.70413" lon="4.4316">
        <ele>625</ele>
        <time>2016-04-10T07:45:00Z</time>
      </trkpt>
      <trkpt lat="45.70411" lon="4.43154">
        <ele>624</ele>
        <time>2016-04-10T07:45:04Z</time>
      </trkpt>
      <trkpt lat="45.70409" lon="4.43146">
        <ele>626</ele>
        <time>2016-04-10T07:45:09Z</time>
      </trkpt>
      <trkpt lat="45.70407" lon="4.4314">
        <ele>625</ele>
        <time>2016-04-10T07:45:13Z</time>
      </trkpt>
      <trkpt lat="45.70407" lon="4.43134">
        <ele>626</ele>
        <time>2016-04-10T07:45:17Z</time>
      </trkpt>
      <trkpt lat="45.70405" lon="4.43126">
        <ele>626</ele>
        <time>2016-04-10T07:45:22Z</time>
      </trkpt>
      <trkpt lat="45.70403" lon="4.4312">
        <ele>625</ele>
        <time>2016-04-10T07:45:26Z</time>
      </trkpt>
      <trkpt lat="45.70399" lon="4.43113">
        <ele>622</ele>
        <time>2016-04-10T07:45:30Z</time>
      </trkpt>
      <trkpt lat="45.70398" lon="4.43106">
        <ele>623</ele>
        <time>2016-04-10T07:45:34Z</time>
      </trkpt>
      <trkpt lat="45.70397" lon="4.43099">
        <ele>623</ele>
        <time>2016-04-10T07:45:38Z</time>
      </trkpt>
      <trkpt lat="45.70395" lon="4.43093">
        <ele>623</ele>
        <time>2016-04-10T07:45:42Z</time>
      </trkpt>
      <trkpt lat="45.70392" lon="4.43087">
        <ele>622</ele>
        <time>2016-04-10T07:45:46Z</time>
      </trkpt>
      <trkpt lat="45.70391" lon="4.43079">
        <ele>621</ele>
        <time>2016-04-10T07:45:50Z</time>
      </trkpt>
      <trkpt lat="45.70388" lon="4.43072">
        <ele>620</ele>
        <time>2016-04-10T07:45:54Z</time>
      </trkpt>
      <trkpt lat="45.70389" lon="4.43065">
        <ele>620</ele>
        <time>2016-04-10T07:45:59Z</time>
      </trkpt>
      <trkpt lat="45.70388" lon="4.43058">
        <ele>622</ele>
        <time>2016-04-10T07:46:03Z</time>
      </trkpt>
      <trkpt lat="45.70385" lon="4.43052">
        <ele>621</ele>
        <time>2016-04-10T07:46:06Z</time>
      </trkpt>
      <trkpt lat="45.70382" lon="4.43046">
        <ele>620</ele>
        <time>2016-04-10T07:46:10Z</time>
      </trkpt>
      <trkpt lat="45.70381" lon="4.43039">
        <ele>619</ele>
        <time>2016-04-10T07:46:14Z</time>
      </trkpt>
      <trkpt lat="45.7038" lon="4.43032">
        <ele>620</ele>
        <time>2016-04-10T07:46:18Z</time>
      </trkpt>
      <trkpt lat="45.7038" lon="4.43025">
        <ele>619</ele>
        <time>2016-04-10T07:46:22Z</time>
      </trkpt>
      <trkpt lat="45.70378" lon="4.43018">
        <ele>618</ele>
        <time>2016-04-10T07:46:26Z</time>
      </trkpt>
      <trkpt lat="45.70378" lon="4.43011">
        <ele>618</ele>
        <time>2016-04-10T07:46:31Z</time>
      </trkpt>
      <trkpt lat="45.70377" lon="4.43004">
        <ele>617</ele>
        <time>2016-04-10T07:46:34Z</time>
      </trkpt>
      <trkpt lat="45.70376" lon="4.42997">
        <ele>616</ele>
        <time>2016-04-10T07:46:38Z</time>
      </trkpt>
      <trkpt lat="45.70376" lon="4.42991">
        <ele>616</ele>
        <time>2016-04-10T07:46:43Z</time>
      </trkpt>
      <trkpt lat="45.70375" lon="4.42985">
        <ele>614</ele>
        <time>2016-04-10T07:46:47Z</time>
      </trkpt>
      <trkpt lat="45.70372" lon="4.42978">
        <ele>612</ele>
        <time>2016-04-10T07:46:51Z</time>
      </trkpt>
      <trkpt lat="45.70369" lon="4.42973">
        <ele>610</ele>
        <time>2016-04-10T07:46:54Z</time>
      </trkpt>
      <trkpt lat="45.70364" lon="4.42969">
        <ele>609</ele>
        <time>2016-04-10T07:46:59Z</time>
      </trkpt>
      <trkpt lat="45.7036" lon="4.42968">
        <ele>607</ele>
        <time>2016-04-10T07:47:03Z</time>
      </trkpt>
      <trkpt lat="45.70354" lon="4.42967">
        <ele>605</ele>
        <time>2016-04-10T07:47:08Z</time>
      </trkpt>
      <trkpt lat="45.70349" lon="4.42965">
        <ele>603</ele>
        <time>2016-04-10T07:47:13Z</time>
      </trkpt>
      <trkpt lat="45.70344" lon="4.42962">
        <ele>601</ele>
        <time>2016-04-10T07:47:18Z</time>
      </trkpt>
      <trkpt lat="45.70339" lon="4.4296">
        <ele>600</ele>
        <time>2016-04-10T07:47:22Z</time>
      </trkpt>
      <trkpt lat="45.70335" lon="4.42958">
        <ele>600</ele>
        <time>2016-04-10T07:47:26Z</time>
      </trkpt>
      <trkpt lat="45.7033" lon="4.42958">
        <ele>598</ele>
        <time>2016-04-10T07:47:29Z</time>
      </trkpt>
      <trkpt lat="45.70326" lon="4.42956">
        <ele>601</ele>
        <time>2016-04-10T07:47:34Z</time>
      </trkpt>
      <trkpt lat="45.70321" lon="4.42955">
        <ele>599</ele>
        <time>2016-04-10T07:47:38Z</time>
      </trkpt>
      <trkpt lat="45.70316" lon="4.42955">
        <ele>600</ele>
        <time>2016-04-10T07:47:42Z</time>
      </trkpt>
      <trkpt lat="45.70311" lon="4.42954">
        <ele>599</ele>
        <time>2016-04-10T07:47:46Z</time>
      </trkpt>
      <trkpt lat="45.70306" lon="4.42955">
        <ele>595</ele>
        <time>2016-04-10T07:47:51Z</time>
      </trkpt>
      <trkpt lat="45.70301" lon="4.42957">
        <ele>595</ele>
        <time>2016-04-10T07:47:54Z</time>
      </trkpt>
      <trkpt lat="45.70296" lon="4.42957">
        <ele>594</ele>
        <time>2016-04-10T07:47:58Z</time>
      </trkpt>
      <trkpt lat="45.70292" lon="4.42958">
        <ele>594</ele>
        <time>2016-04-10T07:48:01Z</time>
      </trkpt>
      <trkpt lat="45.70287" lon="4.4296">
        <ele>592</ele>
        <time>2016-04-10T07:48:05Z</time>
      </trkpt>
      <trkpt lat="45.70282" lon="4.42962">
        <ele>592</ele>
        <time>2016-04-10T07:48:09Z</time>
      </trkpt>
      <trkpt lat="45.70278" lon="4.42963">
        <ele>592</ele>
        <time>2016-04-10T07:48:13Z</time>
      </trkpt>
      <trkpt lat="45.70273" lon="4.42966">
        <ele>591</ele>
        <time>2016-04-10T07:48:17Z</time>
      </trkpt>
      <trkpt lat="45.70268" lon="4.42967">
        <ele>591</ele>
        <time>2016-04-10T07:48:21Z</time>
      </trkpt>
      <trkpt lat="45.70264" lon="4.42971">
        <ele>590</ele>
        <time>2016-04-10T07:48:26Z</time>
      </trkpt>
      <trkpt lat="45.70259" lon="4.42974">
        <ele>590</ele>
        <time>2016-04-10T07:48:30Z</time>
      </trkpt>
      <trkpt lat="45.70254" lon="4.42977">
        <ele>590</ele>
        <time>2016-04-10T07:48:34Z</time>
      </trkpt>
      <trkpt lat="45.7025" lon="4.42981">
        <ele>590</ele>
        <time>2016-04-10T07:48:38Z</time>
      </trkpt>
      <trkpt lat="45.70248" lon="4.42989">
        <ele>589</ele>
        <time>2016-04-10T07:48:42Z</time>
      </trkpt>
      <trkpt lat="45.70247" lon="4.42997">
        <ele>588</ele>
        <time>2016-04-10T07:48:46Z</time>
      </trkpt>
      <trkpt lat="45.70246" lon="4.43005">
        <ele>587</ele>
        <time>2016-04-10T07:48:50Z</time>
      </trkpt>
      <trkpt lat="45.70246" lon="4.43012">
        <ele>586</ele>
        <time>2016-04-10T07:48:53Z</time>
      </trkpt>
      <trkpt lat="45.70243" lon="4.43018">
        <ele>586</ele>
        <time>2016-04-10T07:48:58Z</time>
      </trkpt>
      <trkpt lat="45.70242" lon="4.43025">
        <ele>585</ele>
        <time>2016-04-10T07:49:01Z</time>
      </trkpt>
      <trkpt lat="45.70242" lon="4.43033">
        <ele>584</ele>
        <time>2016-04-10T07:49:05Z</time>
      </trkpt>
      <trkpt lat="45.7024" lon="4.43039">
        <ele>583</ele>
        <time>2016-04-10T07:49:09Z</time>
      </trkpt>
      <trkpt lat="45.7024" lon="4.43047">
        <ele>582</ele>
        <time>2016-04-10T07:49:13Z</time>
      </trkpt>
      <trkpt lat="45.7024" lon="4.43054">
        <ele>581</ele>
        <time>2016-04-10T07:49:18Z</time>
      </trkpt>
      <trkpt lat="45.70238" lon="4.4306">
        <ele>581</ele>
        <time>2016-04-10T07:49:22Z</time>
      </trkpt>
      <trkpt lat="45.70239" lon="4.43067">
        <ele>580</ele>
        <time>2016-04-10T07:49:25Z</time>
      </trkpt>
      <trkpt lat="45.70236" lon="4.43075">
        <ele>580</ele>
        <time>2016-04-10T07:49:29Z</time>
      </trkpt>
      <trkpt lat="45.70234" lon="4.43083">
        <ele>580</ele>
        <time>2016-04-10T07:49:33Z</time>
      </trkpt>
      <trkpt lat="45.70234" lon="4.4309">
        <ele>581</ele>
        <time>2016-04-10T07:49:37Z</time>
      </trkpt>
      <trkpt lat="45.70234" lon="4.43097">
        <ele>580</ele>
        <time>2016-04-10T07:49:40Z</time>
      </trkpt>
      <trkpt lat="45.70233" lon="4.43103">
        <ele>579</ele>
        <time>2016-04-10T07:49:44Z</time>
      </trkpt>
      <trkpt lat="45.70232" lon="4.4311">
        <ele>579</ele>
        <time>2016-04-10T07:49:48Z</time>
      </trkpt>
      <trkpt lat="45.70234" lon="4.43116">
        <ele>579</ele>
        <time>2016-04-10T07:49:51Z</time>
      </trkpt>
      <trkpt lat="45.70234" lon="4.43124">
        <ele>579</ele>
        <time>2016-04-10T07:49:54Z</time>
      </trkpt>
      <trkpt lat="45.70235" lon="4.43131">
        <ele>578</ele>
        <time>2016-04-10T07:49:59Z</time>
      </trkpt>
      <trkpt lat="45.70234" lon="4.4314">
        <ele>578</ele>
        <time>2016-04-10T07:50:04Z</time>
      </trkpt>
      <trkpt lat="45.70233" lon="4.43147">
        <ele>580</ele>
        <time>2016-04-10T07:50:09Z</time>
      </trkpt>
      <trkpt lat="45.70231" lon="4.43154">
        <ele>580</ele>
        <time>2016-04-10T07:50:14Z</time>
      </trkpt>
      <trkpt lat="45.7023" lon="4.4316">
        <ele>580</ele>
        <time>2016-04-10T07:50:20Z</time>
      </trkpt>
      <trkpt lat="45.70231" lon="4.43168">
        <ele>580</ele>
        <time>2016-04-10T07:50:24Z</time>
      </trkpt>
      <trkpt lat="45.70231" lon="4.43175">
        <ele>579</ele>
        <time>2016-04-10T07:50:28Z</time>
      </trkpt>
      <trkpt lat="45.7023" lon="4.43182">
        <ele>580</ele>
        <time>2016-04-10T07:50:32Z</time>
      </trkpt>
      <trkpt lat="45.70231" lon="4.43189">
        <ele>576</ele>
        <time>2016-04-10T07:50:39Z</time>
      </trkpt>
      <trkpt lat="45.7023" lon="4.43196">
        <ele>575</ele>
        <time>2016-04-10T07:50:43Z</time>
      </trkpt>
      <trkpt lat="45.70229" lon="4.43205">
        <ele>574</ele>
        <time>2016-04-10T07:50:52Z</time>
      </trkpt>
      <trkpt lat="45.70228" lon="4.43211">
        <ele>575</ele>
        <time>2016-04-10T07:50:55Z</time>
      </trkpt>
      <trkpt lat="45.70228" lon="4.43218">
        <ele>575</ele>
        <time>2016-04-10T07:50:58Z</time>
      </trkpt>
      <trkpt lat="45.70228" lon="4.43226">
        <ele>574</ele>
        <time>2016-04-10T07:51:02Z</time>
      </trkpt>
      <trkpt lat="45.70228" lon="4.43234">
        <ele>574</ele>
        <time>2016-04-10T07:51:06Z</time>
      </trkpt>
      <trkpt lat="45.70227" lon="4.43241">
        <ele>574</ele>
        <time>2016-04-10T07:51:10Z</time>
      </trkpt>
      <trkpt lat="45.70228" lon="4.43248">
        <ele>572</ele>
        <time>2016-04-10T07:51:13Z</time>
      </trkpt>
      <trkpt lat="45.70227" lon="4.43255">
        <ele>574</ele>
        <time>2016-04-10T07:51:18Z</time>
      </trkpt>
      <trkpt lat="45.70226" lon="4.43261">
        <ele>574</ele>
        <time>2016-04-10T07:51:22Z</time>
      </trkpt>
      <trkpt lat="45.70224" lon="4.43268">
        <ele>574</ele>
        <time>2016-04-10T07:51:33Z</time>
      </trkpt>
      <trkpt lat="45.70224" lon="4.43275">
        <ele>575</ele>
        <time>2016-04-10T07:51:35Z</time>
      </trkpt>
      <trkpt lat="45.70223" lon="4.43281">
        <ele>578</ele>
        <time>2016-04-10T07:51:39Z</time>
      </trkpt>
      <trkpt lat="45.70221" lon="4.43288">
        <ele>579</ele>
        <time>2016-04-10T07:51:42Z</time>
      </trkpt>
      <trkpt lat="45.70221" lon="4.43295">
        <ele>577</ele>
        <time>2016-04-10T07:51:45Z</time>
      </trkpt>
      <trkpt lat="45.70221" lon="4.43302">
        <ele>577</ele>
        <time>2016-04-10T07:51:48Z</time>
      </trkpt>
      <trkpt lat="45.7022" lon="4.4331">
        <ele>577</ele>
        <time>2016-04-10T07:51:52Z</time>
      </trkpt>
      <trkpt lat="45.70219" lon="4.43317">
        <ele>578</ele>
        <time>2016-04-10T07:51:56Z</time>
      </trkpt>
      <trkpt lat="45.7022" lon="4.43323">
        <ele>579</ele>
        <time>2016-04-10T07:52:01Z</time>
      </trkpt>
      <trkpt lat="45.7022" lon="4.4333">
        <ele>579</ele>
        <time>2016-04-10T07:52:04Z</time>
      </trkpt>
      <trkpt lat="45.70219" lon="4.43338">
        <ele>579</ele>
        <time>2016-04-10T07:52:08Z</time>
      </trkpt>
      <trkpt lat="45.7022" lon="4.43346">
        <ele>577</ele>
        <time>2016-04-10T07:52:12Z</time>
      </trkpt>
      <trkpt lat="45.70221" lon="4.43352">
        <ele>576</ele>
        <time>2016-04-10T07:52:15Z</time>
      </trkpt>
      <trkpt lat="45.70221" lon="4.43359">
        <ele>575</ele>
        <time>2016-04-10T07:52:18Z</time>
      </trkpt>
      <trkpt lat="45.70222" lon="4.43366">
        <ele>574</ele>
        <time>2016-04-10T07:52:21Z</time>
      </trkpt>
      <trkpt lat="45.70221" lon="4.43374">
        <ele>573</ele>
        <time>2016-04-10T07:52:25Z</time>
      </trkpt>
      <trkpt lat="45.70219" lon="4.4338">
        <ele>572</ele>
        <time>2016-04-10T07:52:28Z</time>
      </trkpt>
      <trkpt lat="45.70218" lon="4.43388">
        <ele>572</ele>
        <time>2016-04-10T07:52:32Z</time>
      </trkpt>
      <trkpt lat="45.70218" lon="4.43395">
        <ele>571</ele>
        <time>2016-04-10T07:52:36Z</time>
      </trkpt>
      <trkpt lat="45.70218" lon="4.43401">
        <ele>570</ele>
        <time>2016-04-10T07:52:40Z</time>
      </trkpt>
      <trkpt lat="45.70217" lon="4.43408">
        <ele>571</ele>
        <time>2016-04-10T07:52:44Z</time>
      </trkpt>
      <trkpt lat="45.70215" lon="4.43416">
        <ele>569</ele>
        <time>2016-04-10T07:52:49Z</time>
      </trkpt>
      <trkpt lat="45.70213" lon="4.43422">
        <ele>569</ele>
        <time>2016-04-10T07:52:54Z</time>
      </trkpt>
      <trkpt lat="45.7021" lon="4.43428">
        <ele>570</ele>
        <time>2016-04-10T07:52:58Z</time>
      </trkpt>
      <trkpt lat="45.70208" lon="4.43434">
        <ele>568</ele>
        <time>2016-04-10T07:53:01Z</time>
      </trkpt>
      <trkpt lat="45.70205" lon="4.43439">
        <ele>568</ele>
        <time>2016-04-10T07:53:04Z</time>
      </trkpt>
      <trkpt lat="45.70203" lon="4.43447">
        <ele>567</ele>
        <time>2016-04-10T07:53:08Z</time>
      </trkpt>
      <trkpt lat="45.70199" lon="4.43452">
        <ele>567</ele>
        <time>2016-04-10T07:53:13Z</time>
      </trkpt>
      <trkpt lat="45.70197" lon="4.43459">
        <ele>569</ele>
        <time>2016-04-10T07:53:18Z</time>
      </trkpt>
      <trkpt lat="45.70198" lon="4.43465">
        <ele>569</ele>
        <time>2016-04-10T07:53:20Z</time>
      </trkpt>
      <trkpt lat="45.70198" lon="4.43471">
        <ele>568</ele>
        <time>2016-04-10T07:53:23Z</time>
      </trkpt>
      <trkpt lat="45.70199" lon="4.43479">
        <ele>569</ele>
        <time>2016-04-10T07:53:28Z</time>
      </trkpt>
      <trkpt lat="45.70199" lon="4.43486">
        <ele>569</ele>
        <time>2016-04-10T07:53:33Z</time>
      </trkpt>
      <trkpt lat="45.70201" lon="4.43493">
        <ele>568</ele>
        <time>2016-04-10T07:53:36Z</time>
      </trkpt>
      <trkpt lat="45.70203" lon="4.435">
        <ele>568</ele>
        <time>2016-04-10T07:53:40Z</time>
      </trkpt>
      <trkpt lat="45.70206" lon="4.43506">
        <ele>566</ele>
        <time>2016-04-10T07:53:43Z</time>
      </trkpt>
      <trkpt lat="45.70208" lon="4.43513">
        <ele>566</ele>
        <time>2016-04-10T07:53:48Z</time>
      </trkpt>
      <trkpt lat="45.70211" lon="4.4352">
        <ele>565</ele>
        <time>2016-04-10T07:53:51Z</time>
      </trkpt>
      <trkpt lat="45.70214" lon="4.43525">
        <ele>565</ele>
        <time>2016-04-10T07:53:55Z</time>
      </trkpt>
      <trkpt lat="45.70217" lon="4.4353">
        <ele>565</ele>
        <time>2016-04-10T07:54:00Z</time>
      </trkpt>
      <trkpt lat="45.7022" lon="4.43537">
        <ele>565</ele>
        <time>2016-04-10T07:54:04Z</time>
      </trkpt>
      <trkpt lat="45.7022" lon="4.43545">
        <ele>565</ele>
        <time>2016-04-10T07:54:08Z</time>
      </trkpt>
      <trkpt lat="45.70222" lon="4.43552">
        <ele>565</ele>
        <time>2016-04-10T07:54:12Z</time>
      </trkpt>
      <trkpt lat="45.70226" lon="4.4356">
        <ele>563</ele>
        <time>2016-04-10T07:54:16Z</time>
      </trkpt>
      <trkpt lat="45.70227" lon="4.43566">
        <ele>564</ele>
        <time>2016-04-10T07:54:22Z</time>
      </trkpt>
      <trkpt lat="45.70229" lon="4.43574">
        <ele>563</ele>
        <time>2016-04-10T07:54:25Z</time>
      </trkpt>
      <trkpt lat="45.70232" lon="4.43582">
        <ele>564</ele>
        <time>2016-04-10T07:54:30Z</time>
      </trkpt>
      <trkpt lat="45.70235" lon="4.43587">
        <ele>563</ele>
        <time>2016-04-10T07:54:35Z</time>
      </trkpt>
      <trkpt lat="45.7024" lon="4.43596">
        <ele>562</ele>
        <time>2016-04-10T07:54:40Z</time>
      </trkpt>
      <trkpt lat="45.70242" lon="4.43602">
        <ele>561</ele>
        <time>2016-04-10T07:54:43Z</time>
      </trkpt>
      <trkpt lat="45.70241" lon="4.43608">
        <ele>562</ele>
        <time>2016-04-10T07:54:47Z</time>
      </trkpt>
      <trkpt lat="45.70243" lon="4.43617">
        <ele>562</ele>
        <time>2016-04-10T07:54:51Z</time>
      </trkpt>
      <trkpt lat="45.70247" lon="4.43623">
        <ele>562</ele>
        <time>2016-04-10T07:54:56Z</time>
      </trkpt>
      <trkpt lat="45.70248" lon="4.4363">
        <ele>556</ele>
        <time>2016-04-10T07:55:00Z</time>
      </trkpt>
      <trkpt lat="45.70251" lon="4.43638">
        <ele>557</ele>
        <time>2016-04-10T07:55:04Z</time>
      </trkpt>
      <trkpt lat="45.70254" lon="4.43645">
        <ele>558</ele>
        <time>2016-04-10T07:55:09Z</time>
      </trkpt>
      <trkpt lat="45.70257" lon="4.43653">
        <ele>561</ele>
        <time>2016-04-10T07:55:16Z</time>
      </trkpt>
      <trkpt lat="45.70261" lon="4.43656">
        <ele>560</ele>
        <time>2016-04-10T07:55:19Z</time>
      </trkpt>
      <trkpt lat="45.70263" lon="4.43663">
        <ele>559</ele>
        <time>2016-04-10T07:55:22Z</time>
      </trkpt>
      <trkpt lat="45.70267" lon="4.43669">
        <ele>557</ele>
        <time>2016-04-10T07:55:24Z</time>
      </trkpt>
      <trkpt lat="45.70268" lon="4.43675">
        <ele>557</ele>
        <time>2016-04-10T07:55:28Z</time>
      </trkpt>
      <trkpt lat="45.70272" lon="4.43683">
        <ele>556</ele>
        <time>2016-04-10T07:55:30Z</time>
      </trkpt>
      <trkpt lat="45.70273" lon="4.43691">
        <ele>557</ele>
        <time>2016-04-10T07:55:34Z</time>
      </trkpt>
      <trkpt lat="45.70276" lon="4.43699">
        <ele>558</ele>
        <time>2016-04-10T07:55:39Z</time>
      </trkpt>
      <trkpt lat="45.70277" lon="4.43705">
        <ele>561</ele>
        <time>2016-04-10T07:55:45Z</time>
      </trkpt>
      <trkpt lat="45.70281" lon="4.43711">
        <ele>562</ele>
        <time>2016-04-10T07:55:49Z</time>
      </trkpt>
      <trkpt lat="45.70284" lon="4.43718">
        <ele>561</ele>
        <time>2016-04-10T07:55:53Z</time>
      </trkpt>
      <trkpt lat="45.70286" lon="4.43725">
        <ele>562</ele>
        <time>2016-04-10T07:55:57Z</time>
      </trkpt>
      <trkpt lat="45.70287" lon="4.43732">
        <ele>563</ele>
        <time>2016-04-10T07:56:03Z</time>
      </trkpt>
      <trkpt lat="45.70291" lon="4.43737">
        <ele>560</ele>
        <time>2016-04-10T07:56:06Z</time>
      </trkpt>
      <trkpt lat="45.70294" lon="4.43744">
        <ele>559</ele>
        <time>2016-04-10T07:56:09Z</time>
      </trkpt>
      <trkpt lat="45.70294" lon="4.43752">
        <ele>560</ele>
        <time>2016-04-10T07:56:13Z</time>
      </trkpt>
      <trkpt lat="45.70296" lon="4.43759">
        <ele>559</ele>
        <time>2016-04-10T07:56:17Z</time>
      </trkpt>
      <trkpt lat="45.70298" lon="4.43766">
        <ele>558</ele>
        <time>2016-04-10T07:56:21Z</time>
      </trkpt>
      <trkpt lat="45.70299" lon="4.43774">
        <ele>559</ele>
        <time>2016-04-10T07:56:26Z</time>
      </trkpt>
      <trkpt lat="45.70303" lon="4.43778">
        <ele>560</ele>
        <time>2016-04-10T07:56:30Z</time>
      </trkpt>
      <trkpt lat="45.70306" lon="4.43787">
        <ele>559</ele>
        <time>2016-04-10T07:56:34Z</time>
      </trkpt>
      <trkpt lat="45.70308" lon="4.43794">
        <ele>559</ele>
        <time>2016-04-10T07:56:39Z</time>
      </trkpt>
      <trkpt lat="45.70311" lon="4.438">
        <ele>559</ele>
        <time>2016-04-10T07:56:43Z</time>
      </trkpt>
      <trkpt lat="45.70313" lon="4.43807">
        <ele>559</ele>
        <time>2016-04-10T07:56:48Z</time>
      </trkpt>
      <trkpt lat="45.70314" lon="4.43814">
        <ele>558</ele>
        <time>2016-04-10T07:56:53Z</time>
      </trkpt>
      <trkpt lat="45.70317" lon="4.43819">
        <ele>558</ele>
        <time>2016-04-10T07:56:56Z</time>
      </trkpt>
      <trkpt lat="45.7032" lon="4.43825">
        <ele>558</ele>
        <time>2016-04-10T07:56:59Z</time>
      </trkpt>
      <trkpt lat="45.70324" lon="4.4383">
        <ele>556</ele>
        <time>2016-04-10T07:57:02Z</time>
      </trkpt>
      <trkpt lat="45.70327" lon="4.43835">
        <ele>556</ele>
        <time>2016-04-10T07:57:05Z</time>
      </trkpt>
      <trkpt lat="45.70329" lon="4.4384">
        <ele>557</ele>
        <time>2016-04-10T07:57:10Z</time>
      </trkpt>
      <trkpt lat="45.70333" lon="4.43846">
        <ele>556</ele>
        <time>2016-04-10T07:57:14Z</time>
      </trkpt>
      <trkpt lat="45.70337" lon="4.4385">
        <ele>558</ele>
        <time>2016-04-10T07:57:19Z</time>
      </trkpt>
      <trkpt lat="45.70341" lon="4.43856">
        <ele>556</ele>
        <time>2016-04-10T07:57:23Z</time>
      </trkpt>
      <trkpt lat="45.70344" lon="4.43861">
        <ele>555</ele>
        <time>2016-04-10T07:57:27Z</time>
      </trkpt>
      <trkpt lat="45.70348" lon="4.43867">
        <ele>554</ele>
        <time>2016-04-10T07:57:31Z</time>
      </trkpt>
      <trkpt lat="45.70351" lon="4.43871">
        <ele>554</ele>
        <time>2016-04-10T07:57:34Z</time>
      </trkpt>
      <trkpt lat="45.70354" lon="4.43877">
        <ele>557</ele>
        <time>2016-04-10T07:57:39Z</time>
      </trkpt>
      <trkpt lat="45.70356" lon="4.43883">
        <ele>556</ele>
        <time>2016-04-10T07:57:43Z</time>
      </trkpt>
      <trkpt lat="45.7036" lon="4.43889">
        <ele>555</ele>
        <time>2016-04-10T07:57:47Z</time>
      </trkpt>
      <trkpt lat="45.70363" lon="4.43893">
        <ele>555</ele>
        <time>2016-04-10T07:57:55Z</time>
      </trkpt>
      <trkpt lat="45.70367" lon="4.439">
        <ele>553</ele>
        <time>2016-04-10T07:57:59Z</time>
      </trkpt>
      <trkpt lat="45.70371" lon="4.43905">
        <ele>555</ele>
        <time>2016-04-10T07:58:03Z</time>
      </trkpt>
      <trkpt lat="45.70374" lon="4.43911">
        <ele>556</ele>
        <time>2016-04-10T07:58:06Z</time>
      </trkpt>
      <trkpt lat="45.70378" lon="4.43918">
        <ele>556</ele>
        <time>2016-04-10T07:58:10Z</time>
      </trkpt>
      <trkpt lat="45.70382" lon="4.43922">
        <ele>559</ele>
        <time>2016-04-10T07:58:14Z</time>
      </trkpt>
      <trkpt lat="45.70385" lon="4.43929">
        <ele>558</ele>
        <time>2016-04-10T07:58:17Z</time>
      </trkpt>
      <trkpt lat="45.70387" lon="4.43935">
        <ele>558</ele>
        <time>2016-04-10T07:58:22Z</time>
      </trkpt>
      <trkpt lat="45.70391" lon="4.4394">
        <ele>557</ele>
        <time>2016-04-10T07:58:25Z</time>
      </trkpt>
      <trkpt lat="45.70395" lon="4.43946">
        <ele>556</ele>
        <time>2016-04-10T07:58:28Z</time>
      </trkpt>
      <trkpt lat="45.70398" lon="4.43952">
        <ele>556</ele>
        <time>2016-04-10T07:58:32Z</time>
      </trkpt>
      <trkpt lat="45.70399" lon="4.4396">
        <ele>555</ele>
        <time>2016-04-10T07:58:35Z</time>
      </trkpt>
      <trkpt lat="45.70399" lon="4.43967">
        <ele>554</ele>
        <time>2016-04-10T07:58:38Z</time>
      </trkpt>
      <trkpt lat="45.70403" lon="4.43972">
        <ele>554</ele>
        <time>2016-04-10T07:58:43Z</time>
      </trkpt>
      <trkpt lat="45.70407" lon="4.43978">
        <ele>553</ele>
        <time>2016-04-10T07:58:46Z</time>
      </trkpt>
      <trkpt lat="45.70409" lon="4.43985">
        <ele>552</ele>
        <time>2016-04-10T07:58:50Z</time>
      </trkpt>
      <trkpt lat="45.70411" lon="4.43992">
        <ele>550</ele>
        <time>2016-04-10T07:58:55Z</time>
      </trkpt>
      <trkpt lat="45.70414" lon="4.43997">
        <ele>550</ele>
        <time>2016-04-10T07:58:59Z</time>
      </trkpt>
      <trkpt lat="45.70417" lon="4.44002">
        <ele>550</ele>
        <time>2016-04-10T07:59:05Z</time>
      </trkpt>
      <trkpt lat="45.70423" lon="4.43999">
        <ele>548</ele>
        <time>2016-04-10T07:59:10Z</time>
      </trkpt>
      <trkpt lat="45.70426" lon="4.44007">
        <ele>545</ele>
        <time>2016-04-10T07:59:19Z</time>
      </trkpt>
      <trkpt lat="45.70428" lon="4.44015">
        <ele>544</ele>
        <time>2016-04-10T07:59:22Z</time>
      </trkpt>
      <trkpt lat="45.70428" lon="4.44021">
        <ele>546</ele>
        <time>2016-04-10T07:59:25Z</time>
      </trkpt>
      <trkpt lat="45.70431" lon="4.44026">
        <ele>542</ele>
        <time>2016-04-10T07:59:29Z</time>
      </trkpt>
      <trkpt lat="45.70436" lon="4.44028">
        <ele>537</ele>
        <time>2016-04-10T07:59:33Z</time>
      </trkpt>
      <trkpt lat="45.70437" lon="4.44036">
        <ele>536</ele>
        <time>2016-04-10T07:59:43Z</time>
      </trkpt>
      <trkpt lat="45.70436" lon="4.44042">
        <ele>538</ele>
        <time>2016-04-10T07:59:47Z</time>
      </trkpt>
      <trkpt lat="45.70436" lon="4.4405">
        <ele>538</ele>
        <time>2016-04-10T07:59:51Z</time>
      </trkpt>
      <trkpt lat="45.70436" lon="4.44058">
        <ele>536</ele>
        <time>2016-04-10T07:59:54Z</time>
      </trkpt>
      <trkpt lat="45.70436" lon="4.44066">
        <ele>535</ele>
        <time>2016-04-10T07:59:57Z</time>
      </trkpt>
      <trkpt lat="45.70436" lon="4.44074">
        <ele>533</ele>
        <time>2016-04-10T08:00:01Z</time>
      </trkpt>
      <trkpt lat="45.70436" lon="4.44082">
        <ele>532</ele>
        <time>2016-04-10T08:00:05Z</time>
      </trkpt>
      <trkpt lat="45.70437" lon="4.44088">
        <ele>529</ele>
        <time>2016-04-10T08:00:09Z</time>
      </trkpt>
      <trkpt lat="45.70435" lon="4.44094">
        <ele>528</ele>
        <time>2016-04-10T08:00:13Z</time>
      </trkpt>
      <trkpt lat="45.70434" lon="4.44101">
        <ele>528</ele>
        <time>2016-04-10T08:00:16Z</time>
      </trkpt>
      <trkpt lat="45.70433" lon="4.44107">
        <ele>527</ele>
        <time>2016-04-10T08:00:19Z</time>
      </trkpt>
      <trkpt lat="45.70431" lon="4.44114">
        <ele>529</ele>
        <time>2016-04-10T08:00:24Z</time>
      </trkpt>
      <trkpt lat="45.70429" lon="4.44122">
        <ele>526</ele>
        <time>2016-04-10T08:00:28Z</time>
      </trkpt>
      <trkpt lat="45.70428" lon="4.44129">
        <ele>525</ele>
        <time>2016-04-10T08:00:32Z</time>
      </trkpt>
      <trkpt lat="45.70428" lon="4.44136">
        <ele>524</ele>
        <time>2016-04-10T08:00:36Z</time>
      </trkpt>
      <trkpt lat="45.70426" lon="4.44144">
        <ele>521</ele>
        <time>2016-04-10T08:00:40Z</time>
      </trkpt>
      <trkpt lat="45.70426" lon="4.44151">
        <ele>519</ele>
        <time>2016-04-10T08:00:44Z</time>
      </trkpt>
      <trkpt lat="45.70423" lon="4.44157">
        <ele>520</ele>
        <time>2016-04-10T08:00:49Z</time>
      </trkpt>
      <trkpt lat="45.70422" lon="4.44163">
        <ele>519</ele>
        <time>2016-04-10T08:00:52Z</time>
      </trkpt>
      <trkpt lat="45.7042" lon="4.44171">
        <ele>517</ele>
        <time>2016-04-10T08:00:56Z</time>
      </trkpt>
      <trkpt lat="45.70418" lon="4.44177">
        <ele>515</ele>
        <time>2016-04-10T08:01:01Z</time>
      </trkpt>
      <trkpt lat="45.70415" lon="4.44184">
        <ele>515</ele>
        <time>2016-04-10T08:01:06Z</time>
      </trkpt>
      <trkpt lat="45.70411" lon="4.44188">
        <ele>516</ele>
        <time>2016-04-10T08:01:10Z</time>
      </trkpt>
      <trkpt lat="45.70407" lon="4.44193">
        <ele>515</ele>
        <time>2016-04-10T08:01:15Z</time>
      </trkpt>
      <trkpt lat="45.70404" lon="4.442">
        <ele>514</ele>
        <time>2016-04-10T08:01:20Z</time>
      </trkpt>
      <trkpt lat="45.70402" lon="4.44207">
        <ele>512</ele>
        <time>2016-04-10T08:01:24Z</time>
      </trkpt>
      <trkpt lat="45.70401" lon="4.44215">
        <ele>510</ele>
        <time>2016-04-10T08:01:28Z</time>
      </trkpt>
      <trkpt lat="45.704" lon="4.44223">
        <ele>508</ele>
        <time>2016-04-10T08:01:32Z</time>
      </trkpt>
      <trkpt lat="45.704" lon="4.44231">
        <ele>506</ele>
        <time>2016-04-10T08:01:35Z</time>
      </trkpt>
      <trkpt lat="45.70402" lon="4.44239">
        <ele>503</ele>
        <time>2016-04-10T08:01:39Z</time>
      </trkpt>
      <trkpt lat="45.70403" lon="4.44246">
        <ele>503</ele>
        <time>2016-04-10T08:01:43Z</time>
      </trkpt>
      <trkpt lat="45.70403" lon="4.44254">
        <ele>505</ele>
        <time>2016-04-10T08:01:48Z</time>
      </trkpt>
      <trkpt lat="45.70402" lon="4.44261">
        <ele>508</ele>
        <time>2016-04-10T08:01:52Z</time>
      </trkpt>
      <trkpt lat="45.70401" lon="4.44267">
        <ele>510</ele>
        <time>2016-04-10T08:01:55Z</time>
      </trkpt>
      <trkpt lat="45.70405" lon="4.44274">
        <ele>509</ele>
        <time>2016-04-10T08:01:59Z</time>
      </trkpt>
      <trkpt lat="45.70405" lon="4.44281">
        <ele>510</ele>
        <time>2016-04-10T08:02:04Z</time>
      </trkpt>
      <trkpt lat="45.70409" lon="4.44287">
        <ele>510</ele>
        <time>2016-04-10T08:02:08Z</time>
      </trkpt>
      <trkpt lat="45.70412" lon="4.44292">
        <ele>511</ele>
        <time>2016-04-10T08:02:12Z</time>
      </trkpt>
      <trkpt lat="45.70413" lon="4.44298">
        <ele>515</ele>
        <time>2016-04-10T08:02:18Z</time>
      </trkpt>
      <trkpt lat="45.70418" lon="4.443">
        <ele>514</ele>
        <time>2016-04-10T08:02:22Z</time>
      </trkpt>
      <trkpt lat="45.70422" lon="4.44305">
        <ele>515</ele>
        <time>2016-04-10T08:02:27Z</time>
      </trkpt>
      <trkpt lat="45.70425" lon="4.4431">
        <ele>513</ele>
        <time>2016-04-10T08:02:30Z</time>
      </trkpt>
      <trkpt lat="45.70428" lon="4.44315">
        <ele>513</ele>
        <time>2016-04-10T08:02:34Z</time>
      </trkpt>
      <trkpt lat="45.7043" lon="4.4432">
        <ele>514</ele>
        <time>2016-04-10T08:02:41Z</time>
      </trkpt>
      <trkpt lat="45.70435" lon="4.44326">
        <ele>515</ele>
        <time>2016-04-10T08:02:48Z</time>
      </trkpt>
      <trkpt lat="45.70436" lon="4.44336">
        <ele>517</ele>
        <time>2016-04-10T08:02:59Z</time>
      </trkpt>
      <trkpt lat="45.70433" lon="4.44343">
        <ele>519</ele>
        <time>2016-04-10T08:03:05Z</time>
      </trkpt>
      <trkpt lat="45.7043" lon="4.44348">
        <ele>523</ele>
        <time>2016-04-10T08:03:10Z</time>
      </trkpt>
      <trkpt lat="45.70432" lon="4.44354">
        <ele>523</ele>
        <time>2016-04-10T08:03:13Z</time>
      </trkpt>
      <trkpt lat="45.70434" lon="4.44362">
        <ele>522</ele>
        <time>2016-04-10T08:03:17Z</time>
      </trkpt>
      <trkpt lat="45.70433" lon="4.44368">
        <ele>524</ele>
        <time>2016-04-10T08:03:22Z</time>
      </trkpt>
      <trkpt lat="45.70432" lon="4.44376">
        <ele>527</ele>
        <time>2016-04-10T08:03:28Z</time>
      </trkpt>
      <trkpt lat="45.70432" lon="4.44383">
        <ele>528</ele>
        <time>2016-04-10T08:03:34Z</time>
      </trkpt>
      <trkpt lat="45.70434" lon="4.4439">
        <ele>529</ele>
        <time>2016-04-10T08:03:37Z</time>
      </trkpt>
      <trkpt lat="45.70434" lon="4.44397">
        <ele>530</ele>
        <time>2016-04-10T08:03:41Z</time>
      </trkpt>
      <trkpt lat="45.70432" lon="4.44403">
        <ele>531</ele>
        <time>2016-04-10T08:03:46Z</time>
      </trkpt>
      <trkpt lat="45.70433" lon="4.44411">
        <ele>532</ele>
        <time>2016-04-10T08:03:51Z</time>
      </trkpt>
      <trkpt lat="45.70434" lon="4.44418">
        <ele>534</ele>
        <time>2016-04-10T08:03:56Z</time>
      </trkpt>
      <trkpt lat="45.70433" lon="4.44426">
        <ele>535</ele>
        <time>2016-04-10T08:04:01Z</time>
      </trkpt>
      <trkpt lat="45.70435" lon="4.44432">
        <ele>535</ele>
        <time>2016-04-10T08:04:06Z</time>
      </trkpt>
      <trkpt lat="45.70436" lon="4.4444">
        <ele>536</ele>
        <time>2016-04-10T08:04:10Z</time>
      </trkpt>
      <trkpt lat="45.70438" lon="4.44446">
        <ele>536</ele>
        <time>2016-04-10T08:04:14Z</time>
      </trkpt>
      <trkpt lat="45.70441" lon="4.44453">
        <ele>536</ele>
        <time>2016-04-10T08:04:19Z</time>
      </trkpt>
      <trkpt lat="45.70442" lon="4.44459">
        <ele>537</ele>
        <time>2016-04-10T08:04:23Z</time>
      </trkpt>
      <trkpt lat="45.70444" lon="4.44467">
        <ele>537</ele>
        <time>2016-04-10T08:04:28Z</time>
      </trkpt>
      <trkpt lat="45.70444" lon="4.44473">
        <ele>537</ele>
        <time>2016-04-10T08:04:32Z</time>
      </trkpt>
      <trkpt lat="45.70446" lon="4.44481">
        <ele>537</ele>
        <time>2016-04-10T08:04:36Z</time>
      </trkpt>
      <trkpt lat="45.70446" lon="4.44487">
        <ele>538</ele>
        <time>2016-04-10T08:04:40Z</time>
      </trkpt>
      <trkpt lat="45.70447" lon="4.44494">
        <ele>539</ele>
        <time>2016-04-10T08:04:45Z</time>
      </trkpt>
      <trkpt lat="45.70446" lon="4.44501">
        <ele>541</ele>
        <time>2016-04-10T08:04:50Z</time>
      </trkpt>
      <trkpt lat="45.7045" lon="4.44497">
        <ele>548</ele>
        <time>2016-04-10T08:05:37Z</time>
      </trkpt>
      <trkpt lat="45.70454" lon="4.44501">
        <ele>547</ele>
        <time>2016-04-10T08:05:41Z</time>
      </trkpt>
      <trkpt lat="45.70458" lon="4.44507">
        <ele>548</ele>
        <time>2016-04-10T08:05:45Z</time>
      </trkpt>
      <trkpt lat="45.7046" lon="4.44514">
        <ele>547</ele>
        <time>2016-04-10T08:05:49Z</time>
      </trkpt>
      <trkpt lat="45.70464" lon="4.44518">
        <ele>548</ele>
        <time>2016-04-10T08:05:53Z</time>
      </trkpt>
      <trkpt lat="45.70467" lon="4.44524">
        <ele>547</ele>
        <time>2016-04-10T08:05:56Z</time>
      </trkpt>
      <trkpt lat="45.7047" lon="4.44528">
        <ele>547</ele>
        <time>2016-04-10T08:05:59Z</time>
      </trkpt>
      <trkpt lat="45.70474" lon="4.44534">
        <ele>547</ele>
        <time>2016-04-10T08:06:03Z</time>
      </trkpt>
      <trkpt lat="45.70477" lon="4.4454">
        <ele>549</ele>
        <time>2016-04-10T08:06:07Z</time>
      </trkpt>
      <trkpt lat="45.70481" lon="4.44547">
        <ele>550</ele>
        <time>2016-04-10T08:06:12Z</time>
      </trkpt>
      <trkpt lat="45.70484" lon="4.44551">
        <ele>550</ele>
        <time>2016-04-10T08:06:15Z</time>
      </trkpt>
      <trkpt lat="45.70487" lon="4.44558">
        <ele>551</ele>
        <time>2016-04-10T08:06:19Z</time>
      </trkpt>
      <trkpt lat="45.7049" lon="4.44565">
        <ele>552</ele>
        <time>2016-04-10T08:06:23Z</time>
      </trkpt>
      <trkpt lat="45.70493" lon="4.4457">
        <ele>552</ele>
        <time>2016-04-10T08:06:26Z</time>
      </trkpt>
      <trkpt lat="45.70498" lon="4.44576">
        <ele>550</ele>
        <time>2016-04-10T08:06:29Z</time>
      </trkpt>
      <trkpt lat="45.70501" lon="4.44581">
        <ele>548</ele>
        <time>2016-04-10T08:06:32Z</time>
      </trkpt>
      <trkpt lat="45.70503" lon="4.44588">
        <ele>549</ele>
        <time>2016-04-10T08:06:36Z</time>
      </trkpt>
      <trkpt lat="45.70503" lon="4.44595">
        <ele>550</ele>
        <time>2016-04-10T08:06:40Z</time>
      </trkpt>
      <trkpt lat="45.70505" lon="4.44602">
        <ele>549</ele>
        <time>2016-04-10T08:06:43Z</time>
      </trkpt>
      <trkpt lat="45.70505" lon="4.44609">
        <ele>549</ele>
        <time>2016-04-10T08:06:47Z</time>
      </trkpt>
      <trkpt lat="45.70506" lon="4.44618">
        <ele>548</ele>
        <time>2016-04-10T08:06:51Z</time>
      </trkpt>
      <trkpt lat="45.70506" lon="4.44625">
        <ele>548</ele>
        <time>2016-04-10T08:06:55Z</time>
      </trkpt>
      <trkpt lat="45.70506" lon="4.44632">
        <ele>550</ele>
        <time>2016-04-10T08:06:59Z</time>
      </trkpt>
      <trkpt lat="45.70506" lon="4.44639">
        <ele>550</ele>
        <time>2016-04-10T08:07:03Z</time>
      </trkpt>
      <trkpt lat="45.70505" lon="4.44646">
        <ele>551</ele>
        <time>2016-04-10T08:07:07Z</time>
      </trkpt>
      <trkpt lat="45.70507" lon="4.44654">
        <ele>550</ele>
        <time>2016-04-10T08:07:11Z</time>
      </trkpt>
      <trkpt lat="45.70508" lon="4.4466">
        <ele>552</ele>
        <time>2016-04-10T08:07:15Z</time>
      </trkpt>
      <trkpt lat="45.70509" lon="4.44668">
        <ele>553</ele>
        <time>2016-04-10T08:07:19Z</time>
      </trkpt>
      <trkpt lat="45.70511" lon="4.44674">
        <ele>552</ele>
        <time>2016-04-10T08:07:23Z</time>
      </trkpt>
      <trkpt lat="45.70511" lon="4.44681">
        <ele>552</ele>
        <time>2016-04-10T08:07:27Z</time>
      </trkpt>
      <trkpt lat="45.70513" lon="4.44689">
        <ele>554</ele>
        <time>2016-04-10T08:07:31Z</time>
      </trkpt>
      <trkpt lat="45.70514" lon="4.44696">
        <ele>556</ele>
        <time>2016-04-10T08:07:37Z</time>
      </trkpt>
      <trkpt lat="45.70515" lon="4.44703">
        <ele>558</ele>
        <time>2016-04-10T08:07:42Z</time>
      </trkpt>
      <trkpt lat="45.70517" lon="4.44711">
        <ele>558</ele>
        <time>2016-04-10T08:07:46Z</time>
      </trkpt>
      <trkpt lat="45.70519" lon="4.44717">
        <ele>557</ele>
        <time>2016-04-10T08:07:51Z</time>
      </trkpt>
      <trkpt lat="45.7052" lon="4.44724">
        <ele>557</ele>
        <time>2016-04-10T08:07:59Z</time>
      </trkpt>
      <trkpt lat="45.70522" lon="4.44731">
        <ele>560</ele>
        <time>2016-04-10T08:08:03Z</time>
      </trkpt>
      <trkpt lat="45.70525" lon="4.44739">
        <ele>560</ele>
        <time>2016-04-10T08:08:07Z</time>
      </trkpt>
      <trkpt lat="45.70526" lon="4.44746">
        <ele>561</ele>
        <time>2016-04-10T08:08:11Z</time>
      </trkpt>
      <trkpt lat="45.70528" lon="4.44755">
        <ele>563</ele>
        <time>2016-04-10T08:08:17Z</time>
      </trkpt>
      <trkpt lat="45.70531" lon="4.44762">
        <ele>563</ele>
        <time>2016-04-10T08:08:21Z</time>
      </trkpt>
      <trkpt lat="45.70534" lon="4.44767">
        <ele>564</ele>
        <time>2016-04-10T08:08:25Z</time>
      </trkpt>
      <trkpt lat="45.70536" lon="4.44774">
        <ele>564</ele>
        <time>2016-04-10T08:08:29Z</time>
      </trkpt>
      <trkpt lat="45.70539" lon="4.44781">
        <ele>565</ele>
        <time>2016-04-10T08:08:33Z</time>
      </trkpt>
      <trkpt lat="45.70543" lon="4.44787">
        <ele>565</ele>
        <time>2016-04-10T08:08:36Z</time>
      </trkpt>
      <trkpt lat="45.70548" lon="4.4479">
        <ele>566</ele>
        <time>2016-04-10T08:08:39Z</time>
      </trkpt>
      <trkpt lat="45.70549" lon="4.44796">
        <ele>569</ele>
        <time>2016-04-10T08:08:45Z</time>
      </trkpt>
      <trkpt lat="45.70552" lon="4.44802">
        <ele>572</ele>
        <time>2016-04-10T08:08:50Z</time>
      </trkpt>
      <trkpt lat="45.70554" lon="4.44807">
        <ele>573</ele>
        <time>2016-04-10T08:08:57Z</time>
      </trkpt>
      <trkpt lat="45.70556" lon="4.44813">
        <ele>574</ele>
        <time>2016-04-10T08:09:07Z</time>
      </trkpt>
      <trkpt lat="45.70556" lon="4.44821">
        <ele>573</ele>
        <time>2016-04-10T08:09:10Z</time>
      </trkpt>
      <trkpt lat="45.70556" lon="4.44829">
        <ele>572</ele>
        <time>2016-04-10T08:09:12Z</time>
      </trkpt>
      <trkpt lat="45.70555" lon="4.44835">
        <ele>573</ele>
        <time>2016-04-10T08:09:16Z</time>
      </trkpt>
      <trkpt lat="45.70552" lon="4.4484">
        <ele>572</ele>
        <time>2016-04-10T08:09:19Z</time>
      </trkpt>
      <trkpt lat="45.70548" lon="4.44845">
        <ele>574</ele>
        <time>2016-04-10T08:09:25Z</time>
      </trkpt>
      <trkpt lat="45.70544" lon="4.44845">
        <ele>577</ele>
        <time>2016-04-10T08:09:28Z</time>
      </trkpt>
      <trkpt lat="45.70548" lon="4.44843">
        <ele>575</ele>
        <time>2016-04-10T08:09:35Z</time>
      </trkpt>
      <trkpt lat="45.70543" lon="4.4484">
        <ele>576</ele>
        <time>2016-04-10T08:09:44Z</time>
      </trkpt>
      <trkpt lat="45.70538" lon="4.4484">
        <ele>577</ele>
        <time>2016-04-10T08:10:01Z</time>
      </trkpt>
      <trkpt lat="45.70533" lon="4.44837">
        <ele>577</ele>
        <time>2016-04-10T08:10:08Z</time>
      </trkpt>
      <trkpt lat="45.70528" lon="4.44839">
        <ele>576</ele>
        <time>2016-04-10T08:10:41Z</time>
      </trkpt>
      <trkpt lat="45.70524" lon="4.44837">
        <ele>579</ele>
        <time>2016-04-10T08:11:17Z</time>
      </trkpt>
      <trkpt lat="45.70528" lon="4.44835">
        <ele>578</ele>
        <time>2016-04-10T08:12:01Z</time>
      </trkpt>
      <trkpt lat="45.70533" lon="4.44838">
        <ele>568</ele>
        <time>2016-04-10T08:13:04Z</time>
      </trkpt>
      <trkpt lat="45.70528" lon="4.44838">
        <ele>577</ele>
        <time>2016-04-10T08:14:33Z</time>
      </trkpt>
      <trkpt lat="45.70532" lon="4.44844">
        <ele>570</ele>
        <time>2016-04-10T08:17:16Z</time>
      </trkpt>
      <trkpt lat="45.70535" lon="4.4485">
        <ele>571</ele>
        <time>2016-04-10T08:17:42Z</time>
      </trkpt>
      <trkpt lat="45.70537" lon="4.44858">
        <ele>571</ele>
        <time>2016-04-10T08:17:47Z</time>
      </trkpt>
      <trkpt lat="45.70534" lon="4.44864">
        <ele>570</ele>
        <time>2016-04-10T08:17:52Z</time>
      </trkpt>
      <trkpt lat="45.70529" lon="4.44867">
        <ele>573</ele>
        <time>2016-04-10T08:17:57Z</time>
      </trkpt>
      <trkpt lat="45.70527" lon="4.44872">
        <ele>577</ele>
        <time>2016-04-10T08:18:52Z</time>
      </trkpt>
      <trkpt lat="45.70526" lon="4.44881">
        <ele>575</ele>
        <time>2016-04-10T08:18:56Z</time>
      </trkpt>
      <trkpt lat="45.70525" lon="4.44892">
        <ele>571</ele>
        <time>2016-04-10T08:19:00Z</time>
      </trkpt>
      <trkpt lat="45.70526" lon="4.44899">
        <ele>568</ele>
        <time>2016-04-10T08:19:04Z</time>
      </trkpt>
      <trkpt lat="45.70521" lon="4.44901">
        <ele>569</ele>
        <time>2016-04-10T08:19:13Z</time>
      </trkpt>
      <trkpt lat="45.70515" lon="4.44904">
        <ele>572</ele>
        <time>2016-04-10T08:19:23Z</time>
      </trkpt>
      <trkpt lat="45.70521" lon="4.44903">
        <ele>567</ele>
        <time>2016-04-10T08:19:28Z</time>
      </trkpt>
      <trkpt lat="45.70526" lon="4.44906">
        <ele>567</ele>
        <time>2016-04-10T08:19:32Z</time>
      </trkpt>
      <trkpt lat="45.70531" lon="4.449">
        <ele>566</ele>
        <time>2016-04-10T08:19:36Z</time>
      </trkpt>
      <trkpt lat="45.70531" lon="4.44908">
        <ele>573</ele>
        <time>2016-04-10T08:19:43Z</time>
      </trkpt>
      <trkpt lat="45.70533" lon="4.44916">
        <ele>573</ele>
        <time>2016-04-10T08:19:46Z</time>
      </trkpt>
      <trkpt lat="45.70536" lon="4.44922">
        <ele>573</ele>
        <time>2016-04-10T08:19:49Z</time>
      </trkpt>
      <trkpt lat="45.70541" lon="4.44927">
        <ele>573</ele>
        <time>2016-04-10T08:19:53Z</time>
      </trkpt>
      <trkpt lat="45.70545" lon="4.4493">
        <ele>571</ele>
        <time>2016-04-10T08:19:55Z</time>
      </trkpt>
      <trkpt lat="45.70548" lon="4.44936">
        <ele>569</ele>
        <time>2016-04-10T08:20:00Z</time>
      </trkpt>
      <trkpt lat="45.70553" lon="4.44937">
        <ele>568</ele>
        <time>2016-04-10T08:20:03Z</time>
      </trkpt>
      <trkpt lat="45.70558" lon="4.44937">
        <ele>568</ele>
        <time>2016-04-10T08:20:07Z</time>
      </trkpt>
      <trkpt lat="45.70563" lon="4.44937">
        <ele>566</ele>
        <time>2016-04-10T08:20:10Z</time>
      </trkpt>
      <trkpt lat="45.70569" lon="4.44935">
        <ele>565</ele>
        <time>2016-04-10T08:20:14Z</time>
      </trkpt>
      <trkpt lat="45.70574" lon="4.44934">
        <ele>565</ele>
        <time>2016-04-10T08:20:18Z</time>
      </trkpt>
      <trkpt lat="45.70579" lon="4.44935">
        <ele>565</ele>
        <time>2016-04-10T08:20:22Z</time>
      </trkpt>
      <trkpt lat="45.70585" lon="4.44935">
        <ele>566</ele>
        <time>2016-04-10T08:20:26Z</time>
      </trkpt>
      <trkpt lat="45.7059" lon="4.44936">
        <ele>566</ele>
        <time>2016-04-10T08:20:30Z</time>
      </trkpt>
      <trkpt lat="45.70596" lon="4.44936">
        <ele>565</ele>
        <time>2016-04-10T08:20:34Z</time>
      </trkpt>
      <trkpt lat="45.706" lon="4.4494">
        <ele>566</ele>
        <time>2016-04-10T08:20:38Z</time>
      </trkpt>
      <trkpt lat="45.70606" lon="4.44941">
        <ele>564</ele>
        <time>2016-04-10T08:20:42Z</time>
      </trkpt>
      <trkpt lat="45.70611" lon="4.44942">
        <ele>562</ele>
        <time>2016-04-10T08:20:45Z</time>
      </trkpt>
      <trkpt lat="45.70616" lon="4.44943">
        <ele>563</ele>
        <time>2016-04-10T08:20:49Z</time>
      </trkpt>
      <trkpt lat="45.70622" lon="4.44936">
        <ele>561</ele>
        <time>2016-04-10T08:20:53Z</time>
      </trkpt>
      <trkpt lat="45.70626" lon="4.44932">
        <ele>563</ele>
        <time>2016-04-10T08:20:59Z</time>
      </trkpt>
      <trkpt lat="45.70632" lon="4.4493">
        <ele>563</ele>
        <time>2016-04-10T08:21:04Z</time>
      </trkpt>
      <trkpt lat="45.70636" lon="4.44934">
        <ele>563</ele>
        <time>2016-04-10T08:21:09Z</time>
      </trkpt>
      <trkpt lat="45.70635" lon="4.44942">
        <ele>566</ele>
        <time>2016-04-10T08:21:16Z</time>
      </trkpt>
      <trkpt lat="45.70634" lon="4.44948">
        <ele>567</ele>
        <time>2016-04-10T08:21:24Z</time>
      </trkpt>
      <trkpt lat="45.70639" lon="4.44951">
        <ele>568</ele>
        <time>2016-04-10T08:21:29Z</time>
      </trkpt>
      <trkpt lat="45.70641" lon="4.44957">
        <ele>571</ele>
        <time>2016-04-10T08:21:39Z</time>
      </trkpt>
      <trkpt lat="45.70645" lon="4.44961">
        <ele>571</ele>
        <time>2016-04-10T08:21:44Z</time>
      </trkpt>
      <trkpt lat="45.70648" lon="4.44966">
        <ele>572</ele>
        <time>2016-04-10T08:21:50Z</time>
      </trkpt>
      <trkpt lat="45.7065" lon="4.44972">
        <ele>574</ele>
        <time>2016-04-10T08:21:55Z</time>
      </trkpt>
      <trkpt lat="45.70652" lon="4.44977">
        <ele>574</ele>
        <time>2016-04-10T08:22:03Z</time>
      </trkpt>
      <trkpt lat="45.70656" lon="4.44984">
        <ele>576</ele>
        <time>2016-04-10T08:22:15Z</time>
      </trkpt>
      <trkpt lat="45.70658" lon="4.44989">
        <ele>576</ele>
        <time>2016-04-10T08:22:20Z</time>
      </trkpt>
      <trkpt lat="45.7066" lon="4.44996">
        <ele>577</ele>
        <time>2016-04-10T08:22:25Z</time>
      </trkpt>
      <trkpt lat="45.7066" lon="4.45003">
        <ele>580</ele>
        <time>2016-04-10T08:22:32Z</time>
      </trkpt>
      <trkpt lat="45.70659" lon="4.4501">
        <ele>580</ele>
        <time>2016-04-10T08:22:37Z</time>
      </trkpt>
      <trkpt lat="45.7066" lon="4.45017">
        <ele>583</ele>
        <time>2016-04-10T08:22:47Z</time>
      </trkpt>
      <trkpt lat="45.7066" lon="4.45025">
        <ele>585</ele>
        <time>2016-04-10T08:22:51Z</time>
      </trkpt>
      <trkpt lat="45.70663" lon="4.45031">
        <ele>585</ele>
        <time>2016-04-10T08:22:57Z</time>
      </trkpt>
      <trkpt lat="45.70667" lon="4.45037">
        <ele>584</ele>
        <time>2016-04-10T08:23:02Z</time>
      </trkpt>
      <trkpt lat="45.70671" lon="4.45043">
        <ele>587</ele>
        <time>2016-04-10T08:23:08Z</time>
      </trkpt>
      <trkpt lat="45.70675" lon="4.45048">
        <ele>587</ele>
        <time>2016-04-10T08:23:13Z</time>
      </trkpt>
      <trkpt lat="45.70678" lon="4.45053">
        <ele>588</ele>
        <time>2016-04-10T08:23:17Z</time>
      </trkpt>
      <trkpt lat="45.70682" lon="4.45058">
        <ele>589</ele>
        <time>2016-04-10T08:23:22Z</time>
      </trkpt>
      <trkpt lat="45.70685" lon="4.45064">
        <ele>589</ele>
        <time>2016-04-10T08:23:27Z</time>
      </trkpt>
      <trkpt lat="45.70689" lon="4.45071">
        <ele>588</ele>
        <time>2016-04-10T08:23:32Z</time>
      </trkpt>
      <trkpt lat="45.70694" lon="4.45074">
        <ele>589</ele>
        <time>2016-04-10T08:23:38Z</time>
      </trkpt>
      <trkpt lat="45.70698" lon="4.45078">
        <ele>590</ele>
        <time>2016-04-10T08:23:44Z</time>
      </trkpt>
      <trkpt lat="45.70703" lon="4.45083">
        <ele>590</ele>
        <time>2016-04-10T08:23:48Z</time>
      </trkpt>
      <trkpt lat="45.70707" lon="4.45086">
        <ele>593</ele>
        <time>2016-04-10T08:23:53Z</time>
      </trkpt>
      <trkpt lat="45.70712" lon="4.45084">
        <ele>595</ele>
        <time>2016-04-10T08:23:58Z</time>
      </trkpt>
      <trkpt lat="45.70717" lon="4.4508">
        <ele>595</ele>
        <time>2016-04-10T08:24:03Z</time>
      </trkpt>
      <trkpt lat="45.70721" lon="4.45076">
        <ele>596</ele>
        <time>2016-04-10T08:24:09Z</time>
      </trkpt>
      <trkpt lat="45.70723" lon="4.4507">
        <ele>595</ele>
        <time>2016-04-10T08:24:13Z</time>
      </trkpt>
      <trkpt lat="45.70728" lon="4.45068">
        <ele>601</ele>
        <time>2016-04-10T08:24:21Z</time>
      </trkpt>
      <trkpt lat="45.70733" lon="4.45065">
        <ele>604</ele>
        <time>2016-04-10T08:24:27Z</time>
      </trkpt>
      <trkpt lat="45.70737" lon="4.45061">
        <ele>604</ele>
        <time>2016-04-10T08:24:33Z</time>
      </trkpt>
      <trkpt lat="45.70742" lon="4.45057">
        <ele>604</ele>
        <time>2016-04-10T08:24:38Z</time>
      </trkpt>
      <trkpt lat="45.70747" lon="4.45054">
        <ele>605</ele>
        <time>2016-04-10T08:24:43Z</time>
      </trkpt>
      <trkpt lat="45.70752" lon="4.45051">
        <ele>605</ele>
        <time>2016-04-10T08:24:47Z</time>
      </trkpt>
      <trkpt lat="45.70757" lon="4.45051">
        <ele>608</ele>
        <time>2016-04-10T08:24:53Z</time>
      </trkpt>
      <trkpt lat="45.70761" lon="4.45049">
        <ele>610</ele>
        <time>2016-04-10T08:24:58Z</time>
      </trkpt>
      <trkpt lat="45.70765" lon="4.45045">
        <ele>609</ele>
        <time>2016-04-10T08:25:01Z</time>
      </trkpt>
      <trkpt lat="45.7077" lon="4.45044">
        <ele>611</ele>
        <time>2016-04-10T08:25:07Z</time>
      </trkpt>
      <trkpt lat="45.70774" lon="4.45041">
        <ele>610</ele>
        <time>2016-04-10T08:25:11Z</time>
      </trkpt>
      <trkpt lat="45.7078" lon="4.45041">
        <ele>611</ele>
        <time>2016-04-10T08:25:16Z</time>
      </trkpt>
      <trkpt lat="45.70785" lon="4.45039">
        <ele>611</ele>
        <time>2016-04-10T08:25:20Z</time>
      </trkpt>
      <trkpt lat="45.7079" lon="4.45036">
        <ele>609</ele>
        <time>2016-04-10T08:25:24Z</time>
      </trkpt>
      <trkpt lat="45.70795" lon="4.45035">
        <ele>609</ele>
        <time>2016-04-10T08:25:27Z</time>
      </trkpt>
      <trkpt lat="45.70801" lon="4.45029">
        <ele>607</ele>
        <time>2016-04-10T08:25:31Z</time>
      </trkpt>
      <trkpt lat="45.70804" lon="4.45025">
        <ele>605</ele>
        <time>2016-04-10T08:25:34Z</time>
      </trkpt>
      <trkpt lat="45.7081" lon="4.45024">
        <ele>604</ele>
        <time>2016-04-10T08:25:38Z</time>
      </trkpt>
      <trkpt lat="45.70815" lon="4.45023">
        <ele>606</ele>
        <time>2016-04-10T08:25:43Z</time>
      </trkpt>
      <trkpt lat="45.7082" lon="4.45023">
        <ele>609</ele>
        <time>2016-04-10T08:25:48Z</time>
      </trkpt>
      <trkpt lat="45.70826" lon="4.45022">
        <ele>609</ele>
        <time>2016-04-10T08:25:54Z</time>
      </trkpt>
      <trkpt lat="45.70832" lon="4.4502">
        <ele>609</ele>
        <time>2016-04-10T08:25:59Z</time>
      </trkpt>
      <trkpt lat="45.70837" lon="4.45018">
        <ele>609</ele>
        <time>2016-04-10T08:26:03Z</time>
      </trkpt>
      <trkpt lat="45.70842" lon="4.45019">
        <ele>611</ele>
        <time>2016-04-10T08:26:07Z</time>
      </trkpt>
      <trkpt lat="45.70846" lon="4.45023">
        <ele>615</ele>
        <time>2016-04-10T08:26:13Z</time>
      </trkpt>
      <trkpt lat="45.70851" lon="4.45023">
        <ele>617</ele>
        <time>2016-04-10T08:26:18Z</time>
      </trkpt>
      <trkpt lat="45.70855" lon="4.45022">
        <ele>618</ele>
        <time>2016-04-10T08:26:22Z</time>
      </trkpt>
      <trkpt lat="45.7086" lon="4.45021">
        <ele>619</ele>
        <time>2016-04-10T08:26:26Z</time>
      </trkpt>
      <trkpt lat="45.70865" lon="4.45018">
        <ele>618</ele>
        <time>2016-04-10T08:26:30Z</time>
      </trkpt>
      <trkpt lat="45.70871" lon="4.45013">
        <ele>616</ele>
        <time>2016-04-10T08:26:33Z</time>
      </trkpt>
      <trkpt lat="45.70876" lon="4.45011">
        <ele>618</ele>
        <time>2016-04-10T08:26:38Z</time>
      </trkpt>
      <trkpt lat="45.70881" lon="4.45007">
        <ele>616</ele>
        <time>2016-04-10T08:26:42Z</time>
      </trkpt>
      <trkpt lat="45.70886" lon="4.45005">
        <ele>617</ele>
        <time>2016-04-10T08:26:47Z</time>
      </trkpt>
      <trkpt lat="45.70891" lon="4.45006">
        <ele>617</ele>
        <time>2016-04-10T08:26:51Z</time>
      </trkpt>
      <trkpt lat="45.70895" lon="4.45002">
        <ele>615</ele>
        <time>2016-04-10T08:26:54Z</time>
      </trkpt>
      <trkpt lat="45.70901" lon="4.45002">
        <ele>618</ele>
        <time>2016-04-10T08:27:00Z</time>
      </trkpt>
      <trkpt lat="45.70906" lon="4.45003">
        <ele>619</ele>
        <time>2016-04-10T08:27:04Z</time>
      </trkpt>
      <trkpt lat="45.70911" lon="4.45003">
        <ele>618</ele>
        <time>2016-04-10T08:27:08Z</time>
      </trkpt>
      <trkpt lat="45.70915" lon="4.45004">
        <ele>619</ele>
        <time>2016-04-10T08:27:12Z</time>
      </trkpt>
      <trkpt lat="45.70921" lon="4.45005">
        <ele>620</ele>
        <time>2016-04-10T08:27:17Z</time>
      </trkpt>
      <trkpt lat="45.70925" lon="4.45005">
        <ele>620</ele>
        <time>2016-04-10T08:27:21Z</time>
      </trkpt>
      <trkpt lat="45.7093" lon="4.45006">
        <ele>622</ele>
        <time>2016-04-10T08:27:25Z</time>
      </trkpt>
      <trkpt lat="45.70935" lon="4.45007">
        <ele>624</ele>
        <time>2016-04-10T08:27:30Z</time>
      </trkpt>
      <trkpt lat="45.7094" lon="4.45006">
        <ele>624</ele>
        <time>2016-04-10T08:27:34Z</time>
      </trkpt>
      <trkpt lat="45.70945" lon="4.45004">
        <ele>622</ele>
        <time>2016-04-10T08:27:37Z</time>
      </trkpt>
      <trkpt lat="45.7095" lon="4.45003">
        <ele>623</ele>
        <time>2016-04-10T08:27:41Z</time>
      </trkpt>
      <trkpt lat="45.70992" lon="4.44995">
        <ele>615</ele>
        <time>2016-04-10T08:28:16Z</time>
      </trkpt>
      <trkpt lat="45.70998" lon="4.44989">
        <ele>624</ele>
        <time>2016-04-10T08:28:21Z</time>
      </trkpt>
      <trkpt lat="45.71002" lon="4.44987">
        <ele>625</ele>
        <time>2016-04-10T08:28:24Z</time>
      </trkpt>
      <trkpt lat="45.71008" lon="4.44985">
        <ele>626</ele>
        <time>2016-04-10T08:28:29Z</time>
      </trkpt>
      <trkpt lat="45.71012" lon="4.44984">
        <ele>626</ele>
        <time>2016-04-10T08:28:33Z</time>
      </trkpt>
      <trkpt lat="45.71017" lon="4.44982">
        <ele>626</ele>
        <time>2016-04-10T08:28:37Z</time>
      </trkpt>
      <trkpt lat="45.71022" lon="4.44981">
        <ele>627</ele>
        <time>2016-04-10T08:28:42Z</time>
      </trkpt>
      <trkpt lat="45.71027" lon="4.4498">
        <ele>627</ele>
        <time>2016-04-10T08:28:46Z</time>
      </trkpt>
      <trkpt lat="45.71032" lon="4.44978">
        <ele>628</ele>
        <time>2016-04-10T08:28:50Z</time>
      </trkpt>
      <trkpt lat="45.71037" lon="4.44977">
        <ele>629</ele>
        <time>2016-04-10T08:28:54Z</time>
      </trkpt>
      <trkpt lat="45.71042" lon="4.44976">
        <ele>629</ele>
        <time>2016-04-10T08:28:58Z</time>
      </trkpt>
      <trkpt lat="45.71047" lon="4.44974">
        <ele>629</ele>
        <time>2016-04-10T08:29:02Z</time>
      </trkpt>
      <trkpt lat="45.71052" lon="4.44971">
        <ele>629</ele>
        <time>2016-04-10T08:29:06Z</time>
      </trkpt>
      <trkpt lat="45.71056" lon="4.44968">
        <ele>628</ele>
        <time>2016-04-10T08:29:09Z</time>
      </trkpt>
      <trkpt lat="45.71062" lon="4.44967">
        <ele>630</ele>
        <time>2016-04-10T08:29:15Z</time>
      </trkpt>
      <trkpt lat="45.71066" lon="4.44966">
        <ele>633</ele>
        <time>2016-04-10T08:29:19Z</time>
      </trkpt>
      <trkpt lat="45.71071" lon="4.44964">
        <ele>633</ele>
        <time>2016-04-10T08:29:23Z</time>
      </trkpt>
      <trkpt lat="45.71076" lon="4.44962">
        <ele>633</ele>
        <time>2016-04-10T08:29:27Z</time>
      </trkpt>
      <trkpt lat="45.7108" lon="4.44962">
        <ele>634</ele>
        <time>2016-04-10T08:29:31Z</time>
      </trkpt>
      <trkpt lat="45.71085" lon="4.44955">
        <ele>630</ele>
        <time>2016-04-10T08:29:33Z</time>
      </trkpt>
      <trkpt lat="45.7109" lon="4.44956">
        <ele>633</ele>
        <time>2016-04-10T08:29:38Z</time>
      </trkpt>
      <trkpt lat="45.71096" lon="4.44955">
        <ele>635</ele>
        <time>2016-04-10T08:29:43Z</time>
      </trkpt>
      <trkpt lat="45.711" lon="4.44954">
        <ele>636</ele>
        <time>2016-04-10T08:29:47Z</time>
      </trkpt>
      <trkpt lat="45.71105" lon="4.44954">
        <ele>637</ele>
        <time>2016-04-10T08:29:52Z</time>
      </trkpt>
      <trkpt lat="45.7111" lon="4.44952">
        <ele>637</ele>
        <time>2016-04-10T08:29:56Z</time>
      </trkpt>
      <trkpt lat="45.71114" lon="4.44951">
        <ele>635</ele>
        <time>2016-04-10T08:30:00Z</time>
      </trkpt>
      <trkpt lat="45.71119" lon="4.44948">
        <ele>634</ele>
        <time>2016-04-10T08:30:03Z</time>
      </trkpt>
      <trkpt lat="45.71124" lon="4.44946">
        <ele>634</ele>
        <time>2016-04-10T08:30:07Z</time>
      </trkpt>
      <trkpt lat="45.71128" lon="4.44943">
        <ele>635</ele>
        <time>2016-04-10T08:30:11Z</time>
      </trkpt>
      <trkpt lat="45.71133" lon="4.4494">
        <ele>634</ele>
        <time>2016-04-10T08:30:15Z</time>
      </trkpt>
      <trkpt lat="45.71138" lon="4.4494">
        <ele>637</ele>
        <time>2016-04-10T08:30:20Z</time>
      </trkpt>
      <trkpt lat="45.71144" lon="4.44937">
        <ele>637</ele>
        <time>2016-04-10T08:30:25Z</time>
      </trkpt>
      <trkpt lat="45.71149" lon="4.44937">
        <ele>638</ele>
        <time>2016-04-10T08:30:30Z</time>
      </trkpt>
      <trkpt lat="45.71154" lon="4.44935">
        <ele>640</ele>
        <time>2016-04-10T08:30:34Z</time>
      </trkpt>
      <trkpt lat="45.71159" lon="4.44934">
        <ele>642</ele>
        <time>2016-04-10T08:30:39Z</time>
      </trkpt>
      <trkpt lat="45.71165" lon="4.44929">
        <ele>641</ele>
        <time>2016-04-10T08:30:43Z</time>
      </trkpt>
      <trkpt lat="45.7117" lon="4.44927">
        <ele>640</ele>
        <time>2016-04-10T08:30:47Z</time>
      </trkpt>
      <trkpt lat="45.71175" lon="4.44924">
        <ele>641</ele>
        <time>2016-04-10T08:30:51Z</time>
      </trkpt>
      <trkpt lat="45.7118" lon="4.44922">
        <ele>641</ele>
        <time>2016-04-10T08:30:55Z</time>
      </trkpt>
      <trkpt lat="45.71184" lon="4.44924">
        <ele>643</ele>
        <time>2016-04-10T08:31:00Z</time>
      </trkpt>
      <trkpt lat="45.71187" lon="4.44931">
        <ele>644</ele>
        <time>2016-04-10T08:31:06Z</time>
      </trkpt>
      <trkpt lat="45.71188" lon="4.44938">
        <ele>646</ele>
        <time>2016-04-10T08:31:09Z</time>
      </trkpt>
      <trkpt lat="45.71188" lon="4.44945">
        <ele>646</ele>
        <time>2016-04-10T08:31:14Z</time>
      </trkpt>
      <trkpt lat="45.71189" lon="4.44952">
        <ele>647</ele>
        <time>2016-04-10T08:31:19Z</time>
      </trkpt>
      <trkpt lat="45.7119" lon="4.44959">
        <ele>647</ele>
        <time>2016-04-10T08:31:23Z</time>
      </trkpt>
      <trkpt lat="45.71192" lon="4.44967">
        <ele>647</ele>
        <time>2016-04-10T08:31:27Z</time>
      </trkpt>
      <trkpt lat="45.71193" lon="4.44974">
        <ele>646</ele>
        <time>2016-04-10T08:31:32Z</time>
      </trkpt>
      <trkpt lat="45.71194" lon="4.44981">
        <ele>646</ele>
        <time>2016-04-10T08:31:37Z</time>
      </trkpt>
      <trkpt lat="45.71196" lon="4.44989">
        <ele>646</ele>
        <time>2016-04-10T08:31:42Z</time>
      </trkpt>
      <trkpt lat="45.71197" lon="4.44996">
        <ele>646</ele>
        <time>2016-04-10T08:31:47Z</time>
      </trkpt>
      <trkpt lat="45.71198" lon="4.45003">
        <ele>645</ele>
        <time>2016-04-10T08:31:51Z</time>
      </trkpt>
      <trkpt lat="45.712" lon="4.45009">
        <ele>645</ele>
        <time>2016-04-10T08:31:55Z</time>
      </trkpt>
      <trkpt lat="45.71202" lon="4.45015">
        <ele>645</ele>
        <time>2016-04-10T08:31:59Z</time>
      </trkpt>
      <trkpt lat="45.71205" lon="4.45022">
        <ele>645</ele>
        <time>2016-04-10T08:32:03Z</time>
      </trkpt>
      <trkpt lat="45.71206" lon="4.45028">
        <ele>645</ele>
        <time>2016-04-10T08:32:07Z</time>
      </trkpt>
      <trkpt lat="45.71207" lon="4.45035">
        <ele>643</ele>
        <time>2016-04-10T08:32:11Z</time>
      </trkpt>
      <trkpt lat="45.7121" lon="4.45041">
        <ele>643</ele>
        <time>2016-04-10T08:32:15Z</time>
      </trkpt>
      <trkpt lat="45.71213" lon="4.45049">
        <ele>643</ele>
        <time>2016-04-10T08:32:19Z</time>
      </trkpt>
      <trkpt lat="45.71215" lon="4.45055">
        <ele>643</ele>
        <time>2016-04-10T08:32:22Z</time>
      </trkpt>
      <trkpt lat="45.71217" lon="4.45061">
        <ele>642</ele>
        <time>2016-04-10T08:32:26Z</time>
      </trkpt>
      <trkpt lat="45.71218" lon="4.45068">
        <ele>640</ele>
        <time>2016-04-10T08:32:30Z</time>
      </trkpt>
      <trkpt lat="45.71221" lon="4.45074">
        <ele>639</ele>
        <time>2016-04-10T08:32:34Z</time>
      </trkpt>
      <trkpt lat="45.71223" lon="4.45081">
        <ele>639</ele>
        <time>2016-04-10T08:32:38Z</time>
      </trkpt>
      <trkpt lat="45.71226" lon="4.45089">
        <ele>638</ele>
        <time>2016-04-10T08:32:42Z</time>
      </trkpt>
      <trkpt lat="45.71228" lon="4.45095">
        <ele>636</ele>
        <time>2016-04-10T08:32:46Z</time>
      </trkpt>
      <trkpt lat="45.71231" lon="4.45101">
        <ele>636</ele>
        <time>2016-04-10T08:32:49Z</time>
      </trkpt>
      <trkpt lat="45.71233" lon="4.45107">
        <ele>637</ele>
        <time>2016-04-10T08:32:53Z</time>
      </trkpt>
      <trkpt lat="45.71235" lon="4.45113">
        <ele>637</ele>
        <time>2016-04-10T08:32:56Z</time>
      </trkpt>
      <trkpt lat="45.71237" lon="4.45119">
        <ele>637</ele>
        <time>2016-04-10T08:33:00Z</time>
      </trkpt>
      <trkpt lat="45.71238" lon="4.45127">
        <ele>636</ele>
        <time>2016-04-10T08:33:04Z</time>
      </trkpt>
      <trkpt lat="45.7124" lon="4.45133">
        <ele>636</ele>
        <time>2016-04-10T08:33:07Z</time>
      </trkpt>
      <trkpt lat="45.71241" lon="4.45139">
        <ele>636</ele>
        <time>2016-04-10T08:33:11Z</time>
      </trkpt>
      <trkpt lat="45.71244" lon="4.45146">
        <ele>636</ele>
        <time>2016-04-10T08:33:15Z</time>
      </trkpt>
      <trkpt lat="45.71247" lon="4.45153">
        <ele>636</ele>
        <time>2016-04-10T08:33:19Z</time>
      </trkpt>
      <trkpt lat="45.7125" lon="4.4516">
        <ele>633</ele>
        <time>2016-04-10T08:33:23Z</time>
      </trkpt>
      <trkpt lat="45.71252" lon="4.45167">
        <ele>633</ele>
        <time>2016-04-10T08:33:28Z</time>
      </trkpt>
      <trkpt lat="45.71255" lon="4.45173">
        <ele>633</ele>
        <time>2016-04-10T08:33:32Z</time>
      </trkpt>
      <trkpt lat="45.71258" lon="4.45179">
        <ele>632</ele>
        <time>2016-04-10T08:33:35Z</time>
      </trkpt>
      <trkpt lat="45.71261" lon="4.45185">
        <ele>631</ele>
        <time>2016-04-10T08:33:39Z</time>
      </trkpt>
      <trkpt lat="45.71263" lon="4.45192">
        <ele>633</ele>
        <time>2016-04-10T08:33:45Z</time>
      </trkpt>
      <trkpt lat="45.71265" lon="4.45198">
        <ele>635</ele>
        <time>2016-04-10T08:33:49Z</time>
      </trkpt>
      <trkpt lat="45.7127" lon="4.45203">
        <ele>635</ele>
        <time>2016-04-10T08:33:55Z</time>
      </trkpt>
      <trkpt lat="45.71273" lon="4.45208">
        <ele>635</ele>
        <time>2016-04-10T08:33:59Z</time>
      </trkpt>
      <trkpt lat="45.71275" lon="4.45215">
        <ele>635</ele>
        <time>2016-04-10T08:34:03Z</time>
      </trkpt>
      <trkpt lat="45.71278" lon="4.45222">
        <ele>639</ele>
        <time>2016-04-10T08:34:09Z</time>
      </trkpt>
      <trkpt lat="45.71281" lon="4.45228">
        <ele>639</ele>
        <time>2016-04-10T08:34:13Z</time>
      </trkpt>
      <trkpt lat="45.71282" lon="4.45235">
        <ele>640</ele>
        <time>2016-04-10T08:34:17Z</time>
      </trkpt>
      <trkpt lat="45.71283" lon="4.45242">
        <ele>639</ele>
        <time>2016-04-10T08:34:20Z</time>
      </trkpt>
      <trkpt lat="45.71283" lon="4.4525">
        <ele>637</ele>
        <time>2016-04-10T08:34:24Z</time>
      </trkpt>
      <trkpt lat="45.71283" lon="4.45257">
        <ele>636</ele>
        <time>2016-04-10T08:34:28Z</time>
      </trkpt>
      <trkpt lat="45.71283" lon="4.45263">
        <ele>637</ele>
        <time>2016-04-10T08:34:32Z</time>
      </trkpt>
      <trkpt lat="45.71283" lon="4.4527">
        <ele>637</ele>
        <time>2016-04-10T08:34:37Z</time>
      </trkpt>
      <trkpt lat="45.71282" lon="4.45276">
        <ele>636</ele>
        <time>2016-04-10T08:34:40Z</time>
      </trkpt>
      <trkpt lat="45.71283" lon="4.45284">
        <ele>638</ele>
        <time>2016-04-10T08:34:45Z</time>
      </trkpt>
      <trkpt lat="45.71283" lon="4.45292">
        <ele>637</ele>
        <time>2016-04-10T08:34:49Z</time>
      </trkpt>
      <trkpt lat="45.71283" lon="4.45303">
        <ele>635</ele>
        <time>2016-04-10T08:34:53Z</time>
      </trkpt>
      <trkpt lat="45.71282" lon="4.4531">
        <ele>636</ele>
        <time>2016-04-10T08:34:57Z</time>
      </trkpt>
      <trkpt lat="45.7128" lon="4.45317">
        <ele>635</ele>
        <time>2016-04-10T08:35:02Z</time>
      </trkpt>
      <trkpt lat="45.71275" lon="4.45321">
        <ele>635</ele>
        <time>2016-04-10T08:35:06Z</time>
      </trkpt>
      <trkpt lat="45.71271" lon="4.45324">
        <ele>636</ele>
        <time>2016-04-10T08:35:11Z</time>
      </trkpt>
      <trkpt lat="45.71266" lon="4.45327">
        <ele>635</ele>
        <time>2016-04-10T08:35:15Z</time>
      </trkpt>
      <trkpt lat="45.71262" lon="4.45329">
        <ele>635</ele>
        <time>2016-04-10T08:35:19Z</time>
      </trkpt>
      <trkpt lat="45.71258" lon="4.45333">
        <ele>635</ele>
        <time>2016-04-10T08:35:23Z</time>
      </trkpt>
      <trkpt lat="45.71255" lon="4.45339">
        <ele>633</ele>
        <time>2016-04-10T08:35:27Z</time>
      </trkpt>
      <trkpt lat="45.71254" lon="4.45345">
        <ele>633</ele>
        <time>2016-04-10T08:35:31Z</time>
      </trkpt>
      <trkpt lat="45.71253" lon="4.45353">
        <ele>633</ele>
        <time>2016-04-10T08:35:35Z</time>
      </trkpt>
      <trkpt lat="45.71254" lon="4.4536">
        <ele>632</ele>
        <time>2016-04-10T08:35:38Z</time>
      </trkpt>
      <trkpt lat="45.71257" lon="4.45366">
        <ele>632</ele>
        <time>2016-04-10T08:35:43Z</time>
      </trkpt>
      <trkpt lat="45.7126" lon="4.45371">
        <ele>632</ele>
        <time>2016-04-10T08:35:47Z</time>
      </trkpt>
      <trkpt lat="45.71264" lon="4.45376">
        <ele>633</ele>
        <time>2016-04-10T08:35:51Z</time>
      </trkpt>
      <trkpt lat="45.71268" lon="4.45381">
        <ele>632</ele>
        <time>2016-04-10T08:35:55Z</time>
      </trkpt>
      <trkpt lat="45.71273" lon="4.45383">
        <ele>633</ele>
        <time>2016-04-10T08:35:59Z</time>
      </trkpt>
      <trkpt lat="45.71277" lon="4.45385">
        <ele>632</ele>
        <time>2016-04-10T08:36:02Z</time>
      </trkpt>
      <trkpt lat="45.71282" lon="4.45388">
        <ele>631</ele>
        <time>2016-04-10T08:36:06Z</time>
      </trkpt>
      <trkpt lat="45.71287" lon="4.4539">
        <ele>628</ele>
        <time>2016-04-10T08:36:10Z</time>
      </trkpt>
      <trkpt lat="45.71292" lon="4.45392">
        <ele>629</ele>
        <time>2016-04-10T08:36:14Z</time>
      </trkpt>
      <trkpt lat="45.71295" lon="4.45397">
        <ele>627</ele>
        <time>2016-04-10T08:36:19Z</time>
      </trkpt>
      <trkpt lat="45.71299" lon="4.45403">
        <ele>625</ele>
        <time>2016-04-10T08:36:23Z</time>
      </trkpt>
      <trkpt lat="45.71302" lon="4.4541">
        <ele>626</ele>
        <time>2016-04-10T08:36:27Z</time>
      </trkpt>
      <trkpt lat="45.71305" lon="4.45416">
        <ele>627</ele>
        <time>2016-04-10T08:36:31Z</time>
      </trkpt>
      <trkpt lat="45.71309" lon="4.4542">
        <ele>625</ele>
        <time>2016-04-10T08:36:38Z</time>
      </trkpt>
      <trkpt lat="45.71305" lon="4.45425">
        <ele>623</ele>
        <time>2016-04-10T08:37:27Z</time>
      </trkpt>
      <trkpt lat="45.71303" lon="4.45432">
        <ele>625</ele>
        <time>2016-04-10T08:37:32Z</time>
      </trkpt>
      <trkpt lat="45.713" lon="4.45438">
        <ele>624</ele>
        <time>2016-04-10T08:37:36Z</time>
      </trkpt>
      <trkpt lat="45.71299" lon="4.45444">
        <ele>623</ele>
        <time>2016-04-10T08:37:39Z</time>
      </trkpt>
      <trkpt lat="45.71297" lon="4.45451">
        <ele>623</ele>
        <time>2016-04-10T08:37:43Z</time>
      </trkpt>
      <trkpt lat="45.71295" lon="4.45457">
        <ele>622</ele>
        <time>2016-04-10T08:37:47Z</time>
      </trkpt>
      <trkpt lat="45.71292" lon="4.45464">
        <ele>623</ele>
        <time>2016-04-10T08:37:50Z</time>
      </trkpt>
      <trkpt lat="45.7129" lon="4.45469">
        <ele>623</ele>
        <time>2016-04-10T08:37:53Z</time>
      </trkpt>
      <trkpt lat="45.71288" lon="4.45476">
        <ele>623</ele>
        <time>2016-04-10T08:37:55Z</time>
      </trkpt>
      <trkpt lat="45.71286" lon="4.45484">
        <ele>623</ele>
        <time>2016-04-10T08:37:58Z</time>
      </trkpt>
      <trkpt lat="45.71283" lon="4.45491">
        <ele>622</ele>
        <time>2016-04-10T08:38:01Z</time>
      </trkpt>
      <trkpt lat="45.71282" lon="4.45498">
        <ele>622</ele>
        <time>2016-04-10T08:38:04Z</time>
      </trkpt>
      <trkpt lat="45.71279" lon="4.45505">
        <ele>622</ele>
        <time>2016-04-10T08:38:08Z</time>
      </trkpt>
      <trkpt lat="45.71275" lon="4.4551">
        <ele>622</ele>
        <time>2016-04-10T08:38:12Z</time>
      </trkpt>
      <trkpt lat="45.71273" lon="4.45517">
        <ele>622</ele>
        <time>2016-04-10T08:38:15Z</time>
      </trkpt>
      <trkpt lat="45.71271" lon="4.45524">
        <ele>622</ele>
        <time>2016-04-10T08:38:19Z</time>
      </trkpt>
      <trkpt lat="45.71268" lon="4.45529">
        <ele>622</ele>
        <time>2016-04-10T08:38:22Z</time>
      </trkpt>
      <trkpt lat="45.71265" lon="4.45535">
        <ele>622</ele>
        <time>2016-04-10T08:38:25Z</time>
      </trkpt>
      <trkpt lat="45.71263" lon="4.45541">
        <ele>622</ele>
        <time>2016-04-10T08:38:29Z</time>
      </trkpt>
      <trkpt lat="45.7126" lon="4.45549">
        <ele>621</ele>
        <time>2016-04-10T08:38:32Z</time>
      </trkpt>
      <trkpt lat="45.71258" lon="4.45557">
        <ele>620</ele>
        <time>2016-04-10T08:38:35Z</time>
      </trkpt>
      <trkpt lat="45.71255" lon="4.45564">
        <ele>620</ele>
        <time>2016-04-10T08:38:38Z</time>
      </trkpt>
      <trkpt lat="45.71252" lon="4.45571">
        <ele>621</ele>
        <time>2016-04-10T08:38:43Z</time>
      </trkpt>
      <trkpt lat="45.71249" lon="4.45576">
        <ele>622</ele>
        <time>2016-04-10T08:38:47Z</time>
      </trkpt>
      <trkpt lat="45.71246" lon="4.45584">
        <ele>622</ele>
        <time>2016-04-10T08:38:51Z</time>
      </trkpt>
      <trkpt lat="45.71244" lon="4.45592">
        <ele>621</ele>
        <time>2016-04-10T08:38:55Z</time>
      </trkpt>
      <trkpt lat="45.71242" lon="4.456">
        <ele>620</ele>
        <time>2016-04-10T08:38:59Z</time>
      </trkpt>
      <trkpt lat="45.71241" lon="4.45605">
        <ele>619</ele>
        <time>2016-04-10T08:39:02Z</time>
      </trkpt>
      <trkpt lat="45.71239" lon="4.45612">
        <ele>619</ele>
        <time>2016-04-10T08:39:04Z</time>
      </trkpt>
      <trkpt lat="45.71236" lon="4.45618">
        <ele>619</ele>
        <time>2016-04-10T08:39:08Z</time>
      </trkpt>
      <trkpt lat="45.71234" lon="4.45625">
        <ele>617</ele>
        <time>2016-04-10T08:39:12Z</time>
      </trkpt>
      <trkpt lat="45.71233" lon="4.45633">
        <ele>616</ele>
        <time>2016-04-10T08:39:15Z</time>
      </trkpt>
      <trkpt lat="45.71231" lon="4.45639">
        <ele>616</ele>
        <time>2016-04-10T08:39:18Z</time>
      </trkpt>
      <trkpt lat="45.71228" lon="4.45646">
        <ele>615</ele>
        <time>2016-04-10T08:39:22Z</time>
      </trkpt>
      <trkpt lat="45.71226" lon="4.45654">
        <ele>617</ele>
        <time>2016-04-10T08:39:26Z</time>
      </trkpt>
      <trkpt lat="45.71225" lon="4.45662">
        <ele>616</ele>
        <time>2016-04-10T08:39:29Z</time>
      </trkpt>
      <trkpt lat="45.71222" lon="4.45668">
        <ele>615</ele>
        <time>2016-04-10T08:39:34Z</time>
      </trkpt>
      <trkpt lat="45.7122" lon="4.45674">
        <ele>614</ele>
        <time>2016-04-10T08:39:39Z</time>
      </trkpt>
      <trkpt lat="45.71218" lon="4.45682">
        <ele>613</ele>
        <time>2016-04-10T08:39:43Z</time>
      </trkpt>
      <trkpt lat="45.71216" lon="4.45691">
        <ele>614</ele>
        <time>2016-04-10T08:39:47Z</time>
      </trkpt>
      <trkpt lat="45.71214" lon="4.45698">
        <ele>613</ele>
        <time>2016-04-10T08:39:51Z</time>
      </trkpt>
      <trkpt lat="45.71212" lon="4.45705">
        <ele>613</ele>
        <time>2016-04-10T08:39:54Z</time>
      </trkpt>
      <trkpt lat="45.7121" lon="4.45713">
        <ele>612</ele>
        <time>2016-04-10T08:39:58Z</time>
      </trkpt>
      <trkpt lat="45.71208" lon="4.4572">
        <ele>612</ele>
        <time>2016-04-10T08:40:01Z</time>
      </trkpt>
      <trkpt lat="45.71207" lon="4.45727">
        <ele>611</ele>
        <time>2016-04-10T08:40:04Z</time>
      </trkpt>
      <trkpt lat="45.71205" lon="4.45736">
        <ele>610</ele>
        <time>2016-04-10T08:40:08Z</time>
      </trkpt>
      <trkpt lat="45.71203" lon="4.45744">
        <ele>610</ele>
        <time>2016-04-10T08:40:12Z</time>
      </trkpt>
      <trkpt lat="45.71203" lon="4.4575">
        <ele>609</ele>
        <time>2016-04-10T08:40:15Z</time>
      </trkpt>
      <trkpt lat="45.71202" lon="4.4576">
        <ele>608</ele>
        <time>2016-04-10T08:40:19Z</time>
      </trkpt>
      <trkpt lat="45.71202" lon="4.45768">
        <ele>607</ele>
        <time>2016-04-10T08:40:22Z</time>
      </trkpt>
      <trkpt lat="45.71201" lon="4.45775">
        <ele>606</ele>
        <time>2016-04-10T08:40:25Z</time>
      </trkpt>
      <trkpt lat="45.71202" lon="4.45782">
        <ele>604</ele>
        <time>2016-04-10T08:40:27Z</time>
      </trkpt>
      <trkpt lat="45.71203" lon="4.4579">
        <ele>603</ele>
        <time>2016-04-10T08:40:30Z</time>
      </trkpt>
      <trkpt lat="45.71204" lon="4.45797">
        <ele>602</ele>
        <time>2016-04-10T08:40:33Z</time>
      </trkpt>
      <trkpt lat="45.71205" lon="4.45804">
        <ele>601</ele>
        <time>2016-04-10T08:40:36Z</time>
      </trkpt>
      <trkpt lat="45.71206" lon="4.45811">
        <ele>600</ele>
        <time>2016-04-10T08:40:39Z</time>
      </trkpt>
      <trkpt lat="45.71206" lon="4.45818">
        <ele>601</ele>
        <time>2016-04-10T08:40:42Z</time>
      </trkpt>
      <trkpt lat="45.71206" lon="4.45826">
        <ele>602</ele>
        <time>2016-04-10T08:40:47Z</time>
      </trkpt>
      <trkpt lat="45.71207" lon="4.45832">
        <ele>602</ele>
        <time>2016-04-10T08:40:50Z</time>
      </trkpt>
      <trkpt lat="45.71208" lon="4.4584">
        <ele>603</ele>
        <time>2016-04-10T08:40:55Z</time>
      </trkpt>
      <trkpt lat="45.7121" lon="4.45847">
        <ele>604</ele>
        <time>2016-04-10T08:41:00Z</time>
      </trkpt>
      <trkpt lat="45.71211" lon="4.45854">
        <ele>604</ele>
        <time>2016-04-10T08:41:04Z</time>
      </trkpt>
      <trkpt lat="45.71214" lon="4.45861">
        <ele>602</ele>
        <time>2016-04-10T08:41:08Z</time>
      </trkpt>
      <trkpt lat="45.71218" lon="4.45867">
        <ele>602</ele>
        <time>2016-04-10T08:41:12Z</time>
      </trkpt>
      <trkpt lat="45.71221" lon="4.45872">
        <ele>601</ele>
        <time>2016-04-10T08:41:15Z</time>
      </trkpt>
      <trkpt lat="45.71225" lon="4.45877">
        <ele>600</ele>
        <time>2016-04-10T08:41:19Z</time>
      </trkpt>
      <trkpt lat="45.71229" lon="4.45881">
        <ele>599</ele>
        <time>2016-04-10T08:41:22Z</time>
      </trkpt>
      <trkpt lat="45.71233" lon="4.45885">
        <ele>600</ele>
        <time>2016-04-10T08:41:26Z</time>
      </trkpt>
      <trkpt lat="45.71237" lon="4.4589">
        <ele>598</ele>
        <time>2016-04-10T08:41:30Z</time>
      </trkpt>
      <trkpt lat="45.71241" lon="4.45893">
        <ele>598</ele>
        <time>2016-04-10T08:41:34Z</time>
      </trkpt>
      <trkpt lat="45.71246" lon="4.45895">
        <ele>598</ele>
        <time>2016-04-10T08:41:37Z</time>
      </trkpt>
      <trkpt lat="45.71251" lon="4.45897">
        <ele>599</ele>
        <time>2016-04-10T08:41:41Z</time>
      </trkpt>
      <trkpt lat="45.71255" lon="4.459">
        <ele>598</ele>
        <time>2016-04-10T08:41:44Z</time>
      </trkpt>
      <trkpt lat="45.7126" lon="4.45902">
        <ele>597</ele>
        <time>2016-04-10T08:41:48Z</time>
      </trkpt>
      <trkpt lat="45.71265" lon="4.45906">
        <ele>596</ele>
        <time>2016-04-10T08:41:53Z</time>
      </trkpt>
      <trkpt lat="45.7127" lon="4.45909">
        <ele>596</ele>
        <time>2016-04-10T08:41:58Z</time>
      </trkpt>
      <trkpt lat="45.71276" lon="4.45911">
        <ele>595</ele>
        <time>2016-04-10T08:42:02Z</time>
      </trkpt>
      <trkpt lat="45.7128" lon="4.45914">
        <ele>595</ele>
        <time>2016-04-10T08:42:06Z</time>
      </trkpt>
      <trkpt lat="45.71285" lon="4.45917">
        <ele>594</ele>
        <time>2016-04-10T08:42:10Z</time>
      </trkpt>
      <trkpt lat="45.71289" lon="4.4592">
        <ele>594</ele>
        <time>2016-04-10T08:42:13Z</time>
      </trkpt>
      <trkpt lat="45.71294" lon="4.45926">
        <ele>593</ele>
        <time>2016-04-10T08:42:17Z</time>
      </trkpt>
      <trkpt lat="45.71293" lon="4.45933">
        <ele>595</ele>
        <time>2016-04-10T08:42:21Z</time>
      </trkpt>
      <trkpt lat="45.71296" lon="4.4594">
        <ele>594</ele>
        <time>2016-04-10T08:42:26Z</time>
      </trkpt>
      <trkpt lat="45.71298" lon="4.45947">
        <ele>591</ele>
        <time>2016-04-10T08:42:30Z</time>
      </trkpt>
      <trkpt lat="45.71299" lon="4.45954">
        <ele>592</ele>
        <time>2016-04-10T08:42:34Z</time>
      </trkpt>
      <trkpt lat="45.713" lon="4.45961">
        <ele>592</ele>
        <time>2016-04-10T08:42:38Z</time>
      </trkpt>
      <trkpt lat="45.71301" lon="4.45967">
        <ele>592</ele>
        <time>2016-04-10T08:42:41Z</time>
      </trkpt>
      <trkpt lat="45.71302" lon="4.45975">
        <ele>591</ele>
        <time>2016-04-10T08:42:46Z</time>
      </trkpt>
      <trkpt lat="45.71307" lon="4.45981">
        <ele>592</ele>
        <time>2016-04-10T08:42:51Z</time>
      </trkpt>
      <trkpt lat="45.7131" lon="4.45988">
        <ele>592</ele>
        <time>2016-04-10T08:42:56Z</time>
      </trkpt>
      <trkpt lat="45.71313" lon="4.45995">
        <ele>590</ele>
        <time>2016-04-10T08:43:02Z</time>
      </trkpt>
      <trkpt lat="45.71314" lon="4.46002">
        <ele>591</ele>
        <time>2016-04-10T08:43:08Z</time>
      </trkpt>
      <trkpt lat="45.71317" lon="4.46008">
        <ele>592</ele>
        <time>2016-04-10T08:43:13Z</time>
      </trkpt>
      <trkpt lat="45.71319" lon="4.46015">
        <ele>603</ele>
        <time>2016-04-10T08:43:22Z</time>
      </trkpt>
      <trkpt lat="45.71323" lon="4.46023">
        <ele>606</ele>
        <time>2016-04-10T08:43:28Z</time>
      </trkpt>
      <trkpt lat="45.71323" lon="4.46031">
        <ele>608</ele>
        <time>2016-04-10T08:43:32Z</time>
      </trkpt>
      <trkpt lat="45.71322" lon="4.46037">
        <ele>605</ele>
        <time>2016-04-10T08:43:37Z</time>
      </trkpt>
      <trkpt lat="45.71327" lon="4.46039">
        <ele>605</ele>
        <time>2016-04-10T08:43:39Z</time>
      </trkpt>
      <trkpt lat="45.71331" lon="4.46044">
        <ele>606</ele>
        <time>2016-04-10T08:43:44Z</time>
      </trkpt>
      <trkpt lat="45.71334" lon="4.46049">
        <ele>607</ele>
        <time>2016-04-10T08:43:48Z</time>
      </trkpt>
      <trkpt lat="45.71339" lon="4.46052">
        <ele>610</ele>
        <time>2016-04-10T08:43:54Z</time>
      </trkpt>
      <trkpt lat="45.71338" lon="4.46059">
        <ele>609</ele>
        <time>2016-04-10T08:43:57Z</time>
      </trkpt>
      <trkpt lat="45.71343" lon="4.46059">
        <ele>608</ele>
        <time>2016-04-10T08:43:59Z</time>
      </trkpt>
      <trkpt lat="45.71347" lon="4.46065">
        <ele>608</ele>
        <time>2016-04-10T08:44:04Z</time>
      </trkpt>
      <trkpt lat="45.71351" lon="4.46069">
        <ele>610</ele>
        <time>2016-04-10T08:44:10Z</time>
      </trkpt>
      <trkpt lat="45.71353" lon="4.46075">
        <ele>611</ele>
        <time>2016-04-10T08:44:15Z</time>
      </trkpt>
      <trkpt lat="45.71356" lon="4.46081">
        <ele>612</ele>
        <time>2016-04-10T08:44:22Z</time>
      </trkpt>
      <trkpt lat="45.71358" lon="4.46088">
        <ele>612</ele>
        <time>2016-04-10T08:44:27Z</time>
      </trkpt>
      <trkpt lat="45.7136" lon="4.46093">
        <ele>614</ele>
        <time>2016-04-10T08:44:31Z</time>
      </trkpt>
      <trkpt lat="45.71363" lon="4.46099">
        <ele>614</ele>
        <time>2016-04-10T08:44:34Z</time>
      </trkpt>
      <trkpt lat="45.71365" lon="4.46105">
        <ele>614</ele>
        <time>2016-04-10T08:44:38Z</time>
      </trkpt>
      <trkpt lat="45.71369" lon="4.46109">
        <ele>615</ele>
        <time>2016-04-10T08:44:41Z</time>
      </trkpt>
      <trkpt lat="45.71374" lon="4.46114">
        <ele>615</ele>
        <time>2016-04-10T08:44:46Z</time>
      </trkpt>
      <trkpt lat="45.71378" lon="4.46114">
        <ele>613</ele>
        <time>2016-04-10T08:44:49Z</time>
      </trkpt>
      <trkpt lat="45.71383" lon="4.46117">
        <ele>614</ele>
        <time>2016-04-10T08:44:54Z</time>
      </trkpt>
      <trkpt lat="45.71387" lon="4.46121">
        <ele>616</ele>
        <time>2016-04-10T08:44:59Z</time>
      </trkpt>
      <trkpt lat="45.71392" lon="4.46122">
        <ele>617</ele>
        <time>2016-04-10T08:45:04Z</time>
      </trkpt>
      <trkpt lat="45.71396" lon="4.46125">
        <ele>618</ele>
        <time>2016-04-10T08:45:08Z</time>
      </trkpt>
      <trkpt lat="45.71401" lon="4.46127">
        <ele>619</ele>
        <time>2016-04-10T08:45:13Z</time>
      </trkpt>
      <trkpt lat="45.71406" lon="4.46132">
        <ele>618</ele>
        <time>2016-04-10T08:45:18Z</time>
      </trkpt>
      <trkpt lat="45.71411" lon="4.46137">
        <ele>619</ele>
        <time>2016-04-10T08:45:22Z</time>
      </trkpt>
      <trkpt lat="45.71415" lon="4.46141">
        <ele>624</ele>
        <time>2016-04-10T08:45:27Z</time>
      </trkpt>
      <trkpt lat="45.7142" lon="4.46143">
        <ele>623</ele>
        <time>2016-04-10T08:45:31Z</time>
      </trkpt>
      <trkpt lat="45.71425" lon="4.46146">
        <ele>623</ele>
        <time>2016-04-10T08:45:34Z</time>
      </trkpt>
      <trkpt lat="45.7143" lon="4.46147">
        <ele>623</ele>
        <time>2016-04-10T08:45:37Z</time>
      </trkpt>
      <trkpt lat="45.71435" lon="4.46146">
        <ele>621</ele>
        <time>2016-04-10T08:45:40Z</time>
      </trkpt>
      <trkpt lat="45.7144" lon="4.46147">
        <ele>621</ele>
        <time>2016-04-10T08:45:45Z</time>
      </trkpt>
      <trkpt lat="45.71446" lon="4.46148">
        <ele>622</ele>
        <time>2016-04-10T08:45:51Z</time>
      </trkpt>
      <trkpt lat="45.7145" lon="4.46147">
        <ele>623</ele>
        <time>2016-04-10T08:45:55Z</time>
      </trkpt>
      <trkpt lat="45.71455" lon="4.46146">
        <ele>624</ele>
        <time>2016-04-10T08:45:59Z</time>
      </trkpt>
      <trkpt lat="45.7146" lon="4.4614">
        <ele>624</ele>
        <time>2016-04-10T08:46:03Z</time>
      </trkpt>
      <trkpt lat="45.71465" lon="4.46139">
        <ele>624</ele>
        <time>2016-04-10T08:46:07Z</time>
      </trkpt>
      <trkpt lat="45.7147" lon="4.46142">
        <ele>624</ele>
        <time>2016-04-10T08:46:12Z</time>
      </trkpt>
      <trkpt lat="45.71473" lon="4.46134">
        <ele>621</ele>
        <time>2016-04-10T08:46:14Z</time>
      </trkpt>
      <trkpt lat="45.7148" lon="4.46123">
        <ele>616</ele>
        <time>2016-04-10T08:46:19Z</time>
      </trkpt>
      <trkpt lat="45.71485" lon="4.46123">
        <ele>617</ele>
        <time>2016-04-10T08:46:22Z</time>
      </trkpt>
      <trkpt lat="45.71491" lon="4.4612">
        <ele>616</ele>
        <time>2016-04-10T08:46:26Z</time>
      </trkpt>
      <trkpt lat="45.71496" lon="4.46121">
        <ele>622</ele>
        <time>2016-04-10T08:46:31Z</time>
      </trkpt>
      <trkpt lat="45.715" lon="4.46117">
        <ele>623</ele>
        <time>2016-04-10T08:46:35Z</time>
      </trkpt>
      <trkpt lat="45.71505" lon="4.46109">
        <ele>621</ele>
        <time>2016-04-10T08:46:38Z</time>
      </trkpt>
      <trkpt lat="45.71509" lon="4.46103">
        <ele>619</ele>
        <time>2016-04-10T08:46:42Z</time>
      </trkpt>
      <trkpt lat="45.71514" lon="4.461">
        <ele>617</ele>
        <time>2016-04-10T08:46:45Z</time>
      </trkpt>
      <trkpt lat="45.71519" lon="4.46097">
        <ele>616</ele>
        <time>2016-04-10T08:46:50Z</time>
      </trkpt>
      <trkpt lat="45.71524" lon="4.46092">
        <ele>615</ele>
        <time>2016-04-10T08:46:53Z</time>
      </trkpt>
      <trkpt lat="45.71528" lon="4.46087">
        <ele>614</ele>
        <time>2016-04-10T08:46:57Z</time>
      </trkpt>
      <trkpt lat="45.71532" lon="4.46081">
        <ele>613</ele>
        <time>2016-04-10T08:47:02Z</time>
      </trkpt>
      <trkpt lat="45.71535" lon="4.46077">
        <ele>614</ele>
        <time>2016-04-10T08:47:06Z</time>
      </trkpt>
      <trkpt lat="45.71539" lon="4.4607">
        <ele>613</ele>
        <time>2016-04-10T08:47:10Z</time>
      </trkpt>
      <trkpt lat="45.71544" lon="4.46065">
        <ele>614</ele>
        <time>2016-04-10T08:47:14Z</time>
      </trkpt>
      <trkpt lat="45.71548" lon="4.46059">
        <ele>614</ele>
        <time>2016-04-10T08:47:19Z</time>
      </trkpt>
      <trkpt lat="45.7155" lon="4.46053">
        <ele>612</ele>
        <time>2016-04-10T08:47:23Z</time>
      </trkpt>
      <trkpt lat="45.71553" lon="4.46047">
        <ele>612</ele>
        <time>2016-04-10T08:47:27Z</time>
      </trkpt>
      <trkpt lat="45.71556" lon="4.46041">
        <ele>612</ele>
        <time>2016-04-10T08:47:30Z</time>
      </trkpt>
      <trkpt lat="45.71559" lon="4.46036">
        <ele>613</ele>
        <time>2016-04-10T08:47:33Z</time>
      </trkpt>
      <trkpt lat="45.71565" lon="4.46032">
        <ele>616</ele>
        <time>2016-04-10T08:47:38Z</time>
      </trkpt>
      <trkpt lat="45.71569" lon="4.46024">
        <ele>613</ele>
        <time>2016-04-10T08:47:42Z</time>
      </trkpt>
      <trkpt lat="45.71572" lon="4.46017">
        <ele>611</ele>
        <time>2016-04-10T08:47:45Z</time>
      </trkpt>
      <trkpt lat="45.71575" lon="4.46012">
        <ele>611</ele>
        <time>2016-04-10T08:47:48Z</time>
      </trkpt>
      <trkpt lat="45.71578" lon="4.46004">
        <ele>612</ele>
        <time>2016-04-10T08:47:53Z</time>
      </trkpt>
      <trkpt lat="45.71576" lon="4.45998">
        <ele>607</ele>
        <time>2016-04-10T08:47:58Z</time>
      </trkpt>
      <trkpt lat="45.7158" lon="4.45995">
        <ele>609</ele>
        <time>2016-04-10T08:48:06Z</time>
      </trkpt>
      <trkpt lat="45.71584" lon="4.45989">
        <ele>611</ele>
        <time>2016-04-10T08:48:12Z</time>
      </trkpt>
      <trkpt lat="45.71587" lon="4.45984">
        <ele>610</ele>
        <time>2016-04-10T08:48:14Z</time>
      </trkpt>
      <trkpt lat="45.7159" lon="4.45974">
        <ele>611</ele>
        <time>2016-04-10T08:48:18Z</time>
      </trkpt>
      <trkpt lat="45.71593" lon="4.45966">
        <ele>614</ele>
        <time>2016-04-10T08:48:22Z</time>
      </trkpt>
      <trkpt lat="45.71597" lon="4.45961">
        <ele>617</ele>
        <time>2016-04-10T08:48:26Z</time>
      </trkpt>
      <trkpt lat="45.71601" lon="4.45954">
        <ele>618</ele>
        <time>2016-04-10T08:48:31Z</time>
      </trkpt>
      <trkpt lat="45.71604" lon="4.45949">
        <ele>618</ele>
        <time>2016-04-10T08:48:35Z</time>
      </trkpt>
      <trkpt lat="45.71607" lon="4.45943">
        <ele>618</ele>
        <time>2016-04-10T08:48:38Z</time>
      </trkpt>
      <trkpt lat="45.71608" lon="4.45937">
        <ele>617</ele>
        <time>2016-04-10T08:48:41Z</time>
      </trkpt>
      <trkpt lat="45.7161" lon="4.45931">
        <ele>616</ele>
        <time>2016-04-10T08:48:45Z</time>
      </trkpt>
      <trkpt lat="45.71611" lon="4.45923">
        <ele>616</ele>
        <time>2016-04-10T08:48:48Z</time>
      </trkpt>
      <trkpt lat="45.71612" lon="4.45916">
        <ele>613</ele>
        <time>2016-04-10T08:48:51Z</time>
      </trkpt>
      <trkpt lat="45.71614" lon="4.4591">
        <ele>613</ele>
        <time>2016-04-10T08:48:56Z</time>
      </trkpt>
      <trkpt lat="45.71617" lon="4.45904">
        <ele>613</ele>
        <time>2016-04-10T08:49:01Z</time>
      </trkpt>
      <trkpt lat="45.7162" lon="4.45899">
        <ele>613</ele>
        <time>2016-04-10T08:49:05Z</time>
      </trkpt>
      <trkpt lat="45.71623" lon="4.45892">
        <ele>611</ele>
        <time>2016-04-10T08:49:09Z</time>
      </trkpt>
      <trkpt lat="45.71625" lon="4.45885">
        <ele>610</ele>
        <time>2016-04-10T08:49:15Z</time>
      </trkpt>
      <trkpt lat="45.71626" lon="4.45876">
        <ele>609</ele>
        <time>2016-04-10T08:49:18Z</time>
      </trkpt>
      <trkpt lat="45.71629" lon="4.45871">
        <ele>607</ele>
        <time>2016-04-10T08:49:22Z</time>
      </trkpt>
      <trkpt lat="45.71633" lon="4.45864">
        <ele>605</ele>
        <time>2016-04-10T08:49:25Z</time>
      </trkpt>
      <trkpt lat="45.71635" lon="4.45856">
        <ele>604</ele>
        <time>2016-04-10T08:49:30Z</time>
      </trkpt>
      <trkpt lat="45.71636" lon="4.45849">
        <ele>603</ele>
        <time>2016-04-10T08:49:33Z</time>
      </trkpt>
      <trkpt lat="45.71638" lon="4.45842">
        <ele>605</ele>
        <time>2016-04-10T08:49:37Z</time>
      </trkpt>
      <trkpt lat="45.7164" lon="4.45837">
        <ele>611</ele>
        <time>2016-04-10T08:49:43Z</time>
      </trkpt>
      <trkpt lat="45.71641" lon="4.4583">
        <ele>610</ele>
        <time>2016-04-10T08:49:46Z</time>
      </trkpt>
      <trkpt lat="45.71643" lon="4.45821">
        <ele>608</ele>
        <time>2016-04-10T08:49:52Z</time>
      </trkpt>
      <trkpt lat="45.71645" lon="4.45815">
        <ele>607</ele>
        <time>2016-04-10T08:49:55Z</time>
      </trkpt>
      <trkpt lat="45.71647" lon="4.45807">
        <ele>605</ele>
        <time>2016-04-10T08:49:58Z</time>
      </trkpt>
      <trkpt lat="45.71648" lon="4.45801">
        <ele>604</ele>
        <time>2016-04-10T08:50:01Z</time>
      </trkpt>
      <trkpt lat="45.7165" lon="4.45792">
        <ele>603</ele>
        <time>2016-04-10T08:50:05Z</time>
      </trkpt>
      <trkpt lat="45.71652" lon="4.4578">
        <ele>602</ele>
        <time>2016-04-10T08:50:11Z</time>
      </trkpt>
      <trkpt lat="45.71653" lon="4.45772">
        <ele>601</ele>
        <time>2016-04-10T08:50:15Z</time>
      </trkpt>
      <trkpt lat="45.71653" lon="4.45765">
        <ele>600</ele>
        <time>2016-04-10T08:50:22Z</time>
      </trkpt>
      <trkpt lat="45.71653" lon="4.45759">
        <ele>601</ele>
        <time>2016-04-10T08:50:28Z</time>
      </trkpt>
      <trkpt lat="45.71654" lon="4.4575">
        <ele>601</ele>
        <time>2016-04-10T08:50:32Z</time>
      </trkpt>
      <trkpt lat="45.71656" lon="4.45743">
        <ele>601</ele>
        <time>2016-04-10T08:50:35Z</time>
      </trkpt>
      <trkpt lat="45.71656" lon="4.45737">
        <ele>601</ele>
        <time>2016-04-10T08:50:38Z</time>
      </trkpt>
      <trkpt lat="45.71657" lon="4.45729">
        <ele>599</ele>
        <time>2016-04-10T08:50:42Z</time>
      </trkpt>
      <trkpt lat="45.71657" lon="4.45722">
        <ele>598</ele>
        <time>2016-04-10T08:50:45Z</time>
      </trkpt>
      <trkpt lat="45.71658" lon="4.45715">
        <ele>599</ele>
        <time>2016-04-10T08:50:50Z</time>
      </trkpt>
      <trkpt lat="45.71657" lon="4.45707">
        <ele>603</ele>
        <time>2016-04-10T08:50:54Z</time>
      </trkpt>
      <trkpt lat="45.71658" lon="4.45698">
        <ele>604</ele>
        <time>2016-04-10T08:50:59Z</time>
      </trkpt>
      <trkpt lat="45.71659" lon="4.45691">
        <ele>602</ele>
        <time>2016-04-10T08:51:02Z</time>
      </trkpt>
      <trkpt lat="45.7166" lon="4.45684">
        <ele>602</ele>
        <time>2016-04-10T08:51:05Z</time>
      </trkpt>
      <trkpt lat="45.71662" lon="4.45676">
        <ele>601</ele>
        <time>2016-04-10T08:51:11Z</time>
      </trkpt>
      <trkpt lat="45.71664" lon="4.45669">
        <ele>602</ele>
        <time>2016-04-10T08:51:16Z</time>
      </trkpt>
      <trkpt lat="45.71667" lon="4.45662">
        <ele>602</ele>
        <time>2016-04-10T08:51:21Z</time>
      </trkpt>
      <trkpt lat="45.7167" lon="4.45655">
        <ele>601</ele>
        <time>2016-04-10T08:51:25Z</time>
      </trkpt>
      <trkpt lat="45.71672" lon="4.45648">
        <ele>601</ele>
        <time>2016-04-10T08:51:28Z</time>
      </trkpt>
      <trkpt lat="45.71674" lon="4.45641">
        <ele>602</ele>
        <time>2016-04-10T08:51:32Z</time>
      </trkpt>
      <trkpt lat="45.71676" lon="4.45634">
        <ele>603</ele>
        <time>2016-04-10T08:51:37Z</time>
      </trkpt>
      <trkpt lat="45.71677" lon="4.45628">
        <ele>602</ele>
        <time>2016-04-10T08:51:40Z</time>
      </trkpt>
      <trkpt lat="45.71679" lon="4.45622">
        <ele>603</ele>
        <time>2016-04-10T08:51:43Z</time>
      </trkpt>
      <trkpt lat="45.71679" lon="4.45614">
        <ele>607</ele>
        <time>2016-04-10T08:51:50Z</time>
      </trkpt>
      <trkpt lat="45.7168" lon="4.45605">
        <ele>606</ele>
        <time>2016-04-10T08:51:54Z</time>
      </trkpt>
      <trkpt lat="45.71683" lon="4.45598">
        <ele>604</ele>
        <time>2016-04-10T08:51:59Z</time>
      </trkpt>
      <trkpt lat="45.71684" lon="4.45588">
        <ele>602</ele>
        <time>2016-04-10T08:52:02Z</time>
      </trkpt>
      <trkpt lat="45.71688" lon="4.45582">
        <ele>603</ele>
        <time>2016-04-10T08:52:08Z</time>
      </trkpt>
      <trkpt lat="45.71691" lon="4.45572">
        <ele>604</ele>
        <time>2016-04-10T08:52:13Z</time>
      </trkpt>
      <trkpt lat="45.71693" lon="4.45566">
        <ele>605</ele>
        <time>2016-04-10T08:52:18Z</time>
      </trkpt>
      <trkpt lat="45.71697" lon="4.45558">
        <ele>604</ele>
        <time>2016-04-10T08:52:22Z</time>
      </trkpt>
      <trkpt lat="45.71702" lon="4.45553">
        <ele>609</ele>
        <time>2016-04-10T08:52:31Z</time>
      </trkpt>
      <trkpt lat="45.71707" lon="4.4555">
        <ele>612</ele>
        <time>2016-04-10T08:52:35Z</time>
      </trkpt>
      <trkpt lat="45.71711" lon="4.45546">
        <ele>612</ele>
        <time>2016-04-10T08:52:39Z</time>
      </trkpt>
      <trkpt lat="45.71716" lon="4.45544">
        <ele>613</ele>
        <time>2016-04-10T08:52:43Z</time>
      </trkpt>
      <trkpt lat="45.71721" lon="4.45536">
        <ele>609</ele>
        <time>2016-04-10T08:52:46Z</time>
      </trkpt>
      <trkpt lat="45.71724" lon="4.45529">
        <ele>607</ele>
        <time>2016-04-10T08:52:59Z</time>
      </trkpt>
      <trkpt lat="45.7173" lon="4.45531">
        <ele>609</ele>
        <time>2016-04-10T08:53:05Z</time>
      </trkpt>
      <trkpt lat="45.71733" lon="4.45536">
        <ele>611</ele>
        <time>2016-04-10T08:53:09Z</time>
      </trkpt>
      <trkpt lat="45.71738" lon="4.45538">
        <ele>610</ele>
        <time>2016-04-10T08:53:15Z</time>
      </trkpt>
      <trkpt lat="45.71739" lon="4.45545">
        <ele>610</ele>
        <time>2016-04-10T08:53:18Z</time>
      </trkpt>
      <trkpt lat="45.71743" lon="4.4555">
        <ele>608</ele>
        <time>2016-04-10T08:53:21Z</time>
      </trkpt>
      <trkpt lat="45.71746" lon="4.45555">
        <ele>609</ele>
        <time>2016-04-10T08:53:25Z</time>
      </trkpt>
      <trkpt lat="45.7175" lon="4.45559">
        <ele>608</ele>
        <time>2016-04-10T08:53:29Z</time>
      </trkpt>
      <trkpt lat="45.71754" lon="4.45563">
        <ele>607</ele>
        <time>2016-04-10T08:53:33Z</time>
      </trkpt>
      <trkpt lat="45.71758" lon="4.45567">
        <ele>604</ele>
        <time>2016-04-10T08:53:37Z</time>
      </trkpt>
      <trkpt lat="45.71762" lon="4.45574">
        <ele>606</ele>
        <time>2016-04-10T08:53:41Z</time>
      </trkpt>
      <trkpt lat="45.71767" lon="4.45579">
        <ele>605</ele>
        <time>2016-04-10T08:53:45Z</time>
      </trkpt>
      <trkpt lat="45.7177" lon="4.45585">
        <ele>605</ele>
        <time>2016-04-10T08:53:49Z</time>
      </trkpt>
      <trkpt lat="45.71775" lon="4.45589">
        <ele>603</ele>
        <time>2016-04-10T08:53:52Z</time>
      </trkpt>
      <trkpt lat="45.71779" lon="4.45595">
        <ele>602</ele>
        <time>2016-04-10T08:53:56Z</time>
      </trkpt>
      <trkpt lat="45.71785" lon="4.45596">
        <ele>599</ele>
        <time>2016-04-10T08:54:00Z</time>
      </trkpt>
      <trkpt lat="45.7179" lon="4.45599">
        <ele>598</ele>
        <time>2016-04-10T08:54:03Z</time>
      </trkpt>
      <trkpt lat="45.71795" lon="4.45605">
        <ele>596</ele>
        <time>2016-04-10T08:54:08Z</time>
      </trkpt>
      <trkpt lat="45.71799" lon="4.4561">
        <ele>597</ele>
        <time>2016-04-10T08:54:12Z</time>
      </trkpt>
      <trkpt lat="45.71803" lon="4.45614">
        <ele>596</ele>
        <time>2016-04-10T08:54:15Z</time>
      </trkpt>
      <trkpt lat="45.71807" lon="4.45618">
        <ele>599</ele>
        <time>2016-04-10T08:54:18Z</time>
      </trkpt>
      <trkpt lat="45.71812" lon="4.45619">
        <ele>598</ele>
        <time>2016-04-10T08:54:23Z</time>
      </trkpt>
      <trkpt lat="45.71817" lon="4.45624">
        <ele>595</ele>
        <time>2016-04-10T08:54:27Z</time>
      </trkpt>
      <trkpt lat="45.71822" lon="4.45629">
        <ele>595</ele>
        <time>2016-04-10T08:54:32Z</time>
      </trkpt>
      <trkpt lat="45.71822" lon="4.45636">
        <ele>593</ele>
        <time>2016-04-10T08:54:38Z</time>
      </trkpt>
      <trkpt lat="45.7182" lon="4.45643">
        <ele>595</ele>
        <time>2016-04-10T08:54:43Z</time>
      </trkpt>
      <trkpt lat="45.71818" lon="4.45648">
        <ele>594</ele>
        <time>2016-04-10T08:54:50Z</time>
      </trkpt>
      <trkpt lat="45.71815" lon="4.45658">
        <ele>595</ele>
        <time>2016-04-10T08:54:55Z</time>
      </trkpt>
      <trkpt lat="45.71815" lon="4.45665">
        <ele>594</ele>
        <time>2016-04-10T08:54:59Z</time>
      </trkpt>
      <trkpt lat="45.71813" lon="4.45673">
        <ele>594</ele>
        <time>2016-04-10T08:55:04Z</time>
      </trkpt>
      <trkpt lat="45.71813" lon="4.4568">
        <ele>593</ele>
        <time>2016-04-10T08:55:09Z</time>
      </trkpt>
      <trkpt lat="45.7181" lon="4.45687">
        <ele>596</ele>
        <time>2016-04-10T08:55:16Z</time>
      </trkpt>
      <trkpt lat="45.71809" lon="4.45696">
        <ele>594</ele>
        <time>2016-04-10T08:55:20Z</time>
      </trkpt>
      <trkpt lat="45.71807" lon="4.45703">
        <ele>594</ele>
        <time>2016-04-10T08:55:25Z</time>
      </trkpt>
      <trkpt lat="45.71805" lon="4.4571">
        <ele>595</ele>
        <time>2016-04-10T08:55:30Z</time>
      </trkpt>
      <trkpt lat="45.71803" lon="4.45717">
        <ele>595</ele>
        <time>2016-04-10T08:55:33Z</time>
      </trkpt>
      <trkpt lat="45.718" lon="4.45724">
        <ele>595</ele>
        <time>2016-04-10T08:55:38Z</time>
      </trkpt>
      <trkpt lat="45.71798" lon="4.45732">
        <ele>594</ele>
        <time>2016-04-10T08:55:42Z</time>
      </trkpt>
      <trkpt lat="45.71795" lon="4.45738">
        <ele>594</ele>
        <time>2016-04-10T08:55:46Z</time>
      </trkpt>
      <trkpt lat="45.71791" lon="4.45742">
        <ele>597</ele>
        <time>2016-04-10T08:55:52Z</time>
      </trkpt>
      <trkpt lat="45.71789" lon="4.45751">
        <ele>597</ele>
        <time>2016-04-10T08:55:58Z</time>
      </trkpt>
      <trkpt lat="45.71787" lon="4.4576">
        <ele>596</ele>
        <time>2016-04-10T08:56:00Z</time>
      </trkpt>
      <trkpt lat="45.71788" lon="4.45767">
        <ele>594</ele>
        <time>2016-04-10T08:56:04Z</time>
      </trkpt>
      <trkpt lat="45.71784" lon="4.45773">
        <ele>595</ele>
        <time>2016-04-10T08:56:09Z</time>
      </trkpt>
      <trkpt lat="45.7178" lon="4.45777">
        <ele>594</ele>
        <time>2016-04-10T08:56:12Z</time>
      </trkpt>
      <trkpt lat="45.71782" lon="4.45784">
        <ele>592</ele>
        <time>2016-04-10T08:56:15Z</time>
      </trkpt>
      <trkpt lat="45.71787" lon="4.45786">
        <ele>594</ele>
        <time>2016-04-10T08:56:17Z</time>
      </trkpt>
      <trkpt lat="45.71788" lon="4.45794">
        <ele>595</ele>
        <time>2016-04-10T08:56:21Z</time>
      </trkpt>
      <trkpt lat="45.71787" lon="4.45801">
        <ele>594</ele>
        <time>2016-04-10T08:56:25Z</time>
      </trkpt>
      <trkpt lat="45.71783" lon="4.45804">
        <ele>595</ele>
        <time>2016-04-10T08:56:27Z</time>
      </trkpt>
      <trkpt lat="45.71779" lon="4.45811">
        <ele>594</ele>
        <time>2016-04-10T08:56:33Z</time>
      </trkpt>
      <trkpt lat="45.71776" lon="4.45819">
        <ele>592</ele>
        <time>2016-04-10T08:56:37Z</time>
      </trkpt>
      <trkpt lat="45.71775" lon="4.45827">
        <ele>592</ele>
        <time>2016-04-10T08:56:42Z</time>
      </trkpt>
      <trkpt lat="45.71773" lon="4.45835">
        <ele>590</ele>
        <time>2016-04-10T08:56:46Z</time>
      </trkpt>
      <trkpt lat="45.71771" lon="4.45842">
        <ele>587</ele>
        <time>2016-04-10T08:56:51Z</time>
      </trkpt>
      <trkpt lat="45.7177" lon="4.45849">
        <ele>588</ele>
        <time>2016-04-10T08:56:55Z</time>
      </trkpt>
      <trkpt lat="45.71769" lon="4.45857">
        <ele>588</ele>
        <time>2016-04-10T08:57:01Z</time>
      </trkpt>
      <trkpt lat="45.71767" lon="4.45864">
        <ele>587</ele>
        <time>2016-04-10T08:57:04Z</time>
      </trkpt>
      <trkpt lat="45.71767" lon="4.4587">
        <ele>587</ele>
        <time>2016-04-10T08:57:08Z</time>
      </trkpt>
      <trkpt lat="45.71767" lon="4.45877">
        <ele>588</ele>
        <time>2016-04-10T08:57:13Z</time>
      </trkpt>
      <trkpt lat="45.71768" lon="4.45884">
        <ele>588</ele>
        <time>2016-04-10T08:57:18Z</time>
      </trkpt>
      <trkpt lat="45.71768" lon="4.45891">
        <ele>584</ele>
        <time>2016-04-10T08:57:23Z</time>
      </trkpt>
      <trkpt lat="45.71766" lon="4.45898">
        <ele>583</ele>
        <time>2016-04-10T08:57:28Z</time>
      </trkpt>
      <trkpt lat="45.71763" lon="4.45904">
        <ele>584</ele>
        <time>2016-04-10T08:57:33Z</time>
      </trkpt>
      <trkpt lat="45.71759" lon="4.45909">
        <ele>583</ele>
        <time>2016-04-10T08:57:35Z</time>
      </trkpt>
      <trkpt lat="45.71763" lon="4.45913">
        <ele>586</ele>
        <time>2016-04-10T08:57:38Z</time>
      </trkpt>
      <trkpt lat="45.71759" lon="4.45919">
        <ele>586</ele>
        <time>2016-04-10T08:57:42Z</time>
      </trkpt>
      <trkpt lat="45.71759" lon="4.45927">
        <ele>587</ele>
        <time>2016-04-10T08:57:48Z</time>
      </trkpt>
      <trkpt lat="45.71754" lon="4.45934">
        <ele>584</ele>
        <time>2016-04-10T08:57:52Z</time>
      </trkpt>
      <trkpt lat="45.71756" lon="4.4594">
        <ele>585</ele>
        <time>2016-04-10T08:57:56Z</time>
      </trkpt>
      <trkpt lat="45.71752" lon="4.45944">
        <ele>584</ele>
        <time>2016-04-10T08:57:59Z</time>
      </trkpt>
      <trkpt lat="45.71746" lon="4.45951">
        <ele>583</ele>
        <time>2016-04-10T08:58:04Z</time>
      </trkpt>
      <trkpt lat="45.71747" lon="4.45959">
        <ele>584</ele>
        <time>2016-04-10T08:58:08Z</time>
      </trkpt>
      <trkpt lat="45.71745" lon="4.45965">
        <ele>586</ele>
        <time>2016-04-10T08:58:12Z</time>
      </trkpt>
      <trkpt lat="45.71741" lon="4.45971">
        <ele>587</ele>
        <time>2016-04-10T08:58:17Z</time>
      </trkpt>
      <trkpt lat="45.71735" lon="4.45977">
        <ele>586</ele>
        <time>2016-04-10T08:58:22Z</time>
      </trkpt>
      <trkpt lat="45.71736" lon="4.45984">
        <ele>586</ele>
        <time>2016-04-10T08:58:24Z</time>
      </trkpt>
      <trkpt lat="45.71733" lon="4.45991">
        <ele>584</ele>
        <time>2016-04-10T08:58:28Z</time>
      </trkpt>
      <trkpt lat="45.7173" lon="4.45996">
        <ele>579</ele>
        <time>2016-04-10T08:58:53Z</time>
      </trkpt>
      <trkpt lat="45.71727" lon="4.46002">
        <ele>577</ele>
        <time>2016-04-10T08:58:56Z</time>
      </trkpt>
      <trkpt lat="45.71725" lon="4.46008">
        <ele>577</ele>
        <time>2016-04-10T08:58:59Z</time>
      </trkpt>
      <trkpt lat="45.71724" lon="4.46014">
        <ele>579</ele>
        <time>2016-04-10T08:59:03Z</time>
      </trkpt>
      <trkpt lat="45.71721" lon="4.4602">
        <ele>579</ele>
        <time>2016-04-10T08:59:07Z</time>
      </trkpt>
      <trkpt lat="45.71722" lon="4.46027">
        <ele>581</ele>
        <time>2016-04-10T08:59:10Z</time>
      </trkpt>
      <trkpt lat="45.71718" lon="4.46031">
        <ele>580</ele>
        <time>2016-04-10T08:59:13Z</time>
      </trkpt>
      <trkpt lat="45.71712" lon="4.46034">
        <ele>578</ele>
        <time>2016-04-10T08:59:15Z</time>
      </trkpt>
      <trkpt lat="45.71711" lon="4.4604">
        <ele>579</ele>
        <time>2016-04-10T08:59:19Z</time>
      </trkpt>
      <trkpt lat="45.71708" lon="4.46049">
        <ele>579</ele>
        <time>2016-04-10T08:59:22Z</time>
      </trkpt>
      <trkpt lat="45.71712" lon="4.4606">
        <ele>577</ele>
        <time>2016-04-10T08:59:24Z</time>
      </trkpt>
      <trkpt lat="45.71713" lon="4.46067">
        <ele>578</ele>
        <time>2016-04-10T08:59:26Z</time>
      </trkpt>
      <trkpt lat="45.71707" lon="4.46067">
        <ele>582</ele>
        <time>2016-04-10T08:59:29Z</time>
      </trkpt>
      <trkpt lat="45.71703" lon="4.46075">
        <ele>581</ele>
        <time>2016-04-10T08:59:34Z</time>
      </trkpt>
      <trkpt lat="45.717" lon="4.46081">
        <ele>583</ele>
        <time>2016-04-10T08:59:39Z</time>
      </trkpt>
      <trkpt lat="45.71698" lon="4.46089">
        <ele>585</ele>
        <time>2016-04-10T08:59:44Z</time>
      </trkpt>
      <trkpt lat="45.71696" lon="4.46097">
        <ele>585</ele>
        <time>2016-04-10T08:59:48Z</time>
      </trkpt>
      <trkpt lat="45.71696" lon="4.46104">
        <ele>587</ele>
        <time>2016-04-10T08:59:54Z</time>
      </trkpt>
      <trkpt lat="45.71696" lon="4.4611">
        <ele>588</ele>
        <time>2016-04-10T08:59:56Z</time>
      </trkpt>
      <trkpt lat="45.71693" lon="4.46117">
        <ele>585</ele>
        <time>2016-04-10T08:59:58Z</time>
      </trkpt>
      <trkpt lat="45.7169" lon="4.46123">
        <ele>587</ele>
        <time>2016-04-10T09:00:02Z</time>
      </trkpt>
      <trkpt lat="45.71685" lon="4.46124">
        <ele>586</ele>
        <time>2016-04-10T09:00:05Z</time>
      </trkpt>
      <trkpt lat="45.71682" lon="4.46132">
        <ele>584</ele>
        <time>2016-04-10T09:00:09Z</time>
      </trkpt>
      <trkpt lat="45.71683" lon="4.4614">
        <ele>583</ele>
        <time>2016-04-10T09:00:12Z</time>
      </trkpt>
      <trkpt lat="45.7168" lon="4.46146">
        <ele>579</ele>
        <time>2016-04-10T09:00:17Z</time>
      </trkpt>
      <trkpt lat="45.71675" lon="4.46149">
        <ele>582</ele>
        <time>2016-04-10T09:00:22Z</time>
      </trkpt>
      <trkpt lat="45.71674" lon="4.46157">
        <ele>582</ele>
        <time>2016-04-10T09:00:27Z</time>
      </trkpt>
      <trkpt lat="45.71669" lon="4.46158">
        <ele>585</ele>
        <time>2016-04-10T09:00:30Z</time>
      </trkpt>
      <trkpt lat="45.71666" lon="4.46163">
        <ele>585</ele>
        <time>2016-04-10T09:00:34Z</time>
      </trkpt>
      <trkpt lat="45.71662" lon="4.46169">
        <ele>584</ele>
        <time>2016-04-10T09:00:37Z</time>
      </trkpt>
      <trkpt lat="45.71664" lon="4.46178">
        <ele>584</ele>
        <time>2016-04-10T09:00:40Z</time>
      </trkpt>
      <trkpt lat="45.71662" lon="4.46185">
        <ele>585</ele>
        <time>2016-04-10T09:00:44Z</time>
      </trkpt>
      <trkpt lat="45.71659" lon="4.46192">
        <ele>585</ele>
        <time>2016-04-10T09:00:48Z</time>
      </trkpt>
      <trkpt lat="45.71657" lon="4.46199">
        <ele>584</ele>
        <time>2016-04-10T09:00:51Z</time>
      </trkpt>
      <trkpt lat="45.71652" lon="4.46202">
        <ele>584</ele>
        <time>2016-04-10T09:00:55Z</time>
      </trkpt>
      <trkpt lat="45.71649" lon="4.46208">
        <ele>584</ele>
        <time>2016-04-10T09:00:58Z</time>
      </trkpt>
      <trkpt lat="45.71646" lon="4.46214">
        <ele>584</ele>
        <time>2016-04-10T09:01:02Z</time>
      </trkpt>
      <trkpt lat="45.71644" lon="4.46222">
        <ele>582</ele>
        <time>2016-04-10T09:01:05Z</time>
      </trkpt>
      <trkpt lat="45.7164" lon="4.46228">
        <ele>583</ele>
        <time>2016-04-10T09:01:10Z</time>
      </trkpt>
      <trkpt lat="45.71638" lon="4.46235">
        <ele>587</ele>
        <time>2016-04-10T09:01:15Z</time>
      </trkpt>
      <trkpt lat="45.71637" lon="4.46241">
        <ele>588</ele>
        <time>2016-04-10T09:01:18Z</time>
      </trkpt>
      <trkpt lat="45.71634" lon="4.46248">
        <ele>587</ele>
        <time>2016-04-10T09:01:22Z</time>
      </trkpt>
      <trkpt lat="45.71635" lon="4.46254">
        <ele>587</ele>
        <time>2016-04-10T09:01:24Z</time>
      </trkpt>
      <trkpt lat="45.71632" lon="4.46262">
        <ele>586</ele>
        <time>2016-04-10T09:01:28Z</time>
      </trkpt>
      <trkpt lat="45.71629" lon="4.46267">
        <ele>587</ele>
        <time>2016-04-10T09:01:33Z</time>
      </trkpt>
      <trkpt lat="45.71628" lon="4.46274">
        <ele>589</ele>
        <time>2016-04-10T09:01:36Z</time>
      </trkpt>
      <trkpt lat="45.71627" lon="4.46282">
        <ele>590</ele>
        <time>2016-04-10T09:01:41Z</time>
      </trkpt>
      <trkpt lat="45.71625" lon="4.46291">
        <ele>590</ele>
        <time>2016-04-10T09:01:45Z</time>
      </trkpt>
      <trkpt lat="45.71624" lon="4.46298">
        <ele>590</ele>
        <time>2016-04-10T09:01:49Z</time>
      </trkpt>
      <trkpt lat="45.71624" lon="4.46306">
        <ele>588</ele>
        <time>2016-04-10T09:01:52Z</time>
      </trkpt>
      <trkpt lat="45.71622" lon="4.46314">
        <ele>588</ele>
        <time>2016-04-10T09:01:56Z</time>
      </trkpt>
      <trkpt lat="45.7162" lon="4.4632">
        <ele>589</ele>
        <time>2016-04-10T09:02:02Z</time>
      </trkpt>
      <trkpt lat="45.7162" lon="4.4633">
        <ele>588</ele>
        <time>2016-04-10T09:02:05Z</time>
      </trkpt>
      <trkpt lat="45.71619" lon="4.46336">
        <ele>587</ele>
        <time>2016-04-10T09:02:09Z</time>
      </trkpt>
      <trkpt lat="45.71617" lon="4.46342">
        <ele>588</ele>
        <time>2016-04-10T09:02:12Z</time>
      </trkpt>
      <trkpt lat="45.71616" lon="4.46348">
        <ele>588</ele>
        <time>2016-04-10T09:02:16Z</time>
      </trkpt>
      <trkpt lat="45.71615" lon="4.46355">
        <ele>588</ele>
        <time>2016-04-10T09:02:20Z</time>
      </trkpt>
      <trkpt lat="45.71613" lon="4.46361">
        <ele>588</ele>
        <time>2016-04-10T09:02:25Z</time>
      </trkpt>
      <trkpt lat="45.71613" lon="4.46369">
        <ele>587</ele>
        <time>2016-04-10T09:02:27Z</time>
      </trkpt>
      <trkpt lat="45.71612" lon="4.46376">
        <ele>588</ele>
        <time>2016-04-10T09:02:32Z</time>
      </trkpt>
      <trkpt lat="45.71611" lon="4.46382">
        <ele>587</ele>
        <time>2016-04-10T09:02:36Z</time>
      </trkpt>
      <trkpt lat="45.7161" lon="4.46389">
        <ele>588</ele>
        <time>2016-04-10T09:02:40Z</time>
      </trkpt>
      <trkpt lat="45.71609" lon="4.46396">
        <ele>589</ele>
        <time>2016-04-10T09:02:44Z</time>
      </trkpt>
      <trkpt lat="45.71608" lon="4.46403">
        <ele>589</ele>
        <time>2016-04-10T09:02:47Z</time>
      </trkpt>
      <trkpt lat="45.71608" lon="4.46411">
        <ele>588</ele>
        <time>2016-04-10T09:02:50Z</time>
      </trkpt>
      <trkpt lat="45.71607" lon="4.46419">
        <ele>591</ele>
        <time>2016-04-10T09:02:57Z</time>
      </trkpt>
      <trkpt lat="45.71605" lon="4.46426">
        <ele>593</ele>
        <time>2016-04-10T09:03:02Z</time>
      </trkpt>
      <trkpt lat="45.71604" lon="4.46433">
        <ele>593</ele>
        <time>2016-04-10T09:03:06Z</time>
      </trkpt>
      <trkpt lat="45.71604" lon="4.46439">
        <ele>594</ele>
        <time>2016-04-10T09:03:11Z</time>
      </trkpt>
      <trkpt lat="45.71602" lon="4.46446">
        <ele>595</ele>
        <time>2016-04-10T09:03:15Z</time>
      </trkpt>
      <trkpt lat="45.716" lon="4.46452">
        <ele>596</ele>
        <time>2016-04-10T09:03:20Z</time>
      </trkpt>
      <trkpt lat="45.71598" lon="4.46458">
        <ele>597</ele>
        <time>2016-04-10T09:03:25Z</time>
      </trkpt>
      <trkpt lat="45.716" lon="4.46464">
        <ele>597</ele>
        <time>2016-04-10T09:03:28Z</time>
      </trkpt>
      <trkpt lat="45.71604" lon="4.46468">
        <ele>597</ele>
        <time>2016-04-10T09:03:33Z</time>
      </trkpt>
      <trkpt lat="45.71609" lon="4.46465">
        <ele>597</ele>
        <time>2016-04-10T09:03:38Z</time>
      </trkpt>
      <trkpt lat="45.71613" lon="4.46461">
        <ele>597</ele>
        <time>2016-04-10T09:03:42Z</time>
      </trkpt>
      <trkpt lat="45.71617" lon="4.46457">
        <ele>597</ele>
        <time>2016-04-10T09:03:46Z</time>
      </trkpt>
      <trkpt lat="45.71621" lon="4.46453">
        <ele>597</ele>
        <time>2016-04-10T09:03:51Z</time>
      </trkpt>
      <trkpt lat="45.71625" lon="4.46448">
        <ele>596</ele>
        <time>2016-04-10T09:03:55Z</time>
      </trkpt>
      <trkpt lat="45.7163" lon="4.4645">
        <ele>601</ele>
        <time>2016-04-10T09:04:01Z</time>
      </trkpt>
      <trkpt lat="45.71633" lon="4.46446">
        <ele>601</ele>
        <time>2016-04-10T09:04:06Z</time>
      </trkpt>
      <trkpt lat="45.71637" lon="4.4644">
        <ele>601</ele>
        <time>2016-04-10T09:04:10Z</time>
      </trkpt>
      <trkpt lat="45.7164" lon="4.46434">
        <ele>600</ele>
        <time>2016-04-10T09:04:14Z</time>
      </trkpt>
      <trkpt lat="45.71644" lon="4.46429">
        <ele>600</ele>
        <time>2016-04-10T09:04:19Z</time>
      </trkpt>
      <trkpt lat="45.71649" lon="4.46425">
        <ele>601</ele>
        <time>2016-04-10T09:04:24Z</time>
      </trkpt>
      <trkpt lat="45.71653" lon="4.46421">
        <ele>603</ele>
        <time>2016-04-10T09:04:28Z</time>
      </trkpt>
      <trkpt lat="45.71658" lon="4.46418">
        <ele>603</ele>
        <time>2016-04-10T09:04:33Z</time>
      </trkpt>
      <trkpt lat="45.71662" lon="4.46414">
        <ele>603</ele>
        <time>2016-04-10T09:04:38Z</time>
      </trkpt>
      <trkpt lat="45.71668" lon="4.46412">
        <ele>605</ele>
        <time>2016-04-10T09:04:43Z</time>
      </trkpt>
      <trkpt lat="45.71672" lon="4.46409">
        <ele>606</ele>
        <time>2016-04-10T09:04:47Z</time>
      </trkpt>
      <trkpt lat="45.71676" lon="4.46405">
        <ele>605</ele>
        <time>2016-04-10T09:04:51Z</time>
      </trkpt>
      <trkpt lat="45.71681" lon="4.46402">
        <ele>606</ele>
        <time>2016-04-10T09:04:56Z</time>
      </trkpt>
      <trkpt lat="45.71685" lon="4.46399">
        <ele>606</ele>
        <time>2016-04-10T09:04:59Z</time>
      </trkpt>
      <trkpt lat="45.71689" lon="4.464">
        <ele>608</ele>
        <time>2016-04-10T09:05:05Z</time>
      </trkpt>
      <trkpt lat="45.71694" lon="4.46398">
        <ele>609</ele>
        <time>2016-04-10T09:05:09Z</time>
      </trkpt>
      <trkpt lat="45.71699" lon="4.46396">
        <ele>610</ele>
        <time>2016-04-10T09:05:15Z</time>
      </trkpt>
      <trkpt lat="45.71704" lon="4.46394">
        <ele>610</ele>
        <time>2016-04-10T09:05:19Z</time>
      </trkpt>
      <trkpt lat="45.71709" lon="4.46392">
        <ele>609</ele>
        <time>2016-04-10T09:05:23Z</time>
      </trkpt>
      <trkpt lat="45.71714" lon="4.46389">
        <ele>608</ele>
        <time>2016-04-10T09:05:27Z</time>
      </trkpt>
      <trkpt lat="45.71719" lon="4.46386">
        <ele>608</ele>
        <time>2016-04-10T09:05:30Z</time>
      </trkpt>
      <trkpt lat="45.71723" lon="4.46383">
        <ele>609</ele>
        <time>2016-04-10T09:05:34Z</time>
      </trkpt>
      <trkpt lat="45.71728" lon="4.46382">
        <ele>608</ele>
        <time>2016-04-10T09:05:39Z</time>
      </trkpt>
      <trkpt lat="45.71734" lon="4.46381">
        <ele>609</ele>
        <time>2016-04-10T09:05:44Z</time>
      </trkpt>
      <trkpt lat="45.71739" lon="4.46378">
        <ele>608</ele>
        <time>2016-04-10T09:05:48Z</time>
      </trkpt>
      <trkpt lat="45.71743" lon="4.46375">
        <ele>608</ele>
        <time>2016-04-10T09:05:51Z</time>
      </trkpt>
      <trkpt lat="45.71748" lon="4.46373">
        <ele>608</ele>
        <time>2016-04-10T09:05:55Z</time>
      </trkpt>
      <trkpt lat="45.71753" lon="4.46372">
        <ele>610</ele>
        <time>2016-04-10T09:06:00Z</time>
      </trkpt>
      <trkpt lat="45.71758" lon="4.46369">
        <ele>609</ele>
        <time>2016-04-10T09:06:04Z</time>
      </trkpt>
      <trkpt lat="45.71762" lon="4.46368">
        <ele>610</ele>
        <time>2016-04-10T09:06:08Z</time>
      </trkpt>
      <trkpt lat="45.71767" lon="4.46366">
        <ele>612</ele>
        <time>2016-04-10T09:06:12Z</time>
      </trkpt>
      <trkpt lat="45.71772" lon="4.46363">
        <ele>612</ele>
        <time>2016-04-10T09:06:16Z</time>
      </trkpt>
      <trkpt lat="45.71776" lon="4.4636">
        <ele>612</ele>
        <time>2016-04-10T09:06:20Z</time>
      </trkpt>
      <trkpt lat="45.7178" lon="4.46365">
        <ele>618</ele>
        <time>2016-04-10T09:06:23Z</time>
      </trkpt>
      <trkpt lat="45.71784" lon="4.4636">
        <ele>617</ele>
        <time>2016-04-10T09:06:28Z</time>
      </trkpt>
      <trkpt lat="45.71789" lon="4.46363">
        <ele>624</ele>
        <time>2016-04-10T09:06:34Z</time>
      </trkpt>
      <trkpt lat="45.71793" lon="4.46359">
        <ele>622</ele>
        <time>2016-04-10T09:06:37Z</time>
      </trkpt>
      <trkpt lat="45.71797" lon="4.46356">
        <ele>622</ele>
        <time>2016-04-10T09:06:41Z</time>
      </trkpt>
      <trkpt lat="45.71802" lon="4.46354">
        <ele>623</ele>
        <time>2016-04-10T09:06:45Z</time>
      </trkpt>
      <trkpt lat="45.71806" lon="4.46351">
        <ele>624</ele>
        <time>2016-04-10T09:06:49Z</time>
      </trkpt>
      <trkpt lat="45.71809" lon="4.46343">
        <ele>620</ele>
        <time>2016-04-10T09:06:51Z</time>
      </trkpt>
      <trkpt lat="45.71814" lon="4.4634">
        <ele>620</ele>
        <time>2016-04-10T09:06:55Z</time>
      </trkpt>
      <trkpt lat="45.71817" lon="4.46336">
        <ele>619</ele>
        <time>2016-04-10T09:06:58Z</time>
      </trkpt>
      <trkpt lat="45.71822" lon="4.46334">
        <ele>619</ele>
        <time>2016-04-10T09:07:02Z</time>
      </trkpt>
      <trkpt lat="45.71827" lon="4.46331">
        <ele>619</ele>
        <time>2016-04-10T09:07:06Z</time>
      </trkpt>
      <trkpt lat="45.71832" lon="4.46329">
        <ele>619</ele>
        <time>2016-04-10T09:07:10Z</time>
      </trkpt>
      <trkpt lat="45.71837" lon="4.46327">
        <ele>619</ele>
        <time>2016-04-10T09:07:14Z</time>
      </trkpt>
      <trkpt lat="45.71841" lon="4.46324">
        <ele>620</ele>
        <time>2016-04-10T09:07:18Z</time>
      </trkpt>
      <trkpt lat="45.71846" lon="4.46323">
        <ele>621</ele>
        <time>2016-04-10T09:07:22Z</time>
      </trkpt>
      <trkpt lat="45.7185" lon="4.46326">
        <ele>623</ele>
        <time>2016-04-10T09:07:30Z</time>
      </trkpt>
      <trkpt lat="45.71856" lon="4.46326">
        <ele>624</ele>
        <time>2016-04-10T09:07:35Z</time>
      </trkpt>
      <trkpt lat="45.71861" lon="4.46327">
        <ele>625</ele>
        <time>2016-04-10T09:07:40Z</time>
      </trkpt>
      <trkpt lat="45.71866" lon="4.46329">
        <ele>625</ele>
        <time>2016-04-10T09:07:46Z</time>
      </trkpt>
      <trkpt lat="45.71872" lon="4.46331">
        <ele>623</ele>
        <time>2016-04-10T09:07:51Z</time>
      </trkpt>
      <trkpt lat="45.71876" lon="4.46334">
        <ele>624</ele>
        <time>2016-04-10T09:07:56Z</time>
      </trkpt>
      <trkpt lat="45.71881" lon="4.46336">
        <ele>626</ele>
        <time>2016-04-10T09:08:02Z</time>
      </trkpt>
      <trkpt lat="45.71887" lon="4.46337">
        <ele>627</ele>
        <time>2016-04-10T09:08:06Z</time>
      </trkpt>
      <trkpt lat="45.71891" lon="4.46339">
        <ele>628</ele>
        <time>2016-04-10T09:08:10Z</time>
      </trkpt>
      <trkpt lat="45.71896" lon="4.46339">
        <ele>627</ele>
        <time>2016-04-10T09:08:14Z</time>
      </trkpt>
      <trkpt lat="45.71901" lon="4.46339">
        <ele>630</ele>
        <time>2016-04-10T09:08:19Z</time>
      </trkpt>
      <trkpt lat="45.71905" lon="4.46342">
        <ele>630</ele>
        <time>2016-04-10T09:08:23Z</time>
      </trkpt>
      <trkpt lat="45.71909" lon="4.46346">
        <ele>629</ele>
        <time>2016-04-10T09:08:28Z</time>
      </trkpt>
      <trkpt lat="45.71915" lon="4.46349">
        <ele>636</ele>
        <time>2016-04-10T09:08:38Z</time>
      </trkpt>
      <trkpt lat="45.71919" lon="4.46351">
        <ele>637</ele>
        <time>2016-04-10T09:08:43Z</time>
      </trkpt>
      <trkpt lat="45.71924" lon="4.46354">
        <ele>636</ele>
        <time>2016-04-10T09:08:47Z</time>
      </trkpt>
      <trkpt lat="45.71928" lon="4.46355">
        <ele>640</ele>
        <time>2016-04-10T09:08:53Z</time>
      </trkpt>
      <trkpt lat="45.71934" lon="4.46357">
        <ele>644</ele>
        <time>2016-04-10T09:09:00Z</time>
      </trkpt>
      <trkpt lat="45.71937" lon="4.46361">
        <ele>647</ele>
        <time>2016-04-10T09:09:06Z</time>
      </trkpt>
      <trkpt lat="45.71941" lon="4.46364">
        <ele>647</ele>
        <time>2016-04-10T09:09:12Z</time>
      </trkpt>
      <trkpt lat="45.71944" lon="4.4637">
        <ele>647</ele>
        <time>2016-04-10T09:09:18Z</time>
      </trkpt>
      <trkpt lat="45.71949" lon="4.46372">
        <ele>643</ele>
        <time>2016-04-10T09:09:21Z</time>
      </trkpt>
      <trkpt lat="45.71952" lon="4.46378">
        <ele>644</ele>
        <time>2016-04-10T09:09:32Z</time>
      </trkpt>
      <trkpt lat="45.71954" lon="4.46384">
        <ele>646</ele>
        <time>2016-04-10T09:09:38Z</time>
      </trkpt>
      <trkpt lat="45.71955" lon="4.46391">
        <ele>649</ele>
        <time>2016-04-10T09:09:42Z</time>
      </trkpt>
      <trkpt lat="45.71956" lon="4.46399">
        <ele>655</ele>
        <time>2016-04-10T09:09:52Z</time>
      </trkpt>
      <trkpt lat="45.71958" lon="4.46405">
        <ele>656</ele>
        <time>2016-04-10T09:09:56Z</time>
      </trkpt>
      <trkpt lat="45.71957" lon="4.46416">
        <ele>657</ele>
        <time>2016-04-10T09:10:13Z</time>
      </trkpt>
      <trkpt lat="45.71956" lon="4.46424">
        <ele>658</ele>
        <time>2016-04-10T09:10:17Z</time>
      </trkpt>
      <trkpt lat="45.71956" lon="4.46432">
        <ele>657</ele>
        <time>2016-04-10T09:10:21Z</time>
      </trkpt>
      <trkpt lat="45.71957" lon="4.46439">
        <ele>659</ele>
        <time>2016-04-10T09:10:25Z</time>
      </trkpt>
      <trkpt lat="45.71958" lon="4.46446">
        <ele>659</ele>
        <time>2016-04-10T09:10:29Z</time>
      </trkpt>
      <trkpt lat="45.71958" lon="4.46453">
        <ele>661</ele>
        <time>2016-04-10T09:10:36Z</time>
      </trkpt>
      <trkpt lat="45.71958" lon="4.46462">
        <ele>661</ele>
        <time>2016-04-10T09:10:40Z</time>
      </trkpt>
      <trkpt lat="45.71957" lon="4.46468">
        <ele>666</ele>
        <time>2016-04-10T09:10:47Z</time>
      </trkpt>
      <trkpt lat="45.71959" lon="4.46476">
        <ele>666</ele>
        <time>2016-04-10T09:10:51Z</time>
      </trkpt>
      <trkpt lat="45.7196" lon="4.46482">
        <ele>667</ele>
        <time>2016-04-10T09:10:55Z</time>
      </trkpt>
      <trkpt lat="45.7196" lon="4.46489">
        <ele>667</ele>
        <time>2016-04-10T09:10:58Z</time>
      </trkpt>
      <trkpt lat="45.71961" lon="4.46497">
        <ele>668</ele>
        <time>2016-04-10T09:11:02Z</time>
      </trkpt>
      <trkpt lat="45.7196" lon="4.46504">
        <ele>668</ele>
        <time>2016-04-10T09:11:12Z</time>
      </trkpt>
      <trkpt lat="45.71962" lon="4.46511">
        <ele>669</ele>
        <time>2016-04-10T09:11:16Z</time>
      </trkpt>
      <trkpt lat="45.71963" lon="4.46518">
        <ele>669</ele>
        <time>2016-04-10T09:11:20Z</time>
      </trkpt>
      <trkpt lat="45.71968" lon="4.46517">
        <ele>669</ele>
        <time>2016-04-10T09:11:24Z</time>
      </trkpt>
      <trkpt lat="45.71972" lon="4.46512">
        <ele>668</ele>
        <time>2016-04-10T09:11:28Z</time>
      </trkpt>
      <trkpt lat="45.71975" lon="4.46507">
        <ele>667</ele>
        <time>2016-04-10T09:11:31Z</time>
      </trkpt>
      <trkpt lat="45.71979" lon="4.46513">
        <ele>670</ele>
        <time>2016-04-10T09:11:36Z</time>
      </trkpt>
      <trkpt lat="45.71983" lon="4.46517">
        <ele>671</ele>
        <time>2016-04-10T09:11:41Z</time>
      </trkpt>
      <trkpt lat="45.71987" lon="4.46517">
        <ele>674</ele>
        <time>2016-04-10T09:11:48Z</time>
      </trkpt>
      <trkpt lat="45.71993" lon="4.46517">
        <ele>676</ele>
        <time>2016-04-10T09:11:53Z</time>
      </trkpt>
      <trkpt lat="45.71998" lon="4.46514">
        <ele>681</ele>
        <time>2016-04-10T09:12:01Z</time>
      </trkpt>
      <trkpt lat="45.72002" lon="4.46509">
        <ele>682</ele>
        <time>2016-04-10T09:12:06Z</time>
      </trkpt>
      <trkpt lat="45.72007" lon="4.46509">
        <ele>685</ele>
        <time>2016-04-10T09:12:13Z</time>
      </trkpt>
      <trkpt lat="45.72012" lon="4.4651">
        <ele>684</ele>
        <time>2016-04-10T09:12:20Z</time>
      </trkpt>
      <trkpt lat="45.72015" lon="4.46515">
        <ele>683</ele>
        <time>2016-04-10T09:12:24Z</time>
      </trkpt>
      <trkpt lat="45.72019" lon="4.46519">
        <ele>685</ele>
        <time>2016-04-10T09:12:30Z</time>
      </trkpt>
      <trkpt lat="45.72023" lon="4.46524">
        <ele>687</ele>
        <time>2016-04-10T09:12:36Z</time>
      </trkpt>
      <trkpt lat="45.72027" lon="4.46527">
        <ele>687</ele>
        <time>2016-04-10T09:12:41Z</time>
      </trkpt>
      <trkpt lat="45.72027" lon="4.46535">
        <ele>688</ele>
        <time>2016-04-10T09:12:46Z</time>
      </trkpt>
      <trkpt lat="45.72031" lon="4.46539">
        <ele>689</ele>
        <time>2016-04-10T09:12:49Z</time>
      </trkpt>
      <trkpt lat="45.72035" lon="4.46544">
        <ele>688</ele>
        <time>2016-04-10T09:12:53Z</time>
      </trkpt>
      <trkpt lat="45.72036" lon="4.46552">
        <ele>687</ele>
        <time>2016-04-10T09:12:58Z</time>
      </trkpt>
      <trkpt lat="45.72039" lon="4.46557">
        <ele>686</ele>
        <time>2016-04-10T09:13:01Z</time>
      </trkpt>
      <trkpt lat="45.72042" lon="4.46562">
        <ele>686</ele>
        <time>2016-04-10T09:13:05Z</time>
      </trkpt>
      <trkpt lat="45.72044" lon="4.46568">
        <ele>687</ele>
        <time>2016-04-10T09:13:10Z</time>
      </trkpt>
      <trkpt lat="45.72046" lon="4.46575">
        <ele>689</ele>
        <time>2016-04-10T09:13:15Z</time>
      </trkpt>
      <trkpt lat="45.72051" lon="4.46579">
        <ele>687</ele>
        <time>2016-04-10T09:13:20Z</time>
      </trkpt>
      <trkpt lat="45.72055" lon="4.46581">
        <ele>683</ele>
        <time>2016-04-10T09:13:23Z</time>
      </trkpt>
      <trkpt lat="45.7206" lon="4.46582">
        <ele>682</ele>
        <time>2016-04-10T09:13:27Z</time>
      </trkpt>
      <trkpt lat="45.72064" lon="4.4658">
        <ele>683</ele>
        <time>2016-04-10T09:13:33Z</time>
      </trkpt>
      <trkpt lat="45.72068" lon="4.46575">
        <ele>678</ele>
        <time>2016-04-10T09:13:38Z</time>
      </trkpt>
      <trkpt lat="45.72073" lon="4.46571">
        <ele>675</ele>
        <time>2016-04-10T09:13:41Z</time>
      </trkpt>
      <trkpt lat="45.72077" lon="4.4657">
        <ele>673</ele>
        <time>2016-04-10T09:13:49Z</time>
      </trkpt>
      <trkpt lat="45.72083" lon="4.4657">
        <ele>674</ele>
        <time>2016-04-10T09:13:54Z</time>
      </trkpt>
      <trkpt lat="45.72086" lon="4.46566">
        <ele>672</ele>
        <time>2016-04-10T09:14:00Z</time>
      </trkpt>
      <trkpt lat="45.72089" lon="4.46561">
        <ele>672</ele>
        <time>2016-04-10T09:14:02Z</time>
      </trkpt>
      <trkpt lat="45.72093" lon="4.4656">
        <ele>672</ele>
        <time>2016-04-10T09:14:10Z</time>
      </trkpt>
      <trkpt lat="45.72098" lon="4.46559">
        <ele>671</ele>
        <time>2016-04-10T09:14:19Z</time>
      </trkpt>
      <trkpt lat="45.72103" lon="4.46564">
        <ele>671</ele>
        <time>2016-04-10T09:14:23Z</time>
      </trkpt>
      <trkpt lat="45.72107" lon="4.4656">
        <ele>669</ele>
        <time>2016-04-10T09:14:26Z</time>
      </trkpt>
      <trkpt lat="45.72113" lon="4.46561">
        <ele>664</ele>
        <time>2016-04-10T09:14:38Z</time>
      </trkpt>
      <trkpt lat="45.72118" lon="4.46563">
        <ele>663</ele>
        <time>2016-04-10T09:14:40Z</time>
      </trkpt>
      <trkpt lat="45.72123" lon="4.46566">
        <ele>662</ele>
        <time>2016-04-10T09:14:44Z</time>
      </trkpt>
      <trkpt lat="45.72127" lon="4.46572">
        <ele>664</ele>
        <time>2016-04-10T09:14:49Z</time>
      </trkpt>
      <trkpt lat="45.72134" lon="4.46574">
        <ele>660</ele>
        <time>2016-04-10T09:14:57Z</time>
      </trkpt>
      <trkpt lat="45.72138" lon="4.46578">
        <ele>658</ele>
        <time>2016-04-10T09:15:02Z</time>
      </trkpt>
      <trkpt lat="45.72142" lon="4.46582">
        <ele>651</ele>
        <time>2016-04-10T09:15:10Z</time>
      </trkpt>
      <trkpt lat="45.72147" lon="4.46587">
        <ele>650</ele>
        <time>2016-04-10T09:15:17Z</time>
      </trkpt>
      <trkpt lat="45.7215" lon="4.46592">
        <ele>651</ele>
        <time>2016-04-10T09:15:21Z</time>
      </trkpt>
      <trkpt lat="45.72155" lon="4.46596">
        <ele>649</ele>
        <time>2016-04-10T09:15:26Z</time>
      </trkpt>
      <trkpt lat="45.7216" lon="4.46597">
        <ele>647</ele>
        <time>2016-04-10T09:15:30Z</time>
      </trkpt>
      <trkpt lat="45.72166" lon="4.46596">
        <ele>644</ele>
        <time>2016-04-10T09:15:35Z</time>
      </trkpt>
      <trkpt lat="45.7217" lon="4.46598">
        <ele>646</ele>
        <time>2016-04-10T09:15:39Z</time>
      </trkpt>
      <trkpt lat="45.72176" lon="4.46596">
        <ele>646</ele>
        <time>2016-04-10T09:15:42Z</time>
      </trkpt>
      <trkpt lat="45.7218" lon="4.46599">
        <ele>647</ele>
        <time>2016-04-10T09:15:45Z</time>
      </trkpt>
      <trkpt lat="45.72185" lon="4.46602">
        <ele>647</ele>
        <time>2016-04-10T09:15:49Z</time>
      </trkpt>
      <trkpt lat="45.72191" lon="4.46604">
        <ele>647</ele>
        <time>2016-04-10T09:15:52Z</time>
      </trkpt>
      <trkpt lat="45.72196" lon="4.46603">
        <ele>644</ele>
        <time>2016-04-10T09:15:55Z</time>
      </trkpt>
      <trkpt lat="45.72201" lon="4.46603">
        <ele>643</ele>
        <time>2016-04-10T09:15:59Z</time>
      </trkpt>
      <trkpt lat="45.72206" lon="4.46604">
        <ele>643</ele>
        <time>2016-04-10T09:16:02Z</time>
      </trkpt>
      <trkpt lat="45.7221" lon="4.46604">
        <ele>643</ele>
        <time>2016-04-10T09:16:05Z</time>
      </trkpt>
      <trkpt lat="45.72215" lon="4.46606">
        <ele>643</ele>
        <time>2016-04-10T09:16:08Z</time>
      </trkpt>
      <trkpt lat="45.7222" lon="4.46604">
        <ele>643</ele>
        <time>2016-04-10T09:16:12Z</time>
      </trkpt>
      <trkpt lat="45.72225" lon="4.46601">
        <ele>644</ele>
        <time>2016-04-10T09:16:17Z</time>
      </trkpt>
      <trkpt lat="45.7223" lon="4.46599">
        <ele>643</ele>
        <time>2016-04-10T09:16:21Z</time>
      </trkpt>
      <trkpt lat="45.72233" lon="4.46593">
        <ele>641</ele>
        <time>2016-04-10T09:16:23Z</time>
      </trkpt>
      <trkpt lat="45.72237" lon="4.46592">
        <ele>641</ele>
        <time>2016-04-10T09:16:26Z</time>
      </trkpt>
      <trkpt lat="45.72242" lon="4.46591">
        <ele>641</ele>
        <time>2016-04-10T09:16:30Z</time>
      </trkpt>
      <trkpt lat="45.72247" lon="4.46585">
        <ele>635</ele>
        <time>2016-04-10T09:16:34Z</time>
      </trkpt>
      <trkpt lat="45.72252" lon="4.46585">
        <ele>636</ele>
        <time>2016-04-10T09:16:38Z</time>
      </trkpt>
      <trkpt lat="45.72256" lon="4.46588">
        <ele>638</ele>
        <time>2016-04-10T09:16:42Z</time>
      </trkpt>
      <trkpt lat="45.72259" lon="4.46581">
        <ele>632</ele>
        <time>2016-04-10T09:16:44Z</time>
      </trkpt>
      <trkpt lat="45.7226" lon="4.46574">
        <ele>628</ele>
        <time>2016-04-10T09:16:46Z</time>
      </trkpt>
      <trkpt lat="45.72264" lon="4.46579">
        <ele>629</ele>
        <time>2016-04-10T09:16:51Z</time>
      </trkpt>
      <trkpt lat="45.72269" lon="4.46585">
        <ele>627</ele>
        <time>2016-04-10T09:16:59Z</time>
      </trkpt>
      <trkpt lat="45.72272" lon="4.4659">
        <ele>626</ele>
        <time>2016-04-10T09:17:02Z</time>
      </trkpt>
      <trkpt lat="45.72275" lon="4.46595">
        <ele>628</ele>
        <time>2016-04-10T09:17:05Z</time>
      </trkpt>
      <trkpt lat="45.72278" lon="4.46601">
        <ele>629</ele>
        <time>2016-04-10T09:17:10Z</time>
      </trkpt>
      <trkpt lat="45.72281" lon="4.46609">
        <ele>629</ele>
        <time>2016-04-10T09:17:17Z</time>
      </trkpt>
      <trkpt lat="45.72284" lon="4.46616">
        <ele>628</ele>
        <time>2016-04-10T09:17:22Z</time>
      </trkpt>
      <trkpt lat="45.72288" lon="4.46621">
        <ele>629</ele>
        <time>2016-04-10T09:17:25Z</time>
      </trkpt>
      <trkpt lat="45.72289" lon="4.46628">
        <ele>629</ele>
        <time>2016-04-10T09:17:29Z</time>
      </trkpt>
      <trkpt lat="45.72292" lon="4.46633">
        <ele>629</ele>
        <time>2016-04-10T09:17:32Z</time>
      </trkpt>
      <trkpt lat="45.72295" lon="4.46639">
        <ele>630</ele>
        <time>2016-04-10T09:17:36Z</time>
      </trkpt>
      <trkpt lat="45.72299" lon="4.46645">
        <ele>630</ele>
        <time>2016-04-10T09:17:40Z</time>
      </trkpt>
      <trkpt lat="45.72302" lon="4.46652">
        <ele>630</ele>
        <time>2016-04-10T09:17:44Z</time>
      </trkpt>
      <trkpt lat="45.72306" lon="4.46657">
        <ele>628</ele>
        <time>2016-04-10T09:17:47Z</time>
      </trkpt>
      <trkpt lat="45.72309" lon="4.46663">
        <ele>626</ele>
        <time>2016-04-10T09:17:51Z</time>
      </trkpt>
      <trkpt lat="45.72315" lon="4.46666">
        <ele>624</ele>
        <time>2016-04-10T09:17:55Z</time>
      </trkpt>
      <trkpt lat="45.72317" lon="4.46674">
        <ele>620</ele>
        <time>2016-04-10T09:18:02Z</time>
      </trkpt>
      <trkpt lat="45.72319" lon="4.4668">
        <ele>619</ele>
        <time>2016-04-10T09:18:07Z</time>
      </trkpt>
      <trkpt lat="45.72321" lon="4.46686">
        <ele>619</ele>
        <time>2016-04-10T09:18:10Z</time>
      </trkpt>
      <trkpt lat="45.72321" lon="4.46694">
        <ele>619</ele>
        <time>2016-04-10T09:18:15Z</time>
      </trkpt>
      <trkpt lat="45.72321" lon="4.46702">
        <ele>619</ele>
        <time>2016-04-10T09:18:19Z</time>
      </trkpt>
      <trkpt lat="45.72321" lon="4.46708">
        <ele>619</ele>
        <time>2016-04-10T09:18:23Z</time>
      </trkpt>
      <trkpt lat="45.72324" lon="4.46714">
        <ele>619</ele>
        <time>2016-04-10T09:18:26Z</time>
      </trkpt>
      <trkpt lat="45.72323" lon="4.4672">
        <ele>619</ele>
        <time>2016-04-10T09:18:30Z</time>
      </trkpt>
      <trkpt lat="45.72326" lon="4.46726">
        <ele>620</ele>
        <time>2016-04-10T09:18:36Z</time>
      </trkpt>
      <trkpt lat="45.72327" lon="4.46733">
        <ele>619</ele>
        <time>2016-04-10T09:18:49Z</time>
      </trkpt>
      <trkpt lat="45.72326" lon="4.46741">
        <ele>620</ele>
        <time>2016-04-10T09:18:55Z</time>
      </trkpt>
      <trkpt lat="45.72325" lon="4.46748">
        <ele>621</ele>
        <time>2016-04-10T09:18:59Z</time>
      </trkpt>
      <trkpt lat="45.72326" lon="4.46757">
        <ele>621</ele>
        <time>2016-04-10T09:19:03Z</time>
      </trkpt>
      <trkpt lat="45.72326" lon="4.46764">
        <ele>620</ele>
        <time>2016-04-10T09:19:07Z</time>
      </trkpt>
      <trkpt lat="45.72323" lon="4.46771">
        <ele>619</ele>
        <time>2016-04-10T09:19:12Z</time>
      </trkpt>
      <trkpt lat="45.72322" lon="4.46778">
        <ele>620</ele>
        <time>2016-04-10T09:19:17Z</time>
      </trkpt>
      <trkpt lat="45.72323" lon="4.46785">
        <ele>620</ele>
        <time>2016-04-10T09:19:21Z</time>
      </trkpt>
      <trkpt lat="45.72322" lon="4.46792">
        <ele>620</ele>
        <time>2016-04-10T09:19:26Z</time>
      </trkpt>
      <trkpt lat="45.72324" lon="4.468">
        <ele>620</ele>
        <time>2016-04-10T09:19:29Z</time>
      </trkpt>
      <trkpt lat="45.72322" lon="4.46806">
        <ele>620</ele>
        <time>2016-04-10T09:19:33Z</time>
      </trkpt>
      <trkpt lat="45.72323" lon="4.46812">
        <ele>620</ele>
        <time>2016-04-10T09:19:37Z</time>
      </trkpt>
      <trkpt lat="45.72322" lon="4.4682">
        <ele>620</ele>
        <time>2016-04-10T09:19:41Z</time>
      </trkpt>
      <trkpt lat="45.72326" lon="4.46827">
        <ele>620</ele>
        <time>2016-04-10T09:19:44Z</time>
      </trkpt>
      <trkpt lat="45.7233" lon="4.46834">
        <ele>621</ele>
        <time>2016-04-10T09:19:48Z</time>
      </trkpt>
      <trkpt lat="45.72331" lon="4.46841">
        <ele>622</ele>
        <time>2016-04-10T09:19:52Z</time>
      </trkpt>
      <trkpt lat="45.72335" lon="4.46849">
        <ele>624</ele>
        <time>2016-04-10T09:19:55Z</time>
      </trkpt>
      <trkpt lat="45.72335" lon="4.46857">
        <ele>620</ele>
        <time>2016-04-10T09:20:02Z</time>
      </trkpt>
      <trkpt lat="45.72336" lon="4.46865">
        <ele>622</ele>
        <time>2016-04-10T09:20:07Z</time>
      </trkpt>
      <trkpt lat="45.72335" lon="4.46871">
        <ele>624</ele>
        <time>2016-04-10T09:20:11Z</time>
      </trkpt>
      <trkpt lat="45.72333" lon="4.46877">
        <ele>626</ele>
        <time>2016-04-10T09:20:16Z</time>
      </trkpt>
      <trkpt lat="45.72334" lon="4.46885">
        <ele>625</ele>
        <time>2016-04-10T09:20:20Z</time>
      </trkpt>
      <trkpt lat="45.72335" lon="4.46892">
        <ele>624</ele>
        <time>2016-04-10T09:20:24Z</time>
      </trkpt>
      <trkpt lat="45.72337" lon="4.46898">
        <ele>625</ele>
        <time>2016-04-10T09:20:28Z</time>
      </trkpt>
      <trkpt lat="45.72338" lon="4.46906">
        <ele>624</ele>
        <time>2016-04-10T09:20:34Z</time>
      </trkpt>
      <trkpt lat="45.72336" lon="4.46912">
        <ele>623</ele>
        <time>2016-04-10T09:20:37Z</time>
      </trkpt>
      <trkpt lat="45.72337" lon="4.4692">
        <ele>622</ele>
        <time>2016-04-10T09:20:39Z</time>
      </trkpt>
      <trkpt lat="45.72338" lon="4.46927">
        <ele>620</ele>
        <time>2016-04-10T09:20:43Z</time>
      </trkpt>
      <trkpt lat="45.72336" lon="4.46934">
        <ele>620</ele>
        <time>2016-04-10T09:20:47Z</time>
      </trkpt>
      <trkpt lat="45.72332" lon="4.4694">
        <ele>617</ele>
        <time>2016-04-10T09:20:55Z</time>
      </trkpt>
      <trkpt lat="45.72334" lon="4.46947">
        <ele>618</ele>
        <time>2016-04-10T09:21:03Z</time>
      </trkpt>
      <trkpt lat="45.72334" lon="4.46953">
        <ele>617</ele>
        <time>2016-04-10T09:21:08Z</time>
      </trkpt>
      <trkpt lat="45.72331" lon="4.46959">
        <ele>614</ele>
        <time>2016-04-10T09:21:13Z</time>
      </trkpt>
      <trkpt lat="45.72331" lon="4.46973">
        <ele>614</ele>
        <time>2016-04-10T09:21:21Z</time>
      </trkpt>
      <trkpt lat="45.72327" lon="4.46977">
        <ele>615</ele>
        <time>2016-04-10T09:21:24Z</time>
      </trkpt>
      <trkpt lat="45.72324" lon="4.46984">
        <ele>618</ele>
        <time>2016-04-10T09:21:29Z</time>
      </trkpt>
      <trkpt lat="45.72322" lon="4.4699">
        <ele>619</ele>
        <time>2016-04-10T09:21:33Z</time>
      </trkpt>
      <trkpt lat="45.72322" lon="4.46997">
        <ele>617</ele>
        <time>2016-04-10T09:21:37Z</time>
      </trkpt>
      <trkpt lat="45.72321" lon="4.47004">
        <ele>617</ele>
        <time>2016-04-10T09:21:41Z</time>
      </trkpt>
      <trkpt lat="45.72323" lon="4.4701">
        <ele>619</ele>
        <time>2016-04-10T09:21:43Z</time>
      </trkpt>
      <trkpt lat="45.7232" lon="4.47017">
        <ele>618</ele>
        <time>2016-04-10T09:21:48Z</time>
      </trkpt>
      <trkpt lat="45.72317" lon="4.47022">
        <ele>616</ele>
        <time>2016-04-10T09:21:51Z</time>
      </trkpt>
      <trkpt lat="45.72316" lon="4.47029">
        <ele>618</ele>
        <time>2016-04-10T09:21:56Z</time>
      </trkpt>
      <trkpt lat="45.72312" lon="4.47037">
        <ele>615</ele>
        <time>2016-04-10T09:21:59Z</time>
      </trkpt>
      <trkpt lat="45.72309" lon="4.47042">
        <ele>614</ele>
        <time>2016-04-10T09:22:03Z</time>
      </trkpt>
      <trkpt lat="45.72309" lon="4.47049">
        <ele>613</ele>
        <time>2016-04-10T09:22:06Z</time>
      </trkpt>
      <trkpt lat="45.7231" lon="4.47056">
        <ele>612</ele>
        <time>2016-04-10T09:22:09Z</time>
      </trkpt>
      <trkpt lat="45.72308" lon="4.47062">
        <ele>612</ele>
        <time>2016-04-10T09:22:14Z</time>
      </trkpt>
      <trkpt lat="45.72307" lon="4.4707">
        <ele>610</ele>
        <time>2016-04-10T09:22:17Z</time>
      </trkpt>
      <trkpt lat="45.72306" lon="4.47077">
        <ele>610</ele>
        <time>2016-04-10T09:22:21Z</time>
      </trkpt>
      <trkpt lat="45.72306" lon="4.47084">
        <ele>612</ele>
        <time>2016-04-10T09:22:25Z</time>
      </trkpt>
      <trkpt lat="45.72303" lon="4.4709">
        <ele>609</ele>
        <time>2016-04-10T09:22:30Z</time>
      </trkpt>
      <trkpt lat="45.72302" lon="4.47097">
        <ele>608</ele>
        <time>2016-04-10T09:22:33Z</time>
      </trkpt>
      <trkpt lat="45.72299" lon="4.47104">
        <ele>608</ele>
        <time>2016-04-10T09:22:37Z</time>
      </trkpt>
      <trkpt lat="45.72296" lon="4.47108">
        <ele>607</ele>
        <time>2016-04-10T09:22:41Z</time>
      </trkpt>
      <trkpt lat="45.72294" lon="4.47115">
        <ele>605</ele>
        <time>2016-04-10T09:22:45Z</time>
      </trkpt>
      <trkpt lat="45.72294" lon="4.47123">
        <ele>605</ele>
        <time>2016-04-10T09:22:49Z</time>
      </trkpt>
      <trkpt lat="45.72296" lon="4.47132">
        <ele>604</ele>
        <time>2016-04-10T09:22:52Z</time>
      </trkpt>
      <trkpt lat="45.72296" lon="4.47138">
        <ele>604</ele>
        <time>2016-04-10T09:22:56Z</time>
      </trkpt>
      <trkpt lat="45.72297" lon="4.47146">
        <ele>606</ele>
        <time>2016-04-10T09:22:59Z</time>
      </trkpt>
      <trkpt lat="45.72298" lon="4.47153">
        <ele>605</ele>
        <time>2016-04-10T09:23:03Z</time>
      </trkpt>
      <trkpt lat="45.72297" lon="4.4716">
        <ele>603</ele>
        <time>2016-04-10T09:23:08Z</time>
      </trkpt>
      <trkpt lat="45.72297" lon="4.47168">
        <ele>602</ele>
        <time>2016-04-10T09:23:13Z</time>
      </trkpt>
      <trkpt lat="45.72299" lon="4.47175">
        <ele>602</ele>
        <time>2016-04-10T09:23:17Z</time>
      </trkpt>
      <trkpt lat="45.72298" lon="4.47182">
        <ele>602</ele>
        <time>2016-04-10T09:23:25Z</time>
      </trkpt>
      <trkpt lat="45.723" lon="4.47198">
        <ele>595</ele>
        <time>2016-04-10T09:23:27Z</time>
      </trkpt>
      <trkpt lat="45.72301" lon="4.47204">
        <ele>593</ele>
        <time>2016-04-10T09:23:32Z</time>
      </trkpt>
      <trkpt lat="45.72304" lon="4.47209">
        <ele>592</ele>
        <time>2016-04-10T09:23:35Z</time>
      </trkpt>
      <trkpt lat="45.72308" lon="4.47213">
        <ele>591</ele>
        <time>2016-04-10T09:23:39Z</time>
      </trkpt>
      <trkpt lat="45.72314" lon="4.47213">
        <ele>592</ele>
        <time>2016-04-10T09:23:43Z</time>
      </trkpt>
      <trkpt lat="45.72319" lon="4.47213">
        <ele>591</ele>
        <time>2016-04-10T09:23:47Z</time>
      </trkpt>
      <trkpt lat="45.72325" lon="4.47212">
        <ele>590</ele>
        <time>2016-04-10T09:23:51Z</time>
      </trkpt>
      <trkpt lat="45.7233" lon="4.4721">
        <ele>593</ele>
        <time>2016-04-10T09:23:55Z</time>
      </trkpt>
      <trkpt lat="45.72336" lon="4.47211">
        <ele>596</ele>
        <time>2016-04-10T09:24:00Z</time>
      </trkpt>
      <trkpt lat="45.7234" lon="4.47207">
        <ele>595</ele>
        <time>2016-04-10T09:24:04Z</time>
      </trkpt>
      <trkpt lat="45.72345" lon="4.47206">
        <ele>596</ele>
        <time>2016-04-10T09:24:08Z</time>
      </trkpt>
      <trkpt lat="45.7235" lon="4.47204">
        <ele>597</ele>
        <time>2016-04-10T09:24:14Z</time>
      </trkpt>
      <trkpt lat="45.72345" lon="4.47204">
        <ele>589</ele>
        <time>2016-04-10T09:24:33Z</time>
      </trkpt>
      <trkpt lat="45.7234" lon="4.47208">
        <ele>589</ele>
        <time>2016-04-10T09:24:40Z</time>
      </trkpt>
      <trkpt lat="45.7234" lon="4.47215">
        <ele>592</ele>
        <time>2016-04-10T09:24:45Z</time>
      </trkpt>
      <trkpt lat="45.72336" lon="4.47221">
        <ele>590</ele>
        <time>2016-04-10T09:24:49Z</time>
      </trkpt>
      <trkpt lat="45.72333" lon="4.47226">
        <ele>588</ele>
        <time>2016-04-10T09:24:53Z</time>
      </trkpt>
      <trkpt lat="45.7233" lon="4.47231">
        <ele>585</ele>
        <time>2016-04-10T09:24:57Z</time>
      </trkpt>
      <trkpt lat="45.72325" lon="4.47237">
        <ele>580</ele>
        <time>2016-04-10T09:25:01Z</time>
      </trkpt>
      <trkpt lat="45.72322" lon="4.47243">
        <ele>579</ele>
        <time>2016-04-10T09:25:07Z</time>
      </trkpt>
      <trkpt lat="45.72321" lon="4.4725">
        <ele>581</ele>
        <time>2016-04-10T09:25:12Z</time>
      </trkpt>
      <trkpt lat="45.72321" lon="4.47257">
        <ele>581</ele>
        <time>2016-04-10T09:25:15Z</time>
      </trkpt>
      <trkpt lat="45.72322" lon="4.47264">
        <ele>583</ele>
        <time>2016-04-10T09:25:18Z</time>
      </trkpt>
      <trkpt lat="45.72324" lon="4.4727">
        <ele>584</ele>
        <time>2016-04-10T09:25:21Z</time>
      </trkpt>
      <trkpt lat="45.7232" lon="4.47275">
        <ele>583</ele>
        <time>2016-04-10T09:25:26Z</time>
      </trkpt>
      <trkpt lat="45.72321" lon="4.47283">
        <ele>584</ele>
        <time>2016-04-10T09:25:30Z</time>
      </trkpt>
      <trkpt lat="45.72322" lon="4.47291">
        <ele>584</ele>
        <time>2016-04-10T09:25:34Z</time>
      </trkpt>
      <trkpt lat="45.72323" lon="4.47298">
        <ele>582</ele>
        <time>2016-04-10T09:25:38Z</time>
      </trkpt>
      <trkpt lat="45.72321" lon="4.47305">
        <ele>580</ele>
        <time>2016-04-10T09:25:42Z</time>
      </trkpt>
      <trkpt lat="45.72325" lon="4.47309">
        <ele>572</ele>
        <time>2016-04-10T09:25:52Z</time>
      </trkpt>
      <trkpt lat="45.7233" lon="4.47312">
        <ele>574</ele>
        <time>2016-04-10T09:25:55Z</time>
      </trkpt>
      <trkpt lat="45.72337" lon="4.47314">
        <ele>573</ele>
        <time>2016-04-10T09:25:58Z</time>
      </trkpt>
      <trkpt lat="45.72342" lon="4.47317">
        <ele>574</ele>
        <time>2016-04-10T09:26:01Z</time>
      </trkpt>
      <trkpt lat="45.72346" lon="4.4732">
        <ele>573</ele>
        <time>2016-04-10T09:26:04Z</time>
      </trkpt>
      <trkpt lat="45.72351" lon="4.47319">
        <ele>572</ele>
        <time>2016-04-10T09:26:09Z</time>
      </trkpt>
      <trkpt lat="45.72355" lon="4.47321">
        <ele>573</ele>
        <time>2016-04-10T09:26:13Z</time>
      </trkpt>
      <trkpt lat="45.7236" lon="4.47324">
        <ele>574</ele>
        <time>2016-04-10T09:26:18Z</time>
      </trkpt>
      <trkpt lat="45.72351" lon="4.47325">
        <ele>572</ele>
        <time>2016-04-10T09:26:31Z</time>
      </trkpt>
      <trkpt lat="45.7235" lon="4.47331">
        <ele>574</ele>
        <time>2016-04-10T09:26:40Z</time>
      </trkpt>
      <trkpt lat="45.72347" lon="4.47338">
        <ele>576</ele>
        <time>2016-04-10T09:26:46Z</time>
      </trkpt>
      <trkpt lat="45.72343" lon="4.4734">
        <ele>577</ele>
        <time>2016-04-10T09:26:51Z</time>
      </trkpt>
      <trkpt lat="45.7234" lon="4.47345">
        <ele>579</ele>
        <time>2016-04-10T09:26:57Z</time>
      </trkpt>
      <trkpt lat="45.72336" lon="4.47351">
        <ele>581</ele>
        <time>2016-04-10T09:27:06Z</time>
      </trkpt>
      <trkpt lat="45.72331" lon="4.47354">
        <ele>581</ele>
        <time>2016-04-10T09:27:09Z</time>
      </trkpt>
      <trkpt lat="45.72326" lon="4.47357">
        <ele>582</ele>
        <time>2016-04-10T09:27:14Z</time>
      </trkpt>
      <trkpt lat="45.72323" lon="4.47366">
        <ele>580</ele>
        <time>2016-04-10T09:27:17Z</time>
      </trkpt>
      <trkpt lat="45.72317" lon="4.47369">
        <ele>580</ele>
        <time>2016-04-10T09:27:21Z</time>
      </trkpt>
      <trkpt lat="45.72313" lon="4.47369">
        <ele>582</ele>
        <time>2016-04-10T09:27:24Z</time>
      </trkpt>
      <trkpt lat="45.72311" lon="4.47375">
        <ele>584</ele>
        <time>2016-04-10T09:27:30Z</time>
      </trkpt>
      <trkpt lat="45.72306" lon="4.47379">
        <ele>581</ele>
        <time>2016-04-10T09:27:36Z</time>
      </trkpt>
      <trkpt lat="45.72301" lon="4.47379">
        <ele>582</ele>
        <time>2016-04-10T09:27:41Z</time>
      </trkpt>
      <trkpt lat="45.72281" lon="4.47376">
        <ele>577</ele>
        <time>2016-04-10T09:28:19Z</time>
      </trkpt>
      <trkpt lat="45.72271" lon="4.47375">
        <ele>577</ele>
        <time>2016-04-10T09:28:21Z</time>
      </trkpt>
      <trkpt lat="45.72264" lon="4.47378">
        <ele>577</ele>
        <time>2016-04-10T09:28:24Z</time>
      </trkpt>
      <trkpt lat="45.72258" lon="4.47377">
        <ele>573</ele>
        <time>2016-04-10T09:28:27Z</time>
      </trkpt>
      <trkpt lat="45.72253" lon="4.47378">
        <ele>572</ele>
        <time>2016-04-10T09:28:36Z</time>
      </trkpt>
      <trkpt lat="45.72248" lon="4.47377">
        <ele>571</ele>
        <time>2016-04-10T09:28:38Z</time>
      </trkpt>
      <trkpt lat="45.72242" lon="4.47375">
        <ele>571</ele>
        <time>2016-04-10T09:28:41Z</time>
      </trkpt>
      <trkpt lat="45.72238" lon="4.47371">
        <ele>577</ele>
        <time>2016-04-10T09:28:47Z</time>
      </trkpt>
      <trkpt lat="45.72233" lon="4.47365">
        <ele>577</ele>
        <time>2016-04-10T09:28:53Z</time>
      </trkpt>
      <trkpt lat="45.72227" lon="4.4736">
        <ele>578</ele>
        <time>2016-04-10T09:28:57Z</time>
      </trkpt>
      <trkpt lat="45.72225" lon="4.47353">
        <ele>579</ele>
        <time>2016-04-10T09:29:03Z</time>
      </trkpt>
      <trkpt lat="45.72221" lon="4.47347">
        <ele>580</ele>
        <time>2016-04-10T09:29:08Z</time>
      </trkpt>
      <trkpt lat="45.72215" lon="4.47345">
        <ele>576</ele>
        <time>2016-04-10T09:29:12Z</time>
      </trkpt>
      <trkpt lat="45.72211" lon="4.47339">
        <ele>577</ele>
        <time>2016-04-10T09:29:17Z</time>
      </trkpt>
      <trkpt lat="45.72208" lon="4.47335">
        <ele>575</ele>
        <time>2016-04-10T09:29:21Z</time>
      </trkpt>
      <trkpt lat="45.722" lon="4.47333">
        <ele>574</ele>
        <time>2016-04-10T09:29:26Z</time>
      </trkpt>
      <trkpt lat="45.72195" lon="4.47327">
        <ele>577</ele>
        <time>2016-04-10T09:29:32Z</time>
      </trkpt>
      <trkpt lat="45.72188" lon="4.47326">
        <ele>575</ele>
        <time>2016-04-10T09:29:36Z</time>
      </trkpt>
      <trkpt lat="45.72183" lon="4.47323">
        <ele>572</ele>
        <time>2016-04-10T09:29:39Z</time>
      </trkpt>
      <trkpt lat="45.72178" lon="4.4732">
        <ele>570</ele>
        <time>2016-04-10T09:29:44Z</time>
      </trkpt>
      <trkpt lat="45.72171" lon="4.47319">
        <ele>570</ele>
        <time>2016-04-10T09:29:51Z</time>
      </trkpt>
      <trkpt lat="45.72167" lon="4.47317">
        <ele>570</ele>
        <time>2016-04-10T09:29:55Z</time>
      </trkpt>
      <trkpt lat="45.72162" lon="4.47314">
        <ele>570</ele>
        <time>2016-04-10T09:29:58Z</time>
      </trkpt>
      <trkpt lat="45.72156" lon="4.47313">
        <ele>569</ele>
        <time>2016-04-10T09:30:01Z</time>
      </trkpt>
      <trkpt lat="45.72151" lon="4.47314">
        <ele>569</ele>
        <time>2016-04-10T09:30:04Z</time>
      </trkpt>
      <trkpt lat="45.72146" lon="4.47314">
        <ele>570</ele>
        <time>2016-04-10T09:30:08Z</time>
      </trkpt>
      <trkpt lat="45.7214" lon="4.47319">
        <ele>568</ele>
        <time>2016-04-10T09:30:13Z</time>
      </trkpt>
      <trkpt lat="45.72136" lon="4.47324">
        <ele>567</ele>
        <time>2016-04-10T09:30:16Z</time>
      </trkpt>
      <trkpt lat="45.72133" lon="4.47331">
        <ele>563</ele>
        <time>2016-04-10T09:30:19Z</time>
      </trkpt>
      <trkpt lat="45.7213" lon="4.47337">
        <ele>563</ele>
        <time>2016-04-10T09:30:22Z</time>
      </trkpt>
      <trkpt lat="45.72126" lon="4.47336">
        <ele>563</ele>
        <time>2016-04-10T09:30:26Z</time>
      </trkpt>
      <trkpt lat="45.72121" lon="4.4734">
        <ele>564</ele>
        <time>2016-04-10T09:30:32Z</time>
      </trkpt>
      <trkpt lat="45.72116" lon="4.47336">
        <ele>566</ele>
        <time>2016-04-10T09:30:35Z</time>
      </trkpt>
      <trkpt lat="45.72111" lon="4.47342">
        <ele>564</ele>
        <time>2016-04-10T09:30:39Z</time>
      </trkpt>
      <trkpt lat="45.72106" lon="4.47344">
        <ele>562</ele>
        <time>2016-04-10T09:30:42Z</time>
      </trkpt>
      <trkpt lat="45.72101" lon="4.47348">
        <ele>561</ele>
        <time>2016-04-10T09:30:46Z</time>
      </trkpt>
      <trkpt lat="45.72099" lon="4.47354">
        <ele>560</ele>
        <time>2016-04-10T09:30:49Z</time>
      </trkpt>
      <trkpt lat="45.72092" lon="4.47355">
        <ele>564</ele>
        <time>2016-04-10T09:30:55Z</time>
      </trkpt>
      <trkpt lat="45.72092" lon="4.47363">
        <ele>564</ele>
        <time>2016-04-10T09:30:59Z</time>
      </trkpt>
      <trkpt lat="45.7209" lon="4.47372">
        <ele>559</ele>
        <time>2016-04-10T09:31:01Z</time>
      </trkpt>
      <trkpt lat="45.72089" lon="4.47378">
        <ele>553</ele>
        <time>2016-04-10T09:31:07Z</time>
      </trkpt>
      <trkpt lat="45.72086" lon="4.47383">
        <ele>551</ele>
        <time>2016-04-10T09:31:12Z</time>
      </trkpt>
      <trkpt lat="45.72081" lon="4.47386">
        <ele>555</ele>
        <time>2016-04-10T09:31:18Z</time>
      </trkpt>
      <trkpt lat="45.72078" lon="4.47393">
        <ele>558</ele>
        <time>2016-04-10T09:31:22Z</time>
      </trkpt>
      <trkpt lat="45.72074" lon="4.47396">
        <ele>561</ele>
        <time>2016-04-10T09:31:27Z</time>
      </trkpt>
      <trkpt lat="45.72071" lon="4.47402">
        <ele>563</ele>
        <time>2016-04-10T09:31:32Z</time>
      </trkpt>
      <trkpt lat="45.72067" lon="4.47406">
        <ele>559</ele>
        <time>2016-04-10T09:31:35Z</time>
      </trkpt>
      <trkpt lat="45.72063" lon="4.47409">
        <ele>560</ele>
        <time>2016-04-10T09:31:39Z</time>
      </trkpt>
      <trkpt lat="45.72057" lon="4.47413">
        <ele>556</ele>
        <time>2016-04-10T09:31:43Z</time>
      </trkpt>
      <trkpt lat="45.72054" lon="4.4742">
        <ele>552</ele>
        <time>2016-04-10T09:31:46Z</time>
      </trkpt>
      <trkpt lat="45.72053" lon="4.47427">
        <ele>552</ele>
        <time>2016-04-10T09:31:49Z</time>
      </trkpt>
      <trkpt lat="45.72049" lon="4.47433">
        <ele>551</ele>
        <time>2016-04-10T09:31:53Z</time>
      </trkpt>
      <trkpt lat="45.72045" lon="4.47436">
        <ele>546</ele>
        <time>2016-04-10T09:31:57Z</time>
      </trkpt>
      <trkpt lat="45.72043" lon="4.47444">
        <ele>544</ele>
        <time>2016-04-10T09:32:00Z</time>
      </trkpt>
      <trkpt lat="45.72038" lon="4.47447">
        <ele>544</ele>
        <time>2016-04-10T09:32:05Z</time>
      </trkpt>
      <trkpt lat="45.72034" lon="4.47451">
        <ele>541</ele>
        <time>2016-04-10T09:32:09Z</time>
      </trkpt>
      <trkpt lat="45.72034" lon="4.47457">
        <ele>540</ele>
        <time>2016-04-10T09:32:11Z</time>
      </trkpt>
      <trkpt lat="45.72034" lon="4.47467">
        <ele>540</ele>
        <time>2016-04-10T09:32:14Z</time>
      </trkpt>
      <trkpt lat="45.7203" lon="4.47473">
        <ele>540</ele>
        <time>2016-04-10T09:32:18Z</time>
      </trkpt>
      <trkpt lat="45.7203" lon="4.47482">
        <ele>540</ele>
        <time>2016-04-10T09:32:22Z</time>
      </trkpt>
      <trkpt lat="45.72026" lon="4.47486">
        <ele>536</ele>
        <time>2016-04-10T09:32:25Z</time>
      </trkpt>
      <trkpt lat="45.72023" lon="4.47492">
        <ele>535</ele>
        <time>2016-04-10T09:32:28Z</time>
      </trkpt>
      <trkpt lat="45.72019" lon="4.47494">
        <ele>536</ele>
        <time>2016-04-10T09:32:32Z</time>
      </trkpt>
      <trkpt lat="45.72014" lon="4.47498">
        <ele>536</ele>
        <time>2016-04-10T09:32:37Z</time>
      </trkpt>
      <trkpt lat="45.72008" lon="4.47499">
        <ele>535</ele>
        <time>2016-04-10T09:32:41Z</time>
      </trkpt>
      <trkpt lat="45.72005" lon="4.47504">
        <ele>535</ele>
        <time>2016-04-10T09:32:45Z</time>
      </trkpt>
      <trkpt lat="45.71999" lon="4.47507">
        <ele>531</ele>
        <time>2016-04-10T09:32:49Z</time>
      </trkpt>
      <trkpt lat="45.71995" lon="4.47513">
        <ele>532</ele>
        <time>2016-04-10T09:32:54Z</time>
      </trkpt>
      <trkpt lat="45.71994" lon="4.4752">
        <ele>533</ele>
        <time>2016-04-10T09:32:57Z</time>
      </trkpt>
      <trkpt lat="45.71992" lon="4.47526">
        <ele>534</ele>
        <time>2016-04-10T09:33:01Z</time>
      </trkpt>
      <trkpt lat="45.7199" lon="4.47536">
        <ele>535</ele>
        <time>2016-04-10T09:33:07Z</time>
      </trkpt>
      <trkpt lat="45.71988" lon="4.47543">
        <ele>534</ele>
        <time>2016-04-10T09:33:10Z</time>
      </trkpt>
      <trkpt lat="45.71985" lon="4.47549">
        <ele>533</ele>
        <time>2016-04-10T09:33:14Z</time>
      </trkpt>
      <trkpt lat="45.71983" lon="4.47555">
        <ele>534</ele>
        <time>2016-04-10T09:33:18Z</time>
      </trkpt>
      <trkpt lat="45.71982" lon="4.47562">
        <ele>534</ele>
        <time>2016-04-10T09:33:21Z</time>
      </trkpt>
      <trkpt lat="45.71979" lon="4.47569">
        <ele>530</ele>
        <time>2016-04-10T09:33:24Z</time>
      </trkpt>
      <trkpt lat="45.71976" lon="4.47574">
        <ele>528</ele>
        <time>2016-04-10T09:33:28Z</time>
      </trkpt>
      <trkpt lat="45.71972" lon="4.47579">
        <ele>526</ele>
        <time>2016-04-10T09:33:32Z</time>
      </trkpt>
      <trkpt lat="45.71969" lon="4.47584">
        <ele>526</ele>
        <time>2016-04-10T09:33:36Z</time>
      </trkpt>
      <trkpt lat="45.71967" lon="4.47591">
        <ele>525</ele>
        <time>2016-04-10T09:33:40Z</time>
      </trkpt>
      <trkpt lat="45.71964" lon="4.47596">
        <ele>526</ele>
        <time>2016-04-10T09:33:45Z</time>
      </trkpt>
      <trkpt lat="45.71961" lon="4.47603">
        <ele>526</ele>
        <time>2016-04-10T09:33:50Z</time>
      </trkpt>
      <trkpt lat="45.71957" lon="4.47608">
        <ele>527</ele>
        <time>2016-04-10T09:33:54Z</time>
      </trkpt>
      <trkpt lat="45.71953" lon="4.47614">
        <ele>526</ele>
        <time>2016-04-10T09:33:59Z</time>
      </trkpt>
      <trkpt lat="45.7195" lon="4.4762">
        <ele>527</ele>
        <time>2016-04-10T09:34:04Z</time>
      </trkpt>
      <trkpt lat="45.71946" lon="4.47624">
        <ele>528</ele>
        <time>2016-04-10T09:34:09Z</time>
      </trkpt>
      <trkpt lat="45.71942" lon="4.47628">
        <ele>526</ele>
        <time>2016-04-10T09:34:12Z</time>
      </trkpt>
      <trkpt lat="45.7194" lon="4.47635">
        <ele>523</ele>
        <time>2016-04-10T09:34:14Z</time>
      </trkpt>
      <trkpt lat="45.71938" lon="4.47641">
        <ele>521</ele>
        <time>2016-04-10T09:34:16Z</time>
      </trkpt>
      <trkpt lat="45.71934" lon="4.47644">
        <ele>522</ele>
        <time>2016-04-10T09:34:20Z</time>
      </trkpt>
      <trkpt lat="45.71931" lon="4.47649">
        <ele>522</ele>
        <time>2016-04-10T09:34:24Z</time>
      </trkpt>
      <trkpt lat="45.71926" lon="4.47655">
        <ele>523</ele>
        <time>2016-04-10T09:34:28Z</time>
      </trkpt>
      <trkpt lat="45.71923" lon="4.47661">
        <ele>521</ele>
        <time>2016-04-10T09:34:31Z</time>
      </trkpt>
      <trkpt lat="45.7192" lon="4.47666">
        <ele>521</ele>
        <time>2016-04-10T09:34:36Z</time>
      </trkpt>
      <trkpt lat="45.71919" lon="4.47673">
        <ele>519</ele>
        <time>2016-04-10T09:34:39Z</time>
      </trkpt>
      <trkpt lat="45.71915" lon="4.47675">
        <ele>520</ele>
        <time>2016-04-10T09:34:43Z</time>
      </trkpt>
      <trkpt lat="45.71912" lon="4.47681">
        <ele>520</ele>
        <time>2016-04-10T09:34:48Z</time>
      </trkpt>
      <trkpt lat="45.71907" lon="4.47681">
        <ele>520</ele>
        <time>2016-04-10T09:34:53Z</time>
      </trkpt>
      <trkpt lat="45.71902" lon="4.47683">
        <ele>521</ele>
        <time>2016-04-10T09:34:58Z</time>
      </trkpt>
      <trkpt lat="45.71899" lon="4.47688">
        <ele>520</ele>
        <time>2016-04-10T09:35:03Z</time>
      </trkpt>
      <trkpt lat="45.71894" lon="4.4769">
        <ele>521</ele>
        <time>2016-04-10T09:35:08Z</time>
      </trkpt>
      <trkpt lat="45.71889" lon="4.4769">
        <ele>521</ele>
        <time>2016-04-10T09:35:12Z</time>
      </trkpt>
      <trkpt lat="45.71885" lon="4.47698">
        <ele>517</ele>
        <time>2016-04-10T09:35:16Z</time>
      </trkpt>
      <trkpt lat="45.71884" lon="4.47706">
        <ele>513</ele>
        <time>2016-04-10T09:35:18Z</time>
      </trkpt>
      <trkpt lat="45.71879" lon="4.47711">
        <ele>512</ele>
        <time>2016-04-10T09:35:24Z</time>
      </trkpt>
      <trkpt lat="45.71878" lon="4.47718">
        <ele>508</ele>
        <time>2016-04-10T09:35:26Z</time>
      </trkpt>
      <trkpt lat="45.71874" lon="4.47721">
        <ele>507</ele>
        <time>2016-04-10T09:35:29Z</time>
      </trkpt>
      <trkpt lat="45.71869" lon="4.47719">
        <ele>508</ele>
        <time>2016-04-10T09:35:34Z</time>
      </trkpt>
      <trkpt lat="45.71864" lon="4.47723">
        <ele>511</ele>
        <time>2016-04-10T09:35:41Z</time>
      </trkpt>
      <trkpt lat="45.7186" lon="4.47726">
        <ele>512</ele>
        <time>2016-04-10T09:35:45Z</time>
      </trkpt>
      <trkpt lat="45.71858" lon="4.47732">
        <ele>513</ele>
        <time>2016-04-10T09:35:49Z</time>
      </trkpt>
      <trkpt lat="45.71858" lon="4.47739">
        <ele>515</ele>
        <time>2016-04-10T09:35:51Z</time>
      </trkpt>
      <trkpt lat="45.71859" lon="4.47746">
        <ele>516</ele>
        <time>2016-04-10T09:35:54Z</time>
      </trkpt>
      <trkpt lat="45.71858" lon="4.47754">
        <ele>514</ele>
        <time>2016-04-10T09:35:58Z</time>
      </trkpt>
      <trkpt lat="45.71855" lon="4.47761">
        <ele>515</ele>
        <time>2016-04-10T09:36:02Z</time>
      </trkpt>
      <trkpt lat="45.71854" lon="4.47767">
        <ele>516</ele>
        <time>2016-04-10T09:36:07Z</time>
      </trkpt>
      <trkpt lat="45.71852" lon="4.47774">
        <ele>516</ele>
        <time>2016-04-10T09:36:11Z</time>
      </trkpt>
      <trkpt lat="45.71849" lon="4.4778">
        <ele>515</ele>
        <time>2016-04-10T09:36:15Z</time>
      </trkpt>
      <trkpt lat="45.71848" lon="4.47786">
        <ele>516</ele>
        <time>2016-04-10T09:36:20Z</time>
      </trkpt>
      <trkpt lat="45.71846" lon="4.47793">
        <ele>519</ele>
        <time>2016-04-10T09:36:26Z</time>
      </trkpt>
      <trkpt lat="45.71845" lon="4.47804">
        <ele>518</ele>
        <time>2016-04-10T09:36:31Z</time>
      </trkpt>
      <trkpt lat="45.71844" lon="4.47811">
        <ele>517</ele>
        <time>2016-04-10T09:36:34Z</time>
      </trkpt>
      <trkpt lat="45.71843" lon="4.47817">
        <ele>516</ele>
        <time>2016-04-10T09:36:38Z</time>
      </trkpt>
      <trkpt lat="45.71841" lon="4.47825">
        <ele>516</ele>
        <time>2016-04-10T09:36:42Z</time>
      </trkpt>
      <trkpt lat="45.71839" lon="4.47833">
        <ele>515</ele>
        <time>2016-04-10T09:36:47Z</time>
      </trkpt>
      <trkpt lat="45.71837" lon="4.47839">
        <ele>516</ele>
        <time>2016-04-10T09:36:51Z</time>
      </trkpt>
      <trkpt lat="45.71834" lon="4.47845">
        <ele>517</ele>
        <time>2016-04-10T09:36:56Z</time>
      </trkpt>
      <trkpt lat="45.71833" lon="4.47851">
        <ele>516</ele>
        <time>2016-04-10T09:36:59Z</time>
      </trkpt>
      <trkpt lat="45.7183" lon="4.47857">
        <ele>515</ele>
        <time>2016-04-10T09:37:04Z</time>
      </trkpt>
      <trkpt lat="45.71827" lon="4.47864">
        <ele>515</ele>
        <time>2016-04-10T09:37:09Z</time>
      </trkpt>
      <trkpt lat="45.71823" lon="4.47868">
        <ele>516</ele>
        <time>2016-04-10T09:37:14Z</time>
      </trkpt>
      <trkpt lat="45.7182" lon="4.47874">
        <ele>516</ele>
        <time>2016-04-10T09:37:19Z</time>
      </trkpt>
      <trkpt lat="45.71817" lon="4.47879">
        <ele>516</ele>
        <time>2016-04-10T09:37:24Z</time>
      </trkpt>
      <trkpt lat="45.71817" lon="4.47895">
        <ele>510</ele>
        <time>2016-04-10T09:37:27Z</time>
      </trkpt>
      <trkpt lat="45.71812" lon="4.47899">
        <ele>510</ele>
        <time>2016-04-10T09:37:31Z</time>
      </trkpt>
      <trkpt lat="45.71809" lon="4.47902">
        <ele>510</ele>
        <time>2016-04-10T09:37:35Z</time>
      </trkpt>
      <trkpt lat="45.71805" lon="4.47907">
        <ele>510</ele>
        <time>2016-04-10T09:37:39Z</time>
      </trkpt>
      <trkpt lat="45.71802" lon="4.47912">
        <ele>509</ele>
        <time>2016-04-10T09:37:43Z</time>
      </trkpt>
      <trkpt lat="45.71797" lon="4.47916">
        <ele>509</ele>
        <time>2016-04-10T09:37:48Z</time>
      </trkpt>
      <trkpt lat="45.71793" lon="4.4792">
        <ele>510</ele>
        <time>2016-04-10T09:37:52Z</time>
      </trkpt>
      <trkpt lat="45.7179" lon="4.47924">
        <ele>510</ele>
        <time>2016-04-10T09:37:56Z</time>
      </trkpt>
      <trkpt lat="45.71786" lon="4.47928">
        <ele>510</ele>
        <time>2016-04-10T09:38:00Z</time>
      </trkpt>
      <trkpt lat="45.71781" lon="4.47932">
        <ele>510</ele>
        <time>2016-04-10T09:38:04Z</time>
      </trkpt>
      <trkpt lat="45.71777" lon="4.47935">
        <ele>512</ele>
        <time>2016-04-10T09:38:08Z</time>
      </trkpt>
      <trkpt lat="45.71777" lon="4.47943">
        <ele>508</ele>
        <time>2016-04-10T09:38:10Z</time>
      </trkpt>
      <trkpt lat="45.71773" lon="4.47948">
        <ele>506</ele>
        <time>2016-04-10T09:38:13Z</time>
      </trkpt>
      <trkpt lat="45.71769" lon="4.47953">
        <ele>505</ele>
        <time>2016-04-10T09:38:17Z</time>
      </trkpt>
      <trkpt lat="45.71764" lon="4.47955">
        <ele>501</ele>
        <time>2016-04-10T09:38:20Z</time>
      </trkpt>
      <trkpt lat="45.71759" lon="4.47957">
        <ele>503</ele>
        <time>2016-04-10T09:38:25Z</time>
      </trkpt>
      <trkpt lat="45.71755" lon="4.47961">
        <ele>502</ele>
        <time>2016-04-10T09:38:28Z</time>
      </trkpt>
      <trkpt lat="45.71752" lon="4.47965">
        <ele>502</ele>
        <time>2016-04-10T09:38:32Z</time>
      </trkpt>
      <trkpt lat="45.71748" lon="4.47969">
        <ele>503</ele>
        <time>2016-04-10T09:38:36Z</time>
      </trkpt>
      <trkpt lat="45.71743" lon="4.47973">
        <ele>504</ele>
        <time>2016-04-10T09:38:41Z</time>
      </trkpt>
      <trkpt lat="45.71738" lon="4.47977">
        <ele>507</ele>
        <time>2016-04-10T09:38:46Z</time>
      </trkpt>
      <trkpt lat="45.71735" lon="4.47982">
        <ele>507</ele>
        <time>2016-04-10T09:38:50Z</time>
      </trkpt>
      <trkpt lat="45.71731" lon="4.47987">
        <ele>505</ele>
        <time>2016-04-10T09:38:53Z</time>
      </trkpt>
      <trkpt lat="45.71728" lon="4.47993">
        <ele>504</ele>
        <time>2016-04-10T09:38:57Z</time>
      </trkpt>
      <trkpt lat="45.71725" lon="4.48001">
        <ele>502</ele>
        <time>2016-04-10T09:39:02Z</time>
      </trkpt>
      <trkpt lat="45.7172" lon="4.48004">
        <ele>501</ele>
        <time>2016-04-10T09:39:06Z</time>
      </trkpt>
      <trkpt lat="45.71717" lon="4.48011">
        <ele>499</ele>
        <time>2016-04-10T09:39:09Z</time>
      </trkpt>
      <trkpt lat="45.71713" lon="4.48016">
        <ele>499</ele>
        <time>2016-04-10T09:39:13Z</time>
      </trkpt>
      <trkpt lat="45.71709" lon="4.4802">
        <ele>499</ele>
        <time>2016-04-10T09:39:17Z</time>
      </trkpt>
      <trkpt lat="45.71706" lon="4.48025">
        <ele>500</ele>
        <time>2016-04-10T09:39:21Z</time>
      </trkpt>
      <trkpt lat="45.71702" lon="4.4803">
        <ele>501</ele>
        <time>2016-04-10T09:39:26Z</time>
      </trkpt>
      <trkpt lat="45.71699" lon="4.48036">
        <ele>501</ele>
        <time>2016-04-10T09:39:30Z</time>
      </trkpt>
      <trkpt lat="45.71697" lon="4.48043">
        <ele>502</ele>
        <time>2016-04-10T09:39:34Z</time>
      </trkpt>
      <trkpt lat="45.71693" lon="4.48048">
        <ele>500</ele>
        <time>2016-04-10T09:39:37Z</time>
      </trkpt>
      <trkpt lat="45.71689" lon="4.48054">
        <ele>500</ele>
        <time>2016-04-10T09:39:41Z</time>
      </trkpt>
      <trkpt lat="45.71684" lon="4.48056">
        <ele>502</ele>
        <time>2016-04-10T09:39:46Z</time>
      </trkpt>
      <trkpt lat="45.71681" lon="4.48061">
        <ele>502</ele>
        <time>2016-04-10T09:39:50Z</time>
      </trkpt>
      <trkpt lat="45.71677" lon="4.48066">
        <ele>503</ele>
        <time>2016-04-10T09:39:55Z</time>
      </trkpt>
      <trkpt lat="45.71675" lon="4.48073">
        <ele>501</ele>
        <time>2016-04-10T09:39:58Z</time>
      </trkpt>
      <trkpt lat="45.71672" lon="4.48078">
        <ele>500</ele>
        <time>2016-04-10T09:40:01Z</time>
      </trkpt>
      <trkpt lat="45.71668" lon="4.48084">
        <ele>499</ele>
        <time>2016-04-10T09:40:05Z</time>
      </trkpt>
      <trkpt lat="45.71664" lon="4.48089">
        <ele>500</ele>
        <time>2016-04-10T09:40:10Z</time>
      </trkpt>
      <trkpt lat="45.71661" lon="4.48093">
        <ele>499</ele>
        <time>2016-04-10T09:40:14Z</time>
      </trkpt>
      <trkpt lat="45.71657" lon="4.481">
        <ele>497</ele>
        <time>2016-04-10T09:40:18Z</time>
      </trkpt>
      <trkpt lat="45.71654" lon="4.48106">
        <ele>496</ele>
        <time>2016-04-10T09:40:22Z</time>
      </trkpt>
      <trkpt lat="45.7165" lon="4.48111">
        <ele>496</ele>
        <time>2016-04-10T09:40:26Z</time>
      </trkpt>
      <trkpt lat="45.71649" lon="4.48121">
        <ele>490</ele>
        <time>2016-04-10T09:40:28Z</time>
      </trkpt>
      <trkpt lat="45.71645" lon="4.48126">
        <ele>490</ele>
        <time>2016-04-10T09:40:33Z</time>
      </trkpt>
      <trkpt lat="45.71644" lon="4.48133">
        <ele>490</ele>
        <time>2016-04-10T09:40:37Z</time>
      </trkpt>
      <trkpt lat="45.71643" lon="4.4814">
        <ele>490</ele>
        <time>2016-04-10T09:40:41Z</time>
      </trkpt>
      <trkpt lat="45.71642" lon="4.48147">
        <ele>491</ele>
        <time>2016-04-10T09:40:46Z</time>
      </trkpt>
      <trkpt lat="45.71641" lon="4.48154">
        <ele>494</ele>
        <time>2016-04-10T09:40:53Z</time>
      </trkpt>
      <trkpt lat="45.71641" lon="4.48162">
        <ele>495</ele>
        <time>2016-04-10T09:40:58Z</time>
      </trkpt>
      <trkpt lat="45.7164" lon="4.48168">
        <ele>494</ele>
        <time>2016-04-10T09:41:02Z</time>
      </trkpt>
      <trkpt lat="45.71639" lon="4.48175">
        <ele>495</ele>
        <time>2016-04-10T09:41:07Z</time>
      </trkpt>
      <trkpt lat="45.7164" lon="4.48181">
        <ele>492</ele>
        <time>2016-04-10T09:41:15Z</time>
      </trkpt>
      <trkpt lat="45.71639" lon="4.48189">
        <ele>492</ele>
        <time>2016-04-10T09:41:29Z</time>
      </trkpt>
      <trkpt lat="45.71637" lon="4.48195">
        <ele>493</ele>
        <time>2016-04-10T09:41:33Z</time>
      </trkpt>
      <trkpt lat="45.71635" lon="4.48202">
        <ele>493</ele>
        <time>2016-04-10T09:41:38Z</time>
      </trkpt>
      <trkpt lat="45.71633" lon="4.4821">
        <ele>492</ele>
        <time>2016-04-10T09:41:43Z</time>
      </trkpt>
      <trkpt lat="45.71632" lon="4.48216">
        <ele>491</ele>
        <time>2016-04-10T09:41:46Z</time>
      </trkpt>
      <trkpt lat="45.7163" lon="4.48223">
        <ele>491</ele>
        <time>2016-04-10T09:41:51Z</time>
      </trkpt>
      <trkpt lat="45.71631" lon="4.48231">
        <ele>489</ele>
        <time>2016-04-10T09:41:53Z</time>
      </trkpt>
      <trkpt lat="45.71627" lon="4.4823">
        <ele>491</ele>
        <time>2016-04-10T09:42:12Z</time>
      </trkpt>
      <trkpt lat="45.71625" lon="4.48237">
        <ele>491</ele>
        <time>2016-04-10T09:42:16Z</time>
      </trkpt>
      <trkpt lat="45.71623" lon="4.48244">
        <ele>489</ele>
        <time>2016-04-10T09:42:20Z</time>
      </trkpt>
      <trkpt lat="45.7162" lon="4.48249">
        <ele>492</ele>
        <time>2016-04-10T09:42:26Z</time>
      </trkpt>
      <trkpt lat="45.71617" lon="4.48255">
        <ele>494</ele>
        <time>2016-04-10T09:42:32Z</time>
      </trkpt>
      <trkpt lat="45.71614" lon="4.48262">
        <ele>494</ele>
        <time>2016-04-10T09:42:37Z</time>
      </trkpt>
      <trkpt lat="45.71613" lon="4.48271">
        <ele>492</ele>
        <time>2016-04-10T09:42:48Z</time>
      </trkpt>
      <trkpt lat="45.71615" lon="4.48277">
        <ele>492</ele>
        <time>2016-04-10T09:43:34Z</time>
      </trkpt>
      <trkpt lat="45.71619" lon="4.48278">
        <ele>489</ele>
        <time>2016-04-10T09:44:13Z</time>
      </trkpt>
      <trkpt lat="45.71616" lon="4.48274">
        <ele>490</ele>
        <time>2016-04-10T09:44:55Z</time>
      </trkpt>
      <trkpt lat="45.71613" lon="4.48278">
        <ele>488</ele>
        <time>2016-04-10T09:46:19Z</time>
      </trkpt>
      <trkpt lat="45.71617" lon="4.48281">
        <ele>491</ele>
        <time>2016-04-10T09:46:25Z</time>
      </trkpt>
      <trkpt lat="45.71618" lon="4.48288">
        <ele>521</ele>
        <time>2016-04-10T09:48:18Z</time>
      </trkpt>
      <trkpt lat="45.71615" lon="4.48283">
        <ele>490</ele>
        <time>2016-04-10T09:48:21Z</time>
      </trkpt>
      <trkpt lat="45.71619" lon="4.4828">
        <ele>487</ele>
        <time>2016-04-10T09:51:09Z</time>
      </trkpt>
      <trkpt lat="45.71624" lon="4.48279">
        <ele>492</ele>
        <time>2016-04-10T09:53:02Z</time>
      </trkpt>
      <trkpt lat="45.71628" lon="4.48277">
        <ele>491</ele>
        <time>2016-04-10T09:53:07Z</time>
      </trkpt>
      <trkpt lat="45.71632" lon="4.48282">
        <ele>494</ele>
        <time>2016-04-10T09:53:12Z</time>
      </trkpt>
      <trkpt lat="45.71636" lon="4.48285">
        <ele>495</ele>
        <time>2016-04-10T09:53:19Z</time>
      </trkpt>
      <trkpt lat="45.71642" lon="4.48285">
        <ele>497</ele>
        <time>2016-04-10T09:53:23Z</time>
      </trkpt>
      <trkpt lat="45.71647" lon="4.48288">
        <ele>499</ele>
        <time>2016-04-10T09:53:30Z</time>
      </trkpt>
      <trkpt lat="45.71653" lon="4.48287">
        <ele>498</ele>
        <time>2016-04-10T09:53:35Z</time>
      </trkpt>
      <trkpt lat="45.71658" lon="4.48288">
        <ele>500</ele>
        <time>2016-04-10T09:53:39Z</time>
      </trkpt>
      <trkpt lat="45.71662" lon="4.4829">
        <ele>501</ele>
        <time>2016-04-10T09:53:44Z</time>
      </trkpt>
      <trkpt lat="45.71667" lon="4.48289">
        <ele>502</ele>
        <time>2016-04-10T09:53:48Z</time>
      </trkpt>
      <trkpt lat="45.71671" lon="4.48288">
        <ele>504</ele>
        <time>2016-04-10T09:53:54Z</time>
      </trkpt>
      <trkpt lat="45.71677" lon="4.48289">
        <ele>507</ele>
        <time>2016-04-10T09:54:01Z</time>
      </trkpt>
      <trkpt lat="45.71681" lon="4.48291">
        <ele>510</ele>
        <time>2016-04-10T09:54:05Z</time>
      </trkpt>
      <trkpt lat="45.71687" lon="4.48291">
        <ele>505</ele>
        <time>2016-04-10T09:54:12Z</time>
      </trkpt>
      <trkpt lat="45.71692" lon="4.48291">
        <ele>508</ele>
        <time>2016-04-10T09:54:18Z</time>
      </trkpt>
      <trkpt lat="45.71696" lon="4.48291">
        <ele>507</ele>
        <time>2016-04-10T09:54:22Z</time>
      </trkpt>
      <trkpt lat="45.71701" lon="4.48295">
        <ele>513</ele>
        <time>2016-04-10T09:54:28Z</time>
      </trkpt>
      <trkpt lat="45.71706" lon="4.48296">
        <ele>514</ele>
        <time>2016-04-10T09:54:32Z</time>
      </trkpt>
      <trkpt lat="45.7171" lon="4.48297">
        <ele>512</ele>
        <time>2016-04-10T09:54:39Z</time>
      </trkpt>
      <trkpt lat="45.71715" lon="4.48299">
        <ele>508</ele>
        <time>2016-04-10T09:54:44Z</time>
      </trkpt>
      <trkpt lat="45.7172" lon="4.483">
        <ele>509</ele>
        <time>2016-04-10T09:54:49Z</time>
      </trkpt>
      <trkpt lat="45.71724" lon="4.48302">
        <ele>511</ele>
        <time>2016-04-10T09:54:55Z</time>
      </trkpt>
      <trkpt lat="45.71729" lon="4.48304">
        <ele>512</ele>
        <time>2016-04-10T09:55:01Z</time>
      </trkpt>
      <trkpt lat="45.71732" lon="4.48309">
        <ele>514</ele>
        <time>2016-04-10T09:55:07Z</time>
      </trkpt>
      <trkpt lat="45.71738" lon="4.48309">
        <ele>516</ele>
        <time>2016-04-10T09:55:12Z</time>
      </trkpt>
      <trkpt lat="45.71743" lon="4.48312">
        <ele>518</ele>
        <time>2016-04-10T09:55:18Z</time>
      </trkpt>
      <trkpt lat="45.71747" lon="4.48314">
        <ele>520</ele>
        <time>2016-04-10T09:55:23Z</time>
      </trkpt>
      <trkpt lat="45.71752" lon="4.48316">
        <ele>520</ele>
        <time>2016-04-10T09:55:28Z</time>
      </trkpt>
      <trkpt lat="45.71757" lon="4.48317">
        <ele>522</ele>
        <time>2016-04-10T09:55:35Z</time>
      </trkpt>
      <trkpt lat="45.71762" lon="4.48319">
        <ele>522</ele>
        <time>2016-04-10T09:55:41Z</time>
      </trkpt>
      <trkpt lat="45.71767" lon="4.48318">
        <ele>524</ele>
        <time>2016-04-10T09:55:49Z</time>
      </trkpt>
      <trkpt lat="45.71772" lon="4.48318">
        <ele>524</ele>
        <time>2016-04-10T09:55:55Z</time>
      </trkpt>
      <trkpt lat="45.71776" lon="4.48315">
        <ele>523</ele>
        <time>2016-04-10T09:56:00Z</time>
      </trkpt>
      <trkpt lat="45.71781" lon="4.48313">
        <ele>524</ele>
        <time>2016-04-10T09:56:04Z</time>
      </trkpt>
      <trkpt lat="45.71786" lon="4.48312">
        <ele>523</ele>
        <time>2016-04-10T09:56:10Z</time>
      </trkpt>
      <trkpt lat="45.7179" lon="4.48313">
        <ele>524</ele>
        <time>2016-04-10T09:56:16Z</time>
      </trkpt>
      <trkpt lat="45.71795" lon="4.48306">
        <ele>525</ele>
        <time>2016-04-10T09:56:21Z</time>
      </trkpt>
      <trkpt lat="45.71799" lon="4.48308">
        <ele>527</ele>
        <time>2016-04-10T09:56:28Z</time>
      </trkpt>
      <trkpt lat="45.71804" lon="4.48305">
        <ele>527</ele>
        <time>2016-04-10T09:56:35Z</time>
      </trkpt>
      <trkpt lat="45.71808" lon="4.48302">
        <ele>527</ele>
        <time>2016-04-10T09:56:40Z</time>
      </trkpt>
      <trkpt lat="45.71812" lon="4.48298">
        <ele>527</ele>
        <time>2016-04-10T09:56:46Z</time>
      </trkpt>
      <trkpt lat="45.71817" lon="4.48296">
        <ele>529</ele>
        <time>2016-04-10T09:56:51Z</time>
      </trkpt>
      <trkpt lat="45.71821" lon="4.48294">
        <ele>529</ele>
        <time>2016-04-10T09:56:58Z</time>
      </trkpt>
      <trkpt lat="45.71826" lon="4.48293">
        <ele>531</ele>
        <time>2016-04-10T09:57:04Z</time>
      </trkpt>
      <trkpt lat="45.7183" lon="4.48289">
        <ele>532</ele>
        <time>2016-04-10T09:57:09Z</time>
      </trkpt>
      <trkpt lat="45.71833" lon="4.48283">
        <ele>532</ele>
        <time>2016-04-10T09:57:12Z</time>
      </trkpt>
      <trkpt lat="45.71838" lon="4.48282">
        <ele>534</ele>
        <time>2016-04-10T09:57:19Z</time>
      </trkpt>
      <trkpt lat="45.71842" lon="4.48278">
        <ele>534</ele>
        <time>2016-04-10T09:57:26Z</time>
      </trkpt>
      <trkpt lat="45.71847" lon="4.48275">
        <ele>536</ele>
        <time>2016-04-10T09:57:31Z</time>
      </trkpt>
      <trkpt lat="45.71851" lon="4.48279">
        <ele>538</ele>
        <time>2016-04-10T09:57:36Z</time>
      </trkpt>
      <trkpt lat="45.71854" lon="4.48283">
        <ele>535</ele>
        <time>2016-04-10T09:57:43Z</time>
      </trkpt>
      <trkpt lat="45.71858" lon="4.48286">
        <ele>535</ele>
        <time>2016-04-10T09:57:51Z</time>
      </trkpt>
      <trkpt lat="45.71864" lon="4.48288">
        <ele>538</ele>
        <time>2016-04-10T09:58:04Z</time>
      </trkpt>
      <trkpt lat="45.71869" lon="4.4829">
        <ele>540</ele>
        <time>2016-04-10T09:58:09Z</time>
      </trkpt>
      <trkpt lat="45.71874" lon="4.48294">
        <ele>539</ele>
        <time>2016-04-10T09:58:14Z</time>
      </trkpt>
      <trkpt lat="45.71878" lon="4.48295">
        <ele>542</ele>
        <time>2016-04-10T09:58:18Z</time>
      </trkpt>
      <trkpt lat="45.71882" lon="4.48301">
        <ele>546</ele>
        <time>2016-04-10T09:58:27Z</time>
      </trkpt>
      <trkpt lat="45.71887" lon="4.48302">
        <ele>547</ele>
        <time>2016-04-10T09:58:34Z</time>
      </trkpt>
      <trkpt lat="45.71891" lon="4.483">
        <ele>550</ele>
        <time>2016-04-10T09:58:39Z</time>
      </trkpt>
      <trkpt lat="45.71894" lon="4.48305">
        <ele>553</ele>
        <time>2016-04-10T09:58:45Z</time>
      </trkpt>
      <trkpt lat="45.719" lon="4.48306">
        <ele>551</ele>
        <time>2016-04-10T09:58:51Z</time>
      </trkpt>
      <trkpt lat="45.71903" lon="4.4831">
        <ele>554</ele>
        <time>2016-04-10T09:58:57Z</time>
      </trkpt>
      <trkpt lat="45.71908" lon="4.48312">
        <ele>554</ele>
        <time>2016-04-10T09:59:03Z</time>
      </trkpt>
      <trkpt lat="45.71913" lon="4.4831">
        <ele>554</ele>
        <time>2016-04-10T09:59:06Z</time>
      </trkpt>
      <trkpt lat="45.71916" lon="4.48316">
        <ele>549</ele>
        <time>2016-04-10T09:59:16Z</time>
      </trkpt>
      <trkpt lat="45.71922" lon="4.48318">
        <ele>548</ele>
        <time>2016-04-10T09:59:22Z</time>
      </trkpt>
      <trkpt lat="45.71927" lon="4.48319">
        <ele>550</ele>
        <time>2016-04-10T09:59:30Z</time>
      </trkpt>
      <trkpt lat="45.7193" lon="4.48325">
        <ele>550</ele>
        <time>2016-04-10T09:59:38Z</time>
      </trkpt>
      <trkpt lat="45.71935" lon="4.48325">
        <ele>553</ele>
        <time>2016-04-10T09:59:45Z</time>
      </trkpt>
      <trkpt lat="45.71939" lon="4.4833">
        <ele>554</ele>
        <time>2016-04-10T09:59:59Z</time>
      </trkpt>
      <trkpt lat="45.71948" lon="4.48332">
        <ele>554</ele>
        <time>2016-04-10T10:00:04Z</time>
      </trkpt>
      <trkpt lat="45.7195" lon="4.48337">
        <ele>555</ele>
        <time>2016-04-10T10:00:12Z</time>
      </trkpt>
      <trkpt lat="45.71955" lon="4.48341">
        <ele>558</ele>
        <time>2016-04-10T10:00:18Z</time>
      </trkpt>
      <trkpt lat="45.71959" lon="4.48345">
        <ele>562</ele>
        <time>2016-04-10T10:00:23Z</time>
      </trkpt>
      <trkpt lat="45.71954" lon="4.48349">
        <ele>564</ele>
        <time>2016-04-10T10:00:27Z</time>
      </trkpt>
      <trkpt lat="45.71958" lon="4.48354">
        <ele>568</ele>
        <time>2016-04-10T10:00:33Z</time>
      </trkpt>
      <trkpt lat="45.71965" lon="4.48354">
        <ele>571</ele>
        <time>2016-04-10T10:00:37Z</time>
      </trkpt>
      <trkpt lat="45.71969" lon="4.48356">
        <ele>572</ele>
        <time>2016-04-10T10:00:40Z</time>
      </trkpt>
      <trkpt lat="45.71974" lon="4.48358">
        <ele>572</ele>
        <time>2016-04-10T10:00:44Z</time>
      </trkpt>
      <trkpt lat="45.71978" lon="4.48363">
        <ele>575</ele>
        <time>2016-04-10T10:00:50Z</time>
      </trkpt>
      <trkpt lat="45.71979" lon="4.4837">
        <ele>571</ele>
        <time>2016-04-10T10:00:58Z</time>
      </trkpt>
      <trkpt lat="45.71984" lon="4.48372">
        <ele>573</ele>
        <time>2016-04-10T10:01:03Z</time>
      </trkpt>
      <trkpt lat="45.71989" lon="4.48373">
        <ele>579</ele>
        <time>2016-04-10T10:01:18Z</time>
      </trkpt>
      <trkpt lat="45.71995" lon="4.48375">
        <ele>579</ele>
        <time>2016-04-10T10:01:23Z</time>
      </trkpt>
      <trkpt lat="45.72" lon="4.48377">
        <ele>580</ele>
        <time>2016-04-10T10:01:27Z</time>
      </trkpt>
      <trkpt lat="45.72004" lon="4.48382">
        <ele>579</ele>
        <time>2016-04-10T10:01:34Z</time>
      </trkpt>
      <trkpt lat="45.72011" lon="4.48383">
        <ele>581</ele>
        <time>2016-04-10T10:01:41Z</time>
      </trkpt>
      <trkpt lat="45.72015" lon="4.48387">
        <ele>584</ele>
        <time>2016-04-10T10:01:46Z</time>
      </trkpt>
      <trkpt lat="45.72021" lon="4.48386">
        <ele>585</ele>
        <time>2016-04-10T10:01:49Z</time>
      </trkpt>
      <trkpt lat="45.72026" lon="4.48387">
        <ele>585</ele>
        <time>2016-04-10T10:01:53Z</time>
      </trkpt>
      <trkpt lat="45.72031" lon="4.48386">
        <ele>587</ele>
        <time>2016-04-10T10:01:57Z</time>
      </trkpt>
      <trkpt lat="45.72037" lon="4.48385">
        <ele>588</ele>
        <time>2016-04-10T10:02:01Z</time>
      </trkpt>
      <trkpt lat="45.72042" lon="4.48382">
        <ele>586</ele>
        <time>2016-04-10T10:02:05Z</time>
      </trkpt>
      <trkpt lat="45.72046" lon="4.4838">
        <ele>585</ele>
        <time>2016-04-10T10:02:09Z</time>
      </trkpt>
      <trkpt lat="45.72051" lon="4.48379">
        <ele>586</ele>
        <time>2016-04-10T10:02:15Z</time>
      </trkpt>
      <trkpt lat="45.72056" lon="4.48375">
        <ele>586</ele>
        <time>2016-04-10T10:02:18Z</time>
      </trkpt>
      <trkpt lat="45.7206" lon="4.48372">
        <ele>589</ele>
        <time>2016-04-10T10:02:26Z</time>
      </trkpt>
      <trkpt lat="45.72065" lon="4.48366">
        <ele>590</ele>
        <time>2016-04-10T10:02:31Z</time>
      </trkpt>
      <trkpt lat="45.72068" lon="4.48362">
        <ele>590</ele>
        <time>2016-04-10T10:02:36Z</time>
      </trkpt>
      <trkpt lat="45.72073" lon="4.48358">
        <ele>591</ele>
        <time>2016-04-10T10:02:41Z</time>
      </trkpt>
      <trkpt lat="45.72078" lon="4.48354">
        <ele>593</ele>
        <time>2016-04-10T10:02:46Z</time>
      </trkpt>
      <trkpt lat="45.72083" lon="4.4835">
        <ele>594</ele>
        <time>2016-04-10T10:02:52Z</time>
      </trkpt>
      <trkpt lat="45.72087" lon="4.48345">
        <ele>592</ele>
        <time>2016-04-10T10:02:58Z</time>
      </trkpt>
      <trkpt lat="45.72091" lon="4.48341">
        <ele>592</ele>
        <time>2016-04-10T10:03:04Z</time>
      </trkpt>
      <trkpt lat="45.72095" lon="4.48337">
        <ele>596</ele>
        <time>2016-04-10T10:03:11Z</time>
      </trkpt>
      <trkpt lat="45.72098" lon="4.48332">
        <ele>596</ele>
        <time>2016-04-10T10:03:17Z</time>
      </trkpt>
      <trkpt lat="45.72103" lon="4.4833">
        <ele>600</ele>
        <time>2016-04-10T10:03:22Z</time>
      </trkpt>
      <trkpt lat="45.72107" lon="4.48327">
        <ele>600</ele>
        <time>2016-04-10T10:03:28Z</time>
      </trkpt>
      <trkpt lat="45.72111" lon="4.48323">
        <ele>600</ele>
        <time>2016-04-10T10:03:34Z</time>
      </trkpt>
      <trkpt lat="45.72116" lon="4.4832">
        <ele>602</ele>
        <time>2016-04-10T10:03:39Z</time>
      </trkpt>
      <trkpt lat="45.7212" lon="4.48317">
        <ele>604</ele>
        <time>2016-04-10T10:03:44Z</time>
      </trkpt>
      <trkpt lat="45.72124" lon="4.48315">
        <ele>606</ele>
        <time>2016-04-10T10:03:49Z</time>
      </trkpt>
      <trkpt lat="45.72129" lon="4.48312">
        <ele>608</ele>
        <time>2016-04-10T10:03:55Z</time>
      </trkpt>
      <trkpt lat="45.72131" lon="4.48307">
        <ele>608</ele>
        <time>2016-04-10T10:04:00Z</time>
      </trkpt>
      <trkpt lat="45.72136" lon="4.48302">
        <ele>608</ele>
        <time>2016-04-10T10:04:06Z</time>
      </trkpt>
      <trkpt lat="45.72139" lon="4.48295">
        <ele>608</ele>
        <time>2016-04-10T10:04:11Z</time>
      </trkpt>
      <trkpt lat="45.72142" lon="4.4829">
        <ele>609</ele>
        <time>2016-04-10T10:04:17Z</time>
      </trkpt>
      <trkpt lat="45.72147" lon="4.48287">
        <ele>609</ele>
        <time>2016-04-10T10:04:24Z</time>
      </trkpt>
      <trkpt lat="45.72151" lon="4.48282">
        <ele>609</ele>
        <time>2016-04-10T10:04:32Z</time>
      </trkpt>
      <trkpt lat="45.72155" lon="4.48277">
        <ele>609</ele>
        <time>2016-04-10T10:04:36Z</time>
      </trkpt>
      <trkpt lat="45.7216" lon="4.48274">
        <ele>610</ele>
        <time>2016-04-10T10:04:40Z</time>
      </trkpt>
      <trkpt lat="45.72164" lon="4.48268">
        <ele>609</ele>
        <time>2016-04-10T10:04:45Z</time>
      </trkpt>
      <trkpt lat="45.72168" lon="4.48264">
        <ele>607</ele>
        <time>2016-04-10T10:04:49Z</time>
      </trkpt>
      <trkpt lat="45.72172" lon="4.4826">
        <ele>608</ele>
        <time>2016-04-10T10:04:52Z</time>
      </trkpt>
      <trkpt lat="45.72177" lon="4.48257">
        <ele>606</ele>
        <time>2016-04-10T10:04:58Z</time>
      </trkpt>
      <trkpt lat="45.72182" lon="4.48254">
        <ele>607</ele>
        <time>2016-04-10T10:05:03Z</time>
      </trkpt>
      <trkpt lat="45.72186" lon="4.48251">
        <ele>607</ele>
        <time>2016-04-10T10:05:07Z</time>
      </trkpt>
      <trkpt lat="45.72191" lon="4.48249">
        <ele>609</ele>
        <time>2016-04-10T10:05:14Z</time>
      </trkpt>
      <trkpt lat="45.72196" lon="4.48244">
        <ele>610</ele>
        <time>2016-04-10T10:05:19Z</time>
      </trkpt>
      <trkpt lat="45.72199" lon="4.4824">
        <ele>610</ele>
        <time>2016-04-10T10:05:22Z</time>
      </trkpt>
      <trkpt lat="45.72204" lon="4.48239">
        <ele>612</ele>
        <time>2016-04-10T10:05:28Z</time>
      </trkpt>
      <trkpt lat="45.72207" lon="4.48228">
        <ele>609</ele>
        <time>2016-04-10T10:05:31Z</time>
      </trkpt>
      <trkpt lat="45.72212" lon="4.48226">
        <ele>613</ele>
        <time>2016-04-10T10:05:43Z</time>
      </trkpt>
      <trkpt lat="45.72217" lon="4.48223">
        <ele>611</ele>
        <time>2016-04-10T10:05:49Z</time>
      </trkpt>
      <trkpt lat="45.72221" lon="4.48215">
        <ele>611</ele>
        <time>2016-04-10T10:05:54Z</time>
      </trkpt>
      <trkpt lat="45.72217" lon="4.48211">
        <ele>610</ele>
        <time>2016-04-10T10:06:02Z</time>
      </trkpt>
      <trkpt lat="45.72211" lon="4.4821">
        <ele>612</ele>
        <time>2016-04-10T10:06:14Z</time>
      </trkpt>
      <trkpt lat="45.72207" lon="4.48207">
        <ele>616</ele>
        <time>2016-04-10T10:06:22Z</time>
      </trkpt>
      <trkpt lat="45.72201" lon="4.48208">
        <ele>617</ele>
        <time>2016-04-10T10:06:32Z</time>
      </trkpt>
      <trkpt lat="45.72197" lon="4.48208">
        <ele>619</ele>
        <time>2016-04-10T10:06:36Z</time>
      </trkpt>
      <trkpt lat="45.72191" lon="4.48209">
        <ele>619</ele>
        <time>2016-04-10T10:06:40Z</time>
      </trkpt>
      <trkpt lat="45.72186" lon="4.4821">
        <ele>626</ele>
        <time>2016-04-10T10:06:51Z</time>
      </trkpt>
      <trkpt lat="45.72181" lon="4.48213">
        <ele>627</ele>
        <time>2016-04-10T10:07:04Z</time>
      </trkpt>
      <trkpt lat="45.72176" lon="4.48214">
        <ele>628</ele>
        <time>2016-04-10T10:07:06Z</time>
      </trkpt>
      <trkpt lat="45.72169" lon="4.48212">
        <ele>628</ele>
        <time>2016-04-10T10:07:11Z</time>
      </trkpt>
      <trkpt lat="45.72164" lon="4.48213">
        <ele>628</ele>
        <time>2016-04-10T10:07:28Z</time>
      </trkpt>
      <trkpt lat="45.72159" lon="4.48213">
        <ele>628</ele>
        <time>2016-04-10T10:07:30Z</time>
      </trkpt>
      <trkpt lat="45.72154" lon="4.48213">
        <ele>628</ele>
        <time>2016-04-10T10:07:33Z</time>
      </trkpt>
      <trkpt lat="45.72149" lon="4.48212">
        <ele>628</ele>
        <time>2016-04-10T10:07:35Z</time>
      </trkpt>
      <trkpt lat="45.72143" lon="4.48213">
        <ele>628</ele>
        <time>2016-04-10T10:07:38Z</time>
      </trkpt>
      <trkpt lat="45.72138" lon="4.48212">
        <ele>627</ele>
        <time>2016-04-10T10:07:41Z</time>
      </trkpt>
      <trkpt lat="45.72132" lon="4.4821">
        <ele>625</ele>
        <time>2016-04-10T10:07:46Z</time>
      </trkpt>
      <trkpt lat="45.72104" lon="4.48218">
        <ele>637</ele>
        <time>2016-04-10T10:08:16Z</time>
      </trkpt>
      <trkpt lat="45.7211" lon="4.48181">
        <ele>622</ele>
        <time>2016-04-10T10:08:18Z</time>
      </trkpt>
      <trkpt lat="45.7211" lon="4.48174">
        <ele>628</ele>
        <time>2016-04-10T10:08:21Z</time>
      </trkpt>
      <trkpt lat="45.72109" lon="4.48167">
        <ele>629</ele>
        <time>2016-04-10T10:08:29Z</time>
      </trkpt>
      <trkpt lat="45.72105" lon="4.48162">
        <ele>628</ele>
        <time>2016-04-10T10:08:33Z</time>
      </trkpt>
      <trkpt lat="45.72105" lon="4.48155">
        <ele>627</ele>
        <time>2016-04-10T10:08:41Z</time>
      </trkpt>
      <trkpt lat="45.72107" lon="4.48148">
        <ele>631</ele>
        <time>2016-04-10T10:08:46Z</time>
      </trkpt>
      <trkpt lat="45.72109" lon="4.48141">
        <ele>632</ele>
        <time>2016-04-10T10:08:52Z</time>
      </trkpt>
      <trkpt lat="45.72109" lon="4.48133">
        <ele>632</ele>
        <time>2016-04-10T10:09:08Z</time>
      </trkpt>
      <trkpt lat="45.72112" lon="4.48128">
        <ele>634</ele>
        <time>2016-04-10T10:09:12Z</time>
      </trkpt>
      <trkpt lat="45.72114" lon="4.48122">
        <ele>635</ele>
        <time>2016-04-10T10:09:16Z</time>
      </trkpt>
      <trkpt lat="45.72114" lon="4.48114">
        <ele>636</ele>
        <time>2016-04-10T10:09:21Z</time>
      </trkpt>
      <trkpt lat="45.72115" lon="4.48106">
        <ele>637</ele>
        <time>2016-04-10T10:09:26Z</time>
      </trkpt>
      <trkpt lat="45.72114" lon="4.48099">
        <ele>640</ele>
        <time>2016-04-10T10:09:35Z</time>
      </trkpt>
      <trkpt lat="45.72116" lon="4.48094">
        <ele>643</ele>
        <time>2016-04-10T10:09:40Z</time>
      </trkpt>
      <trkpt lat="45.72117" lon="4.48087">
        <ele>643</ele>
        <time>2016-04-10T10:09:45Z</time>
      </trkpt>
      <trkpt lat="45.72119" lon="4.48081">
        <ele>644</ele>
        <time>2016-04-10T10:09:50Z</time>
      </trkpt>
      <trkpt lat="45.72123" lon="4.48075">
        <ele>645</ele>
        <time>2016-04-10T10:09:59Z</time>
      </trkpt>
      <trkpt lat="45.72124" lon="4.48069">
        <ele>646</ele>
        <time>2016-04-10T10:10:04Z</time>
      </trkpt>
      <trkpt lat="45.7213" lon="4.48062">
        <ele>645</ele>
        <time>2016-04-10T10:10:11Z</time>
      </trkpt>
      <trkpt lat="45.72133" lon="4.48057">
        <ele>646</ele>
        <time>2016-04-10T10:10:17Z</time>
      </trkpt>
      <trkpt lat="45.72135" lon="4.48052">
        <ele>647</ele>
        <time>2016-04-10T10:10:27Z</time>
      </trkpt>
      <trkpt lat="45.72139" lon="4.48049">
        <ele>652</ele>
        <time>2016-04-10T10:10:38Z</time>
      </trkpt>
      <trkpt lat="45.72143" lon="4.48043">
        <ele>653</ele>
        <time>2016-04-10T10:10:42Z</time>
      </trkpt>
      <trkpt lat="45.72147" lon="4.48039">
        <ele>655</ele>
        <time>2016-04-10T10:10:52Z</time>
      </trkpt>
      <trkpt lat="45.72151" lon="4.48037">
        <ele>654</ele>
        <time>2016-04-10T10:11:01Z</time>
      </trkpt>
      <trkpt lat="45.72156" lon="4.48034">
        <ele>657</ele>
        <time>2016-04-10T10:11:06Z</time>
      </trkpt>
      <trkpt lat="45.7216" lon="4.48031">
        <ele>658</ele>
        <time>2016-04-10T10:11:10Z</time>
      </trkpt>
      <trkpt lat="45.72164" lon="4.48026">
        <ele>659</ele>
        <time>2016-04-10T10:11:13Z</time>
      </trkpt>
      <trkpt lat="45.72167" lon="4.48021">
        <ele>660</ele>
        <time>2016-04-10T10:11:16Z</time>
      </trkpt>
      <trkpt lat="45.7217" lon="4.48016">
        <ele>659</ele>
        <time>2016-04-10T10:11:26Z</time>
      </trkpt>
      <trkpt lat="45.72174" lon="4.48012">
        <ele>661</ele>
        <time>2016-04-10T10:11:37Z</time>
      </trkpt>
      <trkpt lat="45.72177" lon="4.48007">
        <ele>662</ele>
        <time>2016-04-10T10:11:47Z</time>
      </trkpt>
      <trkpt lat="45.72179" lon="4.48001">
        <ele>663</ele>
        <time>2016-04-10T10:11:54Z</time>
      </trkpt>
      <trkpt lat="45.72181" lon="4.47994">
        <ele>661</ele>
        <time>2016-04-10T10:11:58Z</time>
      </trkpt>
      <trkpt lat="45.72184" lon="4.47987">
        <ele>663</ele>
        <time>2016-04-10T10:12:04Z</time>
      </trkpt>
      <trkpt lat="45.72186" lon="4.4798">
        <ele>664</ele>
        <time>2016-04-10T10:12:07Z</time>
      </trkpt>
      <trkpt lat="45.72189" lon="4.47974">
        <ele>665</ele>
        <time>2016-04-10T10:12:12Z</time>
      </trkpt>
      <trkpt lat="45.72193" lon="4.47966">
        <ele>666</ele>
        <time>2016-04-10T10:12:16Z</time>
      </trkpt>
      <trkpt lat="45.72194" lon="4.47958">
        <ele>666</ele>
        <time>2016-04-10T10:12:20Z</time>
      </trkpt>
      <trkpt lat="45.72196" lon="4.47951">
        <ele>666</ele>
        <time>2016-04-10T10:12:24Z</time>
      </trkpt>
      <trkpt lat="45.72199" lon="4.4794">
        <ele>666</ele>
        <time>2016-04-10T10:12:27Z</time>
      </trkpt>
      <trkpt lat="45.72201" lon="4.47935">
        <ele>666</ele>
        <time>2016-04-10T10:12:31Z</time>
      </trkpt>
      <trkpt lat="45.72203" lon="4.47929">
        <ele>667</ele>
        <time>2016-04-10T10:12:36Z</time>
      </trkpt>
      <trkpt lat="45.72205" lon="4.47923">
        <ele>667</ele>
        <time>2016-04-10T10:12:41Z</time>
      </trkpt>
      <trkpt lat="45.72209" lon="4.47916">
        <ele>667</ele>
        <time>2016-04-10T10:12:47Z</time>
      </trkpt>
      <trkpt lat="45.72211" lon="4.47909">
        <ele>667</ele>
        <time>2016-04-10T10:12:51Z</time>
      </trkpt>
      <trkpt lat="45.72213" lon="4.47903">
        <ele>668</ele>
        <time>2016-04-10T10:12:56Z</time>
      </trkpt>
      <trkpt lat="45.72214" lon="4.47895">
        <ele>667</ele>
        <time>2016-04-10T10:13:01Z</time>
      </trkpt>
      <trkpt lat="45.72215" lon="4.47888">
        <ele>665</ele>
        <time>2016-04-10T10:13:04Z</time>
      </trkpt>
      <trkpt lat="45.72219" lon="4.47883">
        <ele>664</ele>
        <time>2016-04-10T10:13:09Z</time>
      </trkpt>
      <trkpt lat="45.72224" lon="4.47882">
        <ele>666</ele>
        <time>2016-04-10T10:13:15Z</time>
      </trkpt>
      <trkpt lat="45.72224" lon="4.47888">
        <ele>666</ele>
        <time>2016-04-10T10:13:21Z</time>
      </trkpt>
      <trkpt lat="45.72229" lon="4.47886">
        <ele>667</ele>
        <time>2016-04-10T10:13:24Z</time>
      </trkpt>
      <trkpt lat="45.72233" lon="4.47887">
        <ele>669</ele>
        <time>2016-04-10T10:13:31Z</time>
      </trkpt>
      <trkpt lat="45.72238" lon="4.47887">
        <ele>669</ele>
        <time>2016-04-10T10:13:37Z</time>
      </trkpt>
      <trkpt lat="45.72243" lon="4.47887">
        <ele>670</ele>
        <time>2016-04-10T10:13:53Z</time>
      </trkpt>
      <trkpt lat="45.72248" lon="4.47886">
        <ele>670</ele>
        <time>2016-04-10T10:13:58Z</time>
      </trkpt>
      <trkpt lat="45.72254" lon="4.47887">
        <ele>669</ele>
        <time>2016-04-10T10:14:07Z</time>
      </trkpt>
      <trkpt lat="45.72258" lon="4.47883">
        <ele>671</ele>
        <time>2016-04-10T10:14:10Z</time>
      </trkpt>
      <trkpt lat="45.72263" lon="4.47885">
        <ele>673</ele>
        <time>2016-04-10T10:14:21Z</time>
      </trkpt>
      <trkpt lat="45.72268" lon="4.47885">
        <ele>675</ele>
        <time>2016-04-10T10:14:26Z</time>
      </trkpt>
      <trkpt lat="45.72273" lon="4.47883">
        <ele>678</ele>
        <time>2016-04-10T10:14:31Z</time>
      </trkpt>
      <trkpt lat="45.72277" lon="4.47883">
        <ele>678</ele>
        <time>2016-04-10T10:14:37Z</time>
      </trkpt>
      <trkpt lat="45.72282" lon="4.47881">
        <ele>680</ele>
        <time>2016-04-10T10:14:41Z</time>
      </trkpt>
      <trkpt lat="45.72287" lon="4.47882">
        <ele>683</ele>
        <time>2016-04-10T10:14:54Z</time>
      </trkpt>
      <trkpt lat="45.72292" lon="4.4788">
        <ele>684</ele>
        <time>2016-04-10T10:15:00Z</time>
      </trkpt>
      <trkpt lat="45.72297" lon="4.47881">
        <ele>686</ele>
        <time>2016-04-10T10:15:24Z</time>
      </trkpt>
      <trkpt lat="45.72302" lon="4.4788">
        <ele>687</ele>
        <time>2016-04-10T10:15:30Z</time>
      </trkpt>
      <trkpt lat="45.72307" lon="4.47876">
        <ele>689</ele>
        <time>2016-04-10T10:15:36Z</time>
      </trkpt>
      <trkpt lat="45.72311" lon="4.47873">
        <ele>688</ele>
        <time>2016-04-10T10:15:45Z</time>
      </trkpt>
      <trkpt lat="45.72314" lon="4.47869">
        <ele>690</ele>
        <time>2016-04-10T10:15:48Z</time>
      </trkpt>
      <trkpt lat="45.72319" lon="4.47867">
        <ele>691</ele>
        <time>2016-04-10T10:15:54Z</time>
      </trkpt>
      <trkpt lat="45.72324" lon="4.47865">
        <ele>691</ele>
        <time>2016-04-10T10:16:01Z</time>
      </trkpt>
      <trkpt lat="45.72328" lon="4.47864">
        <ele>691</ele>
        <time>2016-04-10T10:16:07Z</time>
      </trkpt>
      <trkpt lat="45.72333" lon="4.47861">
        <ele>691</ele>
        <time>2016-04-10T10:16:14Z</time>
      </trkpt>
      <trkpt lat="45.72337" lon="4.47858">
        <ele>692</ele>
        <time>2016-04-10T10:16:21Z</time>
      </trkpt>
      <trkpt lat="45.72342" lon="4.47855">
        <ele>693</ele>
        <time>2016-04-10T10:16:27Z</time>
      </trkpt>
      <trkpt lat="45.72347" lon="4.47853">
        <ele>694</ele>
        <time>2016-04-10T10:16:32Z</time>
      </trkpt>
      <trkpt lat="45.72352" lon="4.47851">
        <ele>695</ele>
        <time>2016-04-10T10:16:37Z</time>
      </trkpt>
      <trkpt lat="45.72357" lon="4.47851">
        <ele>694</ele>
        <time>2016-04-10T10:16:46Z</time>
      </trkpt>
      <trkpt lat="45.72361" lon="4.47848">
        <ele>695</ele>
        <time>2016-04-10T10:16:52Z</time>
      </trkpt>
      <trkpt lat="45.72366" lon="4.47846">
        <ele>694</ele>
        <time>2016-04-10T10:16:58Z</time>
      </trkpt>
      <trkpt lat="45.72371" lon="4.47843">
        <ele>695</ele>
        <time>2016-04-10T10:17:04Z</time>
      </trkpt>
      <trkpt lat="45.72376" lon="4.4784">
        <ele>696</ele>
        <time>2016-04-10T10:17:09Z</time>
      </trkpt>
      <trkpt lat="45.72382" lon="4.47838">
        <ele>696</ele>
        <time>2016-04-10T10:17:14Z</time>
      </trkpt>
      <trkpt lat="45.72387" lon="4.47837">
        <ele>696</ele>
        <time>2016-04-10T10:17:18Z</time>
      </trkpt>
      <trkpt lat="45.7239" lon="4.47834">
        <ele>696</ele>
        <time>2016-04-10T10:17:21Z</time>
      </trkpt>
      <trkpt lat="45.72395" lon="4.47832">
        <ele>697</ele>
        <time>2016-04-10T10:17:27Z</time>
      </trkpt>
      <trkpt lat="45.724" lon="4.47829">
        <ele>698</ele>
        <time>2016-04-10T10:17:45Z</time>
      </trkpt>
      <trkpt lat="45.72404" lon="4.47825">
        <ele>697</ele>
        <time>2016-04-10T10:17:50Z</time>
      </trkpt>
      <trkpt lat="45.72409" lon="4.47822">
        <ele>696</ele>
        <time>2016-04-10T10:17:56Z</time>
      </trkpt>
      <trkpt lat="45.72413" lon="4.4782">
        <ele>697</ele>
        <time>2016-04-10T10:17:59Z</time>
      </trkpt>
      <trkpt lat="45.72419" lon="4.47817">
        <ele>698</ele>
        <time>2016-04-10T10:18:02Z</time>
      </trkpt>
      <trkpt lat="45.72423" lon="4.47814">
        <ele>697</ele>
        <time>2016-04-10T10:18:06Z</time>
      </trkpt>
      <trkpt lat="45.72428" lon="4.4781">
        <ele>697</ele>
        <time>2016-04-10T10:18:10Z</time>
      </trkpt>
      <trkpt lat="45.72433" lon="4.47808">
        <ele>696</ele>
        <time>2016-04-10T10:18:14Z</time>
      </trkpt>
      <trkpt lat="45.72438" lon="4.47806">
        <ele>697</ele>
        <time>2016-04-10T10:18:21Z</time>
      </trkpt>
      <trkpt lat="45.72443" lon="4.47803">
        <ele>697</ele>
        <time>2016-04-10T10:18:26Z</time>
      </trkpt>
      <trkpt lat="45.72448" lon="4.47798">
        <ele>696</ele>
        <time>2016-04-10T10:18:30Z</time>
      </trkpt>
      <trkpt lat="45.72453" lon="4.47792">
        <ele>696</ele>
        <time>2016-04-10T10:18:34Z</time>
      </trkpt>
      <trkpt lat="45.72458" lon="4.47787">
        <ele>697</ele>
        <time>2016-04-10T10:18:37Z</time>
      </trkpt>
      <trkpt lat="45.72463" lon="4.4779">
        <ele>697</ele>
        <time>2016-04-10T10:18:43Z</time>
      </trkpt>
      <trkpt lat="45.72469" lon="4.47793">
        <ele>698</ele>
        <time>2016-04-10T10:18:47Z</time>
      </trkpt>
      <trkpt lat="45.72474" lon="4.47795">
        <ele>696</ele>
        <time>2016-04-10T10:18:51Z</time>
      </trkpt>
      <trkpt lat="45.72479" lon="4.47799">
        <ele>694</ele>
        <time>2016-04-10T10:18:55Z</time>
      </trkpt>
      <trkpt lat="45.72484" lon="4.47804">
        <ele>696</ele>
        <time>2016-04-10T10:19:00Z</time>
      </trkpt>
      <trkpt lat="45.72488" lon="4.47809">
        <ele>694</ele>
        <time>2016-04-10T10:19:05Z</time>
      </trkpt>
      <trkpt lat="45.72492" lon="4.47814">
        <ele>694</ele>
        <time>2016-04-10T10:19:09Z</time>
      </trkpt>
      <trkpt lat="45.72495" lon="4.47819">
        <ele>695</ele>
        <time>2016-04-10T10:19:13Z</time>
      </trkpt>
      <trkpt lat="45.725" lon="4.47823">
        <ele>695</ele>
        <time>2016-04-10T10:19:18Z</time>
      </trkpt>
      <trkpt lat="45.72505" lon="4.47827">
        <ele>696</ele>
        <time>2016-04-10T10:19:22Z</time>
      </trkpt>
      <trkpt lat="45.72508" lon="4.47833">
        <ele>696</ele>
        <time>2016-04-10T10:19:26Z</time>
      </trkpt>
      <trkpt lat="45.72512" lon="4.47837">
        <ele>700</ele>
        <time>2016-04-10T10:19:53Z</time>
      </trkpt>
      <trkpt lat="45.72516" lon="4.47843">
        <ele>699</ele>
        <time>2016-04-10T10:19:56Z</time>
      </trkpt>
      <trkpt lat="45.7252" lon="4.47848">
        <ele>700</ele>
        <time>2016-04-10T10:20:00Z</time>
      </trkpt>
      <trkpt lat="45.72524" lon="4.47853">
        <ele>700</ele>
        <time>2016-04-10T10:20:04Z</time>
      </trkpt>
      <trkpt lat="45.72529" lon="4.47856">
        <ele>700</ele>
        <time>2016-04-10T10:20:08Z</time>
      </trkpt>
      <trkpt lat="45.72534" lon="4.47856">
        <ele>700</ele>
        <time>2016-04-10T10:20:12Z</time>
      </trkpt>
      <trkpt lat="45.7254" lon="4.47854">
        <ele>700</ele>
        <time>2016-04-10T10:20:16Z</time>
      </trkpt>
      <trkpt lat="45.72544" lon="4.47851">
        <ele>699</ele>
        <time>2016-04-10T10:20:21Z</time>
      </trkpt>
      <trkpt lat="45.72548" lon="4.47846">
        <ele>699</ele>
        <time>2016-04-10T10:20:31Z</time>
      </trkpt>
      <trkpt lat="45.72552" lon="4.4784">
        <ele>699</ele>
        <time>2016-04-10T10:20:34Z</time>
      </trkpt>
      <trkpt lat="45.72557" lon="4.47837">
        <ele>700</ele>
        <time>2016-04-10T10:20:39Z</time>
      </trkpt>
      <trkpt lat="45.72561" lon="4.47833">
        <ele>699</ele>
        <time>2016-04-10T10:20:45Z</time>
      </trkpt>
      <trkpt lat="45.72565" lon="4.47828">
        <ele>699</ele>
        <time>2016-04-10T10:20:50Z</time>
      </trkpt>
      <trkpt lat="45.72569" lon="4.47822">
        <ele>699</ele>
        <time>2016-04-10T10:20:54Z</time>
      </trkpt>
      <trkpt lat="45.72574" lon="4.47819">
        <ele>698</ele>
        <time>2016-04-10T10:20:59Z</time>
      </trkpt>
      <trkpt lat="45.72579" lon="4.47817">
        <ele>697</ele>
        <time>2016-04-10T10:21:04Z</time>
      </trkpt>
      <trkpt lat="45.72583" lon="4.47814">
        <ele>697</ele>
        <time>2016-04-10T10:21:07Z</time>
      </trkpt>
      <trkpt lat="45.72588" lon="4.47813">
        <ele>695</ele>
        <time>2016-04-10T10:21:11Z</time>
      </trkpt>
      <trkpt lat="45.72592" lon="4.4781">
        <ele>696</ele>
        <time>2016-04-10T10:21:14Z</time>
      </trkpt>
      <trkpt lat="45.72597" lon="4.4781">
        <ele>696</ele>
        <time>2016-04-10T10:21:20Z</time>
      </trkpt>
      <trkpt lat="45.72602" lon="4.47809">
        <ele>700</ele>
        <time>2016-04-10T10:21:26Z</time>
      </trkpt>
      <trkpt lat="45.72606" lon="4.47809">
        <ele>702</ele>
        <time>2016-04-10T10:21:31Z</time>
      </trkpt>
      <trkpt lat="45.72612" lon="4.47807">
        <ele>700</ele>
        <time>2016-04-10T10:21:35Z</time>
      </trkpt>
      <trkpt lat="45.72616" lon="4.47804">
        <ele>700</ele>
        <time>2016-04-10T10:21:38Z</time>
      </trkpt>
      <trkpt lat="45.7262" lon="4.47802">
        <ele>702</ele>
        <time>2016-04-10T10:21:41Z</time>
      </trkpt>
      <trkpt lat="45.72625" lon="4.478">
        <ele>701</ele>
        <time>2016-04-10T10:21:45Z</time>
      </trkpt>
      <trkpt lat="45.7263" lon="4.47799">
        <ele>702</ele>
        <time>2016-04-10T10:21:49Z</time>
      </trkpt>
      <trkpt lat="45.72636" lon="4.47795">
        <ele>702</ele>
        <time>2016-04-10T10:21:54Z</time>
      </trkpt>
      <trkpt lat="45.72641" lon="4.4779">
        <ele>702</ele>
        <time>2016-04-10T10:21:58Z</time>
      </trkpt>
      <trkpt lat="45.72645" lon="4.47785">
        <ele>702</ele>
        <time>2016-04-10T10:22:01Z</time>
      </trkpt>
      <trkpt lat="45.72649" lon="4.47781">
        <ele>699</ele>
        <time>2016-04-10T10:22:05Z</time>
      </trkpt>
      <trkpt lat="45.72653" lon="4.47777">
        <ele>699</ele>
        <time>2016-04-10T10:22:07Z</time>
      </trkpt>
      <trkpt lat="45.72657" lon="4.47773">
        <ele>697</ele>
        <time>2016-04-10T10:22:11Z</time>
      </trkpt>
      <trkpt lat="45.72661" lon="4.47769">
        <ele>695</ele>
        <time>2016-04-10T10:22:15Z</time>
      </trkpt>
      <trkpt lat="45.72665" lon="4.47765">
        <ele>693</ele>
        <time>2016-04-10T10:22:19Z</time>
      </trkpt>
      <trkpt lat="45.7267" lon="4.47762">
        <ele>691</ele>
        <time>2016-04-10T10:22:23Z</time>
      </trkpt>
      <trkpt lat="45.72675" lon="4.47757">
        <ele>689</ele>
        <time>2016-04-10T10:22:28Z</time>
      </trkpt>
      <trkpt lat="45.72679" lon="4.47752">
        <ele>689</ele>
        <time>2016-04-10T10:22:31Z</time>
      </trkpt>
      <trkpt lat="45.72683" lon="4.47748">
        <ele>687</ele>
        <time>2016-04-10T10:22:37Z</time>
      </trkpt>
      <trkpt lat="45.72687" lon="4.47743">
        <ele>688</ele>
        <time>2016-04-10T10:22:41Z</time>
      </trkpt>
      <trkpt lat="45.72692" lon="4.47739">
        <ele>687</ele>
        <time>2016-04-10T10:22:46Z</time>
      </trkpt>
      <trkpt lat="45.72697" lon="4.47734">
        <ele>687</ele>
        <time>2016-04-10T10:22:49Z</time>
      </trkpt>
      <trkpt lat="45.72702" lon="4.47735">
        <ele>686</ele>
        <time>2016-04-10T10:22:58Z</time>
      </trkpt>
      <trkpt lat="45.72706" lon="4.4773">
        <ele>688</ele>
        <time>2016-04-10T10:23:07Z</time>
      </trkpt>
      <trkpt lat="45.7271" lon="4.47727">
        <ele>687</ele>
        <time>2016-04-10T10:23:11Z</time>
      </trkpt>
      <trkpt lat="45.72714" lon="4.47721">
        <ele>686</ele>
        <time>2016-04-10T10:23:15Z</time>
      </trkpt>
      <trkpt lat="45.72719" lon="4.47716">
        <ele>690</ele>
        <time>2016-04-10T10:23:24Z</time>
      </trkpt>
      <trkpt lat="45.72723" lon="4.47713">
        <ele>691</ele>
        <time>2016-04-10T10:23:28Z</time>
      </trkpt>
      <trkpt lat="45.72728" lon="4.47708">
        <ele>692</ele>
        <time>2016-04-10T10:23:32Z</time>
      </trkpt>
      <trkpt lat="45.72732" lon="4.47703">
        <ele>690</ele>
        <time>2016-04-10T10:23:35Z</time>
      </trkpt>
      <trkpt lat="45.72736" lon="4.47699">
        <ele>689</ele>
        <time>2016-04-10T10:23:41Z</time>
      </trkpt>
      <trkpt lat="45.7274" lon="4.47694">
        <ele>688</ele>
        <time>2016-04-10T10:23:44Z</time>
      </trkpt>
      <trkpt lat="45.72745" lon="4.4769">
        <ele>687</ele>
        <time>2016-04-10T10:23:52Z</time>
      </trkpt>
      <trkpt lat="45.72748" lon="4.47685">
        <ele>684</ele>
        <time>2016-04-10T10:23:56Z</time>
      </trkpt>
      <trkpt lat="45.72753" lon="4.47681">
        <ele>681</ele>
        <time>2016-04-10T10:24:04Z</time>
      </trkpt>
      <trkpt lat="45.72756" lon="4.47674">
        <ele>683</ele>
        <time>2016-04-10T10:24:07Z</time>
      </trkpt>
      <trkpt lat="45.72759" lon="4.47669">
        <ele>684</ele>
        <time>2016-04-10T10:24:10Z</time>
      </trkpt>
      <trkpt lat="45.72761" lon="4.47662">
        <ele>684</ele>
        <time>2016-04-10T10:24:13Z</time>
      </trkpt>
      <trkpt lat="45.72764" lon="4.47656">
        <ele>682</ele>
        <time>2016-04-10T10:24:18Z</time>
      </trkpt>
      <trkpt lat="45.72767" lon="4.47643">
        <ele>678</ele>
        <time>2016-04-10T10:24:23Z</time>
      </trkpt>
      <trkpt lat="45.7277" lon="4.47637">
        <ele>678</ele>
        <time>2016-04-10T10:24:27Z</time>
      </trkpt>
      <trkpt lat="45.72773" lon="4.47632">
        <ele>678</ele>
        <time>2016-04-10T10:24:31Z</time>
      </trkpt>
      <trkpt lat="45.72777" lon="4.47627">
        <ele>678</ele>
        <time>2016-04-10T10:24:36Z</time>
      </trkpt>
      <trkpt lat="45.72781" lon="4.47623">
        <ele>679</ele>
        <time>2016-04-10T10:24:40Z</time>
      </trkpt>
      <trkpt lat="45.72785" lon="4.47617">
        <ele>679</ele>
        <time>2016-04-10T10:24:43Z</time>
      </trkpt>
      <trkpt lat="45.72788" lon="4.47612">
        <ele>679</ele>
        <time>2016-04-10T10:24:47Z</time>
      </trkpt>
      <trkpt lat="45.72793" lon="4.4761">
        <ele>681</ele>
        <time>2016-04-10T10:24:53Z</time>
      </trkpt>
      <trkpt lat="45.72797" lon="4.47606">
        <ele>680</ele>
        <time>2016-04-10T10:24:58Z</time>
      </trkpt>
      <trkpt lat="45.72801" lon="4.47603">
        <ele>682</ele>
        <time>2016-04-10T10:25:09Z</time>
      </trkpt>
      <trkpt lat="45.72806" lon="4.476">
        <ele>683</ele>
        <time>2016-04-10T10:25:13Z</time>
      </trkpt>
      <trkpt lat="45.72811" lon="4.47599">
        <ele>685</ele>
        <time>2016-04-10T10:25:17Z</time>
      </trkpt>
      <trkpt lat="45.72816" lon="4.47596">
        <ele>686</ele>
        <time>2016-04-10T10:25:21Z</time>
      </trkpt>
      <trkpt lat="45.72821" lon="4.47591">
        <ele>686</ele>
        <time>2016-04-10T10:25:24Z</time>
      </trkpt>
      <trkpt lat="45.72826" lon="4.47592">
        <ele>688</ele>
        <time>2016-04-10T10:25:28Z</time>
      </trkpt>
      <trkpt lat="45.72831" lon="4.47589">
        <ele>688</ele>
        <time>2016-04-10T10:25:33Z</time>
      </trkpt>
      <trkpt lat="45.72835" lon="4.47585">
        <ele>689</ele>
        <time>2016-04-10T10:25:36Z</time>
      </trkpt>
      <trkpt lat="45.72838" lon="4.4758">
        <ele>688</ele>
        <time>2016-04-10T10:25:42Z</time>
      </trkpt>
      <trkpt lat="45.72843" lon="4.47578">
        <ele>686</ele>
        <time>2016-04-10T10:25:49Z</time>
      </trkpt>
      <trkpt lat="45.72847" lon="4.47574">
        <ele>689</ele>
        <time>2016-04-10T10:25:55Z</time>
      </trkpt>
      <trkpt lat="45.72852" lon="4.4757">
        <ele>694</ele>
        <time>2016-04-10T10:26:00Z</time>
      </trkpt>
      <trkpt lat="45.72856" lon="4.47566">
        <ele>694</ele>
        <time>2016-04-10T10:26:04Z</time>
      </trkpt>
      <trkpt lat="45.72861" lon="4.47563">
        <ele>694</ele>
        <time>2016-04-10T10:26:09Z</time>
      </trkpt>
      <trkpt lat="45.72867" lon="4.47562">
        <ele>694</ele>
        <time>2016-04-10T10:26:15Z</time>
      </trkpt>
      <trkpt lat="45.72872" lon="4.47558">
        <ele>693</ele>
        <time>2016-04-10T10:26:19Z</time>
      </trkpt>
      <trkpt lat="45.72876" lon="4.47554">
        <ele>693</ele>
        <time>2016-04-10T10:26:22Z</time>
      </trkpt>
      <trkpt lat="45.7288" lon="4.47552">
        <ele>692</ele>
        <time>2016-04-10T10:26:26Z</time>
      </trkpt>
      <trkpt lat="45.72885" lon="4.47549">
        <ele>692</ele>
        <time>2016-04-10T10:26:29Z</time>
      </trkpt>
      <trkpt lat="45.72889" lon="4.47547">
        <ele>694</ele>
        <time>2016-04-10T10:26:34Z</time>
      </trkpt>
      <trkpt lat="45.72893" lon="4.47544">
        <ele>695</ele>
        <time>2016-04-10T10:26:39Z</time>
      </trkpt>
      <trkpt lat="45.72899" lon="4.4753">
        <ele>694</ele>
        <time>2016-04-10T10:26:41Z</time>
      </trkpt>
      <trkpt lat="45.72904" lon="4.47526">
        <ele>695</ele>
        <time>2016-04-10T10:26:44Z</time>
      </trkpt>
      <trkpt lat="45.72906" lon="4.47534">
        <ele>698</ele>
        <time>2016-04-10T10:26:49Z</time>
      </trkpt>
      <trkpt lat="45.7291" lon="4.47537">
        <ele>701</ele>
        <time>2016-04-10T10:26:55Z</time>
      </trkpt>
      <trkpt lat="45.72915" lon="4.47536">
        <ele>701</ele>
        <time>2016-04-10T10:27:00Z</time>
      </trkpt>
      <trkpt lat="45.72919" lon="4.47534">
        <ele>702</ele>
        <time>2016-04-10T10:27:05Z</time>
      </trkpt>
      <trkpt lat="45.72924" lon="4.47531">
        <ele>706</ele>
        <time>2016-04-10T10:27:09Z</time>
      </trkpt>
      <trkpt lat="45.72929" lon="4.47528">
        <ele>704</ele>
        <time>2016-04-10T10:27:14Z</time>
      </trkpt>
      <trkpt lat="45.72934" lon="4.47526">
        <ele>703</ele>
        <time>2016-04-10T10:27:19Z</time>
      </trkpt>
      <trkpt lat="45.72939" lon="4.47523">
        <ele>704</ele>
        <time>2016-04-10T10:27:23Z</time>
      </trkpt>
      <trkpt lat="45.72944" lon="4.47519">
        <ele>704</ele>
        <time>2016-04-10T10:27:26Z</time>
      </trkpt>
      <trkpt lat="45.72949" lon="4.47516">
        <ele>704</ele>
        <time>2016-04-10T10:27:30Z</time>
      </trkpt>
      <trkpt lat="45.72955" lon="4.47513">
        <ele>703</ele>
        <time>2016-04-10T10:27:35Z</time>
      </trkpt>
      <trkpt lat="45.72959" lon="4.47509">
        <ele>704</ele>
        <time>2016-04-10T10:27:38Z</time>
      </trkpt>
      <trkpt lat="45.72963" lon="4.47504">
        <ele>703</ele>
        <time>2016-04-10T10:27:44Z</time>
      </trkpt>
      <trkpt lat="45.72968" lon="4.475">
        <ele>703</ele>
        <time>2016-04-10T10:27:48Z</time>
      </trkpt>
      <trkpt lat="45.72974" lon="4.47497">
        <ele>703</ele>
        <time>2016-04-10T10:27:52Z</time>
      </trkpt>
      <trkpt lat="45.72978" lon="4.47494">
        <ele>702</ele>
        <time>2016-04-10T10:27:54Z</time>
      </trkpt>
      <trkpt lat="45.72983" lon="4.47491">
        <ele>701</ele>
        <time>2016-04-10T10:27:57Z</time>
      </trkpt>
      <trkpt lat="45.72987" lon="4.47489">
        <ele>700</ele>
        <time>2016-04-10T10:28:01Z</time>
      </trkpt>
      <trkpt lat="45.72992" lon="4.47485">
        <ele>699</ele>
        <time>2016-04-10T10:28:05Z</time>
      </trkpt>
      <trkpt lat="45.72996" lon="4.4748">
        <ele>698</ele>
        <time>2016-04-10T10:28:08Z</time>
      </trkpt>
      <trkpt lat="45.73" lon="4.47476">
        <ele>698</ele>
        <time>2016-04-10T10:28:12Z</time>
      </trkpt>
      <trkpt lat="45.73004" lon="4.47471">
        <ele>697</ele>
        <time>2016-04-10T10:28:15Z</time>
      </trkpt>
      <trkpt lat="45.73008" lon="4.47466">
        <ele>696</ele>
        <time>2016-04-10T10:28:19Z</time>
      </trkpt>
      <trkpt lat="45.73011" lon="4.47461">
        <ele>695</ele>
        <time>2016-04-10T10:28:22Z</time>
      </trkpt>
      <trkpt lat="45.73015" lon="4.47457">
        <ele>695</ele>
        <time>2016-04-10T10:28:26Z</time>
      </trkpt>
      <trkpt lat="45.73018" lon="4.47451">
        <ele>694</ele>
        <time>2016-04-10T10:28:29Z</time>
      </trkpt>
      <trkpt lat="45.73021" lon="4.47445">
        <ele>694</ele>
        <time>2016-04-10T10:28:31Z</time>
      </trkpt>
      <trkpt lat="45.73026" lon="4.4744">
        <ele>693</ele>
        <time>2016-04-10T10:28:36Z</time>
      </trkpt>
      <trkpt lat="45.73029" lon="4.47434">
        <ele>692</ele>
        <time>2016-04-10T10:28:40Z</time>
      </trkpt>
      <trkpt lat="45.73033" lon="4.47429">
        <ele>691</ele>
        <time>2016-04-10T10:28:44Z</time>
      </trkpt>
      <trkpt lat="45.73037" lon="4.47425">
        <ele>691</ele>
        <time>2016-04-10T10:28:47Z</time>
      </trkpt>
      <trkpt lat="45.73039" lon="4.4742">
        <ele>690</ele>
        <time>2016-04-10T10:28:50Z</time>
      </trkpt>
      <trkpt lat="45.73044" lon="4.47416">
        <ele>690</ele>
        <time>2016-04-10T10:28:57Z</time>
      </trkpt>
      <trkpt lat="45.73048" lon="4.47411">
        <ele>690</ele>
        <time>2016-04-10T10:29:02Z</time>
      </trkpt>
      <trkpt lat="45.73052" lon="4.47406">
        <ele>690</ele>
        <time>2016-04-10T10:29:07Z</time>
      </trkpt>
      <trkpt lat="45.73056" lon="4.47398">
        <ele>690</ele>
        <time>2016-04-10T10:29:12Z</time>
      </trkpt>
      <trkpt lat="45.7306" lon="4.47391">
        <ele>690</ele>
        <time>2016-04-10T10:29:16Z</time>
      </trkpt>
      <trkpt lat="45.73064" lon="4.47386">
        <ele>691</ele>
        <time>2016-04-10T10:29:20Z</time>
      </trkpt>
      <trkpt lat="45.73067" lon="4.47381">
        <ele>690</ele>
        <time>2016-04-10T10:29:24Z</time>
      </trkpt>
      <trkpt lat="45.73071" lon="4.47376">
        <ele>689</ele>
        <time>2016-04-10T10:29:28Z</time>
      </trkpt>
      <trkpt lat="45.73074" lon="4.4737">
        <ele>688</ele>
        <time>2016-04-10T10:29:32Z</time>
      </trkpt>
      <trkpt lat="45.73077" lon="4.47364">
        <ele>688</ele>
        <time>2016-04-10T10:29:37Z</time>
      </trkpt>
      <trkpt lat="45.7308" lon="4.47359">
        <ele>688</ele>
        <time>2016-04-10T10:29:40Z</time>
      </trkpt>
      <trkpt lat="45.73083" lon="4.47354">
        <ele>688</ele>
        <time>2016-04-10T10:29:42Z</time>
      </trkpt>
      <trkpt lat="45.73086" lon="4.47349">
        <ele>688</ele>
        <time>2016-04-10T10:29:45Z</time>
      </trkpt>
      <trkpt lat="45.73089" lon="4.47343">
        <ele>687</ele>
        <time>2016-04-10T10:29:49Z</time>
      </trkpt>
      <trkpt lat="45.73093" lon="4.47338">
        <ele>687</ele>
        <time>2016-04-10T10:29:52Z</time>
      </trkpt>
      <trkpt lat="45.73096" lon="4.47332">
        <ele>687</ele>
        <time>2016-04-10T10:29:56Z</time>
      </trkpt>
      <trkpt lat="45.731" lon="4.47328">
        <ele>686</ele>
        <time>2016-04-10T10:29:59Z</time>
      </trkpt>
      <trkpt lat="45.73103" lon="4.47323">
        <ele>685</ele>
        <time>2016-04-10T10:30:04Z</time>
      </trkpt>
      <trkpt lat="45.73106" lon="4.47316">
        <ele>684</ele>
        <time>2016-04-10T10:30:08Z</time>
      </trkpt>
      <trkpt lat="45.7311" lon="4.47311">
        <ele>684</ele>
        <time>2016-04-10T10:30:12Z</time>
      </trkpt>
      <trkpt lat="45.73114" lon="4.47307">
        <ele>684</ele>
        <time>2016-04-10T10:30:16Z</time>
      </trkpt>
      <trkpt lat="45.73119" lon="4.47302">
        <ele>683</ele>
        <time>2016-04-10T10:30:20Z</time>
      </trkpt>
      <trkpt lat="45.73123" lon="4.47297">
        <ele>683</ele>
        <time>2016-04-10T10:30:24Z</time>
      </trkpt>
      <trkpt lat="45.73128" lon="4.47293">
        <ele>682</ele>
        <time>2016-04-10T10:30:27Z</time>
      </trkpt>
      <trkpt lat="45.73133" lon="4.4729">
        <ele>682</ele>
        <time>2016-04-10T10:30:31Z</time>
      </trkpt>
      <trkpt lat="45.73138" lon="4.47289">
        <ele>682</ele>
        <time>2016-04-10T10:30:36Z</time>
      </trkpt>
      <trkpt lat="45.73143" lon="4.47286">
        <ele>682</ele>
        <time>2016-04-10T10:30:40Z</time>
      </trkpt>
      <trkpt lat="45.73146" lon="4.47282">
        <ele>682</ele>
        <time>2016-04-10T10:30:42Z</time>
      </trkpt>
      <trkpt lat="45.73151" lon="4.47279">
        <ele>681</ele>
        <time>2016-04-10T10:30:46Z</time>
      </trkpt>
      <trkpt lat="45.73155" lon="4.47276">
        <ele>681</ele>
        <time>2016-04-10T10:30:49Z</time>
      </trkpt>
      <trkpt lat="45.7316" lon="4.47274">
        <ele>680</ele>
        <time>2016-04-10T10:30:53Z</time>
      </trkpt>
      <trkpt lat="45.73165" lon="4.47273">
        <ele>680</ele>
        <time>2016-04-10T10:30:57Z</time>
      </trkpt>
      <trkpt lat="45.73171" lon="4.47272">
        <ele>679</ele>
        <time>2016-04-10T10:31:01Z</time>
      </trkpt>
      <trkpt lat="45.73176" lon="4.47268">
        <ele>679</ele>
        <time>2016-04-10T10:31:03Z</time>
      </trkpt>
      <trkpt lat="45.73181" lon="4.47269">
        <ele>678</ele>
        <time>2016-04-10T10:31:08Z</time>
      </trkpt>
      <trkpt lat="45.73188" lon="4.47267">
        <ele>678</ele>
        <time>2016-04-10T10:31:13Z</time>
      </trkpt>
      <trkpt lat="45.73193" lon="4.47268">
        <ele>677</ele>
        <time>2016-04-10T10:31:17Z</time>
      </trkpt>
      <trkpt lat="45.73198" lon="4.47265">
        <ele>677</ele>
        <time>2016-04-10T10:31:20Z</time>
      </trkpt>
      <trkpt lat="45.73204" lon="4.47268">
        <ele>677</ele>
        <time>2016-04-10T10:31:26Z</time>
      </trkpt>
      <trkpt lat="45.73206" lon="4.47273">
        <ele>679</ele>
        <time>2016-04-10T10:31:32Z</time>
      </trkpt>
      <trkpt lat="45.73212" lon="4.47271">
        <ele>677</ele>
        <time>2016-04-10T10:31:35Z</time>
      </trkpt>
      <trkpt lat="45.73217" lon="4.4727">
        <ele>676</ele>
        <time>2016-04-10T10:31:39Z</time>
      </trkpt>
      <trkpt lat="45.73222" lon="4.4727">
        <ele>678</ele>
        <time>2016-04-10T10:31:43Z</time>
      </trkpt>
      <trkpt lat="45.73228" lon="4.47265">
        <ele>677</ele>
        <time>2016-04-10T10:31:46Z</time>
      </trkpt>
      <trkpt lat="45.73234" lon="4.47263">
        <ele>677</ele>
        <time>2016-04-10T10:31:49Z</time>
      </trkpt>
      <trkpt lat="45.73239" lon="4.47261">
        <ele>676</ele>
        <time>2016-04-10T10:31:52Z</time>
      </trkpt>
      <trkpt lat="45.73243" lon="4.47259">
        <ele>677</ele>
        <time>2016-04-10T10:31:57Z</time>
      </trkpt>
      <trkpt lat="45.73249" lon="4.4726">
        <ele>678</ele>
        <time>2016-04-10T10:32:02Z</time>
      </trkpt>
      <trkpt lat="45.73254" lon="4.47264">
        <ele>678</ele>
        <time>2016-04-10T10:32:08Z</time>
      </trkpt>
      <trkpt lat="45.7326" lon="4.47262">
        <ele>676</ele>
        <time>2016-04-10T10:32:12Z</time>
      </trkpt>
      <trkpt lat="45.73265" lon="4.47258">
        <ele>680</ele>
        <time>2016-04-10T10:32:17Z</time>
      </trkpt>
      <trkpt lat="45.73269" lon="4.47256">
        <ele>679</ele>
        <time>2016-04-10T10:32:19Z</time>
      </trkpt>
      <trkpt lat="45.73274" lon="4.47254">
        <ele>678</ele>
        <time>2016-04-10T10:32:23Z</time>
      </trkpt>
      <trkpt lat="45.73279" lon="4.47252">
        <ele>677</ele>
        <time>2016-04-10T10:32:27Z</time>
      </trkpt>
      <trkpt lat="45.73284" lon="4.4725">
        <ele>676</ele>
        <time>2016-04-10T10:32:30Z</time>
      </trkpt>
      <trkpt lat="45.73288" lon="4.47254">
        <ele>677</ele>
        <time>2016-04-10T10:32:37Z</time>
      </trkpt>
      <trkpt lat="45.73292" lon="4.4725">
        <ele>676</ele>
        <time>2016-04-10T10:32:40Z</time>
      </trkpt>
      <trkpt lat="45.73297" lon="4.47248">
        <ele>676</ele>
        <time>2016-04-10T10:32:43Z</time>
      </trkpt>
      <trkpt lat="45.73301" lon="4.47244">
        <ele>676</ele>
        <time>2016-04-10T10:32:45Z</time>
      </trkpt>
      <trkpt lat="45.73306" lon="4.47241">
        <ele>676</ele>
        <time>2016-04-10T10:32:50Z</time>
      </trkpt>
      <trkpt lat="45.73305" lon="4.47234">
        <ele>678</ele>
        <time>2016-04-10T10:32:53Z</time>
      </trkpt>
      <trkpt lat="45.73303" lon="4.47229">
        <ele>678</ele>
        <time>2016-04-10T10:32:56Z</time>
      </trkpt>
      <trkpt lat="45.733" lon="4.47221">
        <ele>679</ele>
        <time>2016-04-10T10:33:01Z</time>
      </trkpt>
      <trkpt lat="45.73297" lon="4.47216">
        <ele>678</ele>
        <time>2016-04-10T10:33:05Z</time>
      </trkpt>
      <trkpt lat="45.73295" lon="4.47209">
        <ele>678</ele>
        <time>2016-04-10T10:33:10Z</time>
      </trkpt>
      <trkpt lat="45.73292" lon="4.47203">
        <ele>679</ele>
        <time>2016-04-10T10:33:14Z</time>
      </trkpt>
      <trkpt lat="45.73288" lon="4.47196">
        <ele>680</ele>
        <time>2016-04-10T10:33:18Z</time>
      </trkpt>
      <trkpt lat="45.73286" lon="4.47189">
        <ele>682</ele>
        <time>2016-04-10T10:33:23Z</time>
      </trkpt>
      <trkpt lat="45.73282" lon="4.47183">
        <ele>681</ele>
        <time>2016-04-10T10:33:27Z</time>
      </trkpt>
      <trkpt lat="45.73279" lon="4.47177">
        <ele>682</ele>
        <time>2016-04-10T10:33:31Z</time>
      </trkpt>
      <trkpt lat="45.73278" lon="4.47169">
        <ele>681</ele>
        <time>2016-04-10T10:33:36Z</time>
      </trkpt>
      <trkpt lat="45.73274" lon="4.47164">
        <ele>681</ele>
        <time>2016-04-10T10:33:40Z</time>
      </trkpt>
      <trkpt lat="45.73272" lon="4.47157">
        <ele>682</ele>
        <time>2016-04-10T10:33:45Z</time>
      </trkpt>
      <trkpt lat="45.7327" lon="4.4715">
        <ele>682</ele>
        <time>2016-04-10T10:33:49Z</time>
      </trkpt>
      <trkpt lat="45.73269" lon="4.47143">
        <ele>682</ele>
        <time>2016-04-10T10:33:53Z</time>
      </trkpt>
      <trkpt lat="45.73266" lon="4.47137">
        <ele>682</ele>
        <time>2016-04-10T10:33:57Z</time>
      </trkpt>
      <trkpt lat="45.73263" lon="4.47131">
        <ele>682</ele>
        <time>2016-04-10T10:34:02Z</time>
      </trkpt>
      <trkpt lat="45.7326" lon="4.47125">
        <ele>682</ele>
        <time>2016-04-10T10:34:07Z</time>
      </trkpt>
      <trkpt lat="45.73258" lon="4.47118">
        <ele>682</ele>
        <time>2016-04-10T10:34:11Z</time>
      </trkpt>
      <trkpt lat="45.73256" lon="4.47113">
        <ele>681</ele>
        <time>2016-04-10T10:34:15Z</time>
      </trkpt>
      <trkpt lat="45.73253" lon="4.47107">
        <ele>680</ele>
        <time>2016-04-10T10:34:18Z</time>
      </trkpt>
      <trkpt lat="45.7325" lon="4.47101">
        <ele>680</ele>
        <time>2016-04-10T10:34:22Z</time>
      </trkpt>
      <trkpt lat="45.73247" lon="4.47095">
        <ele>679</ele>
        <time>2016-04-10T10:34:26Z</time>
      </trkpt>
      <trkpt lat="45.73244" lon="4.47089">
        <ele>680</ele>
        <time>2016-04-10T10:34:31Z</time>
      </trkpt>
      <trkpt lat="45.73241" lon="4.47083">
        <ele>680</ele>
        <time>2016-04-10T10:34:35Z</time>
      </trkpt>
      <trkpt lat="45.73237" lon="4.47079">
        <ele>680</ele>
        <time>2016-04-10T10:34:38Z</time>
      </trkpt>
      <trkpt lat="45.73234" lon="4.47073">
        <ele>679</ele>
        <time>2016-04-10T10:34:42Z</time>
      </trkpt>
      <trkpt lat="45.73231" lon="4.47067">
        <ele>677</ele>
        <time>2016-04-10T10:34:46Z</time>
      </trkpt>
      <trkpt lat="45.73227" lon="4.47062">
        <ele>676</ele>
        <time>2016-04-10T10:34:49Z</time>
      </trkpt>
      <trkpt lat="45.73224" lon="4.47057">
        <ele>677</ele>
        <time>2016-04-10T10:34:53Z</time>
      </trkpt>
      <trkpt lat="45.7322" lon="4.47051">
        <ele>676</ele>
        <time>2016-04-10T10:34:56Z</time>
      </trkpt>
      <trkpt lat="45.73217" lon="4.47046">
        <ele>676</ele>
        <time>2016-04-10T10:34:59Z</time>
      </trkpt>
      <trkpt lat="45.73212" lon="4.47041">
        <ele>676</ele>
        <time>2016-04-10T10:35:02Z</time>
      </trkpt>
      <trkpt lat="45.73209" lon="4.47035">
        <ele>675</ele>
        <time>2016-04-10T10:35:05Z</time>
      </trkpt>
      <trkpt lat="45.73206" lon="4.4703">
        <ele>675</ele>
        <time>2016-04-10T10:35:09Z</time>
      </trkpt>
      <trkpt lat="45.73202" lon="4.47025">
        <ele>675</ele>
        <time>2016-04-10T10:35:12Z</time>
      </trkpt>
      <trkpt lat="45.73199" lon="4.4702">
        <ele>674</ele>
        <time>2016-04-10T10:35:15Z</time>
      </trkpt>
      <trkpt lat="45.73194" lon="4.47015">
        <ele>674</ele>
        <time>2016-04-10T10:35:18Z</time>
      </trkpt>
      <trkpt lat="45.73191" lon="4.47007">
        <ele>673</ele>
        <time>2016-04-10T10:35:22Z</time>
      </trkpt>
      <trkpt lat="45.73188" lon="4.47">
        <ele>672</ele>
        <time>2016-04-10T10:35:26Z</time>
      </trkpt>
      <trkpt lat="45.73185" lon="4.46996">
        <ele>673</ele>
        <time>2016-04-10T10:35:29Z</time>
      </trkpt>
      <trkpt lat="45.73181" lon="4.46989">
        <ele>671</ele>
        <time>2016-04-10T10:35:33Z</time>
      </trkpt>
      <trkpt lat="45.73178" lon="4.46983">
        <ele>671</ele>
        <time>2016-04-10T10:35:37Z</time>
      </trkpt>
      <trkpt lat="45.73174" lon="4.46978">
        <ele>671</ele>
        <time>2016-04-10T10:35:40Z</time>
      </trkpt>
      <trkpt lat="45.73171" lon="4.46972">
        <ele>670</ele>
        <time>2016-04-10T10:35:44Z</time>
      </trkpt>
      <trkpt lat="45.73168" lon="4.46967">
        <ele>669</ele>
        <time>2016-04-10T10:35:47Z</time>
      </trkpt>
      <trkpt lat="45.73165" lon="4.46962">
        <ele>668</ele>
        <time>2016-04-10T10:35:50Z</time>
      </trkpt>
      <trkpt lat="45.73161" lon="4.46958">
        <ele>668</ele>
        <time>2016-04-10T10:35:53Z</time>
      </trkpt>
      <trkpt lat="45.73158" lon="4.46953">
        <ele>668</ele>
        <time>2016-04-10T10:35:56Z</time>
      </trkpt>
      <trkpt lat="45.73155" lon="4.46946">
        <ele>669</ele>
        <time>2016-04-10T10:36:01Z</time>
      </trkpt>
      <trkpt lat="45.7315" lon="4.46942">
        <ele>669</ele>
        <time>2016-04-10T10:36:05Z</time>
      </trkpt>
      <trkpt lat="45.73146" lon="4.46938">
        <ele>667</ele>
        <time>2016-04-10T10:36:08Z</time>
      </trkpt>
      <trkpt lat="45.73142" lon="4.46936">
        <ele>666</ele>
        <time>2016-04-10T10:36:10Z</time>
      </trkpt>
      <trkpt lat="45.73137" lon="4.46932">
        <ele>667</ele>
        <time>2016-04-10T10:36:14Z</time>
      </trkpt>
      <trkpt lat="45.73132" lon="4.46928">
        <ele>666</ele>
        <time>2016-04-10T10:36:17Z</time>
      </trkpt>
      <trkpt lat="45.73127" lon="4.46924">
        <ele>666</ele>
        <time>2016-04-10T10:36:21Z</time>
      </trkpt>
      <trkpt lat="45.73122" lon="4.46919">
        <ele>665</ele>
        <time>2016-04-10T10:36:25Z</time>
      </trkpt>
      <trkpt lat="45.73117" lon="4.46916">
        <ele>664</ele>
        <time>2016-04-10T10:36:29Z</time>
      </trkpt>
      <trkpt lat="45.73112" lon="4.46912">
        <ele>665</ele>
        <time>2016-04-10T10:36:33Z</time>
      </trkpt>
      <trkpt lat="45.73109" lon="4.46907">
        <ele>664</ele>
        <time>2016-04-10T10:36:37Z</time>
      </trkpt>
      <trkpt lat="45.73104" lon="4.46903">
        <ele>663</ele>
        <time>2016-04-10T10:36:40Z</time>
      </trkpt>
      <trkpt lat="45.73101" lon="4.46898">
        <ele>661</ele>
        <time>2016-04-10T10:36:43Z</time>
      </trkpt>
      <trkpt lat="45.73099" lon="4.46891">
        <ele>661</ele>
        <time>2016-04-10T10:36:47Z</time>
      </trkpt>
      <trkpt lat="45.73099" lon="4.46884">
        <ele>661</ele>
        <time>2016-04-10T10:36:51Z</time>
      </trkpt>
      <trkpt lat="45.73098" lon="4.46878">
        <ele>660</ele>
        <time>2016-04-10T10:36:54Z</time>
      </trkpt>
      <trkpt lat="45.73098" lon="4.4687">
        <ele>658</ele>
        <time>2016-04-10T10:36:58Z</time>
      </trkpt>
      <trkpt lat="45.731" lon="4.46864">
        <ele>658</ele>
        <time>2016-04-10T10:37:01Z</time>
      </trkpt>
      <trkpt lat="45.731" lon="4.46856">
        <ele>656</ele>
        <time>2016-04-10T10:37:05Z</time>
      </trkpt>
      <trkpt lat="45.73098" lon="4.4685">
        <ele>655</ele>
        <time>2016-04-10T10:37:09Z</time>
      </trkpt>
      <trkpt lat="45.73097" lon="4.46842">
        <ele>651</ele>
        <time>2016-04-10T10:37:13Z</time>
      </trkpt>
      <trkpt lat="45.73098" lon="4.46835">
        <ele>651</ele>
        <time>2016-04-10T10:37:17Z</time>
      </trkpt>
      <trkpt lat="45.73099" lon="4.46827">
        <ele>652</ele>
        <time>2016-04-10T10:37:22Z</time>
      </trkpt>
      <trkpt lat="45.731" lon="4.46821">
        <ele>651</ele>
        <time>2016-04-10T10:37:25Z</time>
      </trkpt>
      <trkpt lat="45.731" lon="4.46814">
        <ele>650</ele>
        <time>2016-04-10T10:37:28Z</time>
      </trkpt>
      <trkpt lat="45.73101" lon="4.46808">
        <ele>649</ele>
        <time>2016-04-10T10:37:31Z</time>
      </trkpt>
      <trkpt lat="45.73102" lon="4.46801">
        <ele>649</ele>
        <time>2016-04-10T10:37:34Z</time>
      </trkpt>
      <trkpt lat="45.73103" lon="4.46793">
        <ele>649</ele>
        <time>2016-04-10T10:37:38Z</time>
      </trkpt>
      <trkpt lat="45.73104" lon="4.46786">
        <ele>650</ele>
        <time>2016-04-10T10:37:42Z</time>
      </trkpt>
      <trkpt lat="45.73104" lon="4.46779">
        <ele>649</ele>
        <time>2016-04-10T10:37:45Z</time>
      </trkpt>
      <trkpt lat="45.73107" lon="4.4677">
        <ele>648</ele>
        <time>2016-04-10T10:37:49Z</time>
      </trkpt>
      <trkpt lat="45.73106" lon="4.46764">
        <ele>648</ele>
        <time>2016-04-10T10:37:52Z</time>
      </trkpt>
      <trkpt lat="45.73105" lon="4.46757">
        <ele>648</ele>
        <time>2016-04-10T10:37:55Z</time>
      </trkpt>
      <trkpt lat="45.73105" lon="4.4675">
        <ele>650</ele>
        <time>2016-04-10T10:38:00Z</time>
      </trkpt>
      <trkpt lat="45.73106" lon="4.46743">
        <ele>651</ele>
        <time>2016-04-10T10:38:04Z</time>
      </trkpt>
      <trkpt lat="45.73107" lon="4.46732">
        <ele>647</ele>
        <time>2016-04-10T10:38:09Z</time>
      </trkpt>
      <trkpt lat="45.7311" lon="4.46726">
        <ele>645</ele>
        <time>2016-04-10T10:38:13Z</time>
      </trkpt>
      <trkpt lat="45.73115" lon="4.46725">
        <ele>642</ele>
        <time>2016-04-10T10:38:26Z</time>
      </trkpt>
      <trkpt lat="45.73119" lon="4.46725">
        <ele>642</ele>
        <time>2016-04-10T10:38:29Z</time>
      </trkpt>
      <trkpt lat="45.73124" lon="4.46726">
        <ele>639</ele>
        <time>2016-04-10T10:38:34Z</time>
      </trkpt>
      <trkpt lat="45.7313" lon="4.46726">
        <ele>635</ele>
        <time>2016-04-10T10:38:40Z</time>
      </trkpt>
      <trkpt lat="45.73136" lon="4.46723">
        <ele>634</ele>
        <time>2016-04-10T10:38:44Z</time>
      </trkpt>
      <trkpt lat="45.7314" lon="4.46719">
        <ele>637</ele>
        <time>2016-04-10T10:38:46Z</time>
      </trkpt>
      <trkpt lat="45.73145" lon="4.4672">
        <ele>639</ele>
        <time>2016-04-10T10:38:52Z</time>
      </trkpt>
      <trkpt lat="45.73151" lon="4.46719">
        <ele>637</ele>
        <time>2016-04-10T10:38:58Z</time>
      </trkpt>
      <trkpt lat="45.73157" lon="4.46715">
        <ele>638</ele>
        <time>2016-04-10T10:39:06Z</time>
      </trkpt>
      <trkpt lat="45.73162" lon="4.46712">
        <ele>637</ele>
        <time>2016-04-10T10:39:12Z</time>
      </trkpt>
      <trkpt lat="45.73167" lon="4.46711">
        <ele>639</ele>
        <time>2016-04-10T10:39:16Z</time>
      </trkpt>
      <trkpt lat="45.73171" lon="4.46705">
        <ele>639</ele>
        <time>2016-04-10T10:39:21Z</time>
      </trkpt>
      <trkpt lat="45.73176" lon="4.46706">
        <ele>638</ele>
        <time>2016-04-10T10:39:36Z</time>
      </trkpt>
      <trkpt lat="45.73181" lon="4.46706">
        <ele>639</ele>
        <time>2016-04-10T10:39:41Z</time>
      </trkpt>
      <trkpt lat="45.73187" lon="4.46704">
        <ele>639</ele>
        <time>2016-04-10T10:39:47Z</time>
      </trkpt>
      <trkpt lat="45.73191" lon="4.467">
        <ele>639</ele>
        <time>2016-04-10T10:39:51Z</time>
      </trkpt>
      <trkpt lat="45.73196" lon="4.46699">
        <ele>640</ele>
        <time>2016-04-10T10:39:55Z</time>
      </trkpt>
      <trkpt lat="45.732" lon="4.46695">
        <ele>640</ele>
        <time>2016-04-10T10:39:58Z</time>
      </trkpt>
      <trkpt lat="45.73206" lon="4.46693">
        <ele>640</ele>
        <time>2016-04-10T10:40:01Z</time>
      </trkpt>
      <trkpt lat="45.73212" lon="4.46688">
        <ele>640</ele>
        <time>2016-04-10T10:40:03Z</time>
      </trkpt>
      <trkpt lat="45.73214" lon="4.46694">
        <ele>639</ele>
        <time>2016-04-10T10:40:07Z</time>
      </trkpt>
      <trkpt lat="45.73219" lon="4.46697">
        <ele>639</ele>
        <time>2016-04-10T10:40:12Z</time>
      </trkpt>
      <trkpt lat="45.73224" lon="4.46695">
        <ele>638</ele>
        <time>2016-04-10T10:40:15Z</time>
      </trkpt>
      <trkpt lat="45.7323" lon="4.46696">
        <ele>638</ele>
        <time>2016-04-10T10:40:20Z</time>
      </trkpt>
      <trkpt lat="45.73235" lon="4.46692">
        <ele>638</ele>
        <time>2016-04-10T10:40:22Z</time>
      </trkpt>
      <trkpt lat="45.73236" lon="4.46698">
        <ele>639</ele>
        <time>2016-04-10T10:40:26Z</time>
      </trkpt>
      <trkpt lat="45.73241" lon="4.46696">
        <ele>638</ele>
        <time>2016-04-10T10:40:29Z</time>
      </trkpt>
      <trkpt lat="45.73244" lon="4.46701">
        <ele>636</ele>
        <time>2016-04-10T10:40:34Z</time>
      </trkpt>
      <trkpt lat="45.7325" lon="4.46698">
        <ele>635</ele>
        <time>2016-04-10T10:40:38Z</time>
      </trkpt>
      <trkpt lat="45.73255" lon="4.46697">
        <ele>637</ele>
        <time>2016-04-10T10:40:43Z</time>
      </trkpt>
      <trkpt lat="45.7326" lon="4.46695">
        <ele>637</ele>
        <time>2016-04-10T10:40:46Z</time>
      </trkpt>
      <trkpt lat="45.73265" lon="4.4669">
        <ele>636</ele>
        <time>2016-04-10T10:40:49Z</time>
      </trkpt>
      <trkpt lat="45.73269" lon="4.46688">
        <ele>636</ele>
        <time>2016-04-10T10:40:52Z</time>
      </trkpt>
      <trkpt lat="45.73274" lon="4.4669">
        <ele>637</ele>
        <time>2016-04-10T10:40:59Z</time>
      </trkpt>
      <trkpt lat="45.73279" lon="4.46685">
        <ele>637</ele>
        <time>2016-04-10T10:41:01Z</time>
      </trkpt>
      <trkpt lat="45.73284" lon="4.46682">
        <ele>637</ele>
        <time>2016-04-10T10:41:05Z</time>
      </trkpt>
      <trkpt lat="45.73289" lon="4.46684">
        <ele>638</ele>
        <time>2016-04-10T10:41:11Z</time>
      </trkpt>
      <trkpt lat="45.73295" lon="4.4668">
        <ele>636</ele>
        <time>2016-04-10T10:41:18Z</time>
      </trkpt>
      <trkpt lat="45.733" lon="4.46675">
        <ele>637</ele>
        <time>2016-04-10T10:41:21Z</time>
      </trkpt>
      <trkpt lat="45.73305" lon="4.46675">
        <ele>636</ele>
        <time>2016-04-10T10:41:26Z</time>
      </trkpt>
      <trkpt lat="45.7331" lon="4.46674">
        <ele>636</ele>
        <time>2016-04-10T10:41:30Z</time>
      </trkpt>
      <trkpt lat="45.73316" lon="4.46672">
        <ele>637</ele>
        <time>2016-04-10T10:41:35Z</time>
      </trkpt>
      <trkpt lat="45.73321" lon="4.46669">
        <ele>637</ele>
        <time>2016-04-10T10:41:38Z</time>
      </trkpt>
      <trkpt lat="45.73326" lon="4.46668">
        <ele>643</ele>
        <time>2016-04-10T10:41:45Z</time>
      </trkpt>
      <trkpt lat="45.73332" lon="4.46667">
        <ele>645</ele>
        <time>2016-04-10T10:41:49Z</time>
      </trkpt>
      <trkpt lat="45.73337" lon="4.46665">
        <ele>646</ele>
        <time>2016-04-10T10:41:54Z</time>
      </trkpt>
      <trkpt lat="45.73342" lon="4.46663">
        <ele>647</ele>
        <time>2016-04-10T10:41:58Z</time>
      </trkpt>
      <trkpt lat="45.73347" lon="4.4666">
        <ele>647</ele>
        <time>2016-04-10T10:42:02Z</time>
      </trkpt>
      <trkpt lat="45.73353" lon="4.46658">
        <ele>647</ele>
        <time>2016-04-10T10:42:07Z</time>
      </trkpt>
      <trkpt lat="45.73357" lon="4.46655">
        <ele>646</ele>
        <time>2016-04-10T10:42:11Z</time>
      </trkpt>
      <trkpt lat="45.73362" lon="4.46651">
        <ele>645</ele>
        <time>2016-04-10T10:42:14Z</time>
      </trkpt>
      <trkpt lat="45.73367" lon="4.46649">
        <ele>645</ele>
        <time>2016-04-10T10:42:18Z</time>
      </trkpt>
      <trkpt lat="45.73372" lon="4.46644">
        <ele>646</ele>
        <time>2016-04-10T10:42:22Z</time>
      </trkpt>
      <trkpt lat="45.73377" lon="4.46643">
        <ele>646</ele>
        <time>2016-04-10T10:42:27Z</time>
      </trkpt>
      <trkpt lat="45.73382" lon="4.46642">
        <ele>645</ele>
        <time>2016-04-10T10:42:32Z</time>
      </trkpt>
      <trkpt lat="45.73386" lon="4.46639">
        <ele>645</ele>
        <time>2016-04-10T10:42:35Z</time>
      </trkpt>
      <trkpt lat="45.73391" lon="4.46639">
        <ele>647</ele>
        <time>2016-04-10T10:42:41Z</time>
      </trkpt>
      <trkpt lat="45.73396" lon="4.46636">
        <ele>646</ele>
        <time>2016-04-10T10:42:44Z</time>
      </trkpt>
      <trkpt lat="45.73401" lon="4.46634">
        <ele>644</ele>
        <time>2016-04-10T10:42:51Z</time>
      </trkpt>
      <trkpt lat="45.73407" lon="4.46633">
        <ele>648</ele>
        <time>2016-04-10T10:42:58Z</time>
      </trkpt>
      <trkpt lat="45.73411" lon="4.4663">
        <ele>648</ele>
        <time>2016-04-10T10:43:02Z</time>
      </trkpt>
      <trkpt lat="45.73416" lon="4.46628">
        <ele>646</ele>
        <time>2016-04-10T10:43:07Z</time>
      </trkpt>
      <trkpt lat="45.7342" lon="4.46622">
        <ele>650</ele>
        <time>2016-04-10T10:43:14Z</time>
      </trkpt>
      <trkpt lat="45.73421" lon="4.46615">
        <ele>652</ele>
        <time>2016-04-10T10:43:17Z</time>
      </trkpt>
      <trkpt lat="45.7342" lon="4.46609">
        <ele>653</ele>
        <time>2016-04-10T10:43:21Z</time>
      </trkpt>
      <trkpt lat="45.73416" lon="4.46605">
        <ele>653</ele>
        <time>2016-04-10T10:43:26Z</time>
      </trkpt>
      <trkpt lat="45.73411" lon="4.46606">
        <ele>651</ele>
        <time>2016-04-10T10:43:30Z</time>
      </trkpt>
      <trkpt lat="45.73406" lon="4.46607">
        <ele>648</ele>
        <time>2016-04-10T10:43:34Z</time>
      </trkpt>
      <trkpt lat="45.73401" lon="4.46607">
        <ele>647</ele>
        <time>2016-04-10T10:43:37Z</time>
      </trkpt>
      <trkpt lat="45.73396" lon="4.46605">
        <ele>646</ele>
        <time>2016-04-10T10:43:41Z</time>
      </trkpt>
      <trkpt lat="45.73391" lon="4.46601">
        <ele>644</ele>
        <time>2016-04-10T10:43:46Z</time>
      </trkpt>
      <trkpt lat="45.73386" lon="4.46596">
        <ele>641</ele>
        <time>2016-04-10T10:43:51Z</time>
      </trkpt>
      <trkpt lat="45.73383" lon="4.4659">
        <ele>643</ele>
        <time>2016-04-10T10:43:56Z</time>
      </trkpt>
      <trkpt lat="45.7338" lon="4.46584">
        <ele>641</ele>
        <time>2016-04-10T10:44:01Z</time>
      </trkpt>
      <trkpt lat="45.73378" lon="4.46578">
        <ele>642</ele>
        <time>2016-04-10T10:44:06Z</time>
      </trkpt>
      <trkpt lat="45.73373" lon="4.46572">
        <ele>640</ele>
        <time>2016-04-10T10:44:10Z</time>
      </trkpt>
      <trkpt lat="45.73369" lon="4.46567">
        <ele>638</ele>
        <time>2016-04-10T10:44:13Z</time>
      </trkpt>
      <trkpt lat="45.73366" lon="4.4656">
        <ele>637</ele>
        <time>2016-04-10T10:44:18Z</time>
      </trkpt>
      <trkpt lat="45.73361" lon="4.46553">
        <ele>636</ele>
        <time>2016-04-10T10:44:22Z</time>
      </trkpt>
      <trkpt lat="45.73357" lon="4.46549">
        <ele>634</ele>
        <time>2016-04-10T10:44:25Z</time>
      </trkpt>
      <trkpt lat="45.73355" lon="4.46543">
        <ele>634</ele>
        <time>2016-04-10T10:44:28Z</time>
      </trkpt>
      <trkpt lat="45.73352" lon="4.46538">
        <ele>634</ele>
        <time>2016-04-10T10:44:31Z</time>
      </trkpt>
      <trkpt lat="45.73352" lon="4.46531">
        <ele>634</ele>
        <time>2016-04-10T10:44:35Z</time>
      </trkpt>
      <trkpt lat="45.73348" lon="4.46523">
        <ele>636</ele>
        <time>2016-04-10T10:44:39Z</time>
      </trkpt>
      <trkpt lat="45.73346" lon="4.46515">
        <ele>636</ele>
        <time>2016-04-10T10:44:44Z</time>
      </trkpt>
      <trkpt lat="45.73343" lon="4.46509">
        <ele>634</ele>
        <time>2016-04-10T10:44:47Z</time>
      </trkpt>
      <trkpt lat="45.73341" lon="4.46502">
        <ele>634</ele>
        <time>2016-04-10T10:44:51Z</time>
      </trkpt>
      <trkpt lat="45.73339" lon="4.46495">
        <ele>634</ele>
        <time>2016-04-10T10:44:55Z</time>
      </trkpt>
      <trkpt lat="45.73337" lon="4.46488">
        <ele>635</ele>
        <time>2016-04-10T10:44:59Z</time>
      </trkpt>
      <trkpt lat="45.73336" lon="4.46481">
        <ele>636</ele>
        <time>2016-04-10T10:45:03Z</time>
      </trkpt>
      <trkpt lat="45.73335" lon="4.46475">
        <ele>636</ele>
        <time>2016-04-10T10:45:06Z</time>
      </trkpt>
      <trkpt lat="45.73331" lon="4.4647">
        <ele>635</ele>
        <time>2016-04-10T10:45:09Z</time>
      </trkpt>
      <trkpt lat="45.73328" lon="4.46466">
        <ele>637</ele>
        <time>2016-04-10T10:45:13Z</time>
      </trkpt>
      <trkpt lat="45.73324" lon="4.46461">
        <ele>638</ele>
        <time>2016-04-10T10:45:17Z</time>
      </trkpt>
      <trkpt lat="45.7332" lon="4.46457">
        <ele>639</ele>
        <time>2016-04-10T10:45:22Z</time>
      </trkpt>
      <trkpt lat="45.73317" lon="4.46452">
        <ele>641</ele>
        <time>2016-04-10T10:45:27Z</time>
      </trkpt>
      <trkpt lat="45.73312" lon="4.46448">
        <ele>641</ele>
        <time>2016-04-10T10:45:31Z</time>
      </trkpt>
      <trkpt lat="45.73309" lon="4.46443">
        <ele>645</ele>
        <time>2016-04-10T10:45:38Z</time>
      </trkpt>
      <trkpt lat="45.73305" lon="4.46438">
        <ele>647</ele>
        <time>2016-04-10T10:45:44Z</time>
      </trkpt>
      <trkpt lat="45.73301" lon="4.46434">
        <ele>648</ele>
        <time>2016-04-10T10:45:49Z</time>
      </trkpt>
      <trkpt lat="45.73296" lon="4.46431">
        <ele>648</ele>
        <time>2016-04-10T10:45:54Z</time>
      </trkpt>
      <trkpt lat="45.73292" lon="4.46427">
        <ele>650</ele>
        <time>2016-04-10T10:45:59Z</time>
      </trkpt>
      <trkpt lat="45.73287" lon="4.46425">
        <ele>649</ele>
        <time>2016-04-10T10:46:02Z</time>
      </trkpt>
      <trkpt lat="45.73283" lon="4.46423">
        <ele>647</ele>
        <time>2016-04-10T10:46:04Z</time>
      </trkpt>
      <trkpt lat="45.73278" lon="4.4642">
        <ele>647</ele>
        <time>2016-04-10T10:46:09Z</time>
      </trkpt>
      <trkpt lat="45.73274" lon="4.46417">
        <ele>646</ele>
        <time>2016-04-10T10:46:12Z</time>
      </trkpt>
      <trkpt lat="45.73266" lon="4.46415">
        <ele>644</ele>
        <time>2016-04-10T10:46:16Z</time>
      </trkpt>
      <trkpt lat="45.73262" lon="4.46412">
        <ele>646</ele>
        <time>2016-04-10T10:46:21Z</time>
      </trkpt>
      <trkpt lat="45.73257" lon="4.4641">
        <ele>646</ele>
        <time>2016-04-10T10:46:25Z</time>
      </trkpt>
      <trkpt lat="45.73252" lon="4.46406">
        <ele>645</ele>
        <time>2016-04-10T10:46:30Z</time>
      </trkpt>
      <trkpt lat="45.73248" lon="4.46404">
        <ele>646</ele>
        <time>2016-04-10T10:46:34Z</time>
      </trkpt>
      <trkpt lat="45.73242" lon="4.464">
        <ele>647</ele>
        <time>2016-04-10T10:46:39Z</time>
      </trkpt>
      <trkpt lat="45.73238" lon="4.46396">
        <ele>650</ele>
        <time>2016-04-10T10:46:46Z</time>
      </trkpt>
      <trkpt lat="45.73234" lon="4.46392">
        <ele>649</ele>
        <time>2016-04-10T10:46:50Z</time>
      </trkpt>
      <trkpt lat="45.73229" lon="4.46391">
        <ele>648</ele>
        <time>2016-04-10T10:46:52Z</time>
      </trkpt>
      <trkpt lat="45.73225" lon="4.46387">
        <ele>649</ele>
        <time>2016-04-10T10:46:58Z</time>
      </trkpt>
      <trkpt lat="45.7322" lon="4.46384">
        <ele>650</ele>
        <time>2016-04-10T10:47:02Z</time>
      </trkpt>
      <trkpt lat="45.73217" lon="4.46379">
        <ele>651</ele>
        <time>2016-04-10T10:47:06Z</time>
      </trkpt>
      <trkpt lat="45.73213" lon="4.46373">
        <ele>652</ele>
        <time>2016-04-10T10:47:10Z</time>
      </trkpt>
      <trkpt lat="45.73208" lon="4.46369">
        <ele>652</ele>
        <time>2016-04-10T10:47:14Z</time>
      </trkpt>
      <trkpt lat="45.73203" lon="4.46364">
        <ele>651</ele>
        <time>2016-04-10T10:47:18Z</time>
      </trkpt>
      <trkpt lat="45.73199" lon="4.46359">
        <ele>651</ele>
        <time>2016-04-10T10:47:22Z</time>
      </trkpt>
      <trkpt lat="45.73194" lon="4.46355">
        <ele>649</ele>
        <time>2016-04-10T10:47:26Z</time>
      </trkpt>
      <trkpt lat="45.73191" lon="4.4635">
        <ele>650</ele>
        <time>2016-04-10T10:47:30Z</time>
      </trkpt>
      <trkpt lat="45.73186" lon="4.46345">
        <ele>648</ele>
        <time>2016-04-10T10:47:34Z</time>
      </trkpt>
      <trkpt lat="45.73182" lon="4.46339">
        <ele>646</ele>
        <time>2016-04-10T10:47:38Z</time>
      </trkpt>
      <trkpt lat="45.73178" lon="4.46334">
        <ele>645</ele>
        <time>2016-04-10T10:47:42Z</time>
      </trkpt>
      <trkpt lat="45.73174" lon="4.4633">
        <ele>643</ele>
        <time>2016-04-10T10:47:45Z</time>
      </trkpt>
      <trkpt lat="45.73171" lon="4.46324">
        <ele>642</ele>
        <time>2016-04-10T10:47:49Z</time>
      </trkpt>
      <trkpt lat="45.7317" lon="4.46317">
        <ele>641</ele>
        <time>2016-04-10T10:47:53Z</time>
      </trkpt>
      <trkpt lat="45.73169" lon="4.46309">
        <ele>642</ele>
        <time>2016-04-10T10:47:58Z</time>
      </trkpt>
      <trkpt lat="45.7317" lon="4.46298">
        <ele>640</ele>
        <time>2016-04-10T10:48:03Z</time>
      </trkpt>
      <trkpt lat="45.7317" lon="4.46291">
        <ele>643</ele>
        <time>2016-04-10T10:48:07Z</time>
      </trkpt>
      <trkpt lat="45.73172" lon="4.46283">
        <ele>642</ele>
        <time>2016-04-10T10:48:10Z</time>
      </trkpt>
      <trkpt lat="45.73175" lon="4.46277">
        <ele>642</ele>
        <time>2016-04-10T10:48:14Z</time>
      </trkpt>
      <trkpt lat="45.73178" lon="4.46272">
        <ele>640</ele>
        <time>2016-04-10T10:48:17Z</time>
      </trkpt>
      <trkpt lat="45.73181" lon="4.46267">
        <ele>640</ele>
        <time>2016-04-10T10:48:20Z</time>
      </trkpt>
      <trkpt lat="45.73183" lon="4.46262">
        <ele>640</ele>
        <time>2016-04-10T10:48:24Z</time>
      </trkpt>
      <trkpt lat="45.73186" lon="4.46256">
        <ele>640</ele>
        <time>2016-04-10T10:48:28Z</time>
      </trkpt>
      <trkpt lat="45.73188" lon="4.4625">
        <ele>642</ele>
        <time>2016-04-10T10:48:33Z</time>
      </trkpt>
      <trkpt lat="45.7319" lon="4.46244">
        <ele>640</ele>
        <time>2016-04-10T10:48:36Z</time>
      </trkpt>
      <trkpt lat="45.73192" lon="4.46235">
        <ele>639</ele>
        <time>2016-04-10T10:48:40Z</time>
      </trkpt>
      <trkpt lat="45.73195" lon="4.46227">
        <ele>638</ele>
        <time>2016-04-10T10:48:44Z</time>
      </trkpt>
      <trkpt lat="45.73196" lon="4.4622">
        <ele>638</ele>
        <time>2016-04-10T10:48:49Z</time>
      </trkpt>
      <trkpt lat="45.73196" lon="4.46213">
        <ele>640</ele>
        <time>2016-04-10T10:48:53Z</time>
      </trkpt>
      <trkpt lat="45.73198" lon="4.46205">
        <ele>636</ele>
        <time>2016-04-10T10:48:56Z</time>
      </trkpt>
      <trkpt lat="45.73199" lon="4.46198">
        <ele>636</ele>
        <time>2016-04-10T10:48:58Z</time>
      </trkpt>
      <trkpt lat="45.73199" lon="4.4619">
        <ele>636</ele>
        <time>2016-04-10T10:49:01Z</time>
      </trkpt>
      <trkpt lat="45.73199" lon="4.46183">
        <ele>637</ele>
        <time>2016-04-10T10:49:06Z</time>
      </trkpt>
      <trkpt lat="45.73199" lon="4.46176">
        <ele>637</ele>
        <time>2016-04-10T10:49:11Z</time>
      </trkpt>
      <trkpt lat="45.73202" lon="4.46171">
        <ele>638</ele>
        <time>2016-04-10T10:49:16Z</time>
      </trkpt>
      <trkpt lat="45.73207" lon="4.46169">
        <ele>640</ele>
        <time>2016-04-10T10:49:21Z</time>
      </trkpt>
      <trkpt lat="45.73212" lon="4.46169">
        <ele>642</ele>
        <time>2016-04-10T10:49:28Z</time>
      </trkpt>
      <trkpt lat="45.73216" lon="4.46163">
        <ele>641</ele>
        <time>2016-04-10T10:49:30Z</time>
      </trkpt>
      <trkpt lat="45.73221" lon="4.4616">
        <ele>641</ele>
        <time>2016-04-10T10:49:33Z</time>
      </trkpt>
      <trkpt lat="45.73226" lon="4.46158">
        <ele>641</ele>
        <time>2016-04-10T10:49:38Z</time>
      </trkpt>
      <trkpt lat="45.73231" lon="4.46157">
        <ele>642</ele>
        <time>2016-04-10T10:49:43Z</time>
      </trkpt>
      <trkpt lat="45.73236" lon="4.46155">
        <ele>641</ele>
        <time>2016-04-10T10:49:48Z</time>
      </trkpt>
      <trkpt lat="45.73241" lon="4.46152">
        <ele>640</ele>
        <time>2016-04-10T10:49:53Z</time>
      </trkpt>
      <trkpt lat="45.73245" lon="4.46157">
        <ele>644</ele>
        <time>2016-04-10T10:50:01Z</time>
      </trkpt>
      <trkpt lat="45.73251" lon="4.46154">
        <ele>643</ele>
        <time>2016-04-10T10:50:05Z</time>
      </trkpt>
      <trkpt lat="45.73257" lon="4.46154">
        <ele>643</ele>
        <time>2016-04-10T10:50:09Z</time>
      </trkpt>
      <trkpt lat="45.73261" lon="4.46158">
        <ele>645</ele>
        <time>2016-04-10T10:50:15Z</time>
      </trkpt>
      <trkpt lat="45.73266" lon="4.46157">
        <ele>646</ele>
        <time>2016-04-10T10:50:18Z</time>
      </trkpt>
      <trkpt lat="45.7327" lon="4.46156">
        <ele>645</ele>
        <time>2016-04-10T10:50:21Z</time>
      </trkpt>
      <trkpt lat="45.73277" lon="4.46154">
        <ele>644</ele>
        <time>2016-04-10T10:50:26Z</time>
      </trkpt>
      <trkpt lat="45.73282" lon="4.46154">
        <ele>646</ele>
        <time>2016-04-10T10:50:32Z</time>
      </trkpt>
      <trkpt lat="45.73287" lon="4.46156">
        <ele>649</ele>
        <time>2016-04-10T10:50:38Z</time>
      </trkpt>
      <trkpt lat="45.73293" lon="4.46155">
        <ele>648</ele>
        <time>2016-04-10T10:50:43Z</time>
      </trkpt>
      <trkpt lat="45.73299" lon="4.46154">
        <ele>647</ele>
        <time>2016-04-10T10:50:47Z</time>
      </trkpt>
      <trkpt lat="45.73304" lon="4.46152">
        <ele>646</ele>
        <time>2016-04-10T10:50:51Z</time>
      </trkpt>
      <trkpt lat="45.73308" lon="4.46157">
        <ele>648</ele>
        <time>2016-04-10T10:50:55Z</time>
      </trkpt>
      <trkpt lat="45.73312" lon="4.46157">
        <ele>649</ele>
        <time>2016-04-10T10:50:58Z</time>
      </trkpt>
      <trkpt lat="45.73317" lon="4.46154">
        <ele>648</ele>
        <time>2016-04-10T10:51:02Z</time>
      </trkpt>
      <trkpt lat="45.73321" lon="4.46155">
        <ele>649</ele>
        <time>2016-04-10T10:51:06Z</time>
      </trkpt>
      <trkpt lat="45.73326" lon="4.46153">
        <ele>649</ele>
        <time>2016-04-10T10:51:10Z</time>
      </trkpt>
      <trkpt lat="45.73331" lon="4.46149">
        <ele>646</ele>
        <time>2016-04-10T10:51:15Z</time>
      </trkpt>
      <trkpt lat="45.73331" lon="4.46142">
        <ele>655</ele>
        <time>2016-04-10T10:53:39Z</time>
      </trkpt>
      <trkpt lat="45.73332" lon="4.46134">
        <ele>655</ele>
        <time>2016-04-10T10:53:44Z</time>
      </trkpt>
      <trkpt lat="45.73332" lon="4.46126">
        <ele>655</ele>
        <time>2016-04-10T10:53:52Z</time>
      </trkpt>
      <trkpt lat="45.73332" lon="4.46119">
        <ele>654</ele>
        <time>2016-04-10T10:53:56Z</time>
      </trkpt>
      <trkpt lat="45.73333" lon="4.46113">
        <ele>656</ele>
        <time>2016-04-10T10:54:00Z</time>
      </trkpt>
      <trkpt lat="45.73335" lon="4.46106">
        <ele>656</ele>
        <time>2016-04-10T10:54:05Z</time>
      </trkpt>
      <trkpt lat="45.73337" lon="4.46099">
        <ele>655</ele>
        <time>2016-04-10T10:54:09Z</time>
      </trkpt>
      <trkpt lat="45.73339" lon="4.46092">
        <ele>655</ele>
        <time>2016-04-10T10:54:13Z</time>
      </trkpt>
      <trkpt lat="45.73342" lon="4.46086">
        <ele>657</ele>
        <time>2016-04-10T10:54:20Z</time>
      </trkpt>
      <trkpt lat="45.73344" lon="4.4608">
        <ele>660</ele>
        <time>2016-04-10T10:54:26Z</time>
      </trkpt>
      <trkpt lat="45.73348" lon="4.46074">
        <ele>661</ele>
        <time>2016-04-10T10:54:31Z</time>
      </trkpt>
      <trkpt lat="45.7335" lon="4.46067">
        <ele>661</ele>
        <time>2016-04-10T10:54:35Z</time>
      </trkpt>
      <trkpt lat="45.73351" lon="4.4606">
        <ele>660</ele>
        <time>2016-04-10T10:54:37Z</time>
      </trkpt>
      <trkpt lat="45.73353" lon="4.46053">
        <ele>660</ele>
        <time>2016-04-10T10:54:41Z</time>
      </trkpt>
      <trkpt lat="45.73357" lon="4.46047">
        <ele>660</ele>
        <time>2016-04-10T10:54:46Z</time>
      </trkpt>
      <trkpt lat="45.73359" lon="4.46041">
        <ele>660</ele>
        <time>2016-04-10T10:54:48Z</time>
      </trkpt>
      <trkpt lat="45.73363" lon="4.46036">
        <ele>660</ele>
        <time>2016-04-10T10:54:53Z</time>
      </trkpt>
      <trkpt lat="45.73365" lon="4.46029">
        <ele>660</ele>
        <time>2016-04-10T10:54:56Z</time>
      </trkpt>
      <trkpt lat="45.73367" lon="4.46022">
        <ele>661</ele>
        <time>2016-04-10T10:55:00Z</time>
      </trkpt>
      <trkpt lat="45.73369" lon="4.46013">
        <ele>659</ele>
        <time>2016-04-10T10:55:03Z</time>
      </trkpt>
      <trkpt lat="45.73371" lon="4.46005">
        <ele>659</ele>
        <time>2016-04-10T10:55:06Z</time>
      </trkpt>
      <trkpt lat="45.73374" lon="4.45998">
        <ele>660</ele>
        <time>2016-04-10T10:55:10Z</time>
      </trkpt>
      <trkpt lat="45.73376" lon="4.45992">
        <ele>659</ele>
        <time>2016-04-10T10:55:13Z</time>
      </trkpt>
      <trkpt lat="45.73378" lon="4.45987">
        <ele>661</ele>
        <time>2016-04-10T10:55:16Z</time>
      </trkpt>
      <trkpt lat="45.73382" lon="4.45981">
        <ele>661</ele>
        <time>2016-04-10T10:55:20Z</time>
      </trkpt>
      <trkpt lat="45.73387" lon="4.45979">
        <ele>662</ele>
        <time>2016-04-10T10:55:24Z</time>
      </trkpt>
      <trkpt lat="45.73392" lon="4.45981">
        <ele>662</ele>
        <time>2016-04-10T10:55:29Z</time>
      </trkpt>
      <trkpt lat="45.73396" lon="4.45985">
        <ele>661</ele>
        <time>2016-04-10T10:55:33Z</time>
      </trkpt>
      <trkpt lat="45.73401" lon="4.45986">
        <ele>661</ele>
        <time>2016-04-10T10:55:37Z</time>
      </trkpt>
      <trkpt lat="45.73406" lon="4.45986">
        <ele>660</ele>
        <time>2016-04-10T10:55:41Z</time>
      </trkpt>
      <trkpt lat="45.73411" lon="4.45986">
        <ele>660</ele>
        <time>2016-04-10T10:55:45Z</time>
      </trkpt>
      <trkpt lat="45.73416" lon="4.45983">
        <ele>658</ele>
        <time>2016-04-10T10:55:48Z</time>
      </trkpt>
      <trkpt lat="45.73419" lon="4.45978">
        <ele>660</ele>
        <time>2016-04-10T10:55:52Z</time>
      </trkpt>
      <trkpt lat="45.73418" lon="4.45972">
        <ele>665</ele>
        <time>2016-04-10T10:55:59Z</time>
      </trkpt>
      <trkpt lat="45.73414" lon="4.45965">
        <ele>666</ele>
        <time>2016-04-10T10:56:04Z</time>
      </trkpt>
      <trkpt lat="45.7341" lon="4.45959">
        <ele>667</ele>
        <time>2016-04-10T10:56:08Z</time>
      </trkpt>
      <trkpt lat="45.73406" lon="4.45953">
        <ele>667</ele>
        <time>2016-04-10T10:56:12Z</time>
      </trkpt>
      <trkpt lat="45.73403" lon="4.45947">
        <ele>666</ele>
        <time>2016-04-10T10:56:15Z</time>
      </trkpt>
      <trkpt lat="45.734" lon="4.45941">
        <ele>666</ele>
        <time>2016-04-10T10:56:19Z</time>
      </trkpt>
      <trkpt lat="45.73397" lon="4.45934">
        <ele>665</ele>
        <time>2016-04-10T10:56:23Z</time>
      </trkpt>
      <trkpt lat="45.73394" lon="4.45929">
        <ele>666</ele>
        <time>2016-04-10T10:56:26Z</time>
      </trkpt>
      <trkpt lat="45.73392" lon="4.45923">
        <ele>667</ele>
        <time>2016-04-10T10:56:29Z</time>
      </trkpt>
      <trkpt lat="45.7339" lon="4.45916">
        <ele>666</ele>
        <time>2016-04-10T10:56:33Z</time>
      </trkpt>
      <trkpt lat="45.73388" lon="4.45909">
        <ele>665</ele>
        <time>2016-04-10T10:56:37Z</time>
      </trkpt>
      <trkpt lat="45.73388" lon="4.45901">
        <ele>665</ele>
        <time>2016-04-10T10:56:41Z</time>
      </trkpt>
      <trkpt lat="45.73387" lon="4.45893">
        <ele>664</ele>
        <time>2016-04-10T10:56:45Z</time>
      </trkpt>
      <trkpt lat="45.73385" lon="4.45886">
        <ele>663</ele>
        <time>2016-04-10T10:56:49Z</time>
      </trkpt>
      <trkpt lat="45.73382" lon="4.4588">
        <ele>662</ele>
        <time>2016-04-10T10:56:53Z</time>
      </trkpt>
      <trkpt lat="45.73381" lon="4.45873">
        <ele>661</ele>
        <time>2016-04-10T10:56:57Z</time>
      </trkpt>
      <trkpt lat="45.73378" lon="4.45866">
        <ele>661</ele>
        <time>2016-04-10T10:57:01Z</time>
      </trkpt>
      <trkpt lat="45.73382" lon="4.45861">
        <ele>663</ele>
        <time>2016-04-10T10:57:03Z</time>
      </trkpt>
      <trkpt lat="45.73386" lon="4.45855">
        <ele>664</ele>
        <time>2016-04-10T10:57:05Z</time>
      </trkpt>
      <trkpt lat="45.73382" lon="4.4585">
        <ele>664</ele>
        <time>2016-04-10T10:57:09Z</time>
      </trkpt>
      <trkpt lat="45.73379" lon="4.45843">
        <ele>663</ele>
        <time>2016-04-10T10:57:13Z</time>
      </trkpt>
      <trkpt lat="45.73375" lon="4.45837">
        <ele>661</ele>
        <time>2016-04-10T10:57:17Z</time>
      </trkpt>
      <trkpt lat="45.73373" lon="4.45831">
        <ele>662</ele>
        <time>2016-04-10T10:57:21Z</time>
      </trkpt>
      <trkpt lat="45.73371" lon="4.45825">
        <ele>662</ele>
        <time>2016-04-10T10:57:26Z</time>
      </trkpt>
      <trkpt lat="45.73368" lon="4.45818">
        <ele>662</ele>
        <time>2016-04-10T10:57:30Z</time>
      </trkpt>
      <trkpt lat="45.73367" lon="4.4581">
        <ele>661</ele>
        <time>2016-04-10T10:57:34Z</time>
      </trkpt>
      <trkpt lat="45.73366" lon="4.45803">
        <ele>660</ele>
        <time>2016-04-10T10:57:38Z</time>
      </trkpt>
      <trkpt lat="45.73364" lon="4.45795">
        <ele>659</ele>
        <time>2016-04-10T10:57:42Z</time>
      </trkpt>
      <trkpt lat="45.73362" lon="4.45789">
        <ele>660</ele>
        <time>2016-04-10T10:57:46Z</time>
      </trkpt>
      <trkpt lat="45.73361" lon="4.45781">
        <ele>660</ele>
        <time>2016-04-10T10:57:50Z</time>
      </trkpt>
      <trkpt lat="45.73361" lon="4.45773">
        <ele>660</ele>
        <time>2016-04-10T10:57:54Z</time>
      </trkpt>
      <trkpt lat="45.7336" lon="4.45765">
        <ele>660</ele>
        <time>2016-04-10T10:57:59Z</time>
      </trkpt>
      <trkpt lat="45.7336" lon="4.45758">
        <ele>660</ele>
        <time>2016-04-10T10:58:03Z</time>
      </trkpt>
      <trkpt lat="45.7336" lon="4.45749">
        <ele>660</ele>
        <time>2016-04-10T10:58:07Z</time>
      </trkpt>
      <trkpt lat="45.73362" lon="4.45743">
        <ele>661</ele>
        <time>2016-04-10T10:58:11Z</time>
      </trkpt>
      <trkpt lat="45.73364" lon="4.45736">
        <ele>662</ele>
        <time>2016-04-10T10:58:15Z</time>
      </trkpt>
      <trkpt lat="45.73364" lon="4.45729">
        <ele>662</ele>
        <time>2016-04-10T10:58:18Z</time>
      </trkpt>
      <trkpt lat="45.73365" lon="4.45723">
        <ele>662</ele>
        <time>2016-04-10T10:58:22Z</time>
      </trkpt>
      <trkpt lat="45.73368" lon="4.45717">
        <ele>664</ele>
        <time>2016-04-10T10:58:27Z</time>
      </trkpt>
      <trkpt lat="45.73369" lon="4.4571">
        <ele>665</ele>
        <time>2016-04-10T10:58:31Z</time>
      </trkpt>
      <trkpt lat="45.7337" lon="4.45702">
        <ele>665</ele>
        <time>2016-04-10T10:58:35Z</time>
      </trkpt>
      <trkpt lat="45.73372" lon="4.45695">
        <ele>664</ele>
        <time>2016-04-10T10:58:39Z</time>
      </trkpt>
      <trkpt lat="45.73374" lon="4.45685">
        <ele>665</ele>
        <time>2016-04-10T10:58:44Z</time>
      </trkpt>
      <trkpt lat="45.73376" lon="4.45679">
        <ele>664</ele>
        <time>2016-04-10T10:58:46Z</time>
      </trkpt>
      <trkpt lat="45.73376" lon="4.45672">
        <ele>665</ele>
        <time>2016-04-10T10:58:50Z</time>
      </trkpt>
      <trkpt lat="45.73375" lon="4.45665">
        <ele>665</ele>
        <time>2016-04-10T10:58:55Z</time>
      </trkpt>
      <trkpt lat="45.73375" lon="4.45657">
        <ele>664</ele>
        <time>2016-04-10T10:58:57Z</time>
      </trkpt>
      <trkpt lat="45.73373" lon="4.4565">
        <ele>664</ele>
        <time>2016-04-10T10:59:00Z</time>
      </trkpt>
      <trkpt lat="45.73372" lon="4.45642">
        <ele>664</ele>
        <time>2016-04-10T10:59:04Z</time>
      </trkpt>
      <trkpt lat="45.7337" lon="4.45635">
        <ele>663</ele>
        <time>2016-04-10T10:59:08Z</time>
      </trkpt>
      <trkpt lat="45.73368" lon="4.45626">
        <ele>663</ele>
        <time>2016-04-10T10:59:13Z</time>
      </trkpt>
      <trkpt lat="45.73369" lon="4.45618">
        <ele>662</ele>
        <time>2016-04-10T10:59:18Z</time>
      </trkpt>
      <trkpt lat="45.73368" lon="4.45612">
        <ele>662</ele>
        <time>2016-04-10T10:59:21Z</time>
      </trkpt>
      <trkpt lat="45.73366" lon="4.45606">
        <ele>664</ele>
        <time>2016-04-10T10:59:24Z</time>
      </trkpt>
      <trkpt lat="45.73365" lon="4.45599">
        <ele>665</ele>
        <time>2016-04-10T10:59:28Z</time>
      </trkpt>
      <trkpt lat="45.73366" lon="4.4559">
        <ele>665</ele>
        <time>2016-04-10T10:59:33Z</time>
      </trkpt>
      <trkpt lat="45.73365" lon="4.45584">
        <ele>664</ele>
        <time>2016-04-10T10:59:37Z</time>
      </trkpt>
      <trkpt lat="45.73364" lon="4.45577">
        <ele>665</ele>
        <time>2016-04-10T10:59:41Z</time>
      </trkpt>
      <trkpt lat="45.73364" lon="4.45571">
        <ele>666</ele>
        <time>2016-04-10T10:59:44Z</time>
      </trkpt>
      <trkpt lat="45.73363" lon="4.45563">
        <ele>667</ele>
        <time>2016-04-10T10:59:49Z</time>
      </trkpt>
      <trkpt lat="45.73364" lon="4.45557">
        <ele>668</ele>
        <time>2016-04-10T10:59:53Z</time>
      </trkpt>
      <trkpt lat="45.73364" lon="4.4555">
        <ele>668</ele>
        <time>2016-04-10T10:59:56Z</time>
      </trkpt>
      <trkpt lat="45.73365" lon="4.45542">
        <ele>669</ele>
        <time>2016-04-10T11:00:01Z</time>
      </trkpt>
      <trkpt lat="45.73365" lon="4.45534">
        <ele>669</ele>
        <time>2016-04-10T11:00:05Z</time>
      </trkpt>
      <trkpt lat="45.73364" lon="4.45527">
        <ele>669</ele>
        <time>2016-04-10T11:00:10Z</time>
      </trkpt>
      <trkpt lat="45.73365" lon="4.4552">
        <ele>670</ele>
        <time>2016-04-10T11:00:16Z</time>
      </trkpt>
      <trkpt lat="45.73365" lon="4.45513">
        <ele>670</ele>
        <time>2016-04-10T11:00:19Z</time>
      </trkpt>
      <trkpt lat="45.73364" lon="4.45507">
        <ele>670</ele>
        <time>2016-04-10T11:00:22Z</time>
      </trkpt>
      <trkpt lat="45.73364" lon="4.45499">
        <ele>668</ele>
        <time>2016-04-10T11:00:30Z</time>
      </trkpt>
      <trkpt lat="45.73363" lon="4.45493">
        <ele>669</ele>
        <time>2016-04-10T11:00:34Z</time>
      </trkpt>
      <trkpt lat="45.73362" lon="4.45485">
        <ele>668</ele>
        <time>2016-04-10T11:00:37Z</time>
      </trkpt>
      <trkpt lat="45.73362" lon="4.45479">
        <ele>670</ele>
        <time>2016-04-10T11:00:41Z</time>
      </trkpt>
      <trkpt lat="45.73361" lon="4.45471">
        <ele>670</ele>
        <time>2016-04-10T11:00:44Z</time>
      </trkpt>
      <trkpt lat="45.73359" lon="4.45464">
        <ele>671</ele>
        <time>2016-04-10T11:00:49Z</time>
      </trkpt>
      <trkpt lat="45.73358" lon="4.45457">
        <ele>672</ele>
        <time>2016-04-10T11:00:54Z</time>
      </trkpt>
      <trkpt lat="45.73357" lon="4.4545">
        <ele>673</ele>
        <time>2016-04-10T11:00:58Z</time>
      </trkpt>
      <trkpt lat="45.73355" lon="4.45443">
        <ele>674</ele>
        <time>2016-04-10T11:01:03Z</time>
      </trkpt>
      <trkpt lat="45.73354" lon="4.45437">
        <ele>675</ele>
        <time>2016-04-10T11:01:07Z</time>
      </trkpt>
      <trkpt lat="45.73352" lon="4.45429">
        <ele>676</ele>
        <time>2016-04-10T11:01:10Z</time>
      </trkpt>
      <trkpt lat="45.73351" lon="4.45423">
        <ele>676</ele>
        <time>2016-04-10T11:01:14Z</time>
      </trkpt>
      <trkpt lat="45.73351" lon="4.45416">
        <ele>677</ele>
        <time>2016-04-10T11:01:20Z</time>
      </trkpt>
      <trkpt lat="45.7335" lon="4.45408">
        <ele>678</ele>
        <time>2016-04-10T11:01:25Z</time>
      </trkpt>
      <trkpt lat="45.7335" lon="4.454">
        <ele>677</ele>
        <time>2016-04-10T11:01:29Z</time>
      </trkpt>
      <trkpt lat="45.7335" lon="4.45392">
        <ele>677</ele>
        <time>2016-04-10T11:01:33Z</time>
      </trkpt>
      <trkpt lat="45.73349" lon="4.45385">
        <ele>678</ele>
        <time>2016-04-10T11:01:38Z</time>
      </trkpt>
      <trkpt lat="45.73347" lon="4.45379">
        <ele>679</ele>
        <time>2016-04-10T11:01:42Z</time>
      </trkpt>
      <trkpt lat="45.73346" lon="4.45372">
        <ele>679</ele>
        <time>2016-04-10T11:01:47Z</time>
      </trkpt>
      <trkpt lat="45.73345" lon="4.45366">
        <ele>680</ele>
        <time>2016-04-10T11:01:52Z</time>
      </trkpt>
      <trkpt lat="45.73342" lon="4.45358">
        <ele>682</ele>
        <time>2016-04-10T11:01:57Z</time>
      </trkpt>
      <trkpt lat="45.73339" lon="4.45352">
        <ele>684</ele>
        <time>2016-04-10T11:02:02Z</time>
      </trkpt>
      <trkpt lat="45.73336" lon="4.45346">
        <ele>683</ele>
        <time>2016-04-10T11:02:06Z</time>
      </trkpt>
      <trkpt lat="45.73333" lon="4.45339">
        <ele>685</ele>
        <time>2016-04-10T11:02:11Z</time>
      </trkpt>
      <trkpt lat="45.7333" lon="4.45333">
        <ele>686</ele>
        <time>2016-04-10T11:02:16Z</time>
      </trkpt>
      <trkpt lat="45.73327" lon="4.45327">
        <ele>688</ele>
        <time>2016-04-10T11:02:20Z</time>
      </trkpt>
      <trkpt lat="45.73323" lon="4.45323">
        <ele>688</ele>
        <time>2016-04-10T11:02:24Z</time>
      </trkpt>
      <trkpt lat="45.73319" lon="4.45316">
        <ele>688</ele>
        <time>2016-04-10T11:02:28Z</time>
      </trkpt>
      <trkpt lat="45.73317" lon="4.4531">
        <ele>689</ele>
        <time>2016-04-10T11:02:33Z</time>
      </trkpt>
      <trkpt lat="45.73315" lon="4.45304">
        <ele>689</ele>
        <time>2016-04-10T11:02:37Z</time>
      </trkpt>
      <trkpt lat="45.73312" lon="4.45298">
        <ele>689</ele>
        <time>2016-04-10T11:02:40Z</time>
      </trkpt>
      <trkpt lat="45.73308" lon="4.45292">
        <ele>690</ele>
        <time>2016-04-10T11:02:44Z</time>
      </trkpt>
      <trkpt lat="45.73306" lon="4.45286">
        <ele>690</ele>
        <time>2016-04-10T11:02:50Z</time>
      </trkpt>
      <trkpt lat="45.73302" lon="4.45282">
        <ele>691</ele>
        <time>2016-04-10T11:02:54Z</time>
      </trkpt>
      <trkpt lat="45.733" lon="4.45276">
        <ele>692</ele>
        <time>2016-04-10T11:03:00Z</time>
      </trkpt>
      <trkpt lat="45.73296" lon="4.45271">
        <ele>695</ele>
        <time>2016-04-10T11:03:06Z</time>
      </trkpt>
      <trkpt lat="45.73293" lon="4.45266">
        <ele>697</ele>
        <time>2016-04-10T11:03:11Z</time>
      </trkpt>
      <trkpt lat="45.73292" lon="4.4526">
        <ele>697</ele>
        <time>2016-04-10T11:03:15Z</time>
      </trkpt>
      <trkpt lat="45.7329" lon="4.45254">
        <ele>698</ele>
        <time>2016-04-10T11:03:19Z</time>
      </trkpt>
      <trkpt lat="45.73287" lon="4.45248">
        <ele>699</ele>
        <time>2016-04-10T11:03:24Z</time>
      </trkpt>
      <trkpt lat="45.73284" lon="4.45242">
        <ele>701</ele>
        <time>2016-04-10T11:03:30Z</time>
      </trkpt>
      <trkpt lat="45.73283" lon="4.45235">
        <ele>703</ele>
        <time>2016-04-10T11:03:35Z</time>
      </trkpt>
      <trkpt lat="45.73279" lon="4.45232">
        <ele>703</ele>
        <time>2016-04-10T11:03:39Z</time>
      </trkpt>
      <trkpt lat="45.73275" lon="4.45225">
        <ele>703</ele>
        <time>2016-04-10T11:03:43Z</time>
      </trkpt>
      <trkpt lat="45.73272" lon="4.45219">
        <ele>704</ele>
        <time>2016-04-10T11:03:48Z</time>
      </trkpt>
      <trkpt lat="45.73269" lon="4.45214">
        <ele>704</ele>
        <time>2016-04-10T11:03:52Z</time>
      </trkpt>
      <trkpt lat="45.73266" lon="4.45209">
        <ele>706</ele>
        <time>2016-04-10T11:03:56Z</time>
      </trkpt>
      <trkpt lat="45.73262" lon="4.45204">
        <ele>706</ele>
        <time>2016-04-10T11:04:00Z</time>
      </trkpt>
      <trkpt lat="45.73259" lon="4.45199">
        <ele>705</ele>
        <time>2016-04-10T11:04:04Z</time>
      </trkpt>
      <trkpt lat="45.73256" lon="4.45193">
        <ele>706</ele>
        <time>2016-04-10T11:04:09Z</time>
      </trkpt>
      <trkpt lat="45.73253" lon="4.45188">
        <ele>706</ele>
        <time>2016-04-10T11:04:13Z</time>
      </trkpt>
      <trkpt lat="45.73249" lon="4.45183">
        <ele>707</ele>
        <time>2016-04-10T11:04:18Z</time>
      </trkpt>
      <trkpt lat="45.73246" lon="4.45179">
        <ele>707</ele>
        <time>2016-04-10T11:04:22Z</time>
      </trkpt>
      <trkpt lat="45.73241" lon="4.45173">
        <ele>707</ele>
        <time>2016-04-10T11:04:26Z</time>
      </trkpt>
      <trkpt lat="45.73238" lon="4.45167">
        <ele>708</ele>
        <time>2016-04-10T11:04:31Z</time>
      </trkpt>
      <trkpt lat="45.73235" lon="4.45161">
        <ele>709</ele>
        <time>2016-04-10T11:04:37Z</time>
      </trkpt>
      <trkpt lat="45.73232" lon="4.45155">
        <ele>709</ele>
        <time>2016-04-10T11:04:42Z</time>
      </trkpt>
      <trkpt lat="45.7323" lon="4.45149">
        <ele>710</ele>
        <time>2016-04-10T11:04:47Z</time>
      </trkpt>
      <trkpt lat="45.73228" lon="4.45143">
        <ele>710</ele>
        <time>2016-04-10T11:04:52Z</time>
      </trkpt>
      <trkpt lat="45.73226" lon="4.45136">
        <ele>709</ele>
        <time>2016-04-10T11:04:58Z</time>
      </trkpt>
      <trkpt lat="45.73225" lon="4.4513">
        <ele>710</ele>
        <time>2016-04-10T11:05:03Z</time>
      </trkpt>
      <trkpt lat="45.73224" lon="4.45122">
        <ele>714</ele>
        <time>2016-04-10T11:05:09Z</time>
      </trkpt>
      <trkpt lat="45.73222" lon="4.45115">
        <ele>713</ele>
        <time>2016-04-10T11:05:13Z</time>
      </trkpt>
      <trkpt lat="45.73219" lon="4.45111">
        <ele>712</ele>
        <time>2016-04-10T11:05:16Z</time>
      </trkpt>
      <trkpt lat="45.73216" lon="4.45105">
        <ele>711</ele>
        <time>2016-04-10T11:05:19Z</time>
      </trkpt>
      <trkpt lat="45.73213" lon="4.45099">
        <ele>711</ele>
        <time>2016-04-10T11:05:25Z</time>
      </trkpt>
      <trkpt lat="45.7321" lon="4.45093">
        <ele>711</ele>
        <time>2016-04-10T11:05:30Z</time>
      </trkpt>
      <trkpt lat="45.73207" lon="4.45088">
        <ele>711</ele>
        <time>2016-04-10T11:05:35Z</time>
      </trkpt>
      <trkpt lat="45.73204" lon="4.45083">
        <ele>712</ele>
        <time>2016-04-10T11:05:39Z</time>
      </trkpt>
      <trkpt lat="45.732" lon="4.45077">
        <ele>711</ele>
        <time>2016-04-10T11:05:43Z</time>
      </trkpt>
      <trkpt lat="45.73197" lon="4.45072">
        <ele>712</ele>
        <time>2016-04-10T11:05:47Z</time>
      </trkpt>
      <trkpt lat="45.73194" lon="4.45067">
        <ele>711</ele>
        <time>2016-04-10T11:05:50Z</time>
      </trkpt>
      <trkpt lat="45.73192" lon="4.45061">
        <ele>710</ele>
        <time>2016-04-10T11:05:54Z</time>
      </trkpt>
      <trkpt lat="45.73191" lon="4.45054">
        <ele>710</ele>
        <time>2016-04-10T11:05:59Z</time>
      </trkpt>
      <trkpt lat="45.7319" lon="4.45047">
        <ele>710</ele>
        <time>2016-04-10T11:06:03Z</time>
      </trkpt>
      <trkpt lat="45.73188" lon="4.4504">
        <ele>709</ele>
        <time>2016-04-10T11:06:07Z</time>
      </trkpt>
      <trkpt lat="45.73188" lon="4.45032">
        <ele>709</ele>
        <time>2016-04-10T11:06:12Z</time>
      </trkpt>
      <trkpt lat="45.73187" lon="4.45026">
        <ele>707</ele>
        <time>2016-04-10T11:06:15Z</time>
      </trkpt>
      <trkpt lat="45.73188" lon="4.45019">
        <ele>706</ele>
        <time>2016-04-10T11:06:20Z</time>
      </trkpt>
      <trkpt lat="45.73188" lon="4.45012">
        <ele>707</ele>
        <time>2016-04-10T11:06:25Z</time>
      </trkpt>
      <trkpt lat="45.7319" lon="4.45005">
        <ele>709</ele>
        <time>2016-04-10T11:06:30Z</time>
      </trkpt>
      <trkpt lat="45.7319" lon="4.44998">
        <ele>709</ele>
        <time>2016-04-10T11:06:35Z</time>
      </trkpt>
      <trkpt lat="45.73189" lon="4.4499">
        <ele>707</ele>
        <time>2016-04-10T11:06:40Z</time>
      </trkpt>
      <trkpt lat="45.73189" lon="4.44983">
        <ele>707</ele>
        <time>2016-04-10T11:06:44Z</time>
      </trkpt>
      <trkpt lat="45.73189" lon="4.44975">
        <ele>707</ele>
        <time>2016-04-10T11:06:48Z</time>
      </trkpt>
      <trkpt lat="45.73189" lon="4.44968">
        <ele>708</ele>
        <time>2016-04-10T11:06:53Z</time>
      </trkpt>
      <trkpt lat="45.73188" lon="4.4496">
        <ele>707</ele>
        <time>2016-04-10T11:06:57Z</time>
      </trkpt>
      <trkpt lat="45.73188" lon="4.44951">
        <ele>706</ele>
        <time>2016-04-10T11:07:01Z</time>
      </trkpt>
      <trkpt lat="45.73188" lon="4.44943">
        <ele>706</ele>
        <time>2016-04-10T11:07:03Z</time>
      </trkpt>
      <trkpt lat="45.73188" lon="4.44936">
        <ele>706</ele>
        <time>2016-04-10T11:07:07Z</time>
      </trkpt>
      <trkpt lat="45.73188" lon="4.44928">
        <ele>705</ele>
        <time>2016-04-10T11:07:11Z</time>
      </trkpt>
      <trkpt lat="45.73189" lon="4.4492">
        <ele>704</ele>
        <time>2016-04-10T11:07:15Z</time>
      </trkpt>
      <trkpt lat="45.73191" lon="4.44913">
        <ele>702</ele>
        <time>2016-04-10T11:07:17Z</time>
      </trkpt>
      <trkpt lat="45.73193" lon="4.44906">
        <ele>701</ele>
        <time>2016-04-10T11:07:21Z</time>
      </trkpt>
      <trkpt lat="45.73194" lon="4.44899">
        <ele>701</ele>
        <time>2016-04-10T11:07:25Z</time>
      </trkpt>
      <trkpt lat="45.73196" lon="4.44891">
        <ele>701</ele>
        <time>2016-04-10T11:07:29Z</time>
      </trkpt>
      <trkpt lat="45.73197" lon="4.44885">
        <ele>701</ele>
        <time>2016-04-10T11:07:33Z</time>
      </trkpt>
      <trkpt lat="45.73198" lon="4.44877">
        <ele>701</ele>
        <time>2016-04-10T11:07:37Z</time>
      </trkpt>
      <trkpt lat="45.73197" lon="4.44868">
        <ele>700</ele>
        <time>2016-04-10T11:07:41Z</time>
      </trkpt>
      <trkpt lat="45.73198" lon="4.44861">
        <ele>703</ele>
        <time>2016-04-10T11:07:47Z</time>
      </trkpt>
      <trkpt lat="45.73198" lon="4.44854">
        <ele>701</ele>
        <time>2016-04-10T11:07:50Z</time>
      </trkpt>
      <trkpt lat="45.73199" lon="4.44847">
        <ele>702</ele>
        <time>2016-04-10T11:07:54Z</time>
      </trkpt>
      <trkpt lat="45.73199" lon="4.44841">
        <ele>700</ele>
        <time>2016-04-10T11:07:56Z</time>
      </trkpt>
      <trkpt lat="45.73198" lon="4.4483">
        <ele>698</ele>
        <time>2016-04-10T11:08:05Z</time>
      </trkpt>
      <trkpt lat="45.73198" lon="4.44823">
        <ele>697</ele>
        <time>2016-04-10T11:08:07Z</time>
      </trkpt>
      <trkpt lat="45.73199" lon="4.44815">
        <ele>696</ele>
        <time>2016-04-10T11:08:11Z</time>
      </trkpt>
      <trkpt lat="45.73198" lon="4.44807">
        <ele>699</ele>
        <time>2016-04-10T11:08:16Z</time>
      </trkpt>
      <trkpt lat="45.73198" lon="4.448">
        <ele>700</ele>
        <time>2016-04-10T11:08:20Z</time>
      </trkpt>
      <trkpt lat="45.73197" lon="4.44793">
        <ele>700</ele>
        <time>2016-04-10T11:08:24Z</time>
      </trkpt>
      <trkpt lat="45.73196" lon="4.44784">
        <ele>699</ele>
        <time>2016-04-10T11:08:27Z</time>
      </trkpt>
      <trkpt lat="45.73197" lon="4.44778">
        <ele>698</ele>
        <time>2016-04-10T11:08:30Z</time>
      </trkpt>
      <trkpt lat="45.73198" lon="4.44771">
        <ele>699</ele>
        <time>2016-04-10T11:08:35Z</time>
      </trkpt>
      <trkpt lat="45.73197" lon="4.44764">
        <ele>697</ele>
        <time>2016-04-10T11:08:38Z</time>
      </trkpt>
      <trkpt lat="45.73196" lon="4.44757">
        <ele>697</ele>
        <time>2016-04-10T11:08:42Z</time>
      </trkpt>
      <trkpt lat="45.73197" lon="4.44749">
        <ele>697</ele>
        <time>2016-04-10T11:08:47Z</time>
      </trkpt>
      <trkpt lat="45.73198" lon="4.44741">
        <ele>696</ele>
        <time>2016-04-10T11:08:50Z</time>
      </trkpt>
      <trkpt lat="45.73199" lon="4.44733">
        <ele>696</ele>
        <time>2016-04-10T11:08:54Z</time>
      </trkpt>
      <trkpt lat="45.73199" lon="4.44727">
        <ele>696</ele>
        <time>2016-04-10T11:08:58Z</time>
      </trkpt>
      <trkpt lat="45.732" lon="4.44719">
        <ele>696</ele>
        <time>2016-04-10T11:09:02Z</time>
      </trkpt>
      <trkpt lat="45.73201" lon="4.44713">
        <ele>697</ele>
        <time>2016-04-10T11:09:06Z</time>
      </trkpt>
      <trkpt lat="45.73201" lon="4.44705">
        <ele>697</ele>
        <time>2016-04-10T11:09:09Z</time>
      </trkpt>
      <trkpt lat="45.732" lon="4.44697">
        <ele>696</ele>
        <time>2016-04-10T11:09:13Z</time>
      </trkpt>
      <trkpt lat="45.73199" lon="4.4469">
        <ele>695</ele>
        <time>2016-04-10T11:09:16Z</time>
      </trkpt>
      <trkpt lat="45.73198" lon="4.44683">
        <ele>695</ele>
        <time>2016-04-10T11:09:20Z</time>
      </trkpt>
      <trkpt lat="45.73196" lon="4.44677">
        <ele>696</ele>
        <time>2016-04-10T11:09:24Z</time>
      </trkpt>
      <trkpt lat="45.73195" lon="4.44669">
        <ele>698</ele>
        <time>2016-04-10T11:09:29Z</time>
      </trkpt>
      <trkpt lat="45.73193" lon="4.44661">
        <ele>698</ele>
        <time>2016-04-10T11:09:33Z</time>
      </trkpt>
      <trkpt lat="45.73191" lon="4.44656">
        <ele>697</ele>
        <time>2016-04-10T11:09:36Z</time>
      </trkpt>
      <trkpt lat="45.7319" lon="4.44649">
        <ele>698</ele>
        <time>2016-04-10T11:09:40Z</time>
      </trkpt>
      <trkpt lat="45.73189" lon="4.44641">
        <ele>698</ele>
        <time>2016-04-10T11:09:44Z</time>
      </trkpt>
      <trkpt lat="45.73188" lon="4.44632">
        <ele>698</ele>
        <time>2016-04-10T11:09:49Z</time>
      </trkpt>
      <trkpt lat="45.73186" lon="4.44625">
        <ele>700</ele>
        <time>2016-04-10T11:09:53Z</time>
      </trkpt>
      <trkpt lat="45.73185" lon="4.44617">
        <ele>702</ele>
        <time>2016-04-10T11:09:58Z</time>
      </trkpt>
      <trkpt lat="45.73184" lon="4.44609">
        <ele>701</ele>
        <time>2016-04-10T11:10:02Z</time>
      </trkpt>
      <trkpt lat="45.73183" lon="4.44601">
        <ele>700</ele>
        <time>2016-04-10T11:10:06Z</time>
      </trkpt>
      <trkpt lat="45.73181" lon="4.44594">
        <ele>702</ele>
        <time>2016-04-10T11:10:10Z</time>
      </trkpt>
      <trkpt lat="45.73181" lon="4.44587">
        <ele>703</ele>
        <time>2016-04-10T11:10:14Z</time>
      </trkpt>
      <trkpt lat="45.73181" lon="4.4458">
        <ele>703</ele>
        <time>2016-04-10T11:10:17Z</time>
      </trkpt>
      <trkpt lat="45.73182" lon="4.44573">
        <ele>703</ele>
        <time>2016-04-10T11:10:20Z</time>
      </trkpt>
      <trkpt lat="45.73183" lon="4.44565">
        <ele>703</ele>
        <time>2016-04-10T11:10:25Z</time>
      </trkpt>
      <trkpt lat="45.73183" lon="4.44559">
        <ele>705</ele>
        <time>2016-04-10T11:10:30Z</time>
      </trkpt>
      <trkpt lat="45.73184" lon="4.44552">
        <ele>705</ele>
        <time>2016-04-10T11:10:34Z</time>
      </trkpt>
      <trkpt lat="45.73184" lon="4.44545">
        <ele>703</ele>
        <time>2016-04-10T11:10:36Z</time>
      </trkpt>
      <trkpt lat="45.73184" lon="4.44536">
        <ele>703</ele>
        <time>2016-04-10T11:10:41Z</time>
      </trkpt>
      <trkpt lat="45.73185" lon="4.44529">
        <ele>703</ele>
        <time>2016-04-10T11:10:46Z</time>
      </trkpt>
      <trkpt lat="45.73186" lon="4.44523">
        <ele>703</ele>
        <time>2016-04-10T11:10:50Z</time>
      </trkpt>
      <trkpt lat="45.73188" lon="4.44516">
        <ele>704</ele>
        <time>2016-04-10T11:10:54Z</time>
      </trkpt>
      <trkpt lat="45.7319" lon="4.4451">
        <ele>705</ele>
        <time>2016-04-10T11:10:57Z</time>
      </trkpt>
      <trkpt lat="45.73192" lon="4.44504">
        <ele>707</ele>
        <time>2016-04-10T11:11:02Z</time>
      </trkpt>
      <trkpt lat="45.73194" lon="4.44498">
        <ele>707</ele>
        <time>2016-04-10T11:11:06Z</time>
      </trkpt>
      <trkpt lat="45.73191" lon="4.44491">
        <ele>708</ele>
        <time>2016-04-10T11:11:10Z</time>
      </trkpt>
      <trkpt lat="45.73187" lon="4.44486">
        <ele>708</ele>
        <time>2016-04-10T11:11:13Z</time>
      </trkpt>
      <trkpt lat="45.73183" lon="4.44481">
        <ele>708</ele>
        <time>2016-04-10T11:11:17Z</time>
      </trkpt>
      <trkpt lat="45.7318" lon="4.44477">
        <ele>708</ele>
        <time>2016-04-10T11:11:20Z</time>
      </trkpt>
      <trkpt lat="45.73177" lon="4.44472">
        <ele>708</ele>
        <time>2016-04-10T11:11:23Z</time>
      </trkpt>
      <trkpt lat="45.73173" lon="4.44466">
        <ele>709</ele>
        <time>2016-04-10T11:11:27Z</time>
      </trkpt>
      <trkpt lat="45.73169" lon="4.4446">
        <ele>709</ele>
        <time>2016-04-10T11:11:31Z</time>
      </trkpt>
      <trkpt lat="45.73166" lon="4.44455">
        <ele>710</ele>
        <time>2016-04-10T11:11:34Z</time>
      </trkpt>
      <trkpt lat="45.73163" lon="4.4445">
        <ele>709</ele>
        <time>2016-04-10T11:11:37Z</time>
      </trkpt>
      <trkpt lat="45.73159" lon="4.44446">
        <ele>707</ele>
        <time>2016-04-10T11:11:41Z</time>
      </trkpt>
      <trkpt lat="45.73154" lon="4.4444">
        <ele>706</ele>
        <time>2016-04-10T11:11:45Z</time>
      </trkpt>
      <trkpt lat="45.7315" lon="4.44436">
        <ele>706</ele>
        <time>2016-04-10T11:11:50Z</time>
      </trkpt>
      <trkpt lat="45.73145" lon="4.44434">
        <ele>704</ele>
        <time>2016-04-10T11:11:53Z</time>
      </trkpt>
      <trkpt lat="45.73141" lon="4.44429">
        <ele>706</ele>
        <time>2016-04-10T11:11:57Z</time>
      </trkpt>
      <trkpt lat="45.73136" lon="4.44425">
        <ele>706</ele>
        <time>2016-04-10T11:12:01Z</time>
      </trkpt>
      <trkpt lat="45.73132" lon="4.44419">
        <ele>706</ele>
        <time>2016-04-10T11:12:05Z</time>
      </trkpt>
      <trkpt lat="45.73128" lon="4.44413">
        <ele>706</ele>
        <time>2016-04-10T11:12:09Z</time>
      </trkpt>
      <trkpt lat="45.73124" lon="4.44408">
        <ele>705</ele>
        <time>2016-04-10T11:12:13Z</time>
      </trkpt>
      <trkpt lat="45.73122" lon="4.44402">
        <ele>707</ele>
        <time>2016-04-10T11:12:17Z</time>
      </trkpt>
      <trkpt lat="45.73119" lon="4.44396">
        <ele>708</ele>
        <time>2016-04-10T11:12:20Z</time>
      </trkpt>
      <trkpt lat="45.73115" lon="4.4439">
        <ele>708</ele>
        <time>2016-04-10T11:12:24Z</time>
      </trkpt>
      <trkpt lat="45.73111" lon="4.44385">
        <ele>708</ele>
        <time>2016-04-10T11:12:29Z</time>
      </trkpt>
      <trkpt lat="45.73109" lon="4.44379">
        <ele>710</ele>
        <time>2016-04-10T11:12:33Z</time>
      </trkpt>
      <trkpt lat="45.73106" lon="4.44374">
        <ele>709</ele>
        <time>2016-04-10T11:12:36Z</time>
      </trkpt>
      <trkpt lat="45.73101" lon="4.44371">
        <ele>706</ele>
        <time>2016-04-10T11:12:38Z</time>
      </trkpt>
      <trkpt lat="45.73097" lon="4.44367">
        <ele>704</ele>
        <time>2016-04-10T11:12:40Z</time>
      </trkpt>
      <trkpt lat="45.73094" lon="4.4436">
        <ele>703</ele>
        <time>2016-04-10T11:12:44Z</time>
      </trkpt>
      <trkpt lat="45.7309" lon="4.44356">
        <ele>701</ele>
        <time>2016-04-10T11:12:48Z</time>
      </trkpt>
      <trkpt lat="45.73086" lon="4.44349">
        <ele>700</ele>
        <time>2016-04-10T11:12:52Z</time>
      </trkpt>
      <trkpt lat="45.73083" lon="4.44343">
        <ele>699</ele>
        <time>2016-04-10T11:12:55Z</time>
      </trkpt>
      <trkpt lat="45.73079" lon="4.44338">
        <ele>698</ele>
        <time>2016-04-10T11:12:59Z</time>
      </trkpt>
      <trkpt lat="45.73075" lon="4.44333">
        <ele>698</ele>
        <time>2016-04-10T11:13:03Z</time>
      </trkpt>
      <trkpt lat="45.73072" lon="4.44327">
        <ele>697</ele>
        <time>2016-04-10T11:13:06Z</time>
      </trkpt>
      <trkpt lat="45.73069" lon="4.44322">
        <ele>696</ele>
        <time>2016-04-10T11:13:09Z</time>
      </trkpt>
      <trkpt lat="45.73065" lon="4.44315">
        <ele>695</ele>
        <time>2016-04-10T11:13:13Z</time>
      </trkpt>
      <trkpt lat="45.73061" lon="4.4431">
        <ele>694</ele>
        <time>2016-04-10T11:13:17Z</time>
      </trkpt>
      <trkpt lat="45.73056" lon="4.44304">
        <ele>694</ele>
        <time>2016-04-10T11:13:21Z</time>
      </trkpt>
      <trkpt lat="45.73052" lon="4.44298">
        <ele>693</ele>
        <time>2016-04-10T11:13:25Z</time>
      </trkpt>
      <trkpt lat="45.73048" lon="4.44293">
        <ele>693</ele>
        <time>2016-04-10T11:13:29Z</time>
      </trkpt>
      <trkpt lat="45.73044" lon="4.4429">
        <ele>692</ele>
        <time>2016-04-10T11:13:32Z</time>
      </trkpt>
      <trkpt lat="45.73041" lon="4.44284">
        <ele>690</ele>
        <time>2016-04-10T11:13:36Z</time>
      </trkpt>
      <trkpt lat="45.73037" lon="4.44279">
        <ele>689</ele>
        <time>2016-04-10T11:13:40Z</time>
      </trkpt>
      <trkpt lat="45.73034" lon="4.44274">
        <ele>689</ele>
        <time>2016-04-10T11:13:44Z</time>
      </trkpt>
      <trkpt lat="45.7303" lon="4.44268">
        <ele>690</ele>
        <time>2016-04-10T11:13:49Z</time>
      </trkpt>
      <trkpt lat="45.73025" lon="4.44265">
        <ele>690</ele>
        <time>2016-04-10T11:13:53Z</time>
      </trkpt>
      <trkpt lat="45.7302" lon="4.44264">
        <ele>690</ele>
        <time>2016-04-10T11:13:57Z</time>
      </trkpt>
      <trkpt lat="45.73015" lon="4.44264">
        <ele>691</ele>
        <time>2016-04-10T11:14:01Z</time>
      </trkpt>
      <trkpt lat="45.73009" lon="4.44264">
        <ele>692</ele>
        <time>2016-04-10T11:14:06Z</time>
      </trkpt>
      <trkpt lat="45.73004" lon="4.44265">
        <ele>693</ele>
        <time>2016-04-10T11:14:10Z</time>
      </trkpt>
      <trkpt lat="45.73" lon="4.44267">
        <ele>692</ele>
        <time>2016-04-10T11:14:13Z</time>
      </trkpt>
      <trkpt lat="45.72995" lon="4.44267">
        <ele>693</ele>
        <time>2016-04-10T11:14:18Z</time>
      </trkpt>
      <trkpt lat="45.7299" lon="4.44267">
        <ele>694</ele>
        <time>2016-04-10T11:14:23Z</time>
      </trkpt>
      <trkpt lat="45.72986" lon="4.44271">
        <ele>693</ele>
        <time>2016-04-10T11:14:26Z</time>
      </trkpt>
      <trkpt lat="45.72981" lon="4.44273">
        <ele>692</ele>
        <time>2016-04-10T11:14:29Z</time>
      </trkpt>
      <trkpt lat="45.72978" lon="4.44277">
        <ele>689</ele>
        <time>2016-04-10T11:14:32Z</time>
      </trkpt>
      <trkpt lat="45.72973" lon="4.44278">
        <ele>688</ele>
        <time>2016-04-10T11:14:36Z</time>
      </trkpt>
      <trkpt lat="45.72968" lon="4.4428">
        <ele>688</ele>
        <time>2016-04-10T11:14:40Z</time>
      </trkpt>
      <trkpt lat="45.72963" lon="4.44282">
        <ele>688</ele>
        <time>2016-04-10T11:14:44Z</time>
      </trkpt>
      <trkpt lat="45.72957" lon="4.44285">
        <ele>689</ele>
        <time>2016-04-10T11:14:48Z</time>
      </trkpt>
      <trkpt lat="45.72952" lon="4.44287">
        <ele>688</ele>
        <time>2016-04-10T11:14:52Z</time>
      </trkpt>
      <trkpt lat="45.72946" lon="4.44288">
        <ele>688</ele>
        <time>2016-04-10T11:14:56Z</time>
      </trkpt>
      <trkpt lat="45.72942" lon="4.44288">
        <ele>688</ele>
        <time>2016-04-10T11:14:59Z</time>
      </trkpt>
      <trkpt lat="45.72937" lon="4.44288">
        <ele>687</ele>
        <time>2016-04-10T11:15:03Z</time>
      </trkpt>
      <trkpt lat="45.72932" lon="4.44288">
        <ele>686</ele>
        <time>2016-04-10T11:15:07Z</time>
      </trkpt>
      <trkpt lat="45.72927" lon="4.44289">
        <ele>686</ele>
        <time>2016-04-10T11:15:11Z</time>
      </trkpt>
      <trkpt lat="45.72922" lon="4.44292">
        <ele>685</ele>
        <time>2016-04-10T11:15:14Z</time>
      </trkpt>
      <trkpt lat="45.72916" lon="4.44293">
        <ele>684</ele>
        <time>2016-04-10T11:15:18Z</time>
      </trkpt>
      <trkpt lat="45.72911" lon="4.44294">
        <ele>686</ele>
        <time>2016-04-10T11:15:22Z</time>
      </trkpt>
      <trkpt lat="45.72906" lon="4.44295">
        <ele>687</ele>
        <time>2016-04-10T11:15:26Z</time>
      </trkpt>
      <trkpt lat="45.729" lon="4.44295">
        <ele>686</ele>
        <time>2016-04-10T11:15:30Z</time>
      </trkpt>
      <trkpt lat="45.72895" lon="4.44295">
        <ele>685</ele>
        <time>2016-04-10T11:15:34Z</time>
      </trkpt>
      <trkpt lat="45.7289" lon="4.44295">
        <ele>686</ele>
        <time>2016-04-10T11:15:37Z</time>
      </trkpt>
      <trkpt lat="45.72884" lon="4.44296">
        <ele>686</ele>
        <time>2016-04-10T11:15:41Z</time>
      </trkpt>
      <trkpt lat="45.72879" lon="4.44298">
        <ele>685</ele>
        <time>2016-04-10T11:15:45Z</time>
      </trkpt>
      <trkpt lat="45.72873" lon="4.44299">
        <ele>686</ele>
        <time>2016-04-10T11:15:49Z</time>
      </trkpt>
      <trkpt lat="45.72869" lon="4.44302">
        <ele>685</ele>
        <time>2016-04-10T11:15:52Z</time>
      </trkpt>
      <trkpt lat="45.72864" lon="4.44304">
        <ele>685</ele>
        <time>2016-04-10T11:15:56Z</time>
      </trkpt>
      <trkpt lat="45.72859" lon="4.44306">
        <ele>683</ele>
        <time>2016-04-10T11:15:59Z</time>
      </trkpt>
      <trkpt lat="45.72854" lon="4.44308">
        <ele>683</ele>
        <time>2016-04-10T11:16:03Z</time>
      </trkpt>
      <trkpt lat="45.72848" lon="4.44311">
        <ele>681</ele>
        <time>2016-04-10T11:16:07Z</time>
      </trkpt>
      <trkpt lat="45.72843" lon="4.44312">
        <ele>681</ele>
        <time>2016-04-10T11:16:11Z</time>
      </trkpt>
      <trkpt lat="45.72838" lon="4.44313">
        <ele>680</ele>
        <time>2016-04-10T11:16:15Z</time>
      </trkpt>
      <trkpt lat="45.72834" lon="4.44315">
        <ele>681</ele>
        <time>2016-04-10T11:16:19Z</time>
      </trkpt>
      <trkpt lat="45.7283" lon="4.44319">
        <ele>680</ele>
        <time>2016-04-10T11:16:22Z</time>
      </trkpt>
      <trkpt lat="45.72825" lon="4.44321">
        <ele>679</ele>
        <time>2016-04-10T11:16:25Z</time>
      </trkpt>
      <trkpt lat="45.72821" lon="4.44323">
        <ele>679</ele>
        <time>2016-04-10T11:16:29Z</time>
      </trkpt>
      <trkpt lat="45.72815" lon="4.44326">
        <ele>678</ele>
        <time>2016-04-10T11:16:33Z</time>
      </trkpt>
      <trkpt lat="45.7281" lon="4.44329">
        <ele>677</ele>
        <time>2016-04-10T11:16:37Z</time>
      </trkpt>
      <trkpt lat="45.72805" lon="4.44331">
        <ele>677</ele>
        <time>2016-04-10T11:16:41Z</time>
      </trkpt>
      <trkpt lat="45.728" lon="4.44333">
        <ele>677</ele>
        <time>2016-04-10T11:16:45Z</time>
      </trkpt>
      <trkpt lat="45.72796" lon="4.44337">
        <ele>676</ele>
        <time>2016-04-10T11:16:48Z</time>
      </trkpt>
      <trkpt lat="45.72792" lon="4.44341">
        <ele>677</ele>
        <time>2016-04-10T11:16:52Z</time>
      </trkpt>
      <trkpt lat="45.72788" lon="4.44347">
        <ele>675</ele>
        <time>2016-04-10T11:16:56Z</time>
      </trkpt>
      <trkpt lat="45.72785" lon="4.44351">
        <ele>674</ele>
        <time>2016-04-10T11:17:00Z</time>
      </trkpt>
      <trkpt lat="45.72782" lon="4.44357">
        <ele>674</ele>
        <time>2016-04-10T11:17:04Z</time>
      </trkpt>
      <trkpt lat="45.72778" lon="4.44365">
        <ele>671</ele>
        <time>2016-04-10T11:17:08Z</time>
      </trkpt>
      <trkpt lat="45.72776" lon="4.44371">
        <ele>669</ele>
        <time>2016-04-10T11:17:12Z</time>
      </trkpt>
      <trkpt lat="45.72774" lon="4.44379">
        <ele>668</ele>
        <time>2016-04-10T11:17:16Z</time>
      </trkpt>
      <trkpt lat="45.72773" lon="4.44385">
        <ele>668</ele>
        <time>2016-04-10T11:17:20Z</time>
      </trkpt>
      <trkpt lat="45.72772" lon="4.44392">
        <ele>667</ele>
        <time>2016-04-10T11:17:24Z</time>
      </trkpt>
      <trkpt lat="45.72771" lon="4.444">
        <ele>665</ele>
        <time>2016-04-10T11:17:28Z</time>
      </trkpt>
      <trkpt lat="45.7277" lon="4.44407">
        <ele>664</ele>
        <time>2016-04-10T11:17:32Z</time>
      </trkpt>
      <trkpt lat="45.72769" lon="4.44414">
        <ele>663</ele>
        <time>2016-04-10T11:17:36Z</time>
      </trkpt>
      <trkpt lat="45.72768" lon="4.44422">
        <ele>662</ele>
        <time>2016-04-10T11:17:40Z</time>
      </trkpt>
      <trkpt lat="45.72768" lon="4.44429">
        <ele>662</ele>
        <time>2016-04-10T11:17:44Z</time>
      </trkpt>
      <trkpt lat="45.72767" lon="4.44436">
        <ele>663</ele>
        <time>2016-04-10T11:17:47Z</time>
      </trkpt>
      <trkpt lat="45.72766" lon="4.44444">
        <ele>663</ele>
        <time>2016-04-10T11:17:51Z</time>
      </trkpt>
      <trkpt lat="45.72766" lon="4.44452">
        <ele>662</ele>
        <time>2016-04-10T11:17:55Z</time>
      </trkpt>
      <trkpt lat="45.72764" lon="4.4446">
        <ele>662</ele>
        <time>2016-04-10T11:17:59Z</time>
      </trkpt>
      <trkpt lat="45.72762" lon="4.44466">
        <ele>662</ele>
        <time>2016-04-10T11:18:03Z</time>
      </trkpt>
      <trkpt lat="45.72758" lon="4.44472">
        <ele>661</ele>
        <time>2016-04-10T11:18:07Z</time>
      </trkpt>
      <trkpt lat="45.72754" lon="4.44477">
        <ele>661</ele>
        <time>2016-04-10T11:18:11Z</time>
      </trkpt>
      <trkpt lat="45.72749" lon="4.44479">
        <ele>661</ele>
        <time>2016-04-10T11:18:15Z</time>
      </trkpt>
      <trkpt lat="45.72745" lon="4.44481">
        <ele>662</ele>
        <time>2016-04-10T11:18:19Z</time>
      </trkpt>
      <trkpt lat="45.7274" lon="4.44484">
        <ele>662</ele>
        <time>2016-04-10T11:18:23Z</time>
      </trkpt>
      <trkpt lat="45.72735" lon="4.44486">
        <ele>662</ele>
        <time>2016-04-10T11:18:27Z</time>
      </trkpt>
      <trkpt lat="45.7273" lon="4.4449">
        <ele>662</ele>
        <time>2016-04-10T11:18:31Z</time>
      </trkpt>
      <trkpt lat="45.72726" lon="4.44494">
        <ele>661</ele>
        <time>2016-04-10T11:18:35Z</time>
      </trkpt>
      <trkpt lat="45.72721" lon="4.44496">
        <ele>661</ele>
        <time>2016-04-10T11:18:39Z</time>
      </trkpt>
      <trkpt lat="45.72716" lon="4.44497">
        <ele>660</ele>
        <time>2016-04-10T11:18:44Z</time>
      </trkpt>
      <trkpt lat="45.72712" lon="4.44498">
        <ele>661</ele>
        <time>2016-04-10T11:18:52Z</time>
      </trkpt>
      <trkpt lat="45.72708" lon="4.44502">
        <ele>660</ele>
        <time>2016-04-10T11:18:55Z</time>
      </trkpt>
      <trkpt lat="45.72703" lon="4.44504">
        <ele>661</ele>
        <time>2016-04-10T11:19:00Z</time>
      </trkpt>
      <trkpt lat="45.72697" lon="4.44506">
        <ele>661</ele>
        <time>2016-04-10T11:19:04Z</time>
      </trkpt>
      <trkpt lat="45.72692" lon="4.44507">
        <ele>661</ele>
        <time>2016-04-10T11:19:09Z</time>
      </trkpt>
      <trkpt lat="45.72687" lon="4.44507">
        <ele>661</ele>
        <time>2016-04-10T11:19:14Z</time>
      </trkpt>
      <trkpt lat="45.72682" lon="4.44506">
        <ele>661</ele>
        <time>2016-04-10T11:19:19Z</time>
      </trkpt>
      <trkpt lat="45.72675" lon="4.44505">
        <ele>662</ele>
        <time>2016-04-10T11:19:24Z</time>
      </trkpt>
      <trkpt lat="45.72671" lon="4.44506">
        <ele>662</ele>
        <time>2016-04-10T11:19:28Z</time>
      </trkpt>
      <trkpt lat="45.72666" lon="4.44506">
        <ele>662</ele>
        <time>2016-04-10T11:19:31Z</time>
      </trkpt>
      <trkpt lat="45.72661" lon="4.44506">
        <ele>661</ele>
        <time>2016-04-10T11:19:35Z</time>
      </trkpt>
      <trkpt lat="45.72656" lon="4.44508">
        <ele>661</ele>
        <time>2016-04-10T11:19:39Z</time>
      </trkpt>
      <trkpt lat="45.72652" lon="4.4451">
        <ele>662</ele>
        <time>2016-04-10T11:19:43Z</time>
      </trkpt>
      <trkpt lat="45.72646" lon="4.4451">
        <ele>661</ele>
        <time>2016-04-10T11:19:47Z</time>
      </trkpt>
      <trkpt lat="45.72641" lon="4.44511">
        <ele>661</ele>
        <time>2016-04-10T11:19:51Z</time>
      </trkpt>
      <trkpt lat="45.72636" lon="4.44512">
        <ele>661</ele>
        <time>2016-04-10T11:19:55Z</time>
      </trkpt>
      <trkpt lat="45.7263" lon="4.44513">
        <ele>660</ele>
        <time>2016-04-10T11:19:59Z</time>
      </trkpt>
      <trkpt lat="45.72625" lon="4.44511">
        <ele>663</ele>
        <time>2016-04-10T11:20:05Z</time>
      </trkpt>
      <trkpt lat="45.7262" lon="4.4451">
        <ele>664</ele>
        <time>2016-04-10T11:20:10Z</time>
      </trkpt>
      <trkpt lat="45.72615" lon="4.44512">
        <ele>663</ele>
        <time>2016-04-10T11:20:14Z</time>
      </trkpt>
      <trkpt lat="45.7261" lon="4.4451">
        <ele>663</ele>
        <time>2016-04-10T11:20:19Z</time>
      </trkpt>
      <trkpt lat="45.72605" lon="4.4451">
        <ele>663</ele>
        <time>2016-04-10T11:20:23Z</time>
      </trkpt>
      <trkpt lat="45.726" lon="4.44508">
        <ele>667</ele>
        <time>2016-04-10T11:20:27Z</time>
      </trkpt>
      <trkpt lat="45.72595" lon="4.44508">
        <ele>668</ele>
        <time>2016-04-10T11:20:32Z</time>
      </trkpt>
      <trkpt lat="45.7259" lon="4.44507">
        <ele>671</ele>
        <time>2016-04-10T11:20:36Z</time>
      </trkpt>
      <trkpt lat="45.72585" lon="4.44508">
        <ele>672</ele>
        <time>2016-04-10T11:20:41Z</time>
      </trkpt>
      <trkpt lat="45.7258" lon="4.44511">
        <ele>673</ele>
        <time>2016-04-10T11:20:46Z</time>
      </trkpt>
      <trkpt lat="45.72575" lon="4.44512">
        <ele>673</ele>
        <time>2016-04-10T11:20:50Z</time>
      </trkpt>
      <trkpt lat="45.7257" lon="4.44514">
        <ele>674</ele>
        <time>2016-04-10T11:20:55Z</time>
      </trkpt>
      <trkpt lat="45.72566" lon="4.44515">
        <ele>673</ele>
        <time>2016-04-10T11:20:59Z</time>
      </trkpt>
      <trkpt lat="45.72561" lon="4.44517">
        <ele>674</ele>
        <time>2016-04-10T11:21:03Z</time>
      </trkpt>
      <trkpt lat="45.72555" lon="4.44519">
        <ele>676</ele>
        <time>2016-04-10T11:21:09Z</time>
      </trkpt>
      <trkpt lat="45.7255" lon="4.44522">
        <ele>675</ele>
        <time>2016-04-10T11:21:13Z</time>
      </trkpt>
      <trkpt lat="45.72545" lon="4.44521">
        <ele>675</ele>
        <time>2016-04-10T11:21:17Z</time>
      </trkpt>
      <trkpt lat="45.7254" lon="4.44523">
        <ele>675</ele>
        <time>2016-04-10T11:21:22Z</time>
      </trkpt>
      <trkpt lat="45.72535" lon="4.44523">
        <ele>676</ele>
        <time>2016-04-10T11:21:26Z</time>
      </trkpt>
      <trkpt lat="45.7253" lon="4.44525">
        <ele>674</ele>
        <time>2016-04-10T11:21:32Z</time>
      </trkpt>
      <trkpt lat="45.72525" lon="4.44526">
        <ele>674</ele>
        <time>2016-04-10T11:21:37Z</time>
      </trkpt>
      <trkpt lat="45.7252" lon="4.44524">
        <ele>676</ele>
        <time>2016-04-10T11:21:42Z</time>
      </trkpt>
      <trkpt lat="45.72516" lon="4.44522">
        <ele>678</ele>
        <time>2016-04-10T11:21:47Z</time>
      </trkpt>
      <trkpt lat="45.7251" lon="4.44523">
        <ele>678</ele>
        <time>2016-04-10T11:21:51Z</time>
      </trkpt>
      <trkpt lat="45.72505" lon="4.44524">
        <ele>678</ele>
        <time>2016-04-10T11:21:55Z</time>
      </trkpt>
      <trkpt lat="45.72501" lon="4.44527">
        <ele>678</ele>
        <time>2016-04-10T11:21:59Z</time>
      </trkpt>
      <trkpt lat="45.72496" lon="4.44529">
        <ele>678</ele>
        <time>2016-04-10T11:22:03Z</time>
      </trkpt>
      <trkpt lat="45.72491" lon="4.44531">
        <ele>679</ele>
        <time>2016-04-10T11:22:08Z</time>
      </trkpt>
      <trkpt lat="45.72486" lon="4.44534">
        <ele>679</ele>
        <time>2016-04-10T11:22:12Z</time>
      </trkpt>
      <trkpt lat="45.72482" lon="4.44538">
        <ele>677</ele>
        <time>2016-04-10T11:22:15Z</time>
      </trkpt>
      <trkpt lat="45.72477" lon="4.44544">
        <ele>675</ele>
        <time>2016-04-10T11:22:19Z</time>
      </trkpt>
      <trkpt lat="45.72472" lon="4.44543">
        <ele>676</ele>
        <time>2016-04-10T11:22:23Z</time>
      </trkpt>
      <trkpt lat="45.72467" lon="4.44545">
        <ele>677</ele>
        <time>2016-04-10T11:22:28Z</time>
      </trkpt>
      <trkpt lat="45.72462" lon="4.44548">
        <ele>677</ele>
        <time>2016-04-10T11:22:33Z</time>
      </trkpt>
      <trkpt lat="45.72458" lon="4.44551">
        <ele>678</ele>
        <time>2016-04-10T11:22:37Z</time>
      </trkpt>
      <trkpt lat="45.72453" lon="4.44553">
        <ele>680</ele>
        <time>2016-04-10T11:22:42Z</time>
      </trkpt>
      <trkpt lat="45.72449" lon="4.44557">
        <ele>681</ele>
        <time>2016-04-10T11:22:47Z</time>
      </trkpt>
      <trkpt lat="45.72445" lon="4.44559">
        <ele>682</ele>
        <time>2016-04-10T11:22:53Z</time>
      </trkpt>
      <trkpt lat="45.72441" lon="4.44562">
        <ele>683</ele>
        <time>2016-04-10T11:22:58Z</time>
      </trkpt>
      <trkpt lat="45.72436" lon="4.44566">
        <ele>683</ele>
        <time>2016-04-10T11:23:03Z</time>
      </trkpt>
      <trkpt lat="45.7243" lon="4.44568">
        <ele>684</ele>
        <time>2016-04-10T11:23:07Z</time>
      </trkpt>
      <trkpt lat="45.72425" lon="4.4457">
        <ele>682</ele>
        <time>2016-04-10T11:23:12Z</time>
      </trkpt>
      <trkpt lat="45.7242" lon="4.44571">
        <ele>683</ele>
        <time>2016-04-10T11:23:18Z</time>
      </trkpt>
      <trkpt lat="45.72415" lon="4.44569">
        <ele>683</ele>
        <time>2016-04-10T11:23:22Z</time>
      </trkpt>
      <trkpt lat="45.72411" lon="4.44563">
        <ele>681</ele>
        <time>2016-04-10T11:23:27Z</time>
      </trkpt>
      <trkpt lat="45.72409" lon="4.44556">
        <ele>680</ele>
        <time>2016-04-10T11:23:31Z</time>
      </trkpt>
      <trkpt lat="45.72406" lon="4.4455">
        <ele>680</ele>
        <time>2016-04-10T11:23:35Z</time>
      </trkpt>
      <trkpt lat="45.72402" lon="4.44544">
        <ele>677</ele>
        <time>2016-04-10T11:23:39Z</time>
      </trkpt>
      <trkpt lat="45.724" lon="4.44537">
        <ele>676</ele>
        <time>2016-04-10T11:23:43Z</time>
      </trkpt>
      <trkpt lat="45.72397" lon="4.4453">
        <ele>675</ele>
        <time>2016-04-10T11:23:48Z</time>
      </trkpt>
      <trkpt lat="45.72395" lon="4.44524">
        <ele>674</ele>
        <time>2016-04-10T11:23:52Z</time>
      </trkpt>
      <trkpt lat="45.72392" lon="4.44518">
        <ele>673</ele>
        <time>2016-04-10T11:23:57Z</time>
      </trkpt>
      <trkpt lat="45.72389" lon="4.44512">
        <ele>676</ele>
        <time>2016-04-10T11:24:07Z</time>
      </trkpt>
      <trkpt lat="45.72385" lon="4.4451">
        <ele>676</ele>
        <time>2016-04-10T11:24:11Z</time>
      </trkpt>
      <trkpt lat="45.72379" lon="4.4451">
        <ele>674</ele>
        <time>2016-04-10T11:24:17Z</time>
      </trkpt>
      <trkpt lat="45.72374" lon="4.44511">
        <ele>673</ele>
        <time>2016-04-10T11:24:20Z</time>
      </trkpt>
      <trkpt lat="45.72369" lon="4.44511">
        <ele>673</ele>
        <time>2016-04-10T11:24:23Z</time>
      </trkpt>
      <trkpt lat="45.72364" lon="4.44513">
        <ele>672</ele>
        <time>2016-04-10T11:24:27Z</time>
      </trkpt>
      <trkpt lat="45.72359" lon="4.44513">
        <ele>672</ele>
        <time>2016-04-10T11:24:31Z</time>
      </trkpt>
      <trkpt lat="45.72354" lon="4.44514">
        <ele>673</ele>
        <time>2016-04-10T11:24:35Z</time>
      </trkpt>
      <trkpt lat="45.72349" lon="4.44514">
        <ele>673</ele>
        <time>2016-04-10T11:24:39Z</time>
      </trkpt>
      <trkpt lat="45.72344" lon="4.44514">
        <ele>673</ele>
        <time>2016-04-10T11:24:43Z</time>
      </trkpt>
      <trkpt lat="45.72339" lon="4.44515">
        <ele>672</ele>
        <time>2016-04-10T11:24:47Z</time>
      </trkpt>
      <trkpt lat="45.72334" lon="4.44517">
        <ele>672</ele>
        <time>2016-04-10T11:24:51Z</time>
      </trkpt>
      <trkpt lat="45.72329" lon="4.4452">
        <ele>671</ele>
        <time>2016-04-10T11:24:55Z</time>
      </trkpt>
      <trkpt lat="45.72325" lon="4.44521">
        <ele>670</ele>
        <time>2016-04-10T11:24:59Z</time>
      </trkpt>
      <trkpt lat="45.7232" lon="4.44522">
        <ele>670</ele>
        <time>2016-04-10T11:25:03Z</time>
      </trkpt>
      <trkpt lat="45.72315" lon="4.44523">
        <ele>669</ele>
        <time>2016-04-10T11:25:07Z</time>
      </trkpt>
      <trkpt lat="45.7231" lon="4.44527">
        <ele>669</ele>
        <time>2016-04-10T11:25:11Z</time>
      </trkpt>
      <trkpt lat="45.72306" lon="4.44529">
        <ele>668</ele>
        <time>2016-04-10T11:25:14Z</time>
      </trkpt>
      <trkpt lat="45.72301" lon="4.44532">
        <ele>666</ele>
        <time>2016-04-10T11:25:18Z</time>
      </trkpt>
      <trkpt lat="45.72296" lon="4.44531">
        <ele>666</ele>
        <time>2016-04-10T11:25:23Z</time>
      </trkpt>
      <trkpt lat="45.72291" lon="4.44529">
        <ele>666</ele>
        <time>2016-04-10T11:25:27Z</time>
      </trkpt>
      <trkpt lat="45.72285" lon="4.44528">
        <ele>662</ele>
        <time>2016-04-10T11:25:32Z</time>
      </trkpt>
      <trkpt lat="45.7228" lon="4.44526">
        <ele>662</ele>
        <time>2016-04-10T11:25:37Z</time>
      </trkpt>
      <trkpt lat="45.72276" lon="4.44524">
        <ele>661</ele>
        <time>2016-04-10T11:25:41Z</time>
      </trkpt>
      <trkpt lat="45.72271" lon="4.44522">
        <ele>661</ele>
        <time>2016-04-10T11:25:45Z</time>
      </trkpt>
      <trkpt lat="45.72265" lon="4.44521">
        <ele>659</ele>
        <time>2016-04-10T11:25:49Z</time>
      </trkpt>
      <trkpt lat="45.7226" lon="4.4452">
        <ele>659</ele>
        <time>2016-04-10T11:25:53Z</time>
      </trkpt>
      <trkpt lat="45.72255" lon="4.44518">
        <ele>659</ele>
        <time>2016-04-10T11:25:58Z</time>
      </trkpt>
      <trkpt lat="45.7225" lon="4.44517">
        <ele>659</ele>
        <time>2016-04-10T11:26:02Z</time>
      </trkpt>
      <trkpt lat="45.72245" lon="4.44516">
        <ele>659</ele>
        <time>2016-04-10T11:26:06Z</time>
      </trkpt>
      <trkpt lat="45.7224" lon="4.44514">
        <ele>660</ele>
        <time>2016-04-10T11:26:11Z</time>
      </trkpt>
      <trkpt lat="45.72237" lon="4.44508">
        <ele>659</ele>
        <time>2016-04-10T11:26:16Z</time>
      </trkpt>
      <trkpt lat="45.72235" lon="4.44502">
        <ele>657</ele>
        <time>2016-04-10T11:26:20Z</time>
      </trkpt>
      <trkpt lat="45.72236" lon="4.44495">
        <ele>657</ele>
        <time>2016-04-10T11:26:24Z</time>
      </trkpt>
      <trkpt lat="45.72237" lon="4.44489">
        <ele>656</ele>
        <time>2016-04-10T11:26:28Z</time>
      </trkpt>
      <trkpt lat="45.72238" lon="4.44481">
        <ele>656</ele>
        <time>2016-04-10T11:26:33Z</time>
      </trkpt>
      <trkpt lat="45.72238" lon="4.44475">
        <ele>655</ele>
        <time>2016-04-10T11:26:38Z</time>
      </trkpt>
      <trkpt lat="45.72239" lon="4.44467">
        <ele>653</ele>
        <time>2016-04-10T11:26:43Z</time>
      </trkpt>
      <trkpt lat="45.72239" lon="4.4446">
        <ele>651</ele>
        <time>2016-04-10T11:26:47Z</time>
      </trkpt>
      <trkpt lat="45.72239" lon="4.44453">
        <ele>650</ele>
        <time>2016-04-10T11:26:51Z</time>
      </trkpt>
      <trkpt lat="45.72239" lon="4.44446">
        <ele>649</ele>
        <time>2016-04-10T11:26:56Z</time>
      </trkpt>
      <trkpt lat="45.72238" lon="4.44439">
        <ele>648</ele>
        <time>2016-04-10T11:27:00Z</time>
      </trkpt>
      <trkpt lat="45.72236" lon="4.44431">
        <ele>646</ele>
        <time>2016-04-10T11:27:05Z</time>
      </trkpt>
      <trkpt lat="45.72235" lon="4.44425">
        <ele>645</ele>
        <time>2016-04-10T11:27:09Z</time>
      </trkpt>
      <trkpt lat="45.72235" lon="4.44417">
        <ele>644</ele>
        <time>2016-04-10T11:27:14Z</time>
      </trkpt>
      <trkpt lat="45.72239" lon="4.44412">
        <ele>642</ele>
        <time>2016-04-10T11:27:19Z</time>
      </trkpt>
      <trkpt lat="45.72243" lon="4.44412">
        <ele>642</ele>
        <time>2016-04-10T11:27:23Z</time>
      </trkpt>
      <trkpt lat="45.72249" lon="4.44412">
        <ele>643</ele>
        <time>2016-04-10T11:27:27Z</time>
      </trkpt>
      <trkpt lat="45.72254" lon="4.44411">
        <ele>642</ele>
        <time>2016-04-10T11:27:32Z</time>
      </trkpt>
      <trkpt lat="45.72258" lon="4.44411">
        <ele>643</ele>
        <time>2016-04-10T11:27:36Z</time>
      </trkpt>
      <trkpt lat="45.72263" lon="4.44408">
        <ele>643</ele>
        <time>2016-04-10T11:27:40Z</time>
      </trkpt>
      <trkpt lat="45.72268" lon="4.44407">
        <ele>644</ele>
        <time>2016-04-10T11:27:44Z</time>
      </trkpt>
      <trkpt lat="45.72273" lon="4.44407">
        <ele>644</ele>
        <time>2016-04-10T11:27:48Z</time>
      </trkpt>
      <trkpt lat="45.72278" lon="4.44405">
        <ele>644</ele>
        <time>2016-04-10T11:27:52Z</time>
      </trkpt>
      <trkpt lat="45.72283" lon="4.44403">
        <ele>642</ele>
        <time>2016-04-10T11:27:56Z</time>
      </trkpt>
      <trkpt lat="45.72288" lon="4.44399">
        <ele>643</ele>
        <time>2016-04-10T11:28:02Z</time>
      </trkpt>
      <trkpt lat="45.72293" lon="4.44394">
        <ele>643</ele>
        <time>2016-04-10T11:28:06Z</time>
      </trkpt>
      <trkpt lat="45.72296" lon="4.44389">
        <ele>644</ele>
        <time>2016-04-10T11:28:10Z</time>
      </trkpt>
      <trkpt lat="45.723" lon="4.44386">
        <ele>644</ele>
        <time>2016-04-10T11:28:14Z</time>
      </trkpt>
      <trkpt lat="45.72306" lon="4.44383">
        <ele>644</ele>
        <time>2016-04-10T11:28:18Z</time>
      </trkpt>
      <trkpt lat="45.72311" lon="4.44382">
        <ele>646</ele>
        <time>2016-04-10T11:28:23Z</time>
      </trkpt>
      <trkpt lat="45.72317" lon="4.4438">
        <ele>645</ele>
        <time>2016-04-10T11:28:27Z</time>
      </trkpt>
      <trkpt lat="45.72323" lon="4.44377">
        <ele>645</ele>
        <time>2016-04-10T11:28:31Z</time>
      </trkpt>
      <trkpt lat="45.72328" lon="4.44375">
        <ele>647</ele>
        <time>2016-04-10T11:28:36Z</time>
      </trkpt>
      <trkpt lat="45.72333" lon="4.44372">
        <ele>645</ele>
        <time>2016-04-10T11:28:41Z</time>
      </trkpt>
      <trkpt lat="45.72338" lon="4.44371">
        <ele>646</ele>
        <time>2016-04-10T11:28:46Z</time>
      </trkpt>
      <trkpt lat="45.72343" lon="4.44368">
        <ele>645</ele>
        <time>2016-04-10T11:28:51Z</time>
      </trkpt>
      <trkpt lat="45.72349" lon="4.44366">
        <ele>645</ele>
        <time>2016-04-10T11:28:55Z</time>
      </trkpt>
      <trkpt lat="45.72353" lon="4.44363">
        <ele>646</ele>
        <time>2016-04-10T11:28:59Z</time>
      </trkpt>
      <trkpt lat="45.72357" lon="4.44359">
        <ele>645</ele>
        <time>2016-04-10T11:29:03Z</time>
      </trkpt>
      <trkpt lat="45.72363" lon="4.44356">
        <ele>644</ele>
        <time>2016-04-10T11:29:07Z</time>
      </trkpt>
      <trkpt lat="45.72367" lon="4.44355">
        <ele>645</ele>
        <time>2016-04-10T11:29:10Z</time>
      </trkpt>
      <trkpt lat="45.72372" lon="4.44352">
        <ele>646</ele>
        <time>2016-04-10T11:29:14Z</time>
      </trkpt>
      <trkpt lat="45.72377" lon="4.44351">
        <ele>645</ele>
        <time>2016-04-10T11:29:18Z</time>
      </trkpt>
      <trkpt lat="45.72383" lon="4.44347">
        <ele>647</ele>
        <time>2016-04-10T11:29:22Z</time>
      </trkpt>
      <trkpt lat="45.72387" lon="4.44345">
        <ele>646</ele>
        <time>2016-04-10T11:29:26Z</time>
      </trkpt>
      <trkpt lat="45.72392" lon="4.44342">
        <ele>645</ele>
        <time>2016-04-10T11:29:30Z</time>
      </trkpt>
      <trkpt lat="45.72397" lon="4.44339">
        <ele>645</ele>
        <time>2016-04-10T11:29:34Z</time>
      </trkpt>
      <trkpt lat="45.72402" lon="4.44337">
        <ele>645</ele>
        <time>2016-04-10T11:29:38Z</time>
      </trkpt>
      <trkpt lat="45.72406" lon="4.44335">
        <ele>644</ele>
        <time>2016-04-10T11:29:42Z</time>
      </trkpt>
      <trkpt lat="45.72411" lon="4.44333">
        <ele>641</ele>
        <time>2016-04-10T11:29:47Z</time>
      </trkpt>
      <trkpt lat="45.72415" lon="4.44328">
        <ele>641</ele>
        <time>2016-04-10T11:29:54Z</time>
      </trkpt>
      <trkpt lat="45.72419" lon="4.44325">
        <ele>642</ele>
        <time>2016-04-10T11:29:58Z</time>
      </trkpt>
      <trkpt lat="45.72424" lon="4.44322">
        <ele>641</ele>
        <time>2016-04-10T11:30:02Z</time>
      </trkpt>
      <trkpt lat="45.72429" lon="4.44318">
        <ele>640</ele>
        <time>2016-04-10T11:30:06Z</time>
      </trkpt>
      <trkpt lat="45.72434" lon="4.44316">
        <ele>641</ele>
        <time>2016-04-10T11:30:12Z</time>
      </trkpt>
      <trkpt lat="45.72439" lon="4.44314">
        <ele>641</ele>
        <time>2016-04-10T11:30:16Z</time>
      </trkpt>
      <trkpt lat="45.72444" lon="4.44312">
        <ele>640</ele>
        <time>2016-04-10T11:30:20Z</time>
      </trkpt>
      <trkpt lat="45.72448" lon="4.44309">
        <ele>641</ele>
        <time>2016-04-10T11:30:23Z</time>
      </trkpt>
      <trkpt lat="45.72452" lon="4.44305">
        <ele>641</ele>
        <time>2016-04-10T11:30:27Z</time>
      </trkpt>
      <trkpt lat="45.72457" lon="4.44301">
        <ele>638</ele>
        <time>2016-04-10T11:30:31Z</time>
      </trkpt>
      <trkpt lat="45.7246" lon="4.44295">
        <ele>635</ele>
        <time>2016-04-10T11:30:35Z</time>
      </trkpt>
      <trkpt lat="45.72461" lon="4.44289">
        <ele>636</ele>
        <time>2016-04-10T11:30:41Z</time>
      </trkpt>
      <trkpt lat="45.7246" lon="4.44281">
        <ele>637</ele>
        <time>2016-04-10T11:30:45Z</time>
      </trkpt>
      <trkpt lat="45.7246" lon="4.44275">
        <ele>637</ele>
        <time>2016-04-10T11:30:49Z</time>
      </trkpt>
      <trkpt lat="45.72459" lon="4.44267">
        <ele>637</ele>
        <time>2016-04-10T11:30:54Z</time>
      </trkpt>
      <trkpt lat="45.7246" lon="4.44258">
        <ele>634</ele>
        <time>2016-04-10T11:30:58Z</time>
      </trkpt>
      <trkpt lat="45.7246" lon="4.44251">
        <ele>633</ele>
        <time>2016-04-10T11:31:01Z</time>
      </trkpt>
      <trkpt lat="45.72459" lon="4.44244">
        <ele>634</ele>
        <time>2016-04-10T11:31:08Z</time>
      </trkpt>
      <trkpt lat="45.72457" lon="4.44238">
        <ele>633</ele>
        <time>2016-04-10T11:31:13Z</time>
      </trkpt>
      <trkpt lat="45.72454" lon="4.44232">
        <ele>634</ele>
        <time>2016-04-10T11:31:17Z</time>
      </trkpt>
      <trkpt lat="45.72451" lon="4.44227">
        <ele>635</ele>
        <time>2016-04-10T11:31:22Z</time>
      </trkpt>
      <trkpt lat="45.72448" lon="4.44223">
        <ele>634</ele>
        <time>2016-04-10T11:31:25Z</time>
      </trkpt>
      <trkpt lat="45.72445" lon="4.44218">
        <ele>635</ele>
        <time>2016-04-10T11:31:30Z</time>
      </trkpt>
      <trkpt lat="45.72442" lon="4.44212">
        <ele>636</ele>
        <time>2016-04-10T11:31:35Z</time>
      </trkpt>
      <trkpt lat="45.72438" lon="4.44205">
        <ele>635</ele>
        <time>2016-04-10T11:31:40Z</time>
      </trkpt>
      <trkpt lat="45.72435" lon="4.442">
        <ele>635</ele>
        <time>2016-04-10T11:31:46Z</time>
      </trkpt>
      <trkpt lat="45.72433" lon="4.44194">
        <ele>640</ele>
        <time>2016-04-10T11:31:52Z</time>
      </trkpt>
      <trkpt lat="45.7243" lon="4.44189">
        <ele>638</ele>
        <time>2016-04-10T11:31:56Z</time>
      </trkpt>
      <trkpt lat="45.72427" lon="4.44184">
        <ele>640</ele>
        <time>2016-04-10T11:32:00Z</time>
      </trkpt>
      <trkpt lat="45.72425" lon="4.44177">
        <ele>642</ele>
        <time>2016-04-10T11:32:04Z</time>
      </trkpt>
      <trkpt lat="45.72422" lon="4.44171">
        <ele>643</ele>
        <time>2016-04-10T11:32:09Z</time>
      </trkpt>
      <trkpt lat="45.72419" lon="4.44166">
        <ele>644</ele>
        <time>2016-04-10T11:32:12Z</time>
      </trkpt>
      <trkpt lat="45.72415" lon="4.44162">
        <ele>644</ele>
        <time>2016-04-10T11:32:17Z</time>
      </trkpt>
      <trkpt lat="45.72411" lon="4.44157">
        <ele>646</ele>
        <time>2016-04-10T11:32:21Z</time>
      </trkpt>
      <trkpt lat="45.72407" lon="4.44152">
        <ele>647</ele>
        <time>2016-04-10T11:32:26Z</time>
      </trkpt>
      <trkpt lat="45.72404" lon="4.44147">
        <ele>647</ele>
        <time>2016-04-10T11:32:30Z</time>
      </trkpt>
      <trkpt lat="45.72401" lon="4.4414">
        <ele>646</ele>
        <time>2016-04-10T11:32:34Z</time>
      </trkpt>
      <trkpt lat="45.72398" lon="4.44135">
        <ele>645</ele>
        <time>2016-04-10T11:32:39Z</time>
      </trkpt>
      <trkpt lat="45.72394" lon="4.44129">
        <ele>646</ele>
        <time>2016-04-10T11:32:45Z</time>
      </trkpt>
      <trkpt lat="45.7239" lon="4.44124">
        <ele>648</ele>
        <time>2016-04-10T11:32:50Z</time>
      </trkpt>
      <trkpt lat="45.7239" lon="4.44117">
        <ele>649</ele>
        <time>2016-04-10T11:32:57Z</time>
      </trkpt>
      <trkpt lat="45.7239" lon="4.4411">
        <ele>647</ele>
        <time>2016-04-10T11:33:02Z</time>
      </trkpt>
      <trkpt lat="45.72391" lon="4.44103">
        <ele>648</ele>
        <time>2016-04-10T11:33:09Z</time>
      </trkpt>
      <trkpt lat="45.72389" lon="4.44097">
        <ele>645</ele>
        <time>2016-04-10T11:33:11Z</time>
      </trkpt>
      <trkpt lat="45.7239" lon="4.4409">
        <ele>648</ele>
        <time>2016-04-10T11:33:21Z</time>
      </trkpt>
      <trkpt lat="45.72393" lon="4.44084">
        <ele>651</ele>
        <time>2016-04-10T11:33:28Z</time>
      </trkpt>
      <trkpt lat="45.72397" lon="4.44079">
        <ele>651</ele>
        <time>2016-04-10T11:33:33Z</time>
      </trkpt>
      <trkpt lat="45.72398" lon="4.44072">
        <ele>654</ele>
        <time>2016-04-10T11:33:42Z</time>
      </trkpt>
      <trkpt lat="45.72399" lon="4.44064">
        <ele>657</ele>
        <time>2016-04-10T11:33:47Z</time>
      </trkpt>
      <trkpt lat="45.72404" lon="4.4406">
        <ele>661</ele>
        <time>2016-04-10T11:33:54Z</time>
      </trkpt>
      <trkpt lat="45.72406" lon="4.44054">
        <ele>665</ele>
        <time>2016-04-10T11:34:03Z</time>
      </trkpt>
      <trkpt lat="45.72407" lon="4.44047">
        <ele>669</ele>
        <time>2016-04-10T11:34:10Z</time>
      </trkpt>
      <trkpt lat="45.7241" lon="4.44041">
        <ele>668</ele>
        <time>2016-04-10T11:34:14Z</time>
      </trkpt>
      <trkpt lat="45.72412" lon="4.44033">
        <ele>670</ele>
        <time>2016-04-10T11:34:21Z</time>
      </trkpt>
      <trkpt lat="45.72415" lon="4.44027">
        <ele>670</ele>
        <time>2016-04-10T11:34:25Z</time>
      </trkpt>
      <trkpt lat="45.72416" lon="4.44019">
        <ele>671</ele>
        <time>2016-04-10T11:34:30Z</time>
      </trkpt>
      <trkpt lat="45.72417" lon="4.44012">
        <ele>672</ele>
        <time>2016-04-10T11:34:34Z</time>
      </trkpt>
      <trkpt lat="45.72419" lon="4.44005">
        <ele>672</ele>
        <time>2016-04-10T11:34:39Z</time>
      </trkpt>
      <trkpt lat="45.72421" lon="4.43998">
        <ele>672</ele>
        <time>2016-04-10T11:34:43Z</time>
      </trkpt>
      <trkpt lat="45.72423" lon="4.43988">
        <ele>672</ele>
        <time>2016-04-10T11:34:48Z</time>
      </trkpt>
      <trkpt lat="45.72425" lon="4.43982">
        <ele>673</ele>
        <time>2016-04-10T11:34:54Z</time>
      </trkpt>
      <trkpt lat="45.72424" lon="4.43973">
        <ele>668</ele>
        <time>2016-04-10T11:34:59Z</time>
      </trkpt>
      <trkpt lat="45.72422" lon="4.43966">
        <ele>664</ele>
        <time>2016-04-10T11:35:01Z</time>
      </trkpt>
      <trkpt lat="45.72417" lon="4.43965">
        <ele>663</ele>
        <time>2016-04-10T11:35:05Z</time>
      </trkpt>
      <trkpt lat="45.72413" lon="4.43963">
        <ele>663</ele>
        <time>2016-04-10T11:35:09Z</time>
      </trkpt>
      <trkpt lat="45.72408" lon="4.43961">
        <ele>664</ele>
        <time>2016-04-10T11:35:13Z</time>
      </trkpt>
      <trkpt lat="45.72404" lon="4.43958">
        <ele>663</ele>
        <time>2016-04-10T11:35:17Z</time>
      </trkpt>
      <trkpt lat="45.72403" lon="4.43951">
        <ele>668</ele>
        <time>2016-04-10T11:35:25Z</time>
      </trkpt>
      <trkpt lat="45.72398" lon="4.43953">
        <ele>665</ele>
        <time>2016-04-10T11:35:28Z</time>
      </trkpt>
      <trkpt lat="45.72394" lon="4.43948">
        <ele>665</ele>
        <time>2016-04-10T11:35:32Z</time>
      </trkpt>
      <trkpt lat="45.72389" lon="4.43947">
        <ele>664</ele>
        <time>2016-04-10T11:35:35Z</time>
      </trkpt>
      <trkpt lat="45.72388" lon="4.4394">
        <ele>666</ele>
        <time>2016-04-10T11:35:38Z</time>
      </trkpt>
      <trkpt lat="45.72384" lon="4.43936">
        <ele>666</ele>
        <time>2016-04-10T11:35:41Z</time>
      </trkpt>
      <trkpt lat="45.7238" lon="4.43931">
        <ele>668</ele>
        <time>2016-04-10T11:35:45Z</time>
      </trkpt>
      <trkpt lat="45.72375" lon="4.43927">
        <ele>669</ele>
        <time>2016-04-10T11:35:50Z</time>
      </trkpt>
      <trkpt lat="45.72371" lon="4.43925">
        <ele>669</ele>
        <time>2016-04-10T11:35:54Z</time>
      </trkpt>
      <trkpt lat="45.72367" lon="4.43919">
        <ele>671</ele>
        <time>2016-04-10T11:35:58Z</time>
      </trkpt>
      <trkpt lat="45.72361" lon="4.43919">
        <ele>671</ele>
        <time>2016-04-10T11:36:03Z</time>
      </trkpt>
      <trkpt lat="45.72357" lon="4.43915">
        <ele>671</ele>
        <time>2016-04-10T11:36:06Z</time>
      </trkpt>
      <trkpt lat="45.72352" lon="4.43912">
        <ele>672</ele>
        <time>2016-04-10T11:36:13Z</time>
      </trkpt>
      <trkpt lat="45.72346" lon="4.43911">
        <ele>670</ele>
        <time>2016-04-10T11:36:15Z</time>
      </trkpt>
      <trkpt lat="45.72342" lon="4.43908">
        <ele>671</ele>
        <time>2016-04-10T11:36:18Z</time>
      </trkpt>
      <trkpt lat="45.72337" lon="4.43907">
        <ele>671</ele>
        <time>2016-04-10T11:36:22Z</time>
      </trkpt>
      <trkpt lat="45.72331" lon="4.43905">
        <ele>668</ele>
        <time>2016-04-10T11:36:25Z</time>
      </trkpt>
      <trkpt lat="45.72326" lon="4.43904">
        <ele>667</ele>
        <time>2016-04-10T11:36:28Z</time>
      </trkpt>
      <trkpt lat="45.72321" lon="4.43905">
        <ele>665</ele>
        <time>2016-04-10T11:36:31Z</time>
      </trkpt>
      <trkpt lat="45.72316" lon="4.43905">
        <ele>664</ele>
        <time>2016-04-10T11:36:35Z</time>
      </trkpt>
      <trkpt lat="45.72311" lon="4.43904">
        <ele>663</ele>
        <time>2016-04-10T11:36:40Z</time>
      </trkpt>
      <trkpt lat="45.72306" lon="4.43902">
        <ele>663</ele>
        <time>2016-04-10T11:36:44Z</time>
      </trkpt>
      <trkpt lat="45.72301" lon="4.439">
        <ele>664</ele>
        <time>2016-04-10T11:36:48Z</time>
      </trkpt>
      <trkpt lat="45.72297" lon="4.43898">
        <ele>664</ele>
        <time>2016-04-10T11:36:52Z</time>
      </trkpt>
      <trkpt lat="45.72292" lon="4.43896">
        <ele>665</ele>
        <time>2016-04-10T11:36:55Z</time>
      </trkpt>
      <trkpt lat="45.72287" lon="4.43896">
        <ele>663</ele>
        <time>2016-04-10T11:36:58Z</time>
      </trkpt>
      <trkpt lat="45.72282" lon="4.43894">
        <ele>664</ele>
        <time>2016-04-10T11:37:03Z</time>
      </trkpt>
      <trkpt lat="45.72276" lon="4.43894">
        <ele>664</ele>
        <time>2016-04-10T11:37:08Z</time>
      </trkpt>
      <trkpt lat="45.72272" lon="4.43894">
        <ele>664</ele>
        <time>2016-04-10T11:37:13Z</time>
      </trkpt>
      <trkpt lat="45.72267" lon="4.43892">
        <ele>664</ele>
        <time>2016-04-10T11:37:18Z</time>
      </trkpt>
      <trkpt lat="45.7226" lon="4.43892">
        <ele>667</ele>
        <time>2016-04-10T11:37:25Z</time>
      </trkpt>
      <trkpt lat="45.72254" lon="4.43894">
        <ele>669</ele>
        <time>2016-04-10T11:37:31Z</time>
      </trkpt>
      <trkpt lat="45.72247" lon="4.43894">
        <ele>668</ele>
        <time>2016-04-10T11:37:36Z</time>
      </trkpt>
      <trkpt lat="45.72242" lon="4.43897">
        <ele>669</ele>
        <time>2016-04-10T11:37:39Z</time>
      </trkpt>
      <trkpt lat="45.72237" lon="4.43897">
        <ele>666</ele>
        <time>2016-04-10T11:37:52Z</time>
      </trkpt>
      <trkpt lat="45.72233" lon="4.43896">
        <ele>667</ele>
        <time>2016-04-10T11:37:56Z</time>
      </trkpt>
      <trkpt lat="45.72228" lon="4.43897">
        <ele>669</ele>
        <time>2016-04-10T11:38:00Z</time>
      </trkpt>
      <trkpt lat="45.72221" lon="4.43898">
        <ele>670</ele>
        <time>2016-04-10T11:38:05Z</time>
      </trkpt>
      <trkpt lat="45.72216" lon="4.439">
        <ele>671</ele>
        <time>2016-04-10T11:38:10Z</time>
      </trkpt>
      <trkpt lat="45.72211" lon="4.43902">
        <ele>669</ele>
        <time>2016-04-10T11:38:14Z</time>
      </trkpt>
      <trkpt lat="45.72207" lon="4.43905">
        <ele>668</ele>
        <time>2016-04-10T11:38:18Z</time>
      </trkpt>
      <trkpt lat="45.72202" lon="4.43907">
        <ele>674</ele>
        <time>2016-04-10T11:38:25Z</time>
      </trkpt>
      <trkpt lat="45.72197" lon="4.43909">
        <ele>678</ele>
        <time>2016-04-10T11:38:30Z</time>
      </trkpt>
      <trkpt lat="45.72192" lon="4.4391">
        <ele>677</ele>
        <time>2016-04-10T11:38:32Z</time>
      </trkpt>
      <trkpt lat="45.72188" lon="4.43912">
        <ele>679</ele>
        <time>2016-04-10T11:38:36Z</time>
      </trkpt>
      <trkpt lat="45.72182" lon="4.43913">
        <ele>683</ele>
        <time>2016-04-10T11:38:43Z</time>
      </trkpt>
      <trkpt lat="45.72178" lon="4.43919">
        <ele>683</ele>
        <time>2016-04-10T11:38:47Z</time>
      </trkpt>
      <trkpt lat="45.72175" lon="4.43926">
        <ele>680</ele>
        <time>2016-04-10T11:38:51Z</time>
      </trkpt>
      <trkpt lat="45.7217" lon="4.43929">
        <ele>683</ele>
        <time>2016-04-10T11:38:55Z</time>
      </trkpt>
      <trkpt lat="45.72165" lon="4.43932">
        <ele>682</ele>
        <time>2016-04-10T11:38:58Z</time>
      </trkpt>
      <trkpt lat="45.72162" lon="4.4394">
        <ele>682</ele>
        <time>2016-04-10T11:39:03Z</time>
      </trkpt>
      <trkpt lat="45.72157" lon="4.43945">
        <ele>681</ele>
        <time>2016-04-10T11:39:08Z</time>
      </trkpt>
      <trkpt lat="45.72153" lon="4.43949">
        <ele>682</ele>
        <time>2016-04-10T11:39:13Z</time>
      </trkpt>
      <trkpt lat="45.7215" lon="4.43953">
        <ele>682</ele>
        <time>2016-04-10T11:39:18Z</time>
      </trkpt>
      <trkpt lat="45.72145" lon="4.43953">
        <ele>683</ele>
        <time>2016-04-10T11:39:22Z</time>
      </trkpt>
      <trkpt lat="45.72141" lon="4.43957">
        <ele>685</ele>
        <time>2016-04-10T11:39:26Z</time>
      </trkpt>
      <trkpt lat="45.72136" lon="4.43964">
        <ele>683</ele>
        <time>2016-04-10T11:39:29Z</time>
      </trkpt>
      <trkpt lat="45.72134" lon="4.43973">
        <ele>687</ele>
        <time>2016-04-10T11:39:35Z</time>
      </trkpt>
      <trkpt lat="45.72129" lon="4.43978">
        <ele>688</ele>
        <time>2016-04-10T11:39:39Z</time>
      </trkpt>
      <trkpt lat="45.72126" lon="4.43984">
        <ele>688</ele>
        <time>2016-04-10T11:39:43Z</time>
      </trkpt>
      <trkpt lat="45.72123" lon="4.43989">
        <ele>687</ele>
        <time>2016-04-10T11:39:47Z</time>
      </trkpt>
      <trkpt lat="45.72117" lon="4.43992">
        <ele>685</ele>
        <time>2016-04-10T11:39:50Z</time>
      </trkpt>
      <trkpt lat="45.72112" lon="4.43996">
        <ele>683</ele>
        <time>2016-04-10T11:39:53Z</time>
      </trkpt>
      <trkpt lat="45.72108" lon="4.43997">
        <ele>683</ele>
        <time>2016-04-10T11:39:58Z</time>
      </trkpt>
      <trkpt lat="45.72105" lon="4.44002">
        <ele>682</ele>
        <time>2016-04-10T11:40:02Z</time>
      </trkpt>
      <trkpt lat="45.721" lon="4.44006">
        <ele>677</ele>
        <time>2016-04-10T11:40:04Z</time>
      </trkpt>
      <trkpt lat="45.72096" lon="4.44006">
        <ele>677</ele>
        <time>2016-04-10T11:40:07Z</time>
      </trkpt>
      <trkpt lat="45.72091" lon="4.44007">
        <ele>675</ele>
        <time>2016-04-10T11:40:11Z</time>
      </trkpt>
      <trkpt lat="45.72086" lon="4.44009">
        <ele>673</ele>
        <time>2016-04-10T11:40:19Z</time>
      </trkpt>
      <trkpt lat="45.72078" lon="4.44009">
        <ele>669</ele>
        <time>2016-04-10T11:40:21Z</time>
      </trkpt>
      <trkpt lat="45.72073" lon="4.44009">
        <ele>672</ele>
        <time>2016-04-10T11:40:25Z</time>
      </trkpt>
      <trkpt lat="45.72069" lon="4.44008">
        <ele>672</ele>
        <time>2016-04-10T11:40:28Z</time>
      </trkpt>
      <trkpt lat="45.72064" lon="4.44008">
        <ele>670</ele>
        <time>2016-04-10T11:40:34Z</time>
      </trkpt>
      <trkpt lat="45.72059" lon="4.44009">
        <ele>671</ele>
        <time>2016-04-10T11:40:37Z</time>
      </trkpt>
      <trkpt lat="45.72054" lon="4.44007">
        <ele>670</ele>
        <time>2016-04-10T11:40:41Z</time>
      </trkpt>
      <trkpt lat="45.7205" lon="4.44006">
        <ele>670</ele>
        <time>2016-04-10T11:40:44Z</time>
      </trkpt>
      <trkpt lat="45.72046" lon="4.44003">
        <ele>671</ele>
        <time>2016-04-10T11:40:47Z</time>
      </trkpt>
      <trkpt lat="45.72042" lon="4.44">
        <ele>673</ele>
        <time>2016-04-10T11:40:52Z</time>
      </trkpt>
      <trkpt lat="45.72041" lon="4.43994">
        <ele>674</ele>
        <time>2016-04-10T11:40:58Z</time>
      </trkpt>
      <trkpt lat="45.72037" lon="4.43989">
        <ele>675</ele>
        <time>2016-04-10T11:41:01Z</time>
      </trkpt>
      <trkpt lat="45.72032" lon="4.43985">
        <ele>677</ele>
        <time>2016-04-10T11:41:07Z</time>
      </trkpt>
      <trkpt lat="45.7203" lon="4.43978">
        <ele>677</ele>
        <time>2016-04-10T11:41:12Z</time>
      </trkpt>
      <trkpt lat="45.72029" lon="4.43969">
        <ele>678</ele>
        <time>2016-04-10T11:41:15Z</time>
      </trkpt>
      <trkpt lat="45.72028" lon="4.43961">
        <ele>677</ele>
        <time>2016-04-10T11:41:19Z</time>
      </trkpt>
      <trkpt lat="45.72026" lon="4.43954">
        <ele>676</ele>
        <time>2016-04-10T11:41:24Z</time>
      </trkpt>
      <trkpt lat="45.72022" lon="4.43948">
        <ele>674</ele>
        <time>2016-04-10T11:41:29Z</time>
      </trkpt>
      <trkpt lat="45.7202" lon="4.43941">
        <ele>673</ele>
        <time>2016-04-10T11:41:32Z</time>
      </trkpt>
      <trkpt lat="45.72016" lon="4.43936">
        <ele>672</ele>
        <time>2016-04-10T11:41:36Z</time>
      </trkpt>
      <trkpt lat="45.72012" lon="4.43931">
        <ele>674</ele>
        <time>2016-04-10T11:41:41Z</time>
      </trkpt>
      <trkpt lat="45.72008" lon="4.43926">
        <ele>676</ele>
        <time>2016-04-10T11:41:44Z</time>
      </trkpt>
      <trkpt lat="45.72004" lon="4.43919">
        <ele>677</ele>
        <time>2016-04-10T11:41:49Z</time>
      </trkpt>
      <trkpt lat="45.72001" lon="4.43912">
        <ele>677</ele>
        <time>2016-04-10T11:41:53Z</time>
      </trkpt>
      <trkpt lat="45.71997" lon="4.43907">
        <ele>679</ele>
        <time>2016-04-10T11:41:58Z</time>
      </trkpt>
      <trkpt lat="45.71995" lon="4.43901">
        <ele>679</ele>
        <time>2016-04-10T11:42:02Z</time>
      </trkpt>
      <trkpt lat="45.7199" lon="4.43896">
        <ele>680</ele>
        <time>2016-04-10T11:42:06Z</time>
      </trkpt>
      <trkpt lat="45.71988" lon="4.43889">
        <ele>681</ele>
        <time>2016-04-10T11:42:09Z</time>
      </trkpt>
      <trkpt lat="45.71983" lon="4.43885">
        <ele>684</ele>
        <time>2016-04-10T11:42:13Z</time>
      </trkpt>
      <trkpt lat="45.71979" lon="4.43878">
        <ele>684</ele>
        <time>2016-04-10T11:42:18Z</time>
      </trkpt>
      <trkpt lat="45.71977" lon="4.43871">
        <ele>684</ele>
        <time>2016-04-10T11:42:22Z</time>
      </trkpt>
      <trkpt lat="45.71973" lon="4.43866">
        <ele>684</ele>
        <time>2016-04-10T11:42:26Z</time>
      </trkpt>
      <trkpt lat="45.7197" lon="4.43859">
        <ele>684</ele>
        <time>2016-04-10T11:42:31Z</time>
      </trkpt>
      <trkpt lat="45.71966" lon="4.43856">
        <ele>682</ele>
        <time>2016-04-10T11:42:35Z</time>
      </trkpt>
      <trkpt lat="45.71962" lon="4.43853">
        <ele>681</ele>
        <time>2016-04-10T11:42:41Z</time>
      </trkpt>
      <trkpt lat="45.71961" lon="4.43846">
        <ele>679</ele>
        <time>2016-04-10T11:42:45Z</time>
      </trkpt>
      <trkpt lat="45.71959" lon="4.43839">
        <ele>679</ele>
        <time>2016-04-10T11:42:51Z</time>
      </trkpt>
      <trkpt lat="45.71958" lon="4.43833">
        <ele>679</ele>
        <time>2016-04-10T11:42:56Z</time>
      </trkpt>
      <trkpt lat="45.71956" lon="4.43825">
        <ele>679</ele>
        <time>2016-04-10T11:43:02Z</time>
      </trkpt>
      <trkpt lat="45.71956" lon="4.43817">
        <ele>678</ele>
        <time>2016-04-10T11:43:04Z</time>
      </trkpt>
      <trkpt lat="45.71954" lon="4.43811">
        <ele>679</ele>
        <time>2016-04-10T11:43:12Z</time>
      </trkpt>
      <trkpt lat="45.71953" lon="4.43801">
        <ele>677</ele>
        <time>2016-04-10T11:43:15Z</time>
      </trkpt>
      <trkpt lat="45.71953" lon="4.43794">
        <ele>678</ele>
        <time>2016-04-10T11:43:18Z</time>
      </trkpt>
      <trkpt lat="45.71953" lon="4.43787">
        <ele>678</ele>
        <time>2016-04-10T11:43:22Z</time>
      </trkpt>
      <trkpt lat="45.71951" lon="4.4378">
        <ele>678</ele>
        <time>2016-04-10T11:43:27Z</time>
      </trkpt>
      <trkpt lat="45.7195" lon="4.43773">
        <ele>679</ele>
        <time>2016-04-10T11:43:32Z</time>
      </trkpt>
      <trkpt lat="45.71949" lon="4.43767">
        <ele>678</ele>
        <time>2016-04-10T11:43:36Z</time>
      </trkpt>
      <trkpt lat="45.71947" lon="4.4376">
        <ele>678</ele>
        <time>2016-04-10T11:43:40Z</time>
      </trkpt>
      <trkpt lat="45.71947" lon="4.43752">
        <ele>677</ele>
        <time>2016-04-10T11:43:47Z</time>
      </trkpt>
      <trkpt lat="45.71946" lon="4.43745">
        <ele>677</ele>
        <time>2016-04-10T11:43:52Z</time>
      </trkpt>
      <trkpt lat="45.71945" lon="4.43737">
        <ele>677</ele>
        <time>2016-04-10T11:43:57Z</time>
      </trkpt>
      <trkpt lat="45.71944" lon="4.4373">
        <ele>677</ele>
        <time>2016-04-10T11:44:01Z</time>
      </trkpt>
      <trkpt lat="45.71944" lon="4.43723">
        <ele>677</ele>
        <time>2016-04-10T11:44:06Z</time>
      </trkpt>
      <trkpt lat="45.71943" lon="4.43713">
        <ele>674</ele>
        <time>2016-04-10T11:44:10Z</time>
      </trkpt>
      <trkpt lat="45.71942" lon="4.43705">
        <ele>672</ele>
        <time>2016-04-10T11:44:12Z</time>
      </trkpt>
      <trkpt lat="45.71942" lon="4.43698">
        <ele>673</ele>
        <time>2016-04-10T11:44:19Z</time>
      </trkpt>
      <trkpt lat="45.71943" lon="4.43691">
        <ele>672</ele>
        <time>2016-04-10T11:44:24Z</time>
      </trkpt>
      <trkpt lat="45.71944" lon="4.43684">
        <ele>674</ele>
        <time>2016-04-10T11:44:31Z</time>
      </trkpt>
      <trkpt lat="45.71944" lon="4.43677">
        <ele>673</ele>
        <time>2016-04-10T11:44:35Z</time>
      </trkpt>
      <trkpt lat="45.71944" lon="4.4367">
        <ele>671</ele>
        <time>2016-04-10T11:44:39Z</time>
      </trkpt>
      <trkpt lat="45.71946" lon="4.43663">
        <ele>671</ele>
        <time>2016-04-10T11:44:43Z</time>
      </trkpt>
      <trkpt lat="45.71947" lon="4.43656">
        <ele>673</ele>
        <time>2016-04-10T11:44:48Z</time>
      </trkpt>
      <trkpt lat="45.71949" lon="4.43649">
        <ele>672</ele>
        <time>2016-04-10T11:44:53Z</time>
      </trkpt>
      <trkpt lat="45.71951" lon="4.43643">
        <ele>669</ele>
        <time>2016-04-10T11:44:57Z</time>
      </trkpt>
      <trkpt lat="45.71953" lon="4.43637">
        <ele>669</ele>
        <time>2016-04-10T11:45:01Z</time>
      </trkpt>
      <trkpt lat="45.71956" lon="4.43631">
        <ele>669</ele>
        <time>2016-04-10T11:45:06Z</time>
      </trkpt>
      <trkpt lat="45.71958" lon="4.43624">
        <ele>668</ele>
        <time>2016-04-10T11:45:11Z</time>
      </trkpt>
      <trkpt lat="45.71961" lon="4.43616">
        <ele>668</ele>
        <time>2016-04-10T11:45:16Z</time>
      </trkpt>
      <trkpt lat="45.71964" lon="4.4361">
        <ele>667</ele>
        <time>2016-04-10T11:45:19Z</time>
      </trkpt>
      <trkpt lat="45.71967" lon="4.43603">
        <ele>665</ele>
        <time>2016-04-10T11:45:24Z</time>
      </trkpt>
      <trkpt lat="45.71969" lon="4.43598">
        <ele>665</ele>
        <time>2016-04-10T11:45:29Z</time>
      </trkpt>
      <trkpt lat="45.71971" lon="4.43591">
        <ele>664</ele>
        <time>2016-04-10T11:45:33Z</time>
      </trkpt>
      <trkpt lat="45.71972" lon="4.43585">
        <ele>665</ele>
        <time>2016-04-10T11:45:36Z</time>
      </trkpt>
      <trkpt lat="45.71975" lon="4.4358">
        <ele>668</ele>
        <time>2016-04-10T11:45:41Z</time>
      </trkpt>
      <trkpt lat="45.71976" lon="4.43573">
        <ele>667</ele>
        <time>2016-04-10T11:45:44Z</time>
      </trkpt>
      <trkpt lat="45.71977" lon="4.43566">
        <ele>667</ele>
        <time>2016-04-10T11:45:48Z</time>
      </trkpt>
      <trkpt lat="45.71978" lon="4.43559">
        <ele>664</ele>
        <time>2016-04-10T11:45:52Z</time>
      </trkpt>
      <trkpt lat="45.7198" lon="4.43553">
        <ele>666</ele>
        <time>2016-04-10T11:45:59Z</time>
      </trkpt>
      <trkpt lat="45.7198" lon="4.43545">
        <ele>665</ele>
        <time>2016-04-10T11:46:03Z</time>
      </trkpt>
      <trkpt lat="45.7198" lon="4.43536">
        <ele>664</ele>
        <time>2016-04-10T11:46:06Z</time>
      </trkpt>
      <trkpt lat="45.71978" lon="4.43529">
        <ele>665</ele>
        <time>2016-04-10T11:46:10Z</time>
      </trkpt>
      <trkpt lat="45.71978" lon="4.43522">
        <ele>665</ele>
        <time>2016-04-10T11:46:14Z</time>
      </trkpt>
      <trkpt lat="45.71977" lon="4.43516">
        <ele>665</ele>
        <time>2016-04-10T11:46:17Z</time>
      </trkpt>
      <trkpt lat="45.71976" lon="4.43508">
        <ele>666</ele>
        <time>2016-04-10T11:46:22Z</time>
      </trkpt>
      <trkpt lat="45.71975" lon="4.435">
        <ele>665</ele>
        <time>2016-04-10T11:46:26Z</time>
      </trkpt>
      <trkpt lat="45.71974" lon="4.43492">
        <ele>662</ele>
        <time>2016-04-10T11:46:30Z</time>
      </trkpt>
      <trkpt lat="45.71973" lon="4.43486">
        <ele>661</ele>
        <time>2016-04-10T11:46:34Z</time>
      </trkpt>
      <trkpt lat="45.71971" lon="4.43479">
        <ele>662</ele>
        <time>2016-04-10T11:46:38Z</time>
      </trkpt>
      <trkpt lat="45.71969" lon="4.43472">
        <ele>661</ele>
        <time>2016-04-10T11:46:42Z</time>
      </trkpt>
      <trkpt lat="45.71968" lon="4.43465">
        <ele>662</ele>
        <time>2016-04-10T11:46:47Z</time>
      </trkpt>
      <trkpt lat="45.71967" lon="4.43459">
        <ele>661</ele>
        <time>2016-04-10T11:46:53Z</time>
      </trkpt>
      <trkpt lat="45.71971" lon="4.43455">
        <ele>665</ele>
        <time>2016-04-10T11:47:14Z</time>
      </trkpt>
      <trkpt lat="45.71975" lon="4.43453">
        <ele>668</ele>
        <time>2016-04-10T11:47:24Z</time>
      </trkpt>
      <trkpt lat="45.71975" lon="4.43446">
        <ele>668</ele>
        <time>2016-04-10T11:47:27Z</time>
      </trkpt>
      <trkpt lat="45.71972" lon="4.4344">
        <ele>669</ele>
        <time>2016-04-10T11:47:33Z</time>
      </trkpt>
      <trkpt lat="45.71969" lon="4.43435">
        <ele>670</ele>
        <time>2016-04-10T11:47:38Z</time>
      </trkpt>
      <trkpt lat="45.71966" lon="4.43428">
        <ele>671</ele>
        <time>2016-04-10T11:47:43Z</time>
      </trkpt>
      <trkpt lat="45.71965" lon="4.43422">
        <ele>671</ele>
        <time>2016-04-10T11:47:59Z</time>
      </trkpt>
      <trkpt lat="45.71962" lon="4.43417">
        <ele>669</ele>
        <time>2016-04-10T11:48:36Z</time>
      </trkpt>
      <trkpt lat="45.7196" lon="4.43411">
        <ele>670</ele>
        <time>2016-04-10T11:49:16Z</time>
      </trkpt>
      <trkpt lat="45.71959" lon="4.43404">
        <ele>672</ele>
        <time>2016-04-10T11:50:19Z</time>
      </trkpt>
      <trkpt lat="45.71958" lon="4.43397">
        <ele>672</ele>
        <time>2016-04-10T11:50:26Z</time>
      </trkpt>
      <trkpt lat="45.71955" lon="4.43391">
        <ele>674</ele>
        <time>2016-04-10T11:50:35Z</time>
      </trkpt>
      <trkpt lat="45.71954" lon="4.4338">
        <ele>671</ele>
        <time>2016-04-10T11:50:37Z</time>
      </trkpt>
      <trkpt lat="45.71951" lon="4.43374">
        <ele>670</ele>
        <time>2016-04-10T11:50:40Z</time>
      </trkpt>
      <trkpt lat="45.71949" lon="4.43367">
        <ele>670</ele>
        <time>2016-04-10T11:50:44Z</time>
      </trkpt>
      <trkpt lat="45.71947" lon="4.4336">
        <ele>670</ele>
        <time>2016-04-10T11:50:49Z</time>
      </trkpt>
      <trkpt lat="45.71944" lon="4.43354">
        <ele>670</ele>
        <time>2016-04-10T11:50:54Z</time>
      </trkpt>
      <trkpt lat="45.71941" lon="4.43347">
        <ele>671</ele>
        <time>2016-04-10T11:51:00Z</time>
      </trkpt>
      <trkpt lat="45.71937" lon="4.43343">
        <ele>671</ele>
        <time>2016-04-10T11:51:04Z</time>
      </trkpt>
    </trkseg>
  </trk>
</gpx>